<?xml version="1.0" encoding="UTF-8" standalone="no" ?>
<gpx xmlns="http://www.topografix.com/GPX/1/1" xmlns:xsi="http://www.w3.org/2001/XMLSchema-instance" xsi:schemaLocation="http://www.topografix.com/GPX/1/1 http://www.topografix.com/GPX/1/1/gpx.xsd" version="1.1" creator="VisuGPX - https://www.visugpx.com">
  <metadata>
    <name>La 4ème rando d\'AlBuga au Bugue</name>
    <desc><![CDATA[La 4ème rando d\'AlBuga au Bugue]]></desc>
  </metadata>
  <trk>
    <name><![CDATA[La 4ème rando d\'AlBuga au Bugue_1]]></name>
    <trkseg>
      <trkpt lat="44.90834" lon="0.92896">
        <ele>56</ele>
        <time>2012-10-21T06:04:18Z</time>
      </trkpt>
      <trkpt lat="44.90806" lon="0.92901">
        <ele>53</ele>
        <time>2012-10-21T06:09:29Z</time>
      </trkpt>
      <trkpt lat="44.90798" lon="0.92905">
        <ele>53</ele>
        <time>2012-10-21T06:09:31Z</time>
      </trkpt>
      <trkpt lat="44.90791" lon="0.92911">
        <ele>53</ele>
        <time>2012-10-21T06:09:33Z</time>
      </trkpt>
      <trkpt lat="44.90784" lon="0.92918">
        <ele>53</ele>
        <time>2012-10-21T06:09:35Z</time>
      </trkpt>
      <trkpt lat="44.90778" lon="0.92924">
        <ele>53</ele>
        <time>2012-10-21T06:09:37Z</time>
      </trkpt>
      <trkpt lat="44.9077" lon="0.92931">
        <ele>53</ele>
        <time>2012-10-21T06:09:39Z</time>
      </trkpt>
      <trkpt lat="44.90763" lon="0.92936">
        <ele>53</ele>
        <time>2012-10-21T06:09:41Z</time>
      </trkpt>
      <trkpt lat="44.90754" lon="0.92943">
        <ele>53</ele>
        <time>2012-10-21T06:09:43Z</time>
      </trkpt>
      <trkpt lat="44.90746" lon="0.92949">
        <ele>53</ele>
        <time>2012-10-21T06:09:45Z</time>
      </trkpt>
      <trkpt lat="44.90737" lon="0.92954">
        <ele>53</ele>
        <time>2012-10-21T06:09:47Z</time>
      </trkpt>
      <trkpt lat="44.90729" lon="0.92958">
        <ele>53</ele>
        <time>2012-10-21T06:09:49Z</time>
      </trkpt>
      <trkpt lat="44.90719" lon="0.9296">
        <ele>53</ele>
        <time>2012-10-21T06:09:51Z</time>
      </trkpt>
      <trkpt lat="44.9071" lon="0.92958">
        <ele>53</ele>
        <time>2012-10-21T06:09:53Z</time>
      </trkpt>
      <trkpt lat="44.90702" lon="0.92953">
        <ele>53</ele>
        <time>2012-10-21T06:09:55Z</time>
      </trkpt>
      <trkpt lat="44.90694" lon="0.92946">
        <ele>53</ele>
        <time>2012-10-21T06:09:57Z</time>
      </trkpt>
      <trkpt lat="44.90687" lon="0.92939">
        <ele>53</ele>
        <time>2012-10-21T06:09:59Z</time>
      </trkpt>
      <trkpt lat="44.90679" lon="0.92931">
        <ele>53</ele>
        <time>2012-10-21T06:10:01Z</time>
      </trkpt>
      <trkpt lat="44.90671" lon="0.92925">
        <ele>53</ele>
        <time>2012-10-21T06:10:03Z</time>
      </trkpt>
      <trkpt lat="44.90658" lon="0.92916">
        <ele>53</ele>
        <time>2012-10-21T06:10:06Z</time>
      </trkpt>
      <trkpt lat="44.90649" lon="0.92911">
        <ele>53</ele>
        <time>2012-10-21T06:10:08Z</time>
      </trkpt>
      <trkpt lat="44.90639" lon="0.9291">
        <ele>53</ele>
        <time>2012-10-21T06:10:10Z</time>
      </trkpt>
      <trkpt lat="44.9063" lon="0.92914">
        <ele>53</ele>
        <time>2012-10-21T06:10:12Z</time>
      </trkpt>
      <trkpt lat="44.90622" lon="0.9292">
        <ele>53</ele>
        <time>2012-10-21T06:10:14Z</time>
      </trkpt>
      <trkpt lat="44.90613" lon="0.92928">
        <ele>53</ele>
        <time>2012-10-21T06:10:16Z</time>
      </trkpt>
      <trkpt lat="44.90605" lon="0.92936">
        <ele>53</ele>
        <time>2012-10-21T06:10:18Z</time>
      </trkpt>
      <trkpt lat="44.90595" lon="0.92943">
        <ele>53</ele>
        <time>2012-10-21T06:10:20Z</time>
      </trkpt>
      <trkpt lat="44.90586" lon="0.92951">
        <ele>53</ele>
        <time>2012-10-21T06:10:22Z</time>
      </trkpt>
      <trkpt lat="44.90577" lon="0.92958">
        <ele>53</ele>
        <time>2012-10-21T06:10:24Z</time>
      </trkpt>
      <trkpt lat="44.9057" lon="0.92963">
        <ele>53</ele>
        <time>2012-10-21T06:10:26Z</time>
      </trkpt>
      <trkpt lat="44.90564" lon="0.92964">
        <ele>53</ele>
        <time>2012-10-21T06:10:28Z</time>
      </trkpt>
      <trkpt lat="44.90556" lon="0.92957">
        <ele>54</ele>
        <time>2012-10-21T06:10:30Z</time>
      </trkpt>
      <trkpt lat="44.90549" lon="0.92944">
        <ele>54</ele>
        <time>2012-10-21T06:10:32Z</time>
      </trkpt>
      <trkpt lat="44.90541" lon="0.92929">
        <ele>54</ele>
        <time>2012-10-21T06:10:34Z</time>
      </trkpt>
      <trkpt lat="44.90533" lon="0.9291">
        <ele>54</ele>
        <time>2012-10-21T06:10:36Z</time>
      </trkpt>
      <trkpt lat="44.90525" lon="0.92892">
        <ele>54</ele>
        <time>2012-10-21T06:10:38Z</time>
      </trkpt>
      <trkpt lat="44.90516" lon="0.92872">
        <ele>54</ele>
        <time>2012-10-21T06:10:40Z</time>
      </trkpt>
      <trkpt lat="44.90507" lon="0.92852">
        <ele>54</ele>
        <time>2012-10-21T06:10:42Z</time>
      </trkpt>
      <trkpt lat="44.90499" lon="0.92831">
        <ele>54</ele>
        <time>2012-10-21T06:10:44Z</time>
      </trkpt>
      <trkpt lat="44.9049" lon="0.92811">
        <ele>54</ele>
        <time>2012-10-21T06:10:46Z</time>
      </trkpt>
      <trkpt lat="44.9048" lon="0.92791">
        <ele>54</ele>
        <time>2012-10-21T06:10:48Z</time>
      </trkpt>
      <trkpt lat="44.9047" lon="0.92773">
        <ele>54</ele>
        <time>2012-10-21T06:10:50Z</time>
      </trkpt>
      <trkpt lat="44.90459" lon="0.92755">
        <ele>54</ele>
        <time>2012-10-21T06:10:52Z</time>
      </trkpt>
      <trkpt lat="44.9045" lon="0.92738">
        <ele>54</ele>
        <time>2012-10-21T06:10:54Z</time>
      </trkpt>
      <trkpt lat="44.90439" lon="0.92721">
        <ele>54</ele>
        <time>2012-10-21T06:10:56Z</time>
      </trkpt>
      <trkpt lat="44.90428" lon="0.92705">
        <ele>54</ele>
        <time>2012-10-21T06:10:58Z</time>
      </trkpt>
      <trkpt lat="44.90416" lon="0.92689">
        <ele>54</ele>
        <time>2012-10-21T06:11:00Z</time>
      </trkpt>
      <trkpt lat="44.90406" lon="0.92674">
        <ele>54</ele>
        <time>2012-10-21T06:11:02Z</time>
      </trkpt>
      <trkpt lat="44.90396" lon="0.9266">
        <ele>54</ele>
        <time>2012-10-21T06:11:04Z</time>
      </trkpt>
      <trkpt lat="44.90387" lon="0.92647">
        <ele>55</ele>
        <time>2012-10-21T06:11:06Z</time>
      </trkpt>
      <trkpt lat="44.90376" lon="0.92633">
        <ele>55</ele>
        <time>2012-10-21T06:11:08Z</time>
      </trkpt>
      <trkpt lat="44.90366" lon="0.92619">
        <ele>55</ele>
        <time>2012-10-21T06:11:10Z</time>
      </trkpt>
      <trkpt lat="44.90356" lon="0.92605">
        <ele>55</ele>
        <time>2012-10-21T06:11:12Z</time>
      </trkpt>
      <trkpt lat="44.90347" lon="0.92591">
        <ele>55</ele>
        <time>2012-10-21T06:11:14Z</time>
      </trkpt>
      <trkpt lat="44.90339" lon="0.92579">
        <ele>55</ele>
        <time>2012-10-21T06:11:16Z</time>
      </trkpt>
      <trkpt lat="44.90333" lon="0.92571">
        <ele>55</ele>
        <time>2012-10-21T06:11:18Z</time>
      </trkpt>
      <trkpt lat="44.90326" lon="0.92571">
        <ele>55</ele>
        <time>2012-10-21T06:11:20Z</time>
      </trkpt>
      <trkpt lat="44.90321" lon="0.92579">
        <ele>55</ele>
        <time>2012-10-21T06:11:22Z</time>
      </trkpt>
      <trkpt lat="44.90319" lon="0.92591">
        <ele>55</ele>
        <time>2012-10-21T06:11:24Z</time>
      </trkpt>
      <trkpt lat="44.9031" lon="0.92603">
        <ele>55</ele>
        <time>2012-10-21T06:11:27Z</time>
      </trkpt>
      <trkpt lat="44.90303" lon="0.92601">
        <ele>55</ele>
        <time>2012-10-21T06:11:29Z</time>
      </trkpt>
      <trkpt lat="44.90296" lon="0.92591">
        <ele>55</ele>
        <time>2012-10-21T06:11:31Z</time>
      </trkpt>
      <trkpt lat="44.90288" lon="0.9258">
        <ele>55</ele>
        <time>2012-10-21T06:11:33Z</time>
      </trkpt>
      <trkpt lat="44.90279" lon="0.92569">
        <ele>55</ele>
        <time>2012-10-21T06:11:35Z</time>
      </trkpt>
      <trkpt lat="44.9027" lon="0.9256">
        <ele>55</ele>
        <time>2012-10-21T06:11:37Z</time>
      </trkpt>
      <trkpt lat="44.9026" lon="0.92551">
        <ele>55</ele>
        <time>2012-10-21T06:11:39Z</time>
      </trkpt>
      <trkpt lat="44.90249" lon="0.92542">
        <ele>55</ele>
        <time>2012-10-21T06:11:41Z</time>
      </trkpt>
      <trkpt lat="44.90239" lon="0.92535">
        <ele>55</ele>
        <time>2012-10-21T06:11:43Z</time>
      </trkpt>
      <trkpt lat="44.90229" lon="0.92527">
        <ele>55</ele>
        <time>2012-10-21T06:11:45Z</time>
      </trkpt>
      <trkpt lat="44.90219" lon="0.92521">
        <ele>55</ele>
        <time>2012-10-21T06:11:47Z</time>
      </trkpt>
      <trkpt lat="44.90209" lon="0.92515">
        <ele>55</ele>
        <time>2012-10-21T06:11:49Z</time>
      </trkpt>
      <trkpt lat="44.90199" lon="0.92509">
        <ele>55</ele>
        <time>2012-10-21T06:11:51Z</time>
      </trkpt>
      <trkpt lat="44.90188" lon="0.92503">
        <ele>55</ele>
        <time>2012-10-21T06:11:53Z</time>
      </trkpt>
      <trkpt lat="44.90177" lon="0.92499">
        <ele>56</ele>
        <time>2012-10-21T06:11:55Z</time>
      </trkpt>
      <trkpt lat="44.90166" lon="0.92494">
        <ele>56</ele>
        <time>2012-10-21T06:11:57Z</time>
      </trkpt>
      <trkpt lat="44.9015" lon="0.92485">
        <ele>57</ele>
        <time>2012-10-21T06:12:00Z</time>
      </trkpt>
      <trkpt lat="44.90137" lon="0.92479">
        <ele>57</ele>
        <time>2012-10-21T06:12:02Z</time>
      </trkpt>
      <trkpt lat="44.90116" lon="0.9247">
        <ele>57</ele>
        <time>2012-10-21T06:12:05Z</time>
      </trkpt>
      <trkpt lat="44.90101" lon="0.92465">
        <ele>57</ele>
        <time>2012-10-21T06:12:07Z</time>
      </trkpt>
      <trkpt lat="44.90086" lon="0.92459">
        <ele>57</ele>
        <time>2012-10-21T06:12:09Z</time>
      </trkpt>
      <trkpt lat="44.90072" lon="0.92453">
        <ele>57</ele>
        <time>2012-10-21T06:12:11Z</time>
      </trkpt>
      <trkpt lat="44.90052" lon="0.92445">
        <ele>57</ele>
        <time>2012-10-21T06:12:14Z</time>
      </trkpt>
      <trkpt lat="44.9004" lon="0.92441">
        <ele>57</ele>
        <time>2012-10-21T06:12:16Z</time>
      </trkpt>
      <trkpt lat="44.90028" lon="0.92436">
        <ele>57</ele>
        <time>2012-10-21T06:12:18Z</time>
      </trkpt>
      <trkpt lat="44.90017" lon="0.92432">
        <ele>58</ele>
        <time>2012-10-21T06:12:20Z</time>
      </trkpt>
      <trkpt lat="44.90006" lon="0.92428">
        <ele>58</ele>
        <time>2012-10-21T06:12:22Z</time>
      </trkpt>
      <trkpt lat="44.89995" lon="0.92425">
        <ele>59</ele>
        <time>2012-10-21T06:12:24Z</time>
      </trkpt>
      <trkpt lat="44.89984" lon="0.92422">
        <ele>60</ele>
        <time>2012-10-21T06:12:26Z</time>
      </trkpt>
      <trkpt lat="44.89973" lon="0.92419">
        <ele>61</ele>
        <time>2012-10-21T06:12:28Z</time>
      </trkpt>
      <trkpt lat="44.89957" lon="0.92416">
        <ele>62</ele>
        <time>2012-10-21T06:12:31Z</time>
      </trkpt>
      <trkpt lat="44.89945" lon="0.92412">
        <ele>62</ele>
        <time>2012-10-21T06:12:33Z</time>
      </trkpt>
      <trkpt lat="44.89929" lon="0.92403">
        <ele>62</ele>
        <time>2012-10-21T06:12:36Z</time>
      </trkpt>
      <trkpt lat="44.89917" lon="0.92395">
        <ele>62</ele>
        <time>2012-10-21T06:12:38Z</time>
      </trkpt>
      <trkpt lat="44.89904" lon="0.92382">
        <ele>62</ele>
        <time>2012-10-21T06:12:40Z</time>
      </trkpt>
      <trkpt lat="44.8989" lon="0.9237">
        <ele>62</ele>
        <time>2012-10-21T06:12:42Z</time>
      </trkpt>
      <trkpt lat="44.89869" lon="0.92366">
        <ele>62</ele>
        <time>2012-10-21T06:12:45Z</time>
      </trkpt>
      <trkpt lat="44.89855" lon="0.92373">
        <ele>60</ele>
        <time>2012-10-21T06:12:48Z</time>
      </trkpt>
      <trkpt lat="44.89846" lon="0.92379">
        <ele>60</ele>
        <time>2012-10-21T06:12:50Z</time>
      </trkpt>
      <trkpt lat="44.89841" lon="0.92383">
        <ele>60</ele>
        <time>2012-10-21T06:12:52Z</time>
      </trkpt>
      <trkpt lat="44.89837" lon="0.92387">
        <ele>60</ele>
        <time>2012-10-21T06:12:54Z</time>
      </trkpt>
      <trkpt lat="44.89834" lon="0.92389">
        <ele>60</ele>
        <time>2012-10-21T06:12:56Z</time>
      </trkpt>
      <trkpt lat="44.89828" lon="0.92394">
        <ele>60</ele>
        <time>2012-10-21T06:12:58Z</time>
      </trkpt>
      <trkpt lat="44.89824" lon="0.92397">
        <ele>61</ele>
        <time>2012-10-21T06:13:00Z</time>
      </trkpt>
      <trkpt lat="44.89819" lon="0.92402">
        <ele>61</ele>
        <time>2012-10-21T06:13:02Z</time>
      </trkpt>
      <trkpt lat="44.89813" lon="0.92408">
        <ele>62</ele>
        <time>2012-10-21T06:13:04Z</time>
      </trkpt>
      <trkpt lat="44.89809" lon="0.92413">
        <ele>63</ele>
        <time>2012-10-21T06:13:06Z</time>
      </trkpt>
      <trkpt lat="44.89806" lon="0.92418">
        <ele>65</ele>
        <time>2012-10-21T06:13:08Z</time>
      </trkpt>
      <trkpt lat="44.89803" lon="0.92421">
        <ele>67</ele>
        <time>2012-10-21T06:13:10Z</time>
      </trkpt>
      <trkpt lat="44.898" lon="0.92425">
        <ele>69</ele>
        <time>2012-10-21T06:13:12Z</time>
      </trkpt>
      <trkpt lat="44.89795" lon="0.92427">
        <ele>71</ele>
        <time>2012-10-21T06:13:14Z</time>
      </trkpt>
      <trkpt lat="44.89791" lon="0.92427">
        <ele>73</ele>
        <time>2012-10-21T06:13:16Z</time>
      </trkpt>
      <trkpt lat="44.89788" lon="0.92425">
        <ele>74</ele>
        <time>2012-10-21T06:13:18Z</time>
      </trkpt>
      <trkpt lat="44.89783" lon="0.92422">
        <ele>75</ele>
        <time>2012-10-21T06:13:21Z</time>
      </trkpt>
      <trkpt lat="44.8978" lon="0.92421">
        <ele>75</ele>
        <time>2012-10-21T06:13:23Z</time>
      </trkpt>
      <trkpt lat="44.89775" lon="0.92421">
        <ele>75</ele>
        <time>2012-10-21T06:13:26Z</time>
      </trkpt>
      <trkpt lat="44.89773" lon="0.92419">
        <ele>76</ele>
        <time>2012-10-21T06:13:28Z</time>
      </trkpt>
      <trkpt lat="44.89769" lon="0.92419">
        <ele>76</ele>
        <time>2012-10-21T06:13:30Z</time>
      </trkpt>
      <trkpt lat="44.89766" lon="0.92418">
        <ele>77</ele>
        <time>2012-10-21T06:13:32Z</time>
      </trkpt>
      <trkpt lat="44.89764" lon="0.92417">
        <ele>77</ele>
        <time>2012-10-21T06:13:34Z</time>
      </trkpt>
      <trkpt lat="44.89761" lon="0.92416">
        <ele>77</ele>
        <time>2012-10-21T06:13:36Z</time>
      </trkpt>
      <trkpt lat="44.89758" lon="0.92415">
        <ele>77</ele>
        <time>2012-10-21T06:13:38Z</time>
      </trkpt>
      <trkpt lat="44.89756" lon="0.92414">
        <ele>77</ele>
        <time>2012-10-21T06:13:40Z</time>
      </trkpt>
      <trkpt lat="44.89752" lon="0.92412">
        <ele>77</ele>
        <time>2012-10-21T06:13:42Z</time>
      </trkpt>
      <trkpt lat="44.89748" lon="0.92412">
        <ele>77</ele>
        <time>2012-10-21T06:13:44Z</time>
      </trkpt>
      <trkpt lat="44.89742" lon="0.9241">
        <ele>77</ele>
        <time>2012-10-21T06:13:47Z</time>
      </trkpt>
      <trkpt lat="44.89737" lon="0.92409">
        <ele>77</ele>
        <time>2012-10-21T06:13:49Z</time>
      </trkpt>
      <trkpt lat="44.89733" lon="0.92409">
        <ele>77</ele>
        <time>2012-10-21T06:13:51Z</time>
      </trkpt>
      <trkpt lat="44.89729" lon="0.9241">
        <ele>77</ele>
        <time>2012-10-21T06:13:53Z</time>
      </trkpt>
      <trkpt lat="44.89725" lon="0.92411">
        <ele>77</ele>
        <time>2012-10-21T06:13:55Z</time>
      </trkpt>
      <trkpt lat="44.89721" lon="0.92412">
        <ele>77</ele>
        <time>2012-10-21T06:13:57Z</time>
      </trkpt>
      <trkpt lat="44.89716" lon="0.92414">
        <ele>78</ele>
        <time>2012-10-21T06:14:00Z</time>
      </trkpt>
      <trkpt lat="44.89712" lon="0.92414">
        <ele>78</ele>
        <time>2012-10-21T06:14:02Z</time>
      </trkpt>
      <trkpt lat="44.89709" lon="0.92413">
        <ele>78</ele>
        <time>2012-10-21T06:14:04Z</time>
      </trkpt>
      <trkpt lat="44.89704" lon="0.92414">
        <ele>78</ele>
        <time>2012-10-21T06:14:07Z</time>
      </trkpt>
      <trkpt lat="44.897" lon="0.92414">
        <ele>78</ele>
        <time>2012-10-21T06:14:09Z</time>
      </trkpt>
      <trkpt lat="44.89696" lon="0.92416">
        <ele>79</ele>
        <time>2012-10-21T06:14:11Z</time>
      </trkpt>
      <trkpt lat="44.89691" lon="0.92417">
        <ele>80</ele>
        <time>2012-10-21T06:14:13Z</time>
      </trkpt>
      <trkpt lat="44.89687" lon="0.92417">
        <ele>81</ele>
        <time>2012-10-21T06:14:16Z</time>
      </trkpt>
      <trkpt lat="44.89684" lon="0.92417">
        <ele>81</ele>
        <time>2012-10-21T06:14:18Z</time>
      </trkpt>
      <trkpt lat="44.89682" lon="0.92418">
        <ele>82</ele>
        <time>2012-10-21T06:14:20Z</time>
      </trkpt>
      <trkpt lat="44.89679" lon="0.92419">
        <ele>84</ele>
        <time>2012-10-21T06:14:22Z</time>
      </trkpt>
      <trkpt lat="44.89676" lon="0.92421">
        <ele>86</ele>
        <time>2012-10-21T06:14:24Z</time>
      </trkpt>
      <trkpt lat="44.89673" lon="0.92421">
        <ele>88</ele>
        <time>2012-10-21T06:14:26Z</time>
      </trkpt>
      <trkpt lat="44.8967" lon="0.92421">
        <ele>89</ele>
        <time>2012-10-21T06:14:28Z</time>
      </trkpt>
      <trkpt lat="44.89666" lon="0.92421">
        <ele>90</ele>
        <time>2012-10-21T06:14:30Z</time>
      </trkpt>
      <trkpt lat="44.89663" lon="0.92422">
        <ele>90</ele>
        <time>2012-10-21T06:14:32Z</time>
      </trkpt>
      <trkpt lat="44.8966" lon="0.92422">
        <ele>92</ele>
        <time>2012-10-21T06:14:34Z</time>
      </trkpt>
      <trkpt lat="44.89657" lon="0.92423">
        <ele>93</ele>
        <time>2012-10-21T06:14:36Z</time>
      </trkpt>
      <trkpt lat="44.89654" lon="0.92423">
        <ele>95</ele>
        <time>2012-10-21T06:14:38Z</time>
      </trkpt>
      <trkpt lat="44.89652" lon="0.92423">
        <ele>97</ele>
        <time>2012-10-21T06:14:40Z</time>
      </trkpt>
      <trkpt lat="44.89648" lon="0.92422">
        <ele>99</ele>
        <time>2012-10-21T06:14:43Z</time>
      </trkpt>
      <trkpt lat="44.89646" lon="0.92422">
        <ele>99</ele>
        <time>2012-10-21T06:14:45Z</time>
      </trkpt>
      <trkpt lat="44.89644" lon="0.92422">
        <ele>100</ele>
        <time>2012-10-21T06:14:47Z</time>
      </trkpt>
      <trkpt lat="44.89641" lon="0.92421">
        <ele>100</ele>
        <time>2012-10-21T06:14:49Z</time>
      </trkpt>
      <trkpt lat="44.8964" lon="0.92421">
        <ele>100</ele>
        <time>2012-10-21T06:14:51Z</time>
      </trkpt>
      <trkpt lat="44.89637" lon="0.92421">
        <ele>100</ele>
        <time>2012-10-21T06:14:53Z</time>
      </trkpt>
      <trkpt lat="44.89635" lon="0.9242">
        <ele>101</ele>
        <time>2012-10-21T06:14:55Z</time>
      </trkpt>
      <trkpt lat="44.89632" lon="0.92419">
        <ele>102</ele>
        <time>2012-10-21T06:14:57Z</time>
      </trkpt>
      <trkpt lat="44.89629" lon="0.92418">
        <ele>102</ele>
        <time>2012-10-21T06:14:59Z</time>
      </trkpt>
      <trkpt lat="44.89627" lon="0.92417">
        <ele>102</ele>
        <time>2012-10-21T06:15:01Z</time>
      </trkpt>
      <trkpt lat="44.89624" lon="0.92416">
        <ele>102</ele>
        <time>2012-10-21T06:15:03Z</time>
      </trkpt>
      <trkpt lat="44.89622" lon="0.92415">
        <ele>102</ele>
        <time>2012-10-21T06:15:05Z</time>
      </trkpt>
      <trkpt lat="44.89618" lon="0.92414">
        <ele>102</ele>
        <time>2012-10-21T06:15:07Z</time>
      </trkpt>
      <trkpt lat="44.89614" lon="0.92411">
        <ele>103</ele>
        <time>2012-10-21T06:15:10Z</time>
      </trkpt>
      <trkpt lat="44.89611" lon="0.9241">
        <ele>103</ele>
        <time>2012-10-21T06:15:12Z</time>
      </trkpt>
      <trkpt lat="44.89607" lon="0.92408">
        <ele>103</ele>
        <time>2012-10-21T06:15:14Z</time>
      </trkpt>
      <trkpt lat="44.89603" lon="0.92408">
        <ele>104</ele>
        <time>2012-10-21T06:15:16Z</time>
      </trkpt>
      <trkpt lat="44.89598" lon="0.92405">
        <ele>104</ele>
        <time>2012-10-21T06:15:19Z</time>
      </trkpt>
      <trkpt lat="44.89595" lon="0.92404">
        <ele>104</ele>
        <time>2012-10-21T06:15:22Z</time>
      </trkpt>
      <trkpt lat="44.89591" lon="0.92403">
        <ele>104</ele>
        <time>2012-10-21T06:15:24Z</time>
      </trkpt>
      <trkpt lat="44.89588" lon="0.92401">
        <ele>104</ele>
        <time>2012-10-21T06:15:26Z</time>
      </trkpt>
      <trkpt lat="44.89585" lon="0.924">
        <ele>104</ele>
        <time>2012-10-21T06:15:28Z</time>
      </trkpt>
      <trkpt lat="44.89582" lon="0.92399">
        <ele>104</ele>
        <time>2012-10-21T06:15:30Z</time>
      </trkpt>
      <trkpt lat="44.89578" lon="0.92398">
        <ele>104</ele>
        <time>2012-10-21T06:15:32Z</time>
      </trkpt>
      <trkpt lat="44.89575" lon="0.92397">
        <ele>105</ele>
        <time>2012-10-21T06:15:34Z</time>
      </trkpt>
      <trkpt lat="44.89572" lon="0.92395">
        <ele>105</ele>
        <time>2012-10-21T06:15:36Z</time>
      </trkpt>
      <trkpt lat="44.89568" lon="0.92394">
        <ele>105</ele>
        <time>2012-10-21T06:15:38Z</time>
      </trkpt>
      <trkpt lat="44.89565" lon="0.92393">
        <ele>105</ele>
        <time>2012-10-21T06:15:40Z</time>
      </trkpt>
      <trkpt lat="44.89562" lon="0.92392">
        <ele>106</ele>
        <time>2012-10-21T06:15:42Z</time>
      </trkpt>
      <trkpt lat="44.89558" lon="0.9239">
        <ele>106</ele>
        <time>2012-10-21T06:15:44Z</time>
      </trkpt>
      <trkpt lat="44.89555" lon="0.9239">
        <ele>106</ele>
        <time>2012-10-21T06:15:46Z</time>
      </trkpt>
      <trkpt lat="44.89552" lon="0.92388">
        <ele>106</ele>
        <time>2012-10-21T06:15:48Z</time>
      </trkpt>
      <trkpt lat="44.89549" lon="0.92387">
        <ele>106</ele>
        <time>2012-10-21T06:15:50Z</time>
      </trkpt>
      <trkpt lat="44.89545" lon="0.92385">
        <ele>106</ele>
        <time>2012-10-21T06:15:52Z</time>
      </trkpt>
      <trkpt lat="44.89542" lon="0.92383">
        <ele>107</ele>
        <time>2012-10-21T06:15:54Z</time>
      </trkpt>
      <trkpt lat="44.89538" lon="0.92382">
        <ele>107</ele>
        <time>2012-10-21T06:15:56Z</time>
      </trkpt>
      <trkpt lat="44.89534" lon="0.9238">
        <ele>107</ele>
        <time>2012-10-21T06:15:58Z</time>
      </trkpt>
      <trkpt lat="44.89531" lon="0.92379">
        <ele>107</ele>
        <time>2012-10-21T06:16:00Z</time>
      </trkpt>
      <trkpt lat="44.89527" lon="0.92377">
        <ele>107</ele>
        <time>2012-10-21T06:16:02Z</time>
      </trkpt>
      <trkpt lat="44.89524" lon="0.92376">
        <ele>108</ele>
        <time>2012-10-21T06:16:04Z</time>
      </trkpt>
      <trkpt lat="44.89521" lon="0.92375">
        <ele>108</ele>
        <time>2012-10-21T06:16:06Z</time>
      </trkpt>
      <trkpt lat="44.89517" lon="0.92374">
        <ele>109</ele>
        <time>2012-10-21T06:16:08Z</time>
      </trkpt>
      <trkpt lat="44.89514" lon="0.92373">
        <ele>109</ele>
        <time>2012-10-21T06:16:10Z</time>
      </trkpt>
      <trkpt lat="44.89511" lon="0.92372">
        <ele>109</ele>
        <time>2012-10-21T06:16:12Z</time>
      </trkpt>
      <trkpt lat="44.89508" lon="0.92371">
        <ele>110</ele>
        <time>2012-10-21T06:16:14Z</time>
      </trkpt>
      <trkpt lat="44.89504" lon="0.9237">
        <ele>110</ele>
        <time>2012-10-21T06:16:16Z</time>
      </trkpt>
      <trkpt lat="44.895" lon="0.9237">
        <ele>110</ele>
        <time>2012-10-21T06:16:18Z</time>
      </trkpt>
      <trkpt lat="44.89497" lon="0.92368">
        <ele>110</ele>
        <time>2012-10-21T06:16:20Z</time>
      </trkpt>
      <trkpt lat="44.8949" lon="0.92366">
        <ele>111</ele>
        <time>2012-10-21T06:16:23Z</time>
      </trkpt>
      <trkpt lat="44.89485" lon="0.92365">
        <ele>111</ele>
        <time>2012-10-21T06:16:25Z</time>
      </trkpt>
      <trkpt lat="44.89481" lon="0.92365">
        <ele>111</ele>
        <time>2012-10-21T06:16:27Z</time>
      </trkpt>
      <trkpt lat="44.89476" lon="0.92365">
        <ele>111</ele>
        <time>2012-10-21T06:16:29Z</time>
      </trkpt>
      <trkpt lat="44.89472" lon="0.92365">
        <ele>112</ele>
        <time>2012-10-21T06:16:31Z</time>
      </trkpt>
      <trkpt lat="44.89467" lon="0.92366">
        <ele>112</ele>
        <time>2012-10-21T06:16:33Z</time>
      </trkpt>
      <trkpt lat="44.89463" lon="0.92367">
        <ele>112</ele>
        <time>2012-10-21T06:16:35Z</time>
      </trkpt>
      <trkpt lat="44.89458" lon="0.92367">
        <ele>112</ele>
        <time>2012-10-21T06:16:37Z</time>
      </trkpt>
      <trkpt lat="44.89453" lon="0.92369">
        <ele>112</ele>
        <time>2012-10-21T06:16:39Z</time>
      </trkpt>
      <trkpt lat="44.89448" lon="0.9237">
        <ele>113</ele>
        <time>2012-10-21T06:16:41Z</time>
      </trkpt>
      <trkpt lat="44.89443" lon="0.9237">
        <ele>114</ele>
        <time>2012-10-21T06:16:43Z</time>
      </trkpt>
      <trkpt lat="44.89436" lon="0.9237">
        <ele>114</ele>
        <time>2012-10-21T06:16:45Z</time>
      </trkpt>
      <trkpt lat="44.89431" lon="0.9237">
        <ele>114</ele>
        <time>2012-10-21T06:16:47Z</time>
      </trkpt>
      <trkpt lat="44.89426" lon="0.9237">
        <ele>114</ele>
        <time>2012-10-21T06:16:49Z</time>
      </trkpt>
      <trkpt lat="44.89425" lon="0.92369">
        <ele>114</ele>
        <time>2012-10-21T06:17:03Z</time>
      </trkpt>
      <trkpt lat="44.89424" lon="0.92367">
        <ele>114</ele>
        <time>2012-10-21T06:17:17Z</time>
      </trkpt>
      <trkpt lat="44.8942" lon="0.92366">
        <ele>114</ele>
        <time>2012-10-21T06:17:19Z</time>
      </trkpt>
      <trkpt lat="44.89417" lon="0.92364">
        <ele>114</ele>
        <time>2012-10-21T06:17:21Z</time>
      </trkpt>
      <trkpt lat="44.89411" lon="0.92359">
        <ele>114</ele>
        <time>2012-10-21T06:17:24Z</time>
      </trkpt>
      <trkpt lat="44.89408" lon="0.92356">
        <ele>115</ele>
        <time>2012-10-21T06:17:26Z</time>
      </trkpt>
      <trkpt lat="44.89405" lon="0.92352">
        <ele>116</ele>
        <time>2012-10-21T06:17:28Z</time>
      </trkpt>
      <trkpt lat="44.89402" lon="0.92348">
        <ele>117</ele>
        <time>2012-10-21T06:17:30Z</time>
      </trkpt>
      <trkpt lat="44.894" lon="0.92345">
        <ele>118</ele>
        <time>2012-10-21T06:17:32Z</time>
      </trkpt>
      <trkpt lat="44.89397" lon="0.92342">
        <ele>120</ele>
        <time>2012-10-21T06:17:34Z</time>
      </trkpt>
      <trkpt lat="44.89393" lon="0.92334">
        <ele>121</ele>
        <time>2012-10-21T06:17:37Z</time>
      </trkpt>
      <trkpt lat="44.89389" lon="0.92329">
        <ele>122</ele>
        <time>2012-10-21T06:17:39Z</time>
      </trkpt>
      <trkpt lat="44.89385" lon="0.92325">
        <ele>123</ele>
        <time>2012-10-21T06:17:41Z</time>
      </trkpt>
      <trkpt lat="44.89379" lon="0.92324">
        <ele>123</ele>
        <time>2012-10-21T06:17:43Z</time>
      </trkpt>
      <trkpt lat="44.89373" lon="0.92326">
        <ele>123</ele>
        <time>2012-10-21T06:17:45Z</time>
      </trkpt>
      <trkpt lat="44.89364" lon="0.92331">
        <ele>123</ele>
        <time>2012-10-21T06:17:48Z</time>
      </trkpt>
      <trkpt lat="44.89356" lon="0.92336">
        <ele>123</ele>
        <time>2012-10-21T06:17:51Z</time>
      </trkpt>
      <trkpt lat="44.8935" lon="0.9234">
        <ele>123</ele>
        <time>2012-10-21T06:17:53Z</time>
      </trkpt>
      <trkpt lat="44.89343" lon="0.92342">
        <ele>123</ele>
        <time>2012-10-21T06:17:55Z</time>
      </trkpt>
      <trkpt lat="44.89336" lon="0.92345">
        <ele>123</ele>
        <time>2012-10-21T06:17:57Z</time>
      </trkpt>
      <trkpt lat="44.89328" lon="0.92348">
        <ele>123</ele>
        <time>2012-10-21T06:17:59Z</time>
      </trkpt>
      <trkpt lat="44.89321" lon="0.92351">
        <ele>123</ele>
        <time>2012-10-21T06:18:01Z</time>
      </trkpt>
      <trkpt lat="44.8931" lon="0.92355">
        <ele>123</ele>
        <time>2012-10-21T06:18:04Z</time>
      </trkpt>
      <trkpt lat="44.89304" lon="0.92358">
        <ele>123</ele>
        <time>2012-10-21T06:18:06Z</time>
      </trkpt>
      <trkpt lat="44.89298" lon="0.92364">
        <ele>123</ele>
        <time>2012-10-21T06:18:08Z</time>
      </trkpt>
      <trkpt lat="44.89293" lon="0.92373">
        <ele>123</ele>
        <time>2012-10-21T06:18:10Z</time>
      </trkpt>
      <trkpt lat="44.89283" lon="0.92388">
        <ele>123</ele>
        <time>2012-10-21T06:18:13Z</time>
      </trkpt>
      <trkpt lat="44.89276" lon="0.92399">
        <ele>123</ele>
        <time>2012-10-21T06:18:15Z</time>
      </trkpt>
      <trkpt lat="44.89267" lon="0.92409">
        <ele>123</ele>
        <time>2012-10-21T06:18:17Z</time>
      </trkpt>
      <trkpt lat="44.89259" lon="0.92419">
        <ele>123</ele>
        <time>2012-10-21T06:18:19Z</time>
      </trkpt>
      <trkpt lat="44.89251" lon="0.9243">
        <ele>123</ele>
        <time>2012-10-21T06:18:21Z</time>
      </trkpt>
      <trkpt lat="44.89242" lon="0.92441">
        <ele>123</ele>
        <time>2012-10-21T06:18:23Z</time>
      </trkpt>
      <trkpt lat="44.89235" lon="0.92453">
        <ele>123</ele>
        <time>2012-10-21T06:18:25Z</time>
      </trkpt>
      <trkpt lat="44.89225" lon="0.92477">
        <ele>123</ele>
        <time>2012-10-21T06:18:28Z</time>
      </trkpt>
      <trkpt lat="44.89218" lon="0.92493">
        <ele>123</ele>
        <time>2012-10-21T06:18:30Z</time>
      </trkpt>
      <trkpt lat="44.8921" lon="0.92519">
        <ele>122</ele>
        <time>2012-10-21T06:18:33Z</time>
      </trkpt>
      <trkpt lat="44.89208" lon="0.92535">
        <ele>122</ele>
        <time>2012-10-21T06:18:35Z</time>
      </trkpt>
      <trkpt lat="44.89206" lon="0.92547">
        <ele>122</ele>
        <time>2012-10-21T06:18:37Z</time>
      </trkpt>
      <trkpt lat="44.89204" lon="0.92562">
        <ele>121</ele>
        <time>2012-10-21T06:18:40Z</time>
      </trkpt>
      <trkpt lat="44.892" lon="0.92572">
        <ele>121</ele>
        <time>2012-10-21T06:18:43Z</time>
      </trkpt>
      <trkpt lat="44.89196" lon="0.92576">
        <ele>121</ele>
        <time>2012-10-21T06:18:45Z</time>
      </trkpt>
      <trkpt lat="44.89192" lon="0.92581">
        <ele>121</ele>
        <time>2012-10-21T06:18:47Z</time>
      </trkpt>
      <trkpt lat="44.89188" lon="0.92586">
        <ele>121</ele>
        <time>2012-10-21T06:18:49Z</time>
      </trkpt>
      <trkpt lat="44.89185" lon="0.92592">
        <ele>121</ele>
        <time>2012-10-21T06:18:51Z</time>
      </trkpt>
      <trkpt lat="44.89182" lon="0.92599">
        <ele>121</ele>
        <time>2012-10-21T06:18:53Z</time>
      </trkpt>
      <trkpt lat="44.89181" lon="0.9261">
        <ele>122</ele>
        <time>2012-10-21T06:18:56Z</time>
      </trkpt>
      <trkpt lat="44.89181" lon="0.92616">
        <ele>123</ele>
        <time>2012-10-21T06:18:58Z</time>
      </trkpt>
      <trkpt lat="44.89181" lon="0.92624">
        <ele>125</ele>
        <time>2012-10-21T06:19:00Z</time>
      </trkpt>
      <trkpt lat="44.8918" lon="0.92631">
        <ele>125</ele>
        <time>2012-10-21T06:19:02Z</time>
      </trkpt>
      <trkpt lat="44.8918" lon="0.92642">
        <ele>126</ele>
        <time>2012-10-21T06:19:05Z</time>
      </trkpt>
      <trkpt lat="44.89178" lon="0.92649">
        <ele>127</ele>
        <time>2012-10-21T06:19:07Z</time>
      </trkpt>
      <trkpt lat="44.89176" lon="0.92656">
        <ele>128</ele>
        <time>2012-10-21T06:19:09Z</time>
      </trkpt>
      <trkpt lat="44.89173" lon="0.92665">
        <ele>129</ele>
        <time>2012-10-21T06:19:12Z</time>
      </trkpt>
      <trkpt lat="44.89168" lon="0.92674">
        <ele>130</ele>
        <time>2012-10-21T06:19:15Z</time>
      </trkpt>
      <trkpt lat="44.89164" lon="0.92679">
        <ele>130</ele>
        <time>2012-10-21T06:19:17Z</time>
      </trkpt>
      <trkpt lat="44.89156" lon="0.92684">
        <ele>131</ele>
        <time>2012-10-21T06:19:20Z</time>
      </trkpt>
      <trkpt lat="44.89151" lon="0.92686">
        <ele>131</ele>
        <time>2012-10-21T06:19:22Z</time>
      </trkpt>
      <trkpt lat="44.89145" lon="0.92687">
        <ele>132</ele>
        <time>2012-10-21T06:19:24Z</time>
      </trkpt>
      <trkpt lat="44.8914" lon="0.92688">
        <ele>132</ele>
        <time>2012-10-21T06:19:26Z</time>
      </trkpt>
      <trkpt lat="44.89134" lon="0.92689">
        <ele>133</ele>
        <time>2012-10-21T06:19:28Z</time>
      </trkpt>
      <trkpt lat="44.89129" lon="0.92689">
        <ele>133</ele>
        <time>2012-10-21T06:19:30Z</time>
      </trkpt>
      <trkpt lat="44.89124" lon="0.92689">
        <ele>133</ele>
        <time>2012-10-21T06:19:32Z</time>
      </trkpt>
      <trkpt lat="44.89118" lon="0.92689">
        <ele>133</ele>
        <time>2012-10-21T06:19:34Z</time>
      </trkpt>
      <trkpt lat="44.89113" lon="0.92689">
        <ele>134</ele>
        <time>2012-10-21T06:19:36Z</time>
      </trkpt>
      <trkpt lat="44.89108" lon="0.9269">
        <ele>134</ele>
        <time>2012-10-21T06:19:38Z</time>
      </trkpt>
      <trkpt lat="44.89103" lon="0.9269">
        <ele>135</ele>
        <time>2012-10-21T06:19:40Z</time>
      </trkpt>
      <trkpt lat="44.89098" lon="0.9269">
        <ele>135</ele>
        <time>2012-10-21T06:19:42Z</time>
      </trkpt>
      <trkpt lat="44.89094" lon="0.92689">
        <ele>136</ele>
        <time>2012-10-21T06:19:44Z</time>
      </trkpt>
      <trkpt lat="44.89089" lon="0.92689">
        <ele>136</ele>
        <time>2012-10-21T06:19:46Z</time>
      </trkpt>
      <trkpt lat="44.89084" lon="0.92688">
        <ele>137</ele>
        <time>2012-10-21T06:19:48Z</time>
      </trkpt>
      <trkpt lat="44.8908" lon="0.92687">
        <ele>137</ele>
        <time>2012-10-21T06:19:50Z</time>
      </trkpt>
      <trkpt lat="44.89075" lon="0.92686">
        <ele>138</ele>
        <time>2012-10-21T06:19:52Z</time>
      </trkpt>
      <trkpt lat="44.89068" lon="0.92685">
        <ele>139</ele>
        <time>2012-10-21T06:19:55Z</time>
      </trkpt>
      <trkpt lat="44.89063" lon="0.92684">
        <ele>139</ele>
        <time>2012-10-21T06:19:57Z</time>
      </trkpt>
      <trkpt lat="44.89058" lon="0.92684">
        <ele>139</ele>
        <time>2012-10-21T06:19:59Z</time>
      </trkpt>
      <trkpt lat="44.89053" lon="0.92683">
        <ele>139</ele>
        <time>2012-10-21T06:20:01Z</time>
      </trkpt>
      <trkpt lat="44.89046" lon="0.92681">
        <ele>139</ele>
        <time>2012-10-21T06:20:04Z</time>
      </trkpt>
      <trkpt lat="44.89041" lon="0.9268">
        <ele>140</ele>
        <time>2012-10-21T06:20:06Z</time>
      </trkpt>
      <trkpt lat="44.89036" lon="0.92679">
        <ele>140</ele>
        <time>2012-10-21T06:20:08Z</time>
      </trkpt>
      <trkpt lat="44.89032" lon="0.92678">
        <ele>140</ele>
        <time>2012-10-21T06:20:10Z</time>
      </trkpt>
      <trkpt lat="44.89027" lon="0.92678">
        <ele>141</ele>
        <time>2012-10-21T06:20:12Z</time>
      </trkpt>
      <trkpt lat="44.8902" lon="0.92678">
        <ele>141</ele>
        <time>2012-10-21T06:20:15Z</time>
      </trkpt>
      <trkpt lat="44.89015" lon="0.92679">
        <ele>141</ele>
        <time>2012-10-21T06:20:17Z</time>
      </trkpt>
      <trkpt lat="44.89008" lon="0.92682">
        <ele>142</ele>
        <time>2012-10-21T06:20:20Z</time>
      </trkpt>
      <trkpt lat="44.89005" lon="0.92687">
        <ele>142</ele>
        <time>2012-10-21T06:20:22Z</time>
      </trkpt>
      <trkpt lat="44.89001" lon="0.92692">
        <ele>142</ele>
        <time>2012-10-21T06:20:24Z</time>
      </trkpt>
      <trkpt lat="44.88998" lon="0.92696">
        <ele>142</ele>
        <time>2012-10-21T06:20:26Z</time>
      </trkpt>
      <trkpt lat="44.88995" lon="0.92701">
        <ele>142</ele>
        <time>2012-10-21T06:20:28Z</time>
      </trkpt>
      <trkpt lat="44.88989" lon="0.9271">
        <ele>142</ele>
        <time>2012-10-21T06:20:31Z</time>
      </trkpt>
      <trkpt lat="44.88983" lon="0.92715">
        <ele>142</ele>
        <time>2012-10-21T06:20:33Z</time>
      </trkpt>
      <trkpt lat="44.88976" lon="0.92719">
        <ele>142</ele>
        <time>2012-10-21T06:20:35Z</time>
      </trkpt>
      <trkpt lat="44.88968" lon="0.92723">
        <ele>142</ele>
        <time>2012-10-21T06:20:37Z</time>
      </trkpt>
      <trkpt lat="44.88957" lon="0.92732">
        <ele>142</ele>
        <time>2012-10-21T06:20:40Z</time>
      </trkpt>
      <trkpt lat="44.88949" lon="0.92737">
        <ele>142</ele>
        <time>2012-10-21T06:20:42Z</time>
      </trkpt>
      <trkpt lat="44.88937" lon="0.92747">
        <ele>142</ele>
        <time>2012-10-21T06:20:45Z</time>
      </trkpt>
      <trkpt lat="44.8893" lon="0.92757">
        <ele>142</ele>
        <time>2012-10-21T06:20:47Z</time>
      </trkpt>
      <trkpt lat="44.88923" lon="0.92774">
        <ele>142</ele>
        <time>2012-10-21T06:20:50Z</time>
      </trkpt>
      <trkpt lat="44.88918" lon="0.92786">
        <ele>142</ele>
        <time>2012-10-21T06:20:52Z</time>
      </trkpt>
      <trkpt lat="44.88917" lon="0.92805">
        <ele>142</ele>
        <time>2012-10-21T06:20:55Z</time>
      </trkpt>
      <trkpt lat="44.88921" lon="0.92817">
        <ele>142</ele>
        <time>2012-10-21T06:20:57Z</time>
      </trkpt>
      <trkpt lat="44.88932" lon="0.92839">
        <ele>142</ele>
        <time>2012-10-21T06:20:59Z</time>
      </trkpt>
      <trkpt lat="44.88935" lon="0.92858">
        <ele>142</ele>
        <time>2012-10-21T06:21:02Z</time>
      </trkpt>
      <trkpt lat="44.88935" lon="0.92876">
        <ele>141</ele>
        <time>2012-10-21T06:21:04Z</time>
      </trkpt>
      <trkpt lat="44.88932" lon="0.92902">
        <ele>139</ele>
        <time>2012-10-21T06:21:07Z</time>
      </trkpt>
      <trkpt lat="44.88927" lon="0.92919">
        <ele>139</ele>
        <time>2012-10-21T06:21:09Z</time>
      </trkpt>
      <trkpt lat="44.8892" lon="0.92937">
        <ele>138</ele>
        <time>2012-10-21T06:21:11Z</time>
      </trkpt>
      <trkpt lat="44.88909" lon="0.92961">
        <ele>137</ele>
        <time>2012-10-21T06:21:14Z</time>
      </trkpt>
      <trkpt lat="44.88903" lon="0.92975">
        <ele>137</ele>
        <time>2012-10-21T06:21:16Z</time>
      </trkpt>
      <trkpt lat="44.88895" lon="0.92989">
        <ele>136</ele>
        <time>2012-10-21T06:21:18Z</time>
      </trkpt>
      <trkpt lat="44.88888" lon="0.93004">
        <ele>135</ele>
        <time>2012-10-21T06:21:20Z</time>
      </trkpt>
      <trkpt lat="44.88881" lon="0.9302">
        <ele>135</ele>
        <time>2012-10-21T06:21:22Z</time>
      </trkpt>
      <trkpt lat="44.88874" lon="0.93037">
        <ele>134</ele>
        <time>2012-10-21T06:21:24Z</time>
      </trkpt>
      <trkpt lat="44.88862" lon="0.93059">
        <ele>134</ele>
        <time>2012-10-21T06:21:27Z</time>
      </trkpt>
      <trkpt lat="44.88856" lon="0.93072">
        <ele>134</ele>
        <time>2012-10-21T06:21:29Z</time>
      </trkpt>
      <trkpt lat="44.88852" lon="0.93084">
        <ele>134</ele>
        <time>2012-10-21T06:21:31Z</time>
      </trkpt>
      <trkpt lat="44.88847" lon="0.93095">
        <ele>134</ele>
        <time>2012-10-21T06:21:33Z</time>
      </trkpt>
      <trkpt lat="44.88843" lon="0.93107">
        <ele>135</ele>
        <time>2012-10-21T06:21:35Z</time>
      </trkpt>
      <trkpt lat="44.88838" lon="0.93116">
        <ele>137</ele>
        <time>2012-10-21T06:21:37Z</time>
      </trkpt>
      <trkpt lat="44.88834" lon="0.93125">
        <ele>139</ele>
        <time>2012-10-21T06:21:39Z</time>
      </trkpt>
      <trkpt lat="44.8883" lon="0.93133">
        <ele>139</ele>
        <time>2012-10-21T06:21:41Z</time>
      </trkpt>
      <trkpt lat="44.88826" lon="0.9314">
        <ele>140</ele>
        <time>2012-10-21T06:21:43Z</time>
      </trkpt>
      <trkpt lat="44.88826" lon="0.93148">
        <ele>141</ele>
        <time>2012-10-21T06:21:45Z</time>
      </trkpt>
      <trkpt lat="44.88829" lon="0.93155">
        <ele>141</ele>
        <time>2012-10-21T06:21:47Z</time>
      </trkpt>
      <trkpt lat="44.88833" lon="0.93164">
        <ele>141</ele>
        <time>2012-10-21T06:21:49Z</time>
      </trkpt>
      <trkpt lat="44.8884" lon="0.93177">
        <ele>143</ele>
        <time>2012-10-21T06:21:52Z</time>
      </trkpt>
      <trkpt lat="44.88846" lon="0.93189">
        <ele>144</ele>
        <time>2012-10-21T06:21:54Z</time>
      </trkpt>
      <trkpt lat="44.88852" lon="0.93203">
        <ele>144</ele>
        <time>2012-10-21T06:21:57Z</time>
      </trkpt>
      <trkpt lat="44.88854" lon="0.93211">
        <ele>144</ele>
        <time>2012-10-21T06:21:59Z</time>
      </trkpt>
      <trkpt lat="44.88861" lon="0.93221">
        <ele>146</ele>
        <time>2012-10-21T06:22:02Z</time>
      </trkpt>
      <trkpt lat="44.88867" lon="0.93226">
        <ele>146</ele>
        <time>2012-10-21T06:22:04Z</time>
      </trkpt>
      <trkpt lat="44.88874" lon="0.93231">
        <ele>146</ele>
        <time>2012-10-21T06:22:06Z</time>
      </trkpt>
      <trkpt lat="44.8888" lon="0.93236">
        <ele>146</ele>
        <time>2012-10-21T06:22:08Z</time>
      </trkpt>
      <trkpt lat="44.88887" lon="0.93241">
        <ele>146</ele>
        <time>2012-10-21T06:22:10Z</time>
      </trkpt>
      <trkpt lat="44.88895" lon="0.93248">
        <ele>146</ele>
        <time>2012-10-21T06:22:13Z</time>
      </trkpt>
      <trkpt lat="44.88905" lon="0.93256">
        <ele>146</ele>
        <time>2012-10-21T06:22:16Z</time>
      </trkpt>
      <trkpt lat="44.8891" lon="0.93264">
        <ele>146</ele>
        <time>2012-10-21T06:22:19Z</time>
      </trkpt>
      <trkpt lat="44.88908" lon="0.93272">
        <ele>146</ele>
        <time>2012-10-21T06:22:21Z</time>
      </trkpt>
      <trkpt lat="44.889" lon="0.93285">
        <ele>146</ele>
        <time>2012-10-21T06:22:24Z</time>
      </trkpt>
      <trkpt lat="44.88894" lon="0.93294">
        <ele>146</ele>
        <time>2012-10-21T06:22:26Z</time>
      </trkpt>
      <trkpt lat="44.88885" lon="0.93308">
        <ele>146</ele>
        <time>2012-10-21T06:22:29Z</time>
      </trkpt>
      <trkpt lat="44.8888" lon="0.93317">
        <ele>146</ele>
        <time>2012-10-21T06:22:31Z</time>
      </trkpt>
      <trkpt lat="44.88871" lon="0.9333">
        <ele>146</ele>
        <time>2012-10-21T06:22:34Z</time>
      </trkpt>
      <trkpt lat="44.88866" lon="0.93339">
        <ele>146</ele>
        <time>2012-10-21T06:22:36Z</time>
      </trkpt>
      <trkpt lat="44.88856" lon="0.93353">
        <ele>146</ele>
        <time>2012-10-21T06:22:39Z</time>
      </trkpt>
      <trkpt lat="44.88849" lon="0.93363">
        <ele>146</ele>
        <time>2012-10-21T06:22:41Z</time>
      </trkpt>
      <trkpt lat="44.88839" lon="0.9338">
        <ele>146</ele>
        <time>2012-10-21T06:22:44Z</time>
      </trkpt>
      <trkpt lat="44.88832" lon="0.93391">
        <ele>146</ele>
        <time>2012-10-21T06:22:46Z</time>
      </trkpt>
      <trkpt lat="44.88822" lon="0.93408">
        <ele>146</ele>
        <time>2012-10-21T06:22:49Z</time>
      </trkpt>
      <trkpt lat="44.88816" lon="0.93419">
        <ele>146</ele>
        <time>2012-10-21T06:22:51Z</time>
      </trkpt>
      <trkpt lat="44.88804" lon="0.93433">
        <ele>146</ele>
        <time>2012-10-21T06:22:54Z</time>
      </trkpt>
      <trkpt lat="44.88796" lon="0.9344">
        <ele>146</ele>
        <time>2012-10-21T06:22:56Z</time>
      </trkpt>
      <trkpt lat="44.88782" lon="0.93442">
        <ele>146</ele>
        <time>2012-10-21T06:22:59Z</time>
      </trkpt>
      <trkpt lat="44.88772" lon="0.93441">
        <ele>146</ele>
        <time>2012-10-21T06:23:01Z</time>
      </trkpt>
      <trkpt lat="44.8876" lon="0.93446">
        <ele>146</ele>
        <time>2012-10-21T06:23:04Z</time>
      </trkpt>
      <trkpt lat="44.88754" lon="0.93452">
        <ele>146</ele>
        <time>2012-10-21T06:23:06Z</time>
      </trkpt>
      <trkpt lat="44.88747" lon="0.9346">
        <ele>146</ele>
        <time>2012-10-21T06:23:08Z</time>
      </trkpt>
      <trkpt lat="44.8874" lon="0.93469">
        <ele>145</ele>
        <time>2012-10-21T06:23:10Z</time>
      </trkpt>
      <trkpt lat="44.88733" lon="0.9348">
        <ele>144</ele>
        <time>2012-10-21T06:23:12Z</time>
      </trkpt>
      <trkpt lat="44.88727" lon="0.93492">
        <ele>144</ele>
        <time>2012-10-21T06:23:14Z</time>
      </trkpt>
      <trkpt lat="44.88719" lon="0.93501">
        <ele>143</ele>
        <time>2012-10-21T06:23:16Z</time>
      </trkpt>
      <trkpt lat="44.88704" lon="0.93508">
        <ele>141</ele>
        <time>2012-10-21T06:23:19Z</time>
      </trkpt>
      <trkpt lat="44.88692" lon="0.93513">
        <ele>141</ele>
        <time>2012-10-21T06:23:21Z</time>
      </trkpt>
      <trkpt lat="44.88682" lon="0.93517">
        <ele>140</ele>
        <time>2012-10-21T06:23:23Z</time>
      </trkpt>
      <trkpt lat="44.8867" lon="0.93522">
        <ele>139</ele>
        <time>2012-10-21T06:23:25Z</time>
      </trkpt>
      <trkpt lat="44.88658" lon="0.93527">
        <ele>138</ele>
        <time>2012-10-21T06:23:27Z</time>
      </trkpt>
      <trkpt lat="44.8865" lon="0.93536">
        <ele>136</ele>
        <time>2012-10-21T06:23:29Z</time>
      </trkpt>
      <trkpt lat="44.88644" lon="0.93557">
        <ele>134</ele>
        <time>2012-10-21T06:23:32Z</time>
      </trkpt>
      <trkpt lat="44.8864" lon="0.93573">
        <ele>133</ele>
        <time>2012-10-21T06:23:34Z</time>
      </trkpt>
      <trkpt lat="44.88637" lon="0.93589">
        <ele>133</ele>
        <time>2012-10-21T06:23:36Z</time>
      </trkpt>
      <trkpt lat="44.88633" lon="0.93604">
        <ele>133</ele>
        <time>2012-10-21T06:23:38Z</time>
      </trkpt>
      <trkpt lat="44.88624" lon="0.93615">
        <ele>133</ele>
        <time>2012-10-21T06:23:40Z</time>
      </trkpt>
      <trkpt lat="44.88614" lon="0.93629">
        <ele>133</ele>
        <time>2012-10-21T06:23:42Z</time>
      </trkpt>
      <trkpt lat="44.88604" lon="0.93639">
        <ele>133</ele>
        <time>2012-10-21T06:23:44Z</time>
      </trkpt>
      <trkpt lat="44.88599" lon="0.93646">
        <ele>133</ele>
        <time>2012-10-21T06:23:46Z</time>
      </trkpt>
      <trkpt lat="44.88595" lon="0.9365">
        <ele>133</ele>
        <time>2012-10-21T06:23:48Z</time>
      </trkpt>
      <trkpt lat="44.88592" lon="0.93647">
        <ele>133</ele>
        <time>2012-10-21T06:23:50Z</time>
      </trkpt>
      <trkpt lat="44.88593" lon="0.93642">
        <ele>132</ele>
        <time>2012-10-21T06:23:52Z</time>
      </trkpt>
      <trkpt lat="44.88596" lon="0.93631">
        <ele>131</ele>
        <time>2012-10-21T06:23:54Z</time>
      </trkpt>
      <trkpt lat="44.88599" lon="0.93615">
        <ele>129</ele>
        <time>2012-10-21T06:23:56Z</time>
      </trkpt>
      <trkpt lat="44.88601" lon="0.936">
        <ele>127</ele>
        <time>2012-10-21T06:23:58Z</time>
      </trkpt>
      <trkpt lat="44.88597" lon="0.93585">
        <ele>125</ele>
        <time>2012-10-21T06:24:00Z</time>
      </trkpt>
      <trkpt lat="44.88594" lon="0.93559">
        <ele>123</ele>
        <time>2012-10-21T06:24:02Z</time>
      </trkpt>
      <trkpt lat="44.88594" lon="0.93528">
        <ele>121</ele>
        <time>2012-10-21T06:24:04Z</time>
      </trkpt>
      <trkpt lat="44.88592" lon="0.935">
        <ele>119</ele>
        <time>2012-10-21T06:24:06Z</time>
      </trkpt>
      <trkpt lat="44.88588" lon="0.93482">
        <ele>117</ele>
        <time>2012-10-21T06:24:08Z</time>
      </trkpt>
      <trkpt lat="44.88584" lon="0.93465">
        <ele>115</ele>
        <time>2012-10-21T06:24:10Z</time>
      </trkpt>
      <trkpt lat="44.88583" lon="0.93451">
        <ele>113</ele>
        <time>2012-10-21T06:24:12Z</time>
      </trkpt>
      <trkpt lat="44.88581" lon="0.93434">
        <ele>111</ele>
        <time>2012-10-21T06:24:14Z</time>
      </trkpt>
      <trkpt lat="44.88582" lon="0.93411">
        <ele>109</ele>
        <time>2012-10-21T06:24:16Z</time>
      </trkpt>
      <trkpt lat="44.88581" lon="0.93386">
        <ele>107</ele>
        <time>2012-10-21T06:24:18Z</time>
      </trkpt>
      <trkpt lat="44.88578" lon="0.93362">
        <ele>105</ele>
        <time>2012-10-21T06:24:20Z</time>
      </trkpt>
      <trkpt lat="44.88575" lon="0.9334">
        <ele>103</ele>
        <time>2012-10-21T06:24:22Z</time>
      </trkpt>
      <trkpt lat="44.88577" lon="0.93317">
        <ele>103</ele>
        <time>2012-10-21T06:24:24Z</time>
      </trkpt>
      <trkpt lat="44.88577" lon="0.93292">
        <ele>103</ele>
        <time>2012-10-21T06:24:26Z</time>
      </trkpt>
      <trkpt lat="44.88581" lon="0.93271">
        <ele>102</ele>
        <time>2012-10-21T06:24:28Z</time>
      </trkpt>
      <trkpt lat="44.88587" lon="0.93249">
        <ele>102</ele>
        <time>2012-10-21T06:24:30Z</time>
      </trkpt>
      <trkpt lat="44.88591" lon="0.93225">
        <ele>101</ele>
        <time>2012-10-21T06:24:32Z</time>
      </trkpt>
      <trkpt lat="44.88597" lon="0.93203">
        <ele>101</ele>
        <time>2012-10-21T06:24:34Z</time>
      </trkpt>
      <trkpt lat="44.88602" lon="0.93181">
        <ele>101</ele>
        <time>2012-10-21T06:24:36Z</time>
      </trkpt>
      <trkpt lat="44.88605" lon="0.93158">
        <ele>101</ele>
        <time>2012-10-21T06:24:38Z</time>
      </trkpt>
      <trkpt lat="44.88609" lon="0.93134">
        <ele>101</ele>
        <time>2012-10-21T06:24:40Z</time>
      </trkpt>
      <trkpt lat="44.88615" lon="0.93107">
        <ele>100</ele>
        <time>2012-10-21T06:24:42Z</time>
      </trkpt>
      <trkpt lat="44.8862" lon="0.93081">
        <ele>98</ele>
        <time>2012-10-21T06:24:44Z</time>
      </trkpt>
      <trkpt lat="44.88626" lon="0.93057">
        <ele>96</ele>
        <time>2012-10-21T06:24:46Z</time>
      </trkpt>
      <trkpt lat="44.88638" lon="0.93031">
        <ele>95</ele>
        <time>2012-10-21T06:24:48Z</time>
      </trkpt>
      <trkpt lat="44.88648" lon="0.93006">
        <ele>93</ele>
        <time>2012-10-21T06:24:50Z</time>
      </trkpt>
      <trkpt lat="44.88659" lon="0.92982">
        <ele>91</ele>
        <time>2012-10-21T06:24:52Z</time>
      </trkpt>
      <trkpt lat="44.8867" lon="0.92944">
        <ele>88</ele>
        <time>2012-10-21T06:24:55Z</time>
      </trkpt>
      <trkpt lat="44.88676" lon="0.92919">
        <ele>86</ele>
        <time>2012-10-21T06:24:57Z</time>
      </trkpt>
      <trkpt lat="44.8868" lon="0.92896">
        <ele>85</ele>
        <time>2012-10-21T06:24:59Z</time>
      </trkpt>
      <trkpt lat="44.8868" lon="0.92873">
        <ele>85</ele>
        <time>2012-10-21T06:25:01Z</time>
      </trkpt>
      <trkpt lat="44.88678" lon="0.92849">
        <ele>83</ele>
        <time>2012-10-21T06:25:03Z</time>
      </trkpt>
      <trkpt lat="44.88667" lon="0.92816">
        <ele>80</ele>
        <time>2012-10-21T06:25:06Z</time>
      </trkpt>
      <trkpt lat="44.88656" lon="0.92793">
        <ele>79</ele>
        <time>2012-10-21T06:25:08Z</time>
      </trkpt>
      <trkpt lat="44.88648" lon="0.92772">
        <ele>78</ele>
        <time>2012-10-21T06:25:10Z</time>
      </trkpt>
      <trkpt lat="44.8864" lon="0.9275">
        <ele>76</ele>
        <time>2012-10-21T06:25:12Z</time>
      </trkpt>
      <trkpt lat="44.88633" lon="0.92727">
        <ele>75</ele>
        <time>2012-10-21T06:25:14Z</time>
      </trkpt>
      <trkpt lat="44.88626" lon="0.92703">
        <ele>74</ele>
        <time>2012-10-21T06:25:16Z</time>
      </trkpt>
      <trkpt lat="44.88618" lon="0.92679">
        <ele>73</ele>
        <time>2012-10-21T06:25:18Z</time>
      </trkpt>
      <trkpt lat="44.88612" lon="0.92656">
        <ele>72</ele>
        <time>2012-10-21T06:25:20Z</time>
      </trkpt>
      <trkpt lat="44.88605" lon="0.92633">
        <ele>71</ele>
        <time>2012-10-21T06:25:22Z</time>
      </trkpt>
      <trkpt lat="44.88601" lon="0.9261">
        <ele>71</ele>
        <time>2012-10-21T06:25:24Z</time>
      </trkpt>
      <trkpt lat="44.88599" lon="0.92587">
        <ele>70</ele>
        <time>2012-10-21T06:25:26Z</time>
      </trkpt>
      <trkpt lat="44.88599" lon="0.92563">
        <ele>70</ele>
        <time>2012-10-21T06:25:28Z</time>
      </trkpt>
      <trkpt lat="44.886" lon="0.9254">
        <ele>70</ele>
        <time>2012-10-21T06:25:30Z</time>
      </trkpt>
      <trkpt lat="44.88602" lon="0.92514">
        <ele>70</ele>
        <time>2012-10-21T06:25:32Z</time>
      </trkpt>
      <trkpt lat="44.88607" lon="0.92488">
        <ele>70</ele>
        <time>2012-10-21T06:25:34Z</time>
      </trkpt>
      <trkpt lat="44.88615" lon="0.92462">
        <ele>70</ele>
        <time>2012-10-21T06:25:36Z</time>
      </trkpt>
      <trkpt lat="44.88623" lon="0.92438">
        <ele>70</ele>
        <time>2012-10-21T06:25:38Z</time>
      </trkpt>
      <trkpt lat="44.88636" lon="0.92416">
        <ele>70</ele>
        <time>2012-10-21T06:25:40Z</time>
      </trkpt>
      <trkpt lat="44.88649" lon="0.92398">
        <ele>70</ele>
        <time>2012-10-21T06:25:42Z</time>
      </trkpt>
      <trkpt lat="44.88663" lon="0.92385">
        <ele>70</ele>
        <time>2012-10-21T06:25:44Z</time>
      </trkpt>
      <trkpt lat="44.88677" lon="0.92373">
        <ele>70</ele>
        <time>2012-10-21T06:25:46Z</time>
      </trkpt>
      <trkpt lat="44.88691" lon="0.92361">
        <ele>70</ele>
        <time>2012-10-21T06:25:48Z</time>
      </trkpt>
      <trkpt lat="44.88705" lon="0.92352">
        <ele>70</ele>
        <time>2012-10-21T06:25:50Z</time>
      </trkpt>
      <trkpt lat="44.88721" lon="0.92343">
        <ele>70</ele>
        <time>2012-10-21T06:25:52Z</time>
      </trkpt>
      <trkpt lat="44.88739" lon="0.92337">
        <ele>70</ele>
        <time>2012-10-21T06:25:54Z</time>
      </trkpt>
      <trkpt lat="44.88756" lon="0.92333">
        <ele>70</ele>
        <time>2012-10-21T06:25:56Z</time>
      </trkpt>
      <trkpt lat="44.88772" lon="0.92326">
        <ele>70</ele>
        <time>2012-10-21T06:25:58Z</time>
      </trkpt>
      <trkpt lat="44.88782" lon="0.92313">
        <ele>70</ele>
        <time>2012-10-21T06:26:00Z</time>
      </trkpt>
      <trkpt lat="44.88789" lon="0.92295">
        <ele>70</ele>
        <time>2012-10-21T06:26:02Z</time>
      </trkpt>
      <trkpt lat="44.88794" lon="0.92274">
        <ele>69</ele>
        <time>2012-10-21T06:26:04Z</time>
      </trkpt>
      <trkpt lat="44.88797" lon="0.92254">
        <ele>69</ele>
        <time>2012-10-21T06:26:06Z</time>
      </trkpt>
      <trkpt lat="44.88798" lon="0.92231">
        <ele>68</ele>
        <time>2012-10-21T06:26:08Z</time>
      </trkpt>
      <trkpt lat="44.88798" lon="0.92209">
        <ele>67</ele>
        <time>2012-10-21T06:26:10Z</time>
      </trkpt>
      <trkpt lat="44.88798" lon="0.92188">
        <ele>66</ele>
        <time>2012-10-21T06:26:12Z</time>
      </trkpt>
      <trkpt lat="44.88799" lon="0.92166">
        <ele>65</ele>
        <time>2012-10-21T06:26:14Z</time>
      </trkpt>
      <trkpt lat="44.888" lon="0.92145">
        <ele>65</ele>
        <time>2012-10-21T06:26:16Z</time>
      </trkpt>
      <trkpt lat="44.88803" lon="0.92124">
        <ele>65</ele>
        <time>2012-10-21T06:26:18Z</time>
      </trkpt>
      <trkpt lat="44.88802" lon="0.92102">
        <ele>65</ele>
        <time>2012-10-21T06:26:20Z</time>
      </trkpt>
      <trkpt lat="44.88801" lon="0.92078">
        <ele>65</ele>
        <time>2012-10-21T06:26:22Z</time>
      </trkpt>
      <trkpt lat="44.888" lon="0.92053">
        <ele>64</ele>
        <time>2012-10-21T06:26:24Z</time>
      </trkpt>
      <trkpt lat="44.88797" lon="0.92028">
        <ele>63</ele>
        <time>2012-10-21T06:26:26Z</time>
      </trkpt>
      <trkpt lat="44.88797" lon="0.92003">
        <ele>63</ele>
        <time>2012-10-21T06:26:28Z</time>
      </trkpt>
      <trkpt lat="44.88795" lon="0.91982">
        <ele>61</ele>
        <time>2012-10-21T06:26:30Z</time>
      </trkpt>
      <trkpt lat="44.88796" lon="0.91962">
        <ele>59</ele>
        <time>2012-10-21T06:26:32Z</time>
      </trkpt>
      <trkpt lat="44.88801" lon="0.91944">
        <ele>57</ele>
        <time>2012-10-21T06:26:34Z</time>
      </trkpt>
      <trkpt lat="44.8881" lon="0.91926">
        <ele>56</ele>
        <time>2012-10-21T06:26:36Z</time>
      </trkpt>
      <trkpt lat="44.88816" lon="0.91913">
        <ele>56</ele>
        <time>2012-10-21T06:26:38Z</time>
      </trkpt>
      <trkpt lat="44.88827" lon="0.91898">
        <ele>56</ele>
        <time>2012-10-21T06:26:40Z</time>
      </trkpt>
      <trkpt lat="44.88839" lon="0.91885">
        <ele>56</ele>
        <time>2012-10-21T06:26:42Z</time>
      </trkpt>
      <trkpt lat="44.88854" lon="0.91873">
        <ele>56</ele>
        <time>2012-10-21T06:26:44Z</time>
      </trkpt>
      <trkpt lat="44.88869" lon="0.91861">
        <ele>56</ele>
        <time>2012-10-21T06:26:46Z</time>
      </trkpt>
      <trkpt lat="44.88884" lon="0.91848">
        <ele>56</ele>
        <time>2012-10-21T06:26:48Z</time>
      </trkpt>
      <trkpt lat="44.889" lon="0.91835">
        <ele>56</ele>
        <time>2012-10-21T06:26:50Z</time>
      </trkpt>
      <trkpt lat="44.88915" lon="0.91822">
        <ele>56</ele>
        <time>2012-10-21T06:26:52Z</time>
      </trkpt>
      <trkpt lat="44.8893" lon="0.91811">
        <ele>56</ele>
        <time>2012-10-21T06:26:54Z</time>
      </trkpt>
      <trkpt lat="44.88945" lon="0.91798">
        <ele>55</ele>
        <time>2012-10-21T06:26:56Z</time>
      </trkpt>
      <trkpt lat="44.8896" lon="0.91785">
        <ele>55</ele>
        <time>2012-10-21T06:26:58Z</time>
      </trkpt>
      <trkpt lat="44.88974" lon="0.91772">
        <ele>54</ele>
        <time>2012-10-21T06:27:00Z</time>
      </trkpt>
      <trkpt lat="44.88984" lon="0.91755">
        <ele>54</ele>
        <time>2012-10-21T06:27:02Z</time>
      </trkpt>
      <trkpt lat="44.88987" lon="0.91736">
        <ele>53</ele>
        <time>2012-10-21T06:27:04Z</time>
      </trkpt>
      <trkpt lat="44.88987" lon="0.91715">
        <ele>52</ele>
        <time>2012-10-21T06:27:06Z</time>
      </trkpt>
      <trkpt lat="44.88989" lon="0.91692">
        <ele>52</ele>
        <time>2012-10-21T06:27:08Z</time>
      </trkpt>
      <trkpt lat="44.88994" lon="0.9167">
        <ele>51</ele>
        <time>2012-10-21T06:27:10Z</time>
      </trkpt>
      <trkpt lat="44.89009" lon="0.91645">
        <ele>51</ele>
        <time>2012-10-21T06:27:12Z</time>
      </trkpt>
      <trkpt lat="44.89024" lon="0.91624">
        <ele>49</ele>
        <time>2012-10-21T06:27:14Z</time>
      </trkpt>
      <trkpt lat="44.89037" lon="0.91608">
        <ele>48</ele>
        <time>2012-10-21T06:27:16Z</time>
      </trkpt>
      <trkpt lat="44.89045" lon="0.91597">
        <ele>47</ele>
        <time>2012-10-21T06:27:18Z</time>
      </trkpt>
      <trkpt lat="44.89045" lon="0.91583">
        <ele>46</ele>
        <time>2012-10-21T06:27:20Z</time>
      </trkpt>
      <trkpt lat="44.89038" lon="0.9157">
        <ele>46</ele>
        <time>2012-10-21T06:27:22Z</time>
      </trkpt>
      <trkpt lat="44.89028" lon="0.91556">
        <ele>45</ele>
        <time>2012-10-21T06:27:24Z</time>
      </trkpt>
      <trkpt lat="44.89019" lon="0.91542">
        <ele>44</ele>
        <time>2012-10-21T06:27:26Z</time>
      </trkpt>
      <trkpt lat="44.8901" lon="0.9153">
        <ele>44</ele>
        <time>2012-10-21T06:27:28Z</time>
      </trkpt>
      <trkpt lat="44.89002" lon="0.9152">
        <ele>44</ele>
        <time>2012-10-21T06:27:30Z</time>
      </trkpt>
      <trkpt lat="44.88993" lon="0.91511">
        <ele>44</ele>
        <time>2012-10-21T06:27:32Z</time>
      </trkpt>
      <trkpt lat="44.88985" lon="0.91506">
        <ele>46</ele>
        <time>2012-10-21T06:27:34Z</time>
      </trkpt>
      <trkpt lat="44.88978" lon="0.91504">
        <ele>48</ele>
        <time>2012-10-21T06:27:36Z</time>
      </trkpt>
      <trkpt lat="44.88972" lon="0.91505">
        <ele>50</ele>
        <time>2012-10-21T06:27:38Z</time>
      </trkpt>
      <trkpt lat="44.88967" lon="0.91508">
        <ele>51</ele>
        <time>2012-10-21T06:27:40Z</time>
      </trkpt>
      <trkpt lat="44.88962" lon="0.91509">
        <ele>52</ele>
        <time>2012-10-21T06:27:42Z</time>
      </trkpt>
      <trkpt lat="44.88958" lon="0.9151">
        <ele>52</ele>
        <time>2012-10-21T06:27:44Z</time>
      </trkpt>
      <trkpt lat="44.88955" lon="0.91511">
        <ele>52</ele>
        <time>2012-10-21T06:27:46Z</time>
      </trkpt>
      <trkpt lat="44.88952" lon="0.91513">
        <ele>52</ele>
        <time>2012-10-21T06:27:48Z</time>
      </trkpt>
      <trkpt lat="44.8895" lon="0.91513">
        <ele>52</ele>
        <time>2012-10-21T06:27:50Z</time>
      </trkpt>
      <trkpt lat="44.8895" lon="0.91509">
        <ele>52</ele>
        <time>2012-10-21T06:27:52Z</time>
      </trkpt>
      <trkpt lat="44.88954" lon="0.91506">
        <ele>52</ele>
        <time>2012-10-21T06:27:54Z</time>
      </trkpt>
      <trkpt lat="44.88959" lon="0.91502">
        <ele>52</ele>
        <time>2012-10-21T06:27:56Z</time>
      </trkpt>
      <trkpt lat="44.8896" lon="0.91496">
        <ele>52</ele>
        <time>2012-10-21T06:27:58Z</time>
      </trkpt>
      <trkpt lat="44.88959" lon="0.91491">
        <ele>52</ele>
        <time>2012-10-21T06:28:00Z</time>
      </trkpt>
      <trkpt lat="44.88955" lon="0.91486">
        <ele>53</ele>
        <time>2012-10-21T06:28:02Z</time>
      </trkpt>
      <trkpt lat="44.88951" lon="0.91482">
        <ele>54</ele>
        <time>2012-10-21T06:28:04Z</time>
      </trkpt>
      <trkpt lat="44.88947" lon="0.91478">
        <ele>55</ele>
        <time>2012-10-21T06:28:06Z</time>
      </trkpt>
      <trkpt lat="44.88943" lon="0.91472">
        <ele>56</ele>
        <time>2012-10-21T06:28:08Z</time>
      </trkpt>
      <trkpt lat="44.88938" lon="0.91466">
        <ele>56</ele>
        <time>2012-10-21T06:28:10Z</time>
      </trkpt>
      <trkpt lat="44.88932" lon="0.91458">
        <ele>56</ele>
        <time>2012-10-21T06:28:12Z</time>
      </trkpt>
      <trkpt lat="44.88925" lon="0.91449">
        <ele>56</ele>
        <time>2012-10-21T06:28:14Z</time>
      </trkpt>
      <trkpt lat="44.88918" lon="0.91439">
        <ele>56</ele>
        <time>2012-10-21T06:28:16Z</time>
      </trkpt>
      <trkpt lat="44.88912" lon="0.91427">
        <ele>56</ele>
        <time>2012-10-21T06:28:18Z</time>
      </trkpt>
      <trkpt lat="44.88903" lon="0.91415">
        <ele>56</ele>
        <time>2012-10-21T06:28:20Z</time>
      </trkpt>
      <trkpt lat="44.88892" lon="0.91401">
        <ele>56</ele>
        <time>2012-10-21T06:28:22Z</time>
      </trkpt>
      <trkpt lat="44.88881" lon="0.91387">
        <ele>56</ele>
        <time>2012-10-21T06:28:24Z</time>
      </trkpt>
      <trkpt lat="44.88869" lon="0.91373">
        <ele>54</ele>
        <time>2012-10-21T06:28:26Z</time>
      </trkpt>
      <trkpt lat="44.88859" lon="0.91358">
        <ele>52</ele>
        <time>2012-10-21T06:28:28Z</time>
      </trkpt>
      <trkpt lat="44.88846" lon="0.91345">
        <ele>51</ele>
        <time>2012-10-21T06:28:30Z</time>
      </trkpt>
      <trkpt lat="44.88834" lon="0.91336">
        <ele>50</ele>
        <time>2012-10-21T06:28:32Z</time>
      </trkpt>
      <trkpt lat="44.88823" lon="0.91328">
        <ele>48</ele>
        <time>2012-10-21T06:28:34Z</time>
      </trkpt>
      <trkpt lat="44.88819" lon="0.91317">
        <ele>47</ele>
        <time>2012-10-21T06:28:36Z</time>
      </trkpt>
      <trkpt lat="44.88822" lon="0.91306">
        <ele>46</ele>
        <time>2012-10-21T06:28:38Z</time>
      </trkpt>
      <trkpt lat="44.88829" lon="0.91294">
        <ele>44</ele>
        <time>2012-10-21T06:28:40Z</time>
      </trkpt>
      <trkpt lat="44.88835" lon="0.91285">
        <ele>44</ele>
        <time>2012-10-21T06:28:42Z</time>
      </trkpt>
      <trkpt lat="44.88834" lon="0.91274">
        <ele>43</ele>
        <time>2012-10-21T06:28:44Z</time>
      </trkpt>
      <trkpt lat="44.8883" lon="0.91265">
        <ele>43</ele>
        <time>2012-10-21T06:28:46Z</time>
      </trkpt>
      <trkpt lat="44.88832" lon="0.91259">
        <ele>43</ele>
        <time>2012-10-21T06:28:48Z</time>
      </trkpt>
      <trkpt lat="44.8884" lon="0.91261">
        <ele>43</ele>
        <time>2012-10-21T06:28:50Z</time>
      </trkpt>
      <trkpt lat="44.88849" lon="0.91269">
        <ele>43</ele>
        <time>2012-10-21T06:28:52Z</time>
      </trkpt>
      <trkpt lat="44.88859" lon="0.91275">
        <ele>43</ele>
        <time>2012-10-21T06:28:54Z</time>
      </trkpt>
      <trkpt lat="44.88869" lon="0.91269">
        <ele>43</ele>
        <time>2012-10-21T06:28:56Z</time>
      </trkpt>
      <trkpt lat="44.8888" lon="0.91254">
        <ele>43</ele>
        <time>2012-10-21T06:28:58Z</time>
      </trkpt>
      <trkpt lat="44.88891" lon="0.91238">
        <ele>43</ele>
        <time>2012-10-21T06:29:00Z</time>
      </trkpt>
      <trkpt lat="44.889" lon="0.91227">
        <ele>43</ele>
        <time>2012-10-21T06:29:02Z</time>
      </trkpt>
      <trkpt lat="44.88906" lon="0.91217">
        <ele>43</ele>
        <time>2012-10-21T06:29:04Z</time>
      </trkpt>
      <trkpt lat="44.88913" lon="0.91208">
        <ele>43</ele>
        <time>2012-10-21T06:29:06Z</time>
      </trkpt>
      <trkpt lat="44.88921" lon="0.91197">
        <ele>43</ele>
        <time>2012-10-21T06:29:08Z</time>
      </trkpt>
      <trkpt lat="44.8893" lon="0.91186">
        <ele>43</ele>
        <time>2012-10-21T06:29:10Z</time>
      </trkpt>
      <trkpt lat="44.88939" lon="0.91176">
        <ele>43</ele>
        <time>2012-10-21T06:29:12Z</time>
      </trkpt>
      <trkpt lat="44.88942" lon="0.91166">
        <ele>43</ele>
        <time>2012-10-21T06:29:14Z</time>
      </trkpt>
      <trkpt lat="44.88939" lon="0.91155">
        <ele>43</ele>
        <time>2012-10-21T06:29:16Z</time>
      </trkpt>
      <trkpt lat="44.88932" lon="0.91142">
        <ele>41</ele>
        <time>2012-10-21T06:29:18Z</time>
      </trkpt>
      <trkpt lat="44.88926" lon="0.91129">
        <ele>40</ele>
        <time>2012-10-21T06:29:20Z</time>
      </trkpt>
      <trkpt lat="44.88921" lon="0.91115">
        <ele>39</ele>
        <time>2012-10-21T06:29:22Z</time>
      </trkpt>
      <trkpt lat="44.88915" lon="0.91101">
        <ele>37</ele>
        <time>2012-10-21T06:29:24Z</time>
      </trkpt>
      <trkpt lat="44.88908" lon="0.91088">
        <ele>37</ele>
        <time>2012-10-21T06:29:26Z</time>
      </trkpt>
      <trkpt lat="44.88902" lon="0.91074">
        <ele>36</ele>
        <time>2012-10-21T06:29:28Z</time>
      </trkpt>
      <trkpt lat="44.88898" lon="0.9106">
        <ele>36</ele>
        <time>2012-10-21T06:29:30Z</time>
      </trkpt>
      <trkpt lat="44.88894" lon="0.91044">
        <ele>36</ele>
        <time>2012-10-21T06:29:32Z</time>
      </trkpt>
      <trkpt lat="44.88889" lon="0.91029">
        <ele>35</ele>
        <time>2012-10-21T06:29:34Z</time>
      </trkpt>
      <trkpt lat="44.88885" lon="0.91013">
        <ele>34</ele>
        <time>2012-10-21T06:29:36Z</time>
      </trkpt>
      <trkpt lat="44.88881" lon="0.90998">
        <ele>33</ele>
        <time>2012-10-21T06:29:38Z</time>
      </trkpt>
      <trkpt lat="44.88877" lon="0.90983">
        <ele>32</ele>
        <time>2012-10-21T06:29:40Z</time>
      </trkpt>
      <trkpt lat="44.88872" lon="0.90968">
        <ele>32</ele>
        <time>2012-10-21T06:29:42Z</time>
      </trkpt>
      <trkpt lat="44.88867" lon="0.90954">
        <ele>31</ele>
        <time>2012-10-21T06:29:44Z</time>
      </trkpt>
      <trkpt lat="44.88864" lon="0.90939">
        <ele>31</ele>
        <time>2012-10-21T06:29:46Z</time>
      </trkpt>
      <trkpt lat="44.88859" lon="0.90924">
        <ele>31</ele>
        <time>2012-10-21T06:29:48Z</time>
      </trkpt>
      <trkpt lat="44.88855" lon="0.9091">
        <ele>30</ele>
        <time>2012-10-21T06:29:50Z</time>
      </trkpt>
      <trkpt lat="44.88851" lon="0.90896">
        <ele>29</ele>
        <time>2012-10-21T06:29:52Z</time>
      </trkpt>
      <trkpt lat="44.88846" lon="0.90882">
        <ele>29</ele>
        <time>2012-10-21T06:29:54Z</time>
      </trkpt>
      <trkpt lat="44.88843" lon="0.90867">
        <ele>28</ele>
        <time>2012-10-21T06:29:56Z</time>
      </trkpt>
      <trkpt lat="44.88838" lon="0.90854">
        <ele>28</ele>
        <time>2012-10-21T06:29:58Z</time>
      </trkpt>
      <trkpt lat="44.88834" lon="0.90839">
        <ele>28</ele>
        <time>2012-10-21T06:30:00Z</time>
      </trkpt>
      <trkpt lat="44.8883" lon="0.90826">
        <ele>28</ele>
        <time>2012-10-21T06:30:02Z</time>
      </trkpt>
      <trkpt lat="44.88828" lon="0.9081">
        <ele>28</ele>
        <time>2012-10-21T06:30:04Z</time>
      </trkpt>
      <trkpt lat="44.88825" lon="0.90797">
        <ele>29</ele>
        <time>2012-10-21T06:30:06Z</time>
      </trkpt>
      <trkpt lat="44.88822" lon="0.90782">
        <ele>30</ele>
        <time>2012-10-21T06:30:08Z</time>
      </trkpt>
      <trkpt lat="44.88819" lon="0.90767">
        <ele>30</ele>
        <time>2012-10-21T06:30:10Z</time>
      </trkpt>
      <trkpt lat="44.88818" lon="0.90752">
        <ele>30</ele>
        <time>2012-10-21T06:30:12Z</time>
      </trkpt>
      <trkpt lat="44.88815" lon="0.90738">
        <ele>30</ele>
        <time>2012-10-21T06:30:14Z</time>
      </trkpt>
      <trkpt lat="44.88812" lon="0.90723">
        <ele>30</ele>
        <time>2012-10-21T06:30:16Z</time>
      </trkpt>
      <trkpt lat="44.8881" lon="0.9071">
        <ele>30</ele>
        <time>2012-10-21T06:30:18Z</time>
      </trkpt>
      <trkpt lat="44.88806" lon="0.90696">
        <ele>30</ele>
        <time>2012-10-21T06:30:20Z</time>
      </trkpt>
      <trkpt lat="44.88803" lon="0.90682">
        <ele>30</ele>
        <time>2012-10-21T06:30:22Z</time>
      </trkpt>
      <trkpt lat="44.888" lon="0.90668">
        <ele>30</ele>
        <time>2012-10-21T06:30:24Z</time>
      </trkpt>
      <trkpt lat="44.88797" lon="0.90654">
        <ele>30</ele>
        <time>2012-10-21T06:30:26Z</time>
      </trkpt>
      <trkpt lat="44.88794" lon="0.90641">
        <ele>30</ele>
        <time>2012-10-21T06:30:28Z</time>
      </trkpt>
      <trkpt lat="44.8879" lon="0.90628">
        <ele>30</ele>
        <time>2012-10-21T06:30:30Z</time>
      </trkpt>
      <trkpt lat="44.88786" lon="0.90617">
        <ele>30</ele>
        <time>2012-10-21T06:30:32Z</time>
      </trkpt>
      <trkpt lat="44.88783" lon="0.90604">
        <ele>30</ele>
        <time>2012-10-21T06:30:34Z</time>
      </trkpt>
      <trkpt lat="44.88778" lon="0.9059">
        <ele>29</ele>
        <time>2012-10-21T06:30:36Z</time>
      </trkpt>
      <trkpt lat="44.88772" lon="0.90576">
        <ele>28</ele>
        <time>2012-10-21T06:30:38Z</time>
      </trkpt>
      <trkpt lat="44.88767" lon="0.90562">
        <ele>28</ele>
        <time>2012-10-21T06:30:40Z</time>
      </trkpt>
      <trkpt lat="44.88762" lon="0.90549">
        <ele>27</ele>
        <time>2012-10-21T06:30:42Z</time>
      </trkpt>
      <trkpt lat="44.88757" lon="0.90536">
        <ele>27</ele>
        <time>2012-10-21T06:30:44Z</time>
      </trkpt>
      <trkpt lat="44.88752" lon="0.90522">
        <ele>26</ele>
        <time>2012-10-21T06:30:46Z</time>
      </trkpt>
      <trkpt lat="44.88747" lon="0.9051">
        <ele>25</ele>
        <time>2012-10-21T06:30:48Z</time>
      </trkpt>
      <trkpt lat="44.88743" lon="0.90497">
        <ele>25</ele>
        <time>2012-10-21T06:30:50Z</time>
      </trkpt>
      <trkpt lat="44.88738" lon="0.90484">
        <ele>25</ele>
        <time>2012-10-21T06:30:52Z</time>
      </trkpt>
      <trkpt lat="44.88733" lon="0.90473">
        <ele>25</ele>
        <time>2012-10-21T06:30:54Z</time>
      </trkpt>
      <trkpt lat="44.88729" lon="0.90462">
        <ele>25</ele>
        <time>2012-10-21T06:30:56Z</time>
      </trkpt>
      <trkpt lat="44.88725" lon="0.90452">
        <ele>25</ele>
        <time>2012-10-21T06:30:58Z</time>
      </trkpt>
      <trkpt lat="44.8872" lon="0.90441">
        <ele>25</ele>
        <time>2012-10-21T06:31:00Z</time>
      </trkpt>
      <trkpt lat="44.88715" lon="0.9043">
        <ele>25</ele>
        <time>2012-10-21T06:31:02Z</time>
      </trkpt>
      <trkpt lat="44.8871" lon="0.90418">
        <ele>25</ele>
        <time>2012-10-21T06:31:04Z</time>
      </trkpt>
      <trkpt lat="44.88704" lon="0.90406">
        <ele>25</ele>
        <time>2012-10-21T06:31:06Z</time>
      </trkpt>
      <trkpt lat="44.88699" lon="0.90394">
        <ele>25</ele>
        <time>2012-10-21T06:31:08Z</time>
      </trkpt>
      <trkpt lat="44.88693" lon="0.90382">
        <ele>25</ele>
        <time>2012-10-21T06:31:10Z</time>
      </trkpt>
      <trkpt lat="44.88688" lon="0.90369">
        <ele>25</ele>
        <time>2012-10-21T06:31:12Z</time>
      </trkpt>
      <trkpt lat="44.88683" lon="0.90358">
        <ele>25</ele>
        <time>2012-10-21T06:31:14Z</time>
      </trkpt>
      <trkpt lat="44.8868" lon="0.90346">
        <ele>25</ele>
        <time>2012-10-21T06:31:16Z</time>
      </trkpt>
      <trkpt lat="44.88675" lon="0.90334">
        <ele>25</ele>
        <time>2012-10-21T06:31:18Z</time>
      </trkpt>
      <trkpt lat="44.88671" lon="0.90323">
        <ele>25</ele>
        <time>2012-10-21T06:31:20Z</time>
      </trkpt>
      <trkpt lat="44.88666" lon="0.90312">
        <ele>25</ele>
        <time>2012-10-21T06:31:22Z</time>
      </trkpt>
      <trkpt lat="44.88662" lon="0.903">
        <ele>25</ele>
        <time>2012-10-21T06:31:24Z</time>
      </trkpt>
      <trkpt lat="44.88657" lon="0.90288">
        <ele>25</ele>
        <time>2012-10-21T06:31:26Z</time>
      </trkpt>
      <trkpt lat="44.88652" lon="0.90276">
        <ele>25</ele>
        <time>2012-10-21T06:31:28Z</time>
      </trkpt>
      <trkpt lat="44.88648" lon="0.90265">
        <ele>25</ele>
        <time>2012-10-21T06:31:30Z</time>
      </trkpt>
      <trkpt lat="44.88643" lon="0.90253">
        <ele>25</ele>
        <time>2012-10-21T06:31:32Z</time>
      </trkpt>
      <trkpt lat="44.88638" lon="0.90241">
        <ele>25</ele>
        <time>2012-10-21T06:31:34Z</time>
      </trkpt>
      <trkpt lat="44.88632" lon="0.90229">
        <ele>25</ele>
        <time>2012-10-21T06:31:36Z</time>
      </trkpt>
      <trkpt lat="44.88628" lon="0.90217">
        <ele>25</ele>
        <time>2012-10-21T06:31:38Z</time>
      </trkpt>
      <trkpt lat="44.88623" lon="0.90205">
        <ele>25</ele>
        <time>2012-10-21T06:31:40Z</time>
      </trkpt>
      <trkpt lat="44.88618" lon="0.90194">
        <ele>25</ele>
        <time>2012-10-21T06:31:42Z</time>
      </trkpt>
      <trkpt lat="44.88613" lon="0.90183">
        <ele>25</ele>
        <time>2012-10-21T06:31:44Z</time>
      </trkpt>
      <trkpt lat="44.88609" lon="0.90171">
        <ele>26</ele>
        <time>2012-10-21T06:31:46Z</time>
      </trkpt>
      <trkpt lat="44.88605" lon="0.90158">
        <ele>26</ele>
        <time>2012-10-21T06:31:48Z</time>
      </trkpt>
      <trkpt lat="44.88601" lon="0.90145">
        <ele>26</ele>
        <time>2012-10-21T06:31:50Z</time>
      </trkpt>
      <trkpt lat="44.88597" lon="0.90132">
        <ele>26</ele>
        <time>2012-10-21T06:31:52Z</time>
      </trkpt>
      <trkpt lat="44.88593" lon="0.90118">
        <ele>26</ele>
        <time>2012-10-21T06:31:54Z</time>
      </trkpt>
      <trkpt lat="44.88587" lon="0.90104">
        <ele>26</ele>
        <time>2012-10-21T06:31:56Z</time>
      </trkpt>
      <trkpt lat="44.88581" lon="0.90091">
        <ele>26</ele>
        <time>2012-10-21T06:31:58Z</time>
      </trkpt>
      <trkpt lat="44.88575" lon="0.90079">
        <ele>26</ele>
        <time>2012-10-21T06:32:00Z</time>
      </trkpt>
      <trkpt lat="44.88569" lon="0.90067">
        <ele>26</ele>
        <time>2012-10-21T06:32:02Z</time>
      </trkpt>
      <trkpt lat="44.88565" lon="0.90055">
        <ele>26</ele>
        <time>2012-10-21T06:32:04Z</time>
      </trkpt>
      <trkpt lat="44.8856" lon="0.90043">
        <ele>26</ele>
        <time>2012-10-21T06:32:06Z</time>
      </trkpt>
      <trkpt lat="44.88554" lon="0.90031">
        <ele>27</ele>
        <time>2012-10-21T06:32:08Z</time>
      </trkpt>
      <trkpt lat="44.88549" lon="0.90019">
        <ele>29</ele>
        <time>2012-10-21T06:32:10Z</time>
      </trkpt>
      <trkpt lat="44.88544" lon="0.90005">
        <ele>30</ele>
        <time>2012-10-21T06:32:12Z</time>
      </trkpt>
      <trkpt lat="44.88539" lon="0.89989">
        <ele>31</ele>
        <time>2012-10-21T06:32:14Z</time>
      </trkpt>
      <trkpt lat="44.88532" lon="0.89973">
        <ele>31</ele>
        <time>2012-10-21T06:32:16Z</time>
      </trkpt>
      <trkpt lat="44.88526" lon="0.89959">
        <ele>31</ele>
        <time>2012-10-21T06:32:18Z</time>
      </trkpt>
      <trkpt lat="44.88521" lon="0.89946">
        <ele>32</ele>
        <time>2012-10-21T06:32:20Z</time>
      </trkpt>
      <trkpt lat="44.88514" lon="0.89932">
        <ele>32</ele>
        <time>2012-10-21T06:32:22Z</time>
      </trkpt>
      <trkpt lat="44.88507" lon="0.89918">
        <ele>32</ele>
        <time>2012-10-21T06:32:24Z</time>
      </trkpt>
      <trkpt lat="44.88502" lon="0.89905">
        <ele>32</ele>
        <time>2012-10-21T06:32:26Z</time>
      </trkpt>
      <trkpt lat="44.88497" lon="0.89893">
        <ele>32</ele>
        <time>2012-10-21T06:32:28Z</time>
      </trkpt>
      <trkpt lat="44.88491" lon="0.89879">
        <ele>34</ele>
        <time>2012-10-21T06:32:30Z</time>
      </trkpt>
      <trkpt lat="44.88484" lon="0.89866">
        <ele>35</ele>
        <time>2012-10-21T06:32:32Z</time>
      </trkpt>
      <trkpt lat="44.88478" lon="0.89853">
        <ele>35</ele>
        <time>2012-10-21T06:32:34Z</time>
      </trkpt>
      <trkpt lat="44.88471" lon="0.89841">
        <ele>35</ele>
        <time>2012-10-21T06:32:36Z</time>
      </trkpt>
      <trkpt lat="44.88465" lon="0.89828">
        <ele>35</ele>
        <time>2012-10-21T06:32:38Z</time>
      </trkpt>
      <trkpt lat="44.88456" lon="0.89819">
        <ele>36</ele>
        <time>2012-10-21T06:32:40Z</time>
      </trkpt>
      <trkpt lat="44.88446" lon="0.89812">
        <ele>36</ele>
        <time>2012-10-21T06:32:42Z</time>
      </trkpt>
      <trkpt lat="44.88436" lon="0.89805">
        <ele>36</ele>
        <time>2012-10-21T06:32:44Z</time>
      </trkpt>
      <trkpt lat="44.88427" lon="0.89796">
        <ele>36</ele>
        <time>2012-10-21T06:32:46Z</time>
      </trkpt>
      <trkpt lat="44.88417" lon="0.89787">
        <ele>36</ele>
        <time>2012-10-21T06:32:48Z</time>
      </trkpt>
      <trkpt lat="44.88408" lon="0.89779">
        <ele>36</ele>
        <time>2012-10-21T06:32:50Z</time>
      </trkpt>
      <trkpt lat="44.88398" lon="0.8977">
        <ele>36</ele>
        <time>2012-10-21T06:32:52Z</time>
      </trkpt>
      <trkpt lat="44.88389" lon="0.89762">
        <ele>37</ele>
        <time>2012-10-21T06:32:54Z</time>
      </trkpt>
      <trkpt lat="44.8838" lon="0.89753">
        <ele>37</ele>
        <time>2012-10-21T06:32:56Z</time>
      </trkpt>
      <trkpt lat="44.88371" lon="0.89744">
        <ele>37</ele>
        <time>2012-10-21T06:32:58Z</time>
      </trkpt>
      <trkpt lat="44.88363" lon="0.89734">
        <ele>37</ele>
        <time>2012-10-21T06:33:00Z</time>
      </trkpt>
      <trkpt lat="44.88357" lon="0.89723">
        <ele>37</ele>
        <time>2012-10-21T06:33:02Z</time>
      </trkpt>
      <trkpt lat="44.88351" lon="0.89712">
        <ele>37</ele>
        <time>2012-10-21T06:33:04Z</time>
      </trkpt>
      <trkpt lat="44.88344" lon="0.89702">
        <ele>37</ele>
        <time>2012-10-21T06:33:06Z</time>
      </trkpt>
      <trkpt lat="44.88337" lon="0.89692">
        <ele>37</ele>
        <time>2012-10-21T06:33:08Z</time>
      </trkpt>
      <trkpt lat="44.88331" lon="0.89681">
        <ele>37</ele>
        <time>2012-10-21T06:33:10Z</time>
      </trkpt>
      <trkpt lat="44.88324" lon="0.8967">
        <ele>37</ele>
        <time>2012-10-21T06:33:12Z</time>
      </trkpt>
      <trkpt lat="44.88318" lon="0.8966">
        <ele>37</ele>
        <time>2012-10-21T06:33:14Z</time>
      </trkpt>
      <trkpt lat="44.88311" lon="0.8965">
        <ele>37</ele>
        <time>2012-10-21T06:33:16Z</time>
      </trkpt>
      <trkpt lat="44.88305" lon="0.8964">
        <ele>37</ele>
        <time>2012-10-21T06:33:18Z</time>
      </trkpt>
      <trkpt lat="44.88298" lon="0.8963">
        <ele>37</ele>
        <time>2012-10-21T06:33:20Z</time>
      </trkpt>
      <trkpt lat="44.88291" lon="0.89618">
        <ele>37</ele>
        <time>2012-10-21T06:33:22Z</time>
      </trkpt>
      <trkpt lat="44.88285" lon="0.89606">
        <ele>37</ele>
        <time>2012-10-21T06:33:24Z</time>
      </trkpt>
      <trkpt lat="44.88279" lon="0.89592">
        <ele>37</ele>
        <time>2012-10-21T06:33:26Z</time>
      </trkpt>
      <trkpt lat="44.88268" lon="0.89571">
        <ele>37</ele>
        <time>2012-10-21T06:33:29Z</time>
      </trkpt>
      <trkpt lat="44.88263" lon="0.89557">
        <ele>37</ele>
        <time>2012-10-21T06:33:31Z</time>
      </trkpt>
      <trkpt lat="44.88258" lon="0.89544">
        <ele>37</ele>
        <time>2012-10-21T06:33:33Z</time>
      </trkpt>
      <trkpt lat="44.88252" lon="0.8953">
        <ele>37</ele>
        <time>2012-10-21T06:33:35Z</time>
      </trkpt>
      <trkpt lat="44.88243" lon="0.89509">
        <ele>37</ele>
        <time>2012-10-21T06:33:38Z</time>
      </trkpt>
      <trkpt lat="44.88238" lon="0.89495">
        <ele>37</ele>
        <time>2012-10-21T06:33:40Z</time>
      </trkpt>
      <trkpt lat="44.88232" lon="0.89482">
        <ele>37</ele>
        <time>2012-10-21T06:33:42Z</time>
      </trkpt>
      <trkpt lat="44.88226" lon="0.89469">
        <ele>37</ele>
        <time>2012-10-21T06:33:44Z</time>
      </trkpt>
      <trkpt lat="44.88221" lon="0.89455">
        <ele>37</ele>
        <time>2012-10-21T06:33:46Z</time>
      </trkpt>
      <trkpt lat="44.88216" lon="0.89441">
        <ele>37</ele>
        <time>2012-10-21T06:33:48Z</time>
      </trkpt>
      <trkpt lat="44.88211" lon="0.89426">
        <ele>37</ele>
        <time>2012-10-21T06:33:50Z</time>
      </trkpt>
      <trkpt lat="44.88206" lon="0.89412">
        <ele>37</ele>
        <time>2012-10-21T06:33:52Z</time>
      </trkpt>
      <trkpt lat="44.88202" lon="0.89397">
        <ele>37</ele>
        <time>2012-10-21T06:33:54Z</time>
      </trkpt>
      <trkpt lat="44.88197" lon="0.89383">
        <ele>37</ele>
        <time>2012-10-21T06:33:56Z</time>
      </trkpt>
      <trkpt lat="44.88193" lon="0.89369">
        <ele>37</ele>
        <time>2012-10-21T06:33:58Z</time>
      </trkpt>
      <trkpt lat="44.88189" lon="0.89353">
        <ele>37</ele>
        <time>2012-10-21T06:34:00Z</time>
      </trkpt>
      <trkpt lat="44.88184" lon="0.89338">
        <ele>37</ele>
        <time>2012-10-21T06:34:02Z</time>
      </trkpt>
      <trkpt lat="44.88181" lon="0.89323">
        <ele>37</ele>
        <time>2012-10-21T06:34:04Z</time>
      </trkpt>
      <trkpt lat="44.88176" lon="0.89308">
        <ele>37</ele>
        <time>2012-10-21T06:34:06Z</time>
      </trkpt>
      <trkpt lat="44.88173" lon="0.89292">
        <ele>37</ele>
        <time>2012-10-21T06:34:08Z</time>
      </trkpt>
      <trkpt lat="44.88169" lon="0.89277">
        <ele>37</ele>
        <time>2012-10-21T06:34:10Z</time>
      </trkpt>
      <trkpt lat="44.88167" lon="0.89262">
        <ele>37</ele>
        <time>2012-10-21T06:34:12Z</time>
      </trkpt>
      <trkpt lat="44.88164" lon="0.89247">
        <ele>37</ele>
        <time>2012-10-21T06:34:14Z</time>
      </trkpt>
      <trkpt lat="44.88162" lon="0.89233">
        <ele>37</ele>
        <time>2012-10-21T06:34:16Z</time>
      </trkpt>
      <trkpt lat="44.88159" lon="0.89219">
        <ele>38</ele>
        <time>2012-10-21T06:34:18Z</time>
      </trkpt>
      <trkpt lat="44.88157" lon="0.89204">
        <ele>40</ele>
        <time>2012-10-21T06:34:20Z</time>
      </trkpt>
      <trkpt lat="44.88155" lon="0.8919">
        <ele>42</ele>
        <time>2012-10-21T06:34:22Z</time>
      </trkpt>
      <trkpt lat="44.88153" lon="0.89179">
        <ele>44</ele>
        <time>2012-10-21T06:34:24Z</time>
      </trkpt>
      <trkpt lat="44.88151" lon="0.89166">
        <ele>44</ele>
        <time>2012-10-21T06:34:26Z</time>
      </trkpt>
      <trkpt lat="44.88148" lon="0.89153">
        <ele>44</ele>
        <time>2012-10-21T06:34:28Z</time>
      </trkpt>
      <trkpt lat="44.88148" lon="0.89138">
        <ele>44</ele>
        <time>2012-10-21T06:34:30Z</time>
      </trkpt>
      <trkpt lat="44.88149" lon="0.89123">
        <ele>44</ele>
        <time>2012-10-21T06:34:32Z</time>
      </trkpt>
      <trkpt lat="44.8815" lon="0.8911">
        <ele>45</ele>
        <time>2012-10-21T06:34:34Z</time>
      </trkpt>
      <trkpt lat="44.88148" lon="0.89097">
        <ele>45</ele>
        <time>2012-10-21T06:34:36Z</time>
      </trkpt>
      <trkpt lat="44.88142" lon="0.89093">
        <ele>46</ele>
        <time>2012-10-21T06:34:38Z</time>
      </trkpt>
      <trkpt lat="44.88134" lon="0.89097">
        <ele>46</ele>
        <time>2012-10-21T06:34:40Z</time>
      </trkpt>
      <trkpt lat="44.88127" lon="0.89102">
        <ele>46</ele>
        <time>2012-10-21T06:34:42Z</time>
      </trkpt>
      <trkpt lat="44.88119" lon="0.89106">
        <ele>46</ele>
        <time>2012-10-21T06:34:44Z</time>
      </trkpt>
      <trkpt lat="44.8811" lon="0.89112">
        <ele>46</ele>
        <time>2012-10-21T06:34:46Z</time>
      </trkpt>
      <trkpt lat="44.88098" lon="0.89116">
        <ele>46</ele>
        <time>2012-10-21T06:34:48Z</time>
      </trkpt>
      <trkpt lat="44.88087" lon="0.8912">
        <ele>46</ele>
        <time>2012-10-21T06:34:50Z</time>
      </trkpt>
      <trkpt lat="44.88076" lon="0.89124">
        <ele>46</ele>
        <time>2012-10-21T06:34:52Z</time>
      </trkpt>
      <trkpt lat="44.88066" lon="0.89129">
        <ele>46</ele>
        <time>2012-10-21T06:34:54Z</time>
      </trkpt>
      <trkpt lat="44.88055" lon="0.89134">
        <ele>46</ele>
        <time>2012-10-21T06:34:56Z</time>
      </trkpt>
      <trkpt lat="44.88045" lon="0.89136">
        <ele>46</ele>
        <time>2012-10-21T06:34:58Z</time>
      </trkpt>
      <trkpt lat="44.88036" lon="0.89139">
        <ele>46</ele>
        <time>2012-10-21T06:35:00Z</time>
      </trkpt>
      <trkpt lat="44.88027" lon="0.89142">
        <ele>46</ele>
        <time>2012-10-21T06:35:02Z</time>
      </trkpt>
      <trkpt lat="44.88021" lon="0.8914">
        <ele>46</ele>
        <time>2012-10-21T06:35:04Z</time>
      </trkpt>
      <trkpt lat="44.88017" lon="0.89135">
        <ele>46</ele>
        <time>2012-10-21T06:35:06Z</time>
      </trkpt>
      <trkpt lat="44.88019" lon="0.89131">
        <ele>46</ele>
        <time>2012-10-21T06:35:08Z</time>
      </trkpt>
      <trkpt lat="44.88028" lon="0.89125">
        <ele>46</ele>
        <time>2012-10-21T06:35:10Z</time>
      </trkpt>
      <trkpt lat="44.88039" lon="0.89121">
        <ele>46</ele>
        <time>2012-10-21T06:35:12Z</time>
      </trkpt>
      <trkpt lat="44.8805" lon="0.89116">
        <ele>46</ele>
        <time>2012-10-21T06:35:14Z</time>
      </trkpt>
      <trkpt lat="44.88059" lon="0.89112">
        <ele>46</ele>
        <time>2012-10-21T06:35:16Z</time>
      </trkpt>
      <trkpt lat="44.88068" lon="0.8911">
        <ele>47</ele>
        <time>2012-10-21T06:35:18Z</time>
      </trkpt>
      <trkpt lat="44.88077" lon="0.89106">
        <ele>49</ele>
        <time>2012-10-21T06:35:20Z</time>
      </trkpt>
      <trkpt lat="44.88086" lon="0.89102">
        <ele>51</ele>
        <time>2012-10-21T06:35:22Z</time>
      </trkpt>
      <trkpt lat="44.88093" lon="0.89099">
        <ele>51</ele>
        <time>2012-10-21T06:35:24Z</time>
      </trkpt>
      <trkpt lat="44.88101" lon="0.89093">
        <ele>51</ele>
        <time>2012-10-21T06:35:26Z</time>
      </trkpt>
      <trkpt lat="44.88108" lon="0.8909">
        <ele>51</ele>
        <time>2012-10-21T06:35:28Z</time>
      </trkpt>
      <trkpt lat="44.88113" lon="0.89089">
        <ele>52</ele>
        <time>2012-10-21T06:35:30Z</time>
      </trkpt>
      <trkpt lat="44.88121" lon="0.89083">
        <ele>52</ele>
        <time>2012-10-21T06:35:32Z</time>
      </trkpt>
      <trkpt lat="44.88129" lon="0.89078">
        <ele>52</ele>
        <time>2012-10-21T06:35:34Z</time>
      </trkpt>
      <trkpt lat="44.88139" lon="0.89073">
        <ele>52</ele>
        <time>2012-10-21T06:35:36Z</time>
      </trkpt>
      <trkpt lat="44.88146" lon="0.89071">
        <ele>52</ele>
        <time>2012-10-21T06:35:38Z</time>
      </trkpt>
      <trkpt lat="44.88156" lon="0.8907">
        <ele>52</ele>
        <time>2012-10-21T06:35:40Z</time>
      </trkpt>
      <trkpt lat="44.88166" lon="0.89068">
        <ele>52</ele>
        <time>2012-10-21T06:35:42Z</time>
      </trkpt>
      <trkpt lat="44.88176" lon="0.89066">
        <ele>52</ele>
        <time>2012-10-21T06:35:44Z</time>
      </trkpt>
      <trkpt lat="44.88185" lon="0.89065">
        <ele>52</ele>
        <time>2012-10-21T06:35:46Z</time>
      </trkpt>
      <trkpt lat="44.88194" lon="0.89065">
        <ele>52</ele>
        <time>2012-10-21T06:35:48Z</time>
      </trkpt>
      <trkpt lat="44.88204" lon="0.89063">
        <ele>52</ele>
        <time>2012-10-21T06:35:50Z</time>
      </trkpt>
      <trkpt lat="44.88215" lon="0.89063">
        <ele>52</ele>
        <time>2012-10-21T06:35:52Z</time>
      </trkpt>
      <trkpt lat="44.88226" lon="0.89062">
        <ele>52</ele>
        <time>2012-10-21T06:35:54Z</time>
      </trkpt>
      <trkpt lat="44.88237" lon="0.8906">
        <ele>51</ele>
        <time>2012-10-21T06:35:56Z</time>
      </trkpt>
      <trkpt lat="44.88248" lon="0.89059">
        <ele>51</ele>
        <time>2012-10-21T06:35:58Z</time>
      </trkpt>
      <trkpt lat="44.88259" lon="0.89057">
        <ele>50</ele>
        <time>2012-10-21T06:36:00Z</time>
      </trkpt>
      <trkpt lat="44.88271" lon="0.89055">
        <ele>50</ele>
        <time>2012-10-21T06:36:02Z</time>
      </trkpt>
      <trkpt lat="44.8828" lon="0.89054">
        <ele>49</ele>
        <time>2012-10-21T06:36:04Z</time>
      </trkpt>
      <trkpt lat="44.88287" lon="0.89052">
        <ele>48</ele>
        <time>2012-10-21T06:36:06Z</time>
      </trkpt>
      <trkpt lat="44.88291" lon="0.89042">
        <ele>48</ele>
        <time>2012-10-21T06:36:08Z</time>
      </trkpt>
      <trkpt lat="44.88292" lon="0.89027">
        <ele>46</ele>
        <time>2012-10-21T06:36:10Z</time>
      </trkpt>
      <trkpt lat="44.88293" lon="0.89006">
        <ele>45</ele>
        <time>2012-10-21T06:36:12Z</time>
      </trkpt>
      <trkpt lat="44.88293" lon="0.88984">
        <ele>45</ele>
        <time>2012-10-21T06:36:14Z</time>
      </trkpt>
      <trkpt lat="44.88293" lon="0.88967">
        <ele>45</ele>
        <time>2012-10-21T06:36:16Z</time>
      </trkpt>
      <trkpt lat="44.88292" lon="0.8895">
        <ele>45</ele>
        <time>2012-10-21T06:36:18Z</time>
      </trkpt>
      <trkpt lat="44.8829" lon="0.88934">
        <ele>45</ele>
        <time>2012-10-21T06:36:20Z</time>
      </trkpt>
      <trkpt lat="44.88284" lon="0.88918">
        <ele>45</ele>
        <time>2012-10-21T06:36:22Z</time>
      </trkpt>
      <trkpt lat="44.8828" lon="0.88902">
        <ele>45</ele>
        <time>2012-10-21T06:36:24Z</time>
      </trkpt>
      <trkpt lat="44.88276" lon="0.88887">
        <ele>44</ele>
        <time>2012-10-21T06:36:26Z</time>
      </trkpt>
      <trkpt lat="44.88273" lon="0.8887">
        <ele>44</ele>
        <time>2012-10-21T06:36:28Z</time>
      </trkpt>
      <trkpt lat="44.88272" lon="0.88853">
        <ele>44</ele>
        <time>2012-10-21T06:36:30Z</time>
      </trkpt>
      <trkpt lat="44.88271" lon="0.88837">
        <ele>43</ele>
        <time>2012-10-21T06:36:32Z</time>
      </trkpt>
      <trkpt lat="44.88271" lon="0.88822">
        <ele>43</ele>
        <time>2012-10-21T06:36:34Z</time>
      </trkpt>
      <trkpt lat="44.88276" lon="0.8881">
        <ele>42</ele>
        <time>2012-10-21T06:36:36Z</time>
      </trkpt>
      <trkpt lat="44.88286" lon="0.88801">
        <ele>42</ele>
        <time>2012-10-21T06:36:38Z</time>
      </trkpt>
      <trkpt lat="44.88296" lon="0.88795">
        <ele>42</ele>
        <time>2012-10-21T06:36:40Z</time>
      </trkpt>
      <trkpt lat="44.88306" lon="0.8879">
        <ele>42</ele>
        <time>2012-10-21T06:36:42Z</time>
      </trkpt>
      <trkpt lat="44.88316" lon="0.88785">
        <ele>42</ele>
        <time>2012-10-21T06:36:44Z</time>
      </trkpt>
      <trkpt lat="44.88326" lon="0.88783">
        <ele>42</ele>
        <time>2012-10-21T06:36:46Z</time>
      </trkpt>
      <trkpt lat="44.88335" lon="0.88781">
        <ele>42</ele>
        <time>2012-10-21T06:36:48Z</time>
      </trkpt>
      <trkpt lat="44.88344" lon="0.88782">
        <ele>42</ele>
        <time>2012-10-21T06:36:50Z</time>
      </trkpt>
      <trkpt lat="44.88353" lon="0.88782">
        <ele>42</ele>
        <time>2012-10-21T06:36:52Z</time>
      </trkpt>
      <trkpt lat="44.88362" lon="0.88781">
        <ele>42</ele>
        <time>2012-10-21T06:36:54Z</time>
      </trkpt>
      <trkpt lat="44.88371" lon="0.88781">
        <ele>42</ele>
        <time>2012-10-21T06:36:56Z</time>
      </trkpt>
      <trkpt lat="44.88381" lon="0.88784">
        <ele>43</ele>
        <time>2012-10-21T06:36:58Z</time>
      </trkpt>
      <trkpt lat="44.8839" lon="0.88784">
        <ele>43</ele>
        <time>2012-10-21T06:37:00Z</time>
      </trkpt>
      <trkpt lat="44.88401" lon="0.88784">
        <ele>43</ele>
        <time>2012-10-21T06:37:02Z</time>
      </trkpt>
      <trkpt lat="44.8841" lon="0.88784">
        <ele>43</ele>
        <time>2012-10-21T06:37:04Z</time>
      </trkpt>
      <trkpt lat="44.8842" lon="0.88786">
        <ele>44</ele>
        <time>2012-10-21T06:37:06Z</time>
      </trkpt>
      <trkpt lat="44.8843" lon="0.88787">
        <ele>46</ele>
        <time>2012-10-21T06:37:08Z</time>
      </trkpt>
      <trkpt lat="44.8844" lon="0.88787">
        <ele>46</ele>
        <time>2012-10-21T06:37:10Z</time>
      </trkpt>
      <trkpt lat="44.88449" lon="0.88786">
        <ele>48</ele>
        <time>2012-10-21T06:37:12Z</time>
      </trkpt>
      <trkpt lat="44.88458" lon="0.88785">
        <ele>50</ele>
        <time>2012-10-21T06:37:14Z</time>
      </trkpt>
      <trkpt lat="44.88467" lon="0.88784">
        <ele>52</ele>
        <time>2012-10-21T06:37:16Z</time>
      </trkpt>
      <trkpt lat="44.88476" lon="0.88784">
        <ele>54</ele>
        <time>2012-10-21T06:37:18Z</time>
      </trkpt>
      <trkpt lat="44.88485" lon="0.88785">
        <ele>56</ele>
        <time>2012-10-21T06:37:20Z</time>
      </trkpt>
      <trkpt lat="44.88495" lon="0.88789">
        <ele>58</ele>
        <time>2012-10-21T06:37:22Z</time>
      </trkpt>
      <trkpt lat="44.88504" lon="0.88795">
        <ele>59</ele>
        <time>2012-10-21T06:37:24Z</time>
      </trkpt>
      <trkpt lat="44.88514" lon="0.88801">
        <ele>59</ele>
        <time>2012-10-21T06:37:26Z</time>
      </trkpt>
      <trkpt lat="44.88523" lon="0.88805">
        <ele>59</ele>
        <time>2012-10-21T06:37:28Z</time>
      </trkpt>
      <trkpt lat="44.88533" lon="0.88809">
        <ele>59</ele>
        <time>2012-10-21T06:37:30Z</time>
      </trkpt>
      <trkpt lat="44.88542" lon="0.88812">
        <ele>59</ele>
        <time>2012-10-21T06:37:32Z</time>
      </trkpt>
      <trkpt lat="44.88551" lon="0.88816">
        <ele>59</ele>
        <time>2012-10-21T06:37:34Z</time>
      </trkpt>
      <trkpt lat="44.8856" lon="0.88818">
        <ele>59</ele>
        <time>2012-10-21T06:37:36Z</time>
      </trkpt>
      <trkpt lat="44.88569" lon="0.8882">
        <ele>59</ele>
        <time>2012-10-21T06:37:38Z</time>
      </trkpt>
      <trkpt lat="44.88575" lon="0.88822">
        <ele>59</ele>
        <time>2012-10-21T06:37:40Z</time>
      </trkpt>
      <trkpt lat="44.88584" lon="0.88817">
        <ele>59</ele>
        <time>2012-10-21T06:37:42Z</time>
      </trkpt>
      <trkpt lat="44.88592" lon="0.88809">
        <ele>58</ele>
        <time>2012-10-21T06:37:44Z</time>
      </trkpt>
      <trkpt lat="44.88598" lon="0.88798">
        <ele>58</ele>
        <time>2012-10-21T06:37:46Z</time>
      </trkpt>
      <trkpt lat="44.88602" lon="0.88785">
        <ele>57</ele>
        <time>2012-10-21T06:37:48Z</time>
      </trkpt>
      <trkpt lat="44.88607" lon="0.88771">
        <ele>57</ele>
        <time>2012-10-21T06:37:50Z</time>
      </trkpt>
      <trkpt lat="44.88612" lon="0.88761">
        <ele>56</ele>
        <time>2012-10-21T06:37:52Z</time>
      </trkpt>
      <trkpt lat="44.88621" lon="0.88756">
        <ele>56</ele>
        <time>2012-10-21T06:37:54Z</time>
      </trkpt>
      <trkpt lat="44.88631" lon="0.88754">
        <ele>56</ele>
        <time>2012-10-21T06:37:56Z</time>
      </trkpt>
      <trkpt lat="44.88641" lon="0.88753">
        <ele>56</ele>
        <time>2012-10-21T06:37:58Z</time>
      </trkpt>
      <trkpt lat="44.88651" lon="0.88753">
        <ele>56</ele>
        <time>2012-10-21T06:38:00Z</time>
      </trkpt>
      <trkpt lat="44.8866" lon="0.88751">
        <ele>55</ele>
        <time>2012-10-21T06:38:02Z</time>
      </trkpt>
      <trkpt lat="44.8867" lon="0.88747">
        <ele>55</ele>
        <time>2012-10-21T06:38:04Z</time>
      </trkpt>
      <trkpt lat="44.8868" lon="0.88743">
        <ele>54</ele>
        <time>2012-10-21T06:38:06Z</time>
      </trkpt>
      <trkpt lat="44.8869" lon="0.88739">
        <ele>53</ele>
        <time>2012-10-21T06:38:08Z</time>
      </trkpt>
      <trkpt lat="44.88699" lon="0.88734">
        <ele>52</ele>
        <time>2012-10-21T06:38:10Z</time>
      </trkpt>
      <trkpt lat="44.88707" lon="0.88731">
        <ele>51</ele>
        <time>2012-10-21T06:38:12Z</time>
      </trkpt>
      <trkpt lat="44.88717" lon="0.88727">
        <ele>51</ele>
        <time>2012-10-21T06:38:14Z</time>
      </trkpt>
      <trkpt lat="44.88726" lon="0.88723">
        <ele>51</ele>
        <time>2012-10-21T06:38:16Z</time>
      </trkpt>
      <trkpt lat="44.88734" lon="0.8872">
        <ele>51</ele>
        <time>2012-10-21T06:38:18Z</time>
      </trkpt>
      <trkpt lat="44.88743" lon="0.88716">
        <ele>51</ele>
        <time>2012-10-21T06:38:20Z</time>
      </trkpt>
      <trkpt lat="44.8875" lon="0.88713">
        <ele>51</ele>
        <time>2012-10-21T06:38:22Z</time>
      </trkpt>
      <trkpt lat="44.88757" lon="0.88713">
        <ele>51</ele>
        <time>2012-10-21T06:38:24Z</time>
      </trkpt>
      <trkpt lat="44.88765" lon="0.88719">
        <ele>51</ele>
        <time>2012-10-21T06:38:26Z</time>
      </trkpt>
      <trkpt lat="44.88774" lon="0.88729">
        <ele>51</ele>
        <time>2012-10-21T06:38:28Z</time>
      </trkpt>
      <trkpt lat="44.88782" lon="0.8874">
        <ele>51</ele>
        <time>2012-10-21T06:38:30Z</time>
      </trkpt>
      <trkpt lat="44.88792" lon="0.88749">
        <ele>51</ele>
        <time>2012-10-21T06:38:32Z</time>
      </trkpt>
      <trkpt lat="44.88802" lon="0.88756">
        <ele>51</ele>
        <time>2012-10-21T06:38:34Z</time>
      </trkpt>
      <trkpt lat="44.88813" lon="0.88763">
        <ele>51</ele>
        <time>2012-10-21T06:38:36Z</time>
      </trkpt>
      <trkpt lat="44.88823" lon="0.88768">
        <ele>52</ele>
        <time>2012-10-21T06:38:38Z</time>
      </trkpt>
      <trkpt lat="44.88833" lon="0.88774">
        <ele>53</ele>
        <time>2012-10-21T06:38:40Z</time>
      </trkpt>
      <trkpt lat="44.88844" lon="0.88779">
        <ele>53</ele>
        <time>2012-10-21T06:38:42Z</time>
      </trkpt>
      <trkpt lat="44.88854" lon="0.88782">
        <ele>54</ele>
        <time>2012-10-21T06:38:44Z</time>
      </trkpt>
      <trkpt lat="44.88865" lon="0.88786">
        <ele>54</ele>
        <time>2012-10-21T06:38:46Z</time>
      </trkpt>
      <trkpt lat="44.88874" lon="0.88791">
        <ele>54</ele>
        <time>2012-10-21T06:38:48Z</time>
      </trkpt>
      <trkpt lat="44.88883" lon="0.88796">
        <ele>54</ele>
        <time>2012-10-21T06:38:50Z</time>
      </trkpt>
      <trkpt lat="44.88891" lon="0.88802">
        <ele>54</ele>
        <time>2012-10-21T06:38:52Z</time>
      </trkpt>
      <trkpt lat="44.88898" lon="0.88806">
        <ele>54</ele>
        <time>2012-10-21T06:38:54Z</time>
      </trkpt>
      <trkpt lat="44.88906" lon="0.88811">
        <ele>55</ele>
        <time>2012-10-21T06:38:56Z</time>
      </trkpt>
      <trkpt lat="44.88914" lon="0.88815">
        <ele>55</ele>
        <time>2012-10-21T06:38:58Z</time>
      </trkpt>
      <trkpt lat="44.88921" lon="0.88819">
        <ele>56</ele>
        <time>2012-10-21T06:39:00Z</time>
      </trkpt>
      <trkpt lat="44.88928" lon="0.88822">
        <ele>56</ele>
        <time>2012-10-21T06:39:02Z</time>
      </trkpt>
      <trkpt lat="44.88934" lon="0.88826">
        <ele>57</ele>
        <time>2012-10-21T06:39:04Z</time>
      </trkpt>
      <trkpt lat="44.88941" lon="0.88829">
        <ele>57</ele>
        <time>2012-10-21T06:39:06Z</time>
      </trkpt>
      <trkpt lat="44.88946" lon="0.8883">
        <ele>58</ele>
        <time>2012-10-21T06:39:08Z</time>
      </trkpt>
      <trkpt lat="44.88951" lon="0.8883">
        <ele>59</ele>
        <time>2012-10-21T06:39:10Z</time>
      </trkpt>
      <trkpt lat="44.88956" lon="0.88828">
        <ele>59</ele>
        <time>2012-10-21T06:39:12Z</time>
      </trkpt>
      <trkpt lat="44.8896" lon="0.88825">
        <ele>60</ele>
        <time>2012-10-21T06:39:14Z</time>
      </trkpt>
      <trkpt lat="44.88963" lon="0.88821">
        <ele>60</ele>
        <time>2012-10-21T06:39:16Z</time>
      </trkpt>
      <trkpt lat="44.88967" lon="0.88816">
        <ele>61</ele>
        <time>2012-10-21T06:39:18Z</time>
      </trkpt>
      <trkpt lat="44.88971" lon="0.88812">
        <ele>62</ele>
        <time>2012-10-21T06:39:20Z</time>
      </trkpt>
      <trkpt lat="44.88976" lon="0.88807">
        <ele>62</ele>
        <time>2012-10-21T06:39:22Z</time>
      </trkpt>
      <trkpt lat="44.88981" lon="0.88802">
        <ele>62</ele>
        <time>2012-10-21T06:39:24Z</time>
      </trkpt>
      <trkpt lat="44.88985" lon="0.88796">
        <ele>62</ele>
        <time>2012-10-21T06:39:26Z</time>
      </trkpt>
      <trkpt lat="44.8899" lon="0.8879">
        <ele>62</ele>
        <time>2012-10-21T06:39:28Z</time>
      </trkpt>
      <trkpt lat="44.88995" lon="0.88784">
        <ele>62</ele>
        <time>2012-10-21T06:39:30Z</time>
      </trkpt>
      <trkpt lat="44.89" lon="0.88779">
        <ele>62</ele>
        <time>2012-10-21T06:39:32Z</time>
      </trkpt>
      <trkpt lat="44.89005" lon="0.88773">
        <ele>62</ele>
        <time>2012-10-21T06:39:34Z</time>
      </trkpt>
      <trkpt lat="44.89009" lon="0.88768">
        <ele>62</ele>
        <time>2012-10-21T06:39:36Z</time>
      </trkpt>
      <trkpt lat="44.89013" lon="0.88761">
        <ele>63</ele>
        <time>2012-10-21T06:39:38Z</time>
      </trkpt>
      <trkpt lat="44.89016" lon="0.88757">
        <ele>64</ele>
        <time>2012-10-21T06:39:40Z</time>
      </trkpt>
      <trkpt lat="44.8902" lon="0.88752">
        <ele>65</ele>
        <time>2012-10-21T06:39:42Z</time>
      </trkpt>
      <trkpt lat="44.89026" lon="0.88748">
        <ele>66</ele>
        <time>2012-10-21T06:39:44Z</time>
      </trkpt>
      <trkpt lat="44.89032" lon="0.88744">
        <ele>68</ele>
        <time>2012-10-21T06:39:46Z</time>
      </trkpt>
      <trkpt lat="44.89037" lon="0.8874">
        <ele>70</ele>
        <time>2012-10-21T06:39:48Z</time>
      </trkpt>
      <trkpt lat="44.89041" lon="0.88735">
        <ele>72</ele>
        <time>2012-10-21T06:39:50Z</time>
      </trkpt>
      <trkpt lat="44.89044" lon="0.88732">
        <ele>74</ele>
        <time>2012-10-21T06:39:52Z</time>
      </trkpt>
      <trkpt lat="44.89049" lon="0.8873">
        <ele>76</ele>
        <time>2012-10-21T06:39:54Z</time>
      </trkpt>
      <trkpt lat="44.89052" lon="0.88727">
        <ele>78</ele>
        <time>2012-10-21T06:39:56Z</time>
      </trkpt>
      <trkpt lat="44.89053" lon="0.88726">
        <ele>80</ele>
        <time>2012-10-21T06:39:58Z</time>
      </trkpt>
      <trkpt lat="44.89057" lon="0.88721">
        <ele>82</ele>
        <time>2012-10-21T06:40:00Z</time>
      </trkpt>
      <trkpt lat="44.89064" lon="0.88716">
        <ele>84</ele>
        <time>2012-10-21T06:40:02Z</time>
      </trkpt>
      <trkpt lat="44.89072" lon="0.88713">
        <ele>86</ele>
        <time>2012-10-21T06:40:04Z</time>
      </trkpt>
      <trkpt lat="44.89077" lon="0.88709">
        <ele>88</ele>
        <time>2012-10-21T06:40:06Z</time>
      </trkpt>
      <trkpt lat="44.89079" lon="0.88706">
        <ele>90</ele>
        <time>2012-10-21T06:40:08Z</time>
      </trkpt>
      <trkpt lat="44.89083" lon="0.88704">
        <ele>92</ele>
        <time>2012-10-21T06:40:10Z</time>
      </trkpt>
      <trkpt lat="44.89087" lon="0.88701">
        <ele>92</ele>
        <time>2012-10-21T06:40:12Z</time>
      </trkpt>
      <trkpt lat="44.89091" lon="0.887">
        <ele>92</ele>
        <time>2012-10-21T06:40:14Z</time>
      </trkpt>
      <trkpt lat="44.89096" lon="0.88696">
        <ele>93</ele>
        <time>2012-10-21T06:40:16Z</time>
      </trkpt>
      <trkpt lat="44.891" lon="0.88691">
        <ele>93</ele>
        <time>2012-10-21T06:40:18Z</time>
      </trkpt>
      <trkpt lat="44.89104" lon="0.88688">
        <ele>93</ele>
        <time>2012-10-21T06:40:21Z</time>
      </trkpt>
      <trkpt lat="44.89108" lon="0.88686">
        <ele>93</ele>
        <time>2012-10-21T06:40:23Z</time>
      </trkpt>
      <trkpt lat="44.89111" lon="0.88683">
        <ele>93</ele>
        <time>2012-10-21T06:40:25Z</time>
      </trkpt>
      <trkpt lat="44.89115" lon="0.88679">
        <ele>93</ele>
        <time>2012-10-21T06:40:27Z</time>
      </trkpt>
      <trkpt lat="44.89117" lon="0.88676">
        <ele>93</ele>
        <time>2012-10-21T06:40:29Z</time>
      </trkpt>
      <trkpt lat="44.89119" lon="0.88675">
        <ele>93</ele>
        <time>2012-10-21T06:40:31Z</time>
      </trkpt>
      <trkpt lat="44.89122" lon="0.88675">
        <ele>93</ele>
        <time>2012-10-21T06:40:33Z</time>
      </trkpt>
      <trkpt lat="44.89125" lon="0.88672">
        <ele>93</ele>
        <time>2012-10-21T06:40:36Z</time>
      </trkpt>
      <trkpt lat="44.8913" lon="0.88667">
        <ele>93</ele>
        <time>2012-10-21T06:40:38Z</time>
      </trkpt>
      <trkpt lat="44.89135" lon="0.88664">
        <ele>93</ele>
        <time>2012-10-21T06:40:40Z</time>
      </trkpt>
      <trkpt lat="44.89137" lon="0.88661">
        <ele>93</ele>
        <time>2012-10-21T06:40:42Z</time>
      </trkpt>
      <trkpt lat="44.8914" lon="0.88657">
        <ele>93</ele>
        <time>2012-10-21T06:40:44Z</time>
      </trkpt>
      <trkpt lat="44.89142" lon="0.88653">
        <ele>93</ele>
        <time>2012-10-21T06:40:46Z</time>
      </trkpt>
      <trkpt lat="44.89144" lon="0.88649">
        <ele>93</ele>
        <time>2012-10-21T06:40:48Z</time>
      </trkpt>
      <trkpt lat="44.89148" lon="0.88645">
        <ele>94</ele>
        <time>2012-10-21T06:40:50Z</time>
      </trkpt>
      <trkpt lat="44.8915" lon="0.8864">
        <ele>94</ele>
        <time>2012-10-21T06:40:52Z</time>
      </trkpt>
      <trkpt lat="44.89153" lon="0.88636">
        <ele>94</ele>
        <time>2012-10-21T06:40:54Z</time>
      </trkpt>
      <trkpt lat="44.89154" lon="0.88636">
        <ele>95</ele>
        <time>2012-10-21T06:40:57Z</time>
      </trkpt>
      <trkpt lat="44.89157" lon="0.88633">
        <ele>98</ele>
        <time>2012-10-21T06:41:00Z</time>
      </trkpt>
      <trkpt lat="44.89162" lon="0.8863">
        <ele>101</ele>
        <time>2012-10-21T06:41:03Z</time>
      </trkpt>
      <trkpt lat="44.89164" lon="0.88626">
        <ele>101</ele>
        <time>2012-10-21T06:41:05Z</time>
      </trkpt>
      <trkpt lat="44.89168" lon="0.88621">
        <ele>101</ele>
        <time>2012-10-21T06:41:07Z</time>
      </trkpt>
      <trkpt lat="44.89172" lon="0.88617">
        <ele>101</ele>
        <time>2012-10-21T06:41:09Z</time>
      </trkpt>
      <trkpt lat="44.89173" lon="0.88613">
        <ele>101</ele>
        <time>2012-10-21T06:41:11Z</time>
      </trkpt>
      <trkpt lat="44.89177" lon="0.88609">
        <ele>101</ele>
        <time>2012-10-21T06:41:13Z</time>
      </trkpt>
      <trkpt lat="44.8918" lon="0.88606">
        <ele>101</ele>
        <time>2012-10-21T06:41:15Z</time>
      </trkpt>
      <trkpt lat="44.89181" lon="0.88604">
        <ele>101</ele>
        <time>2012-10-21T06:41:17Z</time>
      </trkpt>
      <trkpt lat="44.89183" lon="0.88601">
        <ele>101</ele>
        <time>2012-10-21T06:41:19Z</time>
      </trkpt>
      <trkpt lat="44.89182" lon="0.88598">
        <ele>101</ele>
        <time>2012-10-21T06:41:21Z</time>
      </trkpt>
      <trkpt lat="44.89183" lon="0.88594">
        <ele>102</ele>
        <time>2012-10-21T06:41:23Z</time>
      </trkpt>
      <trkpt lat="44.89185" lon="0.88591">
        <ele>104</ele>
        <time>2012-10-21T06:41:25Z</time>
      </trkpt>
      <trkpt lat="44.89187" lon="0.88586">
        <ele>105</ele>
        <time>2012-10-21T06:41:28Z</time>
      </trkpt>
      <trkpt lat="44.89188" lon="0.88584">
        <ele>105</ele>
        <time>2012-10-21T06:41:30Z</time>
      </trkpt>
      <trkpt lat="44.89189" lon="0.88582">
        <ele>105</ele>
        <time>2012-10-21T06:41:32Z</time>
      </trkpt>
      <trkpt lat="44.89192" lon="0.88579">
        <ele>107</ele>
        <time>2012-10-21T06:41:34Z</time>
      </trkpt>
      <trkpt lat="44.89196" lon="0.88575">
        <ele>109</ele>
        <time>2012-10-21T06:41:36Z</time>
      </trkpt>
      <trkpt lat="44.89199" lon="0.88571">
        <ele>110</ele>
        <time>2012-10-21T06:41:38Z</time>
      </trkpt>
      <trkpt lat="44.89201" lon="0.88567">
        <ele>110</ele>
        <time>2012-10-21T06:41:40Z</time>
      </trkpt>
      <trkpt lat="44.89202" lon="0.88563">
        <ele>111</ele>
        <time>2012-10-21T06:41:42Z</time>
      </trkpt>
      <trkpt lat="44.89203" lon="0.88559">
        <ele>111</ele>
        <time>2012-10-21T06:41:44Z</time>
      </trkpt>
      <trkpt lat="44.89205" lon="0.88553">
        <ele>112</ele>
        <time>2012-10-21T06:41:46Z</time>
      </trkpt>
      <trkpt lat="44.89206" lon="0.88549">
        <ele>112</ele>
        <time>2012-10-21T06:41:48Z</time>
      </trkpt>
      <trkpt lat="44.89209" lon="0.88544">
        <ele>113</ele>
        <time>2012-10-21T06:41:50Z</time>
      </trkpt>
      <trkpt lat="44.89212" lon="0.88541">
        <ele>113</ele>
        <time>2012-10-21T06:41:52Z</time>
      </trkpt>
      <trkpt lat="44.89215" lon="0.88538">
        <ele>113</ele>
        <time>2012-10-21T06:41:55Z</time>
      </trkpt>
      <trkpt lat="44.89217" lon="0.88534">
        <ele>114</ele>
        <time>2012-10-21T06:41:57Z</time>
      </trkpt>
      <trkpt lat="44.8922" lon="0.88529">
        <ele>114</ele>
        <time>2012-10-21T06:41:59Z</time>
      </trkpt>
      <trkpt lat="44.89223" lon="0.88523">
        <ele>114</ele>
        <time>2012-10-21T06:42:02Z</time>
      </trkpt>
      <trkpt lat="44.89227" lon="0.8852">
        <ele>114</ele>
        <time>2012-10-21T06:42:04Z</time>
      </trkpt>
      <trkpt lat="44.8923" lon="0.88517">
        <ele>114</ele>
        <time>2012-10-21T06:42:06Z</time>
      </trkpt>
      <trkpt lat="44.89233" lon="0.88517">
        <ele>114</ele>
        <time>2012-10-21T06:42:09Z</time>
      </trkpt>
      <trkpt lat="44.89236" lon="0.88515">
        <ele>114</ele>
        <time>2012-10-21T06:42:11Z</time>
      </trkpt>
      <trkpt lat="44.89238" lon="0.88517">
        <ele>114</ele>
        <time>2012-10-21T06:42:14Z</time>
      </trkpt>
      <trkpt lat="44.89241" lon="0.88518">
        <ele>114</ele>
        <time>2012-10-21T06:42:16Z</time>
      </trkpt>
      <trkpt lat="44.89244" lon="0.88517">
        <ele>114</ele>
        <time>2012-10-21T06:42:18Z</time>
      </trkpt>
      <trkpt lat="44.89247" lon="0.88514">
        <ele>114</ele>
        <time>2012-10-21T06:42:20Z</time>
      </trkpt>
      <trkpt lat="44.89248" lon="0.88514">
        <ele>114</ele>
        <time>2012-10-21T06:42:22Z</time>
      </trkpt>
      <trkpt lat="44.89252" lon="0.88512">
        <ele>114</ele>
        <time>2012-10-21T06:42:24Z</time>
      </trkpt>
      <trkpt lat="44.89255" lon="0.88512">
        <ele>113</ele>
        <time>2012-10-21T06:42:27Z</time>
      </trkpt>
      <trkpt lat="44.89259" lon="0.88511">
        <ele>113</ele>
        <time>2012-10-21T06:42:29Z</time>
      </trkpt>
      <trkpt lat="44.89262" lon="0.88511">
        <ele>113</ele>
        <time>2012-10-21T06:42:31Z</time>
      </trkpt>
      <trkpt lat="44.89266" lon="0.8851">
        <ele>113</ele>
        <time>2012-10-21T06:42:33Z</time>
      </trkpt>
      <trkpt lat="44.89269" lon="0.8851">
        <ele>113</ele>
        <time>2012-10-21T06:42:35Z</time>
      </trkpt>
      <trkpt lat="44.89272" lon="0.88509">
        <ele>113</ele>
        <time>2012-10-21T06:42:37Z</time>
      </trkpt>
      <trkpt lat="44.89275" lon="0.88508">
        <ele>113</ele>
        <time>2012-10-21T06:42:39Z</time>
      </trkpt>
      <trkpt lat="44.89279" lon="0.88507">
        <ele>113</ele>
        <time>2012-10-21T06:42:41Z</time>
      </trkpt>
      <trkpt lat="44.89282" lon="0.88507">
        <ele>113</ele>
        <time>2012-10-21T06:42:43Z</time>
      </trkpt>
      <trkpt lat="44.89285" lon="0.88507">
        <ele>113</ele>
        <time>2012-10-21T06:42:45Z</time>
      </trkpt>
      <trkpt lat="44.89289" lon="0.88508">
        <ele>113</ele>
        <time>2012-10-21T06:42:48Z</time>
      </trkpt>
      <trkpt lat="44.89292" lon="0.88507">
        <ele>113</ele>
        <time>2012-10-21T06:42:50Z</time>
      </trkpt>
      <trkpt lat="44.89294" lon="0.88507">
        <ele>113</ele>
        <time>2012-10-21T06:42:52Z</time>
      </trkpt>
      <trkpt lat="44.89298" lon="0.88506">
        <ele>113</ele>
        <time>2012-10-21T06:42:54Z</time>
      </trkpt>
      <trkpt lat="44.89302" lon="0.88506">
        <ele>113</ele>
        <time>2012-10-21T06:42:56Z</time>
      </trkpt>
      <trkpt lat="44.89305" lon="0.88503">
        <ele>113</ele>
        <time>2012-10-21T06:42:58Z</time>
      </trkpt>
      <trkpt lat="44.89309" lon="0.88503">
        <ele>113</ele>
        <time>2012-10-21T06:43:00Z</time>
      </trkpt>
      <trkpt lat="44.89312" lon="0.88503">
        <ele>114</ele>
        <time>2012-10-21T06:43:02Z</time>
      </trkpt>
      <trkpt lat="44.89315" lon="0.88503">
        <ele>114</ele>
        <time>2012-10-21T06:43:04Z</time>
      </trkpt>
      <trkpt lat="44.89319" lon="0.88503">
        <ele>114</ele>
        <time>2012-10-21T06:43:06Z</time>
      </trkpt>
      <trkpt lat="44.89322" lon="0.88503">
        <ele>114</ele>
        <time>2012-10-21T06:43:09Z</time>
      </trkpt>
      <trkpt lat="44.89325" lon="0.88503">
        <ele>114</ele>
        <time>2012-10-21T06:43:11Z</time>
      </trkpt>
      <trkpt lat="44.89328" lon="0.88502">
        <ele>114</ele>
        <time>2012-10-21T06:43:13Z</time>
      </trkpt>
      <trkpt lat="44.89332" lon="0.88501">
        <ele>114</ele>
        <time>2012-10-21T06:43:15Z</time>
      </trkpt>
      <trkpt lat="44.89336" lon="0.88499">
        <ele>116</ele>
        <time>2012-10-21T06:43:18Z</time>
      </trkpt>
      <trkpt lat="44.89339" lon="0.88498">
        <ele>118</ele>
        <time>2012-10-21T06:43:20Z</time>
      </trkpt>
      <trkpt lat="44.89342" lon="0.88498">
        <ele>118</ele>
        <time>2012-10-21T06:43:22Z</time>
      </trkpt>
      <trkpt lat="44.89345" lon="0.88499">
        <ele>119</ele>
        <time>2012-10-21T06:43:24Z</time>
      </trkpt>
      <trkpt lat="44.89348" lon="0.88502">
        <ele>119</ele>
        <time>2012-10-21T06:43:26Z</time>
      </trkpt>
      <trkpt lat="44.89352" lon="0.88504">
        <ele>119</ele>
        <time>2012-10-21T06:43:28Z</time>
      </trkpt>
      <trkpt lat="44.89354" lon="0.88506">
        <ele>119</ele>
        <time>2012-10-21T06:43:31Z</time>
      </trkpt>
      <trkpt lat="44.89357" lon="0.88503">
        <ele>119</ele>
        <time>2012-10-21T06:43:33Z</time>
      </trkpt>
      <trkpt lat="44.89358" lon="0.88499">
        <ele>119</ele>
        <time>2012-10-21T06:43:35Z</time>
      </trkpt>
      <trkpt lat="44.89359" lon="0.88495">
        <ele>119</ele>
        <time>2012-10-21T06:43:37Z</time>
      </trkpt>
      <trkpt lat="44.8936" lon="0.88491">
        <ele>119</ele>
        <time>2012-10-21T06:43:40Z</time>
      </trkpt>
      <trkpt lat="44.89362" lon="0.88486">
        <ele>119</ele>
        <time>2012-10-21T06:43:42Z</time>
      </trkpt>
      <trkpt lat="44.89366" lon="0.88484">
        <ele>119</ele>
        <time>2012-10-21T06:43:44Z</time>
      </trkpt>
      <trkpt lat="44.8937" lon="0.88481">
        <ele>119</ele>
        <time>2012-10-21T06:43:46Z</time>
      </trkpt>
      <trkpt lat="44.89373" lon="0.8848">
        <ele>119</ele>
        <time>2012-10-21T06:43:48Z</time>
      </trkpt>
      <trkpt lat="44.89376" lon="0.88479">
        <ele>119</ele>
        <time>2012-10-21T06:43:50Z</time>
      </trkpt>
      <trkpt lat="44.89379" lon="0.88478">
        <ele>119</ele>
        <time>2012-10-21T06:43:52Z</time>
      </trkpt>
      <trkpt lat="44.89382" lon="0.88477">
        <ele>119</ele>
        <time>2012-10-21T06:43:54Z</time>
      </trkpt>
      <trkpt lat="44.89384" lon="0.88477">
        <ele>119</ele>
        <time>2012-10-21T06:43:56Z</time>
      </trkpt>
      <trkpt lat="44.89385" lon="0.88475">
        <ele>120</ele>
        <time>2012-10-21T06:43:58Z</time>
      </trkpt>
      <trkpt lat="44.89387" lon="0.88475">
        <ele>121</ele>
        <time>2012-10-21T06:44:00Z</time>
      </trkpt>
      <trkpt lat="44.8939" lon="0.88472">
        <ele>124</ele>
        <time>2012-10-21T06:44:03Z</time>
      </trkpt>
      <trkpt lat="44.89394" lon="0.8847">
        <ele>125</ele>
        <time>2012-10-21T06:44:06Z</time>
      </trkpt>
      <trkpt lat="44.89397" lon="0.88469">
        <ele>125</ele>
        <time>2012-10-21T06:44:08Z</time>
      </trkpt>
      <trkpt lat="44.89399" lon="0.88468">
        <ele>126</ele>
        <time>2012-10-21T06:44:10Z</time>
      </trkpt>
      <trkpt lat="44.89403" lon="0.88467">
        <ele>126</ele>
        <time>2012-10-21T06:44:12Z</time>
      </trkpt>
      <trkpt lat="44.89406" lon="0.88465">
        <ele>127</ele>
        <time>2012-10-21T06:44:14Z</time>
      </trkpt>
      <trkpt lat="44.89409" lon="0.88464">
        <ele>128</ele>
        <time>2012-10-21T06:44:16Z</time>
      </trkpt>
      <trkpt lat="44.89413" lon="0.88462">
        <ele>130</ele>
        <time>2012-10-21T06:44:18Z</time>
      </trkpt>
      <trkpt lat="44.89417" lon="0.8846">
        <ele>130</ele>
        <time>2012-10-21T06:44:20Z</time>
      </trkpt>
      <trkpt lat="44.89421" lon="0.88459">
        <ele>130</ele>
        <time>2012-10-21T06:44:23Z</time>
      </trkpt>
      <trkpt lat="44.89424" lon="0.88458">
        <ele>130</ele>
        <time>2012-10-21T06:44:25Z</time>
      </trkpt>
      <trkpt lat="44.89427" lon="0.88456">
        <ele>130</ele>
        <time>2012-10-21T06:44:27Z</time>
      </trkpt>
      <trkpt lat="44.89429" lon="0.88455">
        <ele>130</ele>
        <time>2012-10-21T06:44:29Z</time>
      </trkpt>
      <trkpt lat="44.8943" lon="0.88455">
        <ele>131</ele>
        <time>2012-10-21T06:44:31Z</time>
      </trkpt>
      <trkpt lat="44.89433" lon="0.88455">
        <ele>132</ele>
        <time>2012-10-21T06:44:33Z</time>
      </trkpt>
      <trkpt lat="44.89436" lon="0.88454">
        <ele>132</ele>
        <time>2012-10-21T06:44:35Z</time>
      </trkpt>
      <trkpt lat="44.89439" lon="0.88453">
        <ele>132</ele>
        <time>2012-10-21T06:44:37Z</time>
      </trkpt>
      <trkpt lat="44.89442" lon="0.88451">
        <ele>132</ele>
        <time>2012-10-21T06:44:39Z</time>
      </trkpt>
      <trkpt lat="44.89446" lon="0.88449">
        <ele>132</ele>
        <time>2012-10-21T06:44:41Z</time>
      </trkpt>
      <trkpt lat="44.8945" lon="0.88447">
        <ele>133</ele>
        <time>2012-10-21T06:44:43Z</time>
      </trkpt>
      <trkpt lat="44.89453" lon="0.88446">
        <ele>135</ele>
        <time>2012-10-21T06:44:45Z</time>
      </trkpt>
      <trkpt lat="44.89457" lon="0.88443">
        <ele>136</ele>
        <time>2012-10-21T06:44:47Z</time>
      </trkpt>
      <trkpt lat="44.89462" lon="0.8844">
        <ele>137</ele>
        <time>2012-10-21T06:44:49Z</time>
      </trkpt>
      <trkpt lat="44.89466" lon="0.88439">
        <ele>137</ele>
        <time>2012-10-21T06:44:51Z</time>
      </trkpt>
      <trkpt lat="44.89471" lon="0.88435">
        <ele>138</ele>
        <time>2012-10-21T06:44:53Z</time>
      </trkpt>
      <trkpt lat="44.89475" lon="0.88434">
        <ele>139</ele>
        <time>2012-10-21T06:44:55Z</time>
      </trkpt>
      <trkpt lat="44.89478" lon="0.88433">
        <ele>139</ele>
        <time>2012-10-21T06:44:57Z</time>
      </trkpt>
      <trkpt lat="44.89482" lon="0.8843">
        <ele>140</ele>
        <time>2012-10-21T06:44:59Z</time>
      </trkpt>
      <trkpt lat="44.89487" lon="0.88428">
        <ele>140</ele>
        <time>2012-10-21T06:45:01Z</time>
      </trkpt>
      <trkpt lat="44.89491" lon="0.88426">
        <ele>140</ele>
        <time>2012-10-21T06:45:03Z</time>
      </trkpt>
      <trkpt lat="44.89494" lon="0.88423">
        <ele>140</ele>
        <time>2012-10-21T06:45:05Z</time>
      </trkpt>
      <trkpt lat="44.89499" lon="0.88421">
        <ele>140</ele>
        <time>2012-10-21T06:45:07Z</time>
      </trkpt>
      <trkpt lat="44.89503" lon="0.88416">
        <ele>140</ele>
        <time>2012-10-21T06:45:09Z</time>
      </trkpt>
      <trkpt lat="44.89509" lon="0.88412">
        <ele>140</ele>
        <time>2012-10-21T06:45:11Z</time>
      </trkpt>
      <trkpt lat="44.89513" lon="0.88408">
        <ele>140</ele>
        <time>2012-10-21T06:45:13Z</time>
      </trkpt>
      <trkpt lat="44.89518" lon="0.88405">
        <ele>141</ele>
        <time>2012-10-21T06:45:15Z</time>
      </trkpt>
      <trkpt lat="44.89523" lon="0.88402">
        <ele>141</ele>
        <time>2012-10-21T06:45:17Z</time>
      </trkpt>
      <trkpt lat="44.89528" lon="0.884">
        <ele>141</ele>
        <time>2012-10-21T06:45:19Z</time>
      </trkpt>
      <trkpt lat="44.89533" lon="0.88397">
        <ele>141</ele>
        <time>2012-10-21T06:45:21Z</time>
      </trkpt>
      <trkpt lat="44.89537" lon="0.88393">
        <ele>142</ele>
        <time>2012-10-21T06:45:23Z</time>
      </trkpt>
      <trkpt lat="44.89541" lon="0.88392">
        <ele>142</ele>
        <time>2012-10-21T06:45:25Z</time>
      </trkpt>
      <trkpt lat="44.89545" lon="0.88389">
        <ele>143</ele>
        <time>2012-10-21T06:45:27Z</time>
      </trkpt>
      <trkpt lat="44.8955" lon="0.88385">
        <ele>144</ele>
        <time>2012-10-21T06:45:29Z</time>
      </trkpt>
      <trkpt lat="44.89554" lon="0.88382">
        <ele>144</ele>
        <time>2012-10-21T06:45:32Z</time>
      </trkpt>
      <trkpt lat="44.89558" lon="0.8838">
        <ele>145</ele>
        <time>2012-10-21T06:45:34Z</time>
      </trkpt>
      <trkpt lat="44.89562" lon="0.88377">
        <ele>145</ele>
        <time>2012-10-21T06:45:36Z</time>
      </trkpt>
      <trkpt lat="44.89565" lon="0.88375">
        <ele>145</ele>
        <time>2012-10-21T06:45:38Z</time>
      </trkpt>
      <trkpt lat="44.89568" lon="0.88374">
        <ele>145</ele>
        <time>2012-10-21T06:45:40Z</time>
      </trkpt>
      <trkpt lat="44.89572" lon="0.88371">
        <ele>145</ele>
        <time>2012-10-21T06:45:42Z</time>
      </trkpt>
      <trkpt lat="44.89576" lon="0.88367">
        <ele>146</ele>
        <time>2012-10-21T06:45:44Z</time>
      </trkpt>
      <trkpt lat="44.8958" lon="0.88364">
        <ele>146</ele>
        <time>2012-10-21T06:45:46Z</time>
      </trkpt>
      <trkpt lat="44.89583" lon="0.88361">
        <ele>146</ele>
        <time>2012-10-21T06:45:48Z</time>
      </trkpt>
      <trkpt lat="44.89586" lon="0.88358">
        <ele>146</ele>
        <time>2012-10-21T06:45:50Z</time>
      </trkpt>
      <trkpt lat="44.89589" lon="0.88354">
        <ele>146</ele>
        <time>2012-10-21T06:45:52Z</time>
      </trkpt>
      <trkpt lat="44.89592" lon="0.8835">
        <ele>146</ele>
        <time>2012-10-21T06:45:54Z</time>
      </trkpt>
      <trkpt lat="44.89596" lon="0.88347">
        <ele>146</ele>
        <time>2012-10-21T06:45:56Z</time>
      </trkpt>
      <trkpt lat="44.89601" lon="0.88343">
        <ele>146</ele>
        <time>2012-10-21T06:45:58Z</time>
      </trkpt>
      <trkpt lat="44.89606" lon="0.8834">
        <ele>146</ele>
        <time>2012-10-21T06:46:00Z</time>
      </trkpt>
      <trkpt lat="44.89612" lon="0.88337">
        <ele>146</ele>
        <time>2012-10-21T06:46:02Z</time>
      </trkpt>
      <trkpt lat="44.89618" lon="0.88335">
        <ele>146</ele>
        <time>2012-10-21T06:46:04Z</time>
      </trkpt>
      <trkpt lat="44.89624" lon="0.88333">
        <ele>147</ele>
        <time>2012-10-21T06:46:06Z</time>
      </trkpt>
      <trkpt lat="44.8963" lon="0.88331">
        <ele>147</ele>
        <time>2012-10-21T06:46:08Z</time>
      </trkpt>
      <trkpt lat="44.89635" lon="0.88329">
        <ele>148</ele>
        <time>2012-10-21T06:46:10Z</time>
      </trkpt>
      <trkpt lat="44.8964" lon="0.88326">
        <ele>148</ele>
        <time>2012-10-21T06:46:12Z</time>
      </trkpt>
      <trkpt lat="44.89644" lon="0.88324">
        <ele>149</ele>
        <time>2012-10-21T06:46:14Z</time>
      </trkpt>
      <trkpt lat="44.89649" lon="0.88322">
        <ele>150</ele>
        <time>2012-10-21T06:46:16Z</time>
      </trkpt>
      <trkpt lat="44.89654" lon="0.88319">
        <ele>150</ele>
        <time>2012-10-21T06:46:18Z</time>
      </trkpt>
      <trkpt lat="44.89659" lon="0.88317">
        <ele>150</ele>
        <time>2012-10-21T06:46:20Z</time>
      </trkpt>
      <trkpt lat="44.89664" lon="0.88315">
        <ele>150</ele>
        <time>2012-10-21T06:46:22Z</time>
      </trkpt>
      <trkpt lat="44.89669" lon="0.88313">
        <ele>150</ele>
        <time>2012-10-21T06:46:24Z</time>
      </trkpt>
      <trkpt lat="44.89674" lon="0.88312">
        <ele>150</ele>
        <time>2012-10-21T06:46:26Z</time>
      </trkpt>
      <trkpt lat="44.89679" lon="0.8831">
        <ele>151</ele>
        <time>2012-10-21T06:46:28Z</time>
      </trkpt>
      <trkpt lat="44.89685" lon="0.88307">
        <ele>152</ele>
        <time>2012-10-21T06:46:30Z</time>
      </trkpt>
      <trkpt lat="44.89689" lon="0.88303">
        <ele>152</ele>
        <time>2012-10-21T06:46:32Z</time>
      </trkpt>
      <trkpt lat="44.89694" lon="0.883">
        <ele>153</ele>
        <time>2012-10-21T06:46:34Z</time>
      </trkpt>
      <trkpt lat="44.89698" lon="0.88299">
        <ele>154</ele>
        <time>2012-10-21T06:46:36Z</time>
      </trkpt>
      <trkpt lat="44.89702" lon="0.88297">
        <ele>154</ele>
        <time>2012-10-21T06:46:38Z</time>
      </trkpt>
      <trkpt lat="44.89707" lon="0.88295">
        <ele>154</ele>
        <time>2012-10-21T06:46:40Z</time>
      </trkpt>
      <trkpt lat="44.89712" lon="0.88293">
        <ele>154</ele>
        <time>2012-10-21T06:46:42Z</time>
      </trkpt>
      <trkpt lat="44.89718" lon="0.8829">
        <ele>154</ele>
        <time>2012-10-21T06:46:44Z</time>
      </trkpt>
      <trkpt lat="44.89722" lon="0.88288">
        <ele>154</ele>
        <time>2012-10-21T06:46:46Z</time>
      </trkpt>
      <trkpt lat="44.89728" lon="0.88287">
        <ele>154</ele>
        <time>2012-10-21T06:46:48Z</time>
      </trkpt>
      <trkpt lat="44.89734" lon="0.88284">
        <ele>154</ele>
        <time>2012-10-21T06:46:50Z</time>
      </trkpt>
      <trkpt lat="44.8974" lon="0.88282">
        <ele>154</ele>
        <time>2012-10-21T06:46:52Z</time>
      </trkpt>
      <trkpt lat="44.89746" lon="0.88279">
        <ele>154</ele>
        <time>2012-10-21T06:46:54Z</time>
      </trkpt>
      <trkpt lat="44.89752" lon="0.88275">
        <ele>154</ele>
        <time>2012-10-21T06:46:56Z</time>
      </trkpt>
      <trkpt lat="44.89759" lon="0.88272">
        <ele>154</ele>
        <time>2012-10-21T06:46:58Z</time>
      </trkpt>
      <trkpt lat="44.89766" lon="0.88269">
        <ele>155</ele>
        <time>2012-10-21T06:47:00Z</time>
      </trkpt>
      <trkpt lat="44.89773" lon="0.88266">
        <ele>155</ele>
        <time>2012-10-21T06:47:02Z</time>
      </trkpt>
      <trkpt lat="44.8978" lon="0.88263">
        <ele>155</ele>
        <time>2012-10-21T06:47:04Z</time>
      </trkpt>
      <trkpt lat="44.89788" lon="0.8826">
        <ele>156</ele>
        <time>2012-10-21T06:47:06Z</time>
      </trkpt>
      <trkpt lat="44.89795" lon="0.88257">
        <ele>156</ele>
        <time>2012-10-21T06:47:08Z</time>
      </trkpt>
      <trkpt lat="44.898" lon="0.88255">
        <ele>157</ele>
        <time>2012-10-21T06:47:10Z</time>
      </trkpt>
      <trkpt lat="44.89807" lon="0.88253">
        <ele>157</ele>
        <time>2012-10-21T06:47:12Z</time>
      </trkpt>
      <trkpt lat="44.89813" lon="0.88251">
        <ele>157</ele>
        <time>2012-10-21T06:47:14Z</time>
      </trkpt>
      <trkpt lat="44.8982" lon="0.88249">
        <ele>157</ele>
        <time>2012-10-21T06:47:16Z</time>
      </trkpt>
      <trkpt lat="44.89827" lon="0.88247">
        <ele>157</ele>
        <time>2012-10-21T06:47:18Z</time>
      </trkpt>
      <trkpt lat="44.89835" lon="0.88244">
        <ele>157</ele>
        <time>2012-10-21T06:47:20Z</time>
      </trkpt>
      <trkpt lat="44.89843" lon="0.88242">
        <ele>158</ele>
        <time>2012-10-21T06:47:22Z</time>
      </trkpt>
      <trkpt lat="44.89851" lon="0.8824">
        <ele>159</ele>
        <time>2012-10-21T06:47:24Z</time>
      </trkpt>
      <trkpt lat="44.89859" lon="0.8824">
        <ele>159</ele>
        <time>2012-10-21T06:47:26Z</time>
      </trkpt>
      <trkpt lat="44.89867" lon="0.8824">
        <ele>159</ele>
        <time>2012-10-21T06:47:28Z</time>
      </trkpt>
      <trkpt lat="44.89875" lon="0.88239">
        <ele>159</ele>
        <time>2012-10-21T06:47:30Z</time>
      </trkpt>
      <trkpt lat="44.89883" lon="0.88239">
        <ele>159</ele>
        <time>2012-10-21T06:47:32Z</time>
      </trkpt>
      <trkpt lat="44.89891" lon="0.88239">
        <ele>159</ele>
        <time>2012-10-21T06:47:34Z</time>
      </trkpt>
      <trkpt lat="44.89901" lon="0.88238">
        <ele>159</ele>
        <time>2012-10-21T06:47:36Z</time>
      </trkpt>
      <trkpt lat="44.89911" lon="0.88236">
        <ele>159</ele>
        <time>2012-10-21T06:47:38Z</time>
      </trkpt>
      <trkpt lat="44.89922" lon="0.88233">
        <ele>159</ele>
        <time>2012-10-21T06:47:40Z</time>
      </trkpt>
      <trkpt lat="44.89934" lon="0.88231">
        <ele>159</ele>
        <time>2012-10-21T06:47:42Z</time>
      </trkpt>
      <trkpt lat="44.89946" lon="0.88229">
        <ele>159</ele>
        <time>2012-10-21T06:47:44Z</time>
      </trkpt>
      <trkpt lat="44.89957" lon="0.88229">
        <ele>159</ele>
        <time>2012-10-21T06:47:46Z</time>
      </trkpt>
      <trkpt lat="44.89969" lon="0.88228">
        <ele>159</ele>
        <time>2012-10-21T06:47:48Z</time>
      </trkpt>
      <trkpt lat="44.8998" lon="0.88226">
        <ele>159</ele>
        <time>2012-10-21T06:47:50Z</time>
      </trkpt>
      <trkpt lat="44.89991" lon="0.88223">
        <ele>159</ele>
        <time>2012-10-21T06:47:52Z</time>
      </trkpt>
      <trkpt lat="44.90003" lon="0.88219">
        <ele>159</ele>
        <time>2012-10-21T06:47:54Z</time>
      </trkpt>
      <trkpt lat="44.90014" lon="0.88216">
        <ele>159</ele>
        <time>2012-10-21T06:47:56Z</time>
      </trkpt>
      <trkpt lat="44.90025" lon="0.88213">
        <ele>159</ele>
        <time>2012-10-21T06:47:58Z</time>
      </trkpt>
      <trkpt lat="44.90036" lon="0.8821">
        <ele>159</ele>
        <time>2012-10-21T06:48:00Z</time>
      </trkpt>
      <trkpt lat="44.90047" lon="0.88207">
        <ele>159</ele>
        <time>2012-10-21T06:48:02Z</time>
      </trkpt>
      <trkpt lat="44.90058" lon="0.88205">
        <ele>159</ele>
        <time>2012-10-21T06:48:04Z</time>
      </trkpt>
      <trkpt lat="44.90069" lon="0.88202">
        <ele>159</ele>
        <time>2012-10-21T06:48:06Z</time>
      </trkpt>
      <trkpt lat="44.9008" lon="0.88201">
        <ele>159</ele>
        <time>2012-10-21T06:48:08Z</time>
      </trkpt>
      <trkpt lat="44.90091" lon="0.88199">
        <ele>159</ele>
        <time>2012-10-21T06:48:10Z</time>
      </trkpt>
      <trkpt lat="44.90103" lon="0.88198">
        <ele>159</ele>
        <time>2012-10-21T06:48:12Z</time>
      </trkpt>
      <trkpt lat="44.90114" lon="0.88197">
        <ele>159</ele>
        <time>2012-10-21T06:48:14Z</time>
      </trkpt>
      <trkpt lat="44.90126" lon="0.88195">
        <ele>159</ele>
        <time>2012-10-21T06:48:16Z</time>
      </trkpt>
      <trkpt lat="44.90137" lon="0.88193">
        <ele>159</ele>
        <time>2012-10-21T06:48:18Z</time>
      </trkpt>
      <trkpt lat="44.90148" lon="0.88192">
        <ele>159</ele>
        <time>2012-10-21T06:48:20Z</time>
      </trkpt>
      <trkpt lat="44.9016" lon="0.88191">
        <ele>159</ele>
        <time>2012-10-21T06:48:22Z</time>
      </trkpt>
      <trkpt lat="44.90171" lon="0.8819">
        <ele>159</ele>
        <time>2012-10-21T06:48:24Z</time>
      </trkpt>
      <trkpt lat="44.90183" lon="0.88188">
        <ele>159</ele>
        <time>2012-10-21T06:48:26Z</time>
      </trkpt>
      <trkpt lat="44.90195" lon="0.88186">
        <ele>159</ele>
        <time>2012-10-21T06:48:28Z</time>
      </trkpt>
      <trkpt lat="44.90207" lon="0.88183">
        <ele>159</ele>
        <time>2012-10-21T06:48:30Z</time>
      </trkpt>
      <trkpt lat="44.90218" lon="0.88181">
        <ele>159</ele>
        <time>2012-10-21T06:48:32Z</time>
      </trkpt>
      <trkpt lat="44.9023" lon="0.8818">
        <ele>159</ele>
        <time>2012-10-21T06:48:34Z</time>
      </trkpt>
      <trkpt lat="44.90241" lon="0.88178">
        <ele>159</ele>
        <time>2012-10-21T06:48:36Z</time>
      </trkpt>
      <trkpt lat="44.90253" lon="0.88175">
        <ele>159</ele>
        <time>2012-10-21T06:48:38Z</time>
      </trkpt>
      <trkpt lat="44.90265" lon="0.88172">
        <ele>159</ele>
        <time>2012-10-21T06:48:40Z</time>
      </trkpt>
      <trkpt lat="44.90276" lon="0.88169">
        <ele>159</ele>
        <time>2012-10-21T06:48:42Z</time>
      </trkpt>
      <trkpt lat="44.90287" lon="0.88165">
        <ele>159</ele>
        <time>2012-10-21T06:48:44Z</time>
      </trkpt>
      <trkpt lat="44.90298" lon="0.88159">
        <ele>159</ele>
        <time>2012-10-21T06:48:46Z</time>
      </trkpt>
      <trkpt lat="44.90309" lon="0.88155">
        <ele>159</ele>
        <time>2012-10-21T06:48:48Z</time>
      </trkpt>
      <trkpt lat="44.90318" lon="0.88149">
        <ele>159</ele>
        <time>2012-10-21T06:48:50Z</time>
      </trkpt>
      <trkpt lat="44.90326" lon="0.88143">
        <ele>159</ele>
        <time>2012-10-21T06:48:52Z</time>
      </trkpt>
      <trkpt lat="44.90334" lon="0.88137">
        <ele>159</ele>
        <time>2012-10-21T06:48:54Z</time>
      </trkpt>
      <trkpt lat="44.90343" lon="0.88131">
        <ele>159</ele>
        <time>2012-10-21T06:48:56Z</time>
      </trkpt>
      <trkpt lat="44.9035" lon="0.88127">
        <ele>159</ele>
        <time>2012-10-21T06:48:58Z</time>
      </trkpt>
      <trkpt lat="44.90361" lon="0.88119">
        <ele>159</ele>
        <time>2012-10-21T06:49:00Z</time>
      </trkpt>
      <trkpt lat="44.90371" lon="0.88114">
        <ele>159</ele>
        <time>2012-10-21T06:49:02Z</time>
      </trkpt>
      <trkpt lat="44.90379" lon="0.8811">
        <ele>159</ele>
        <time>2012-10-21T06:49:04Z</time>
      </trkpt>
      <trkpt lat="44.90387" lon="0.88108">
        <ele>159</ele>
        <time>2012-10-21T06:49:06Z</time>
      </trkpt>
      <trkpt lat="44.90395" lon="0.88104">
        <ele>159</ele>
        <time>2012-10-21T06:49:08Z</time>
      </trkpt>
      <trkpt lat="44.90403" lon="0.881">
        <ele>159</ele>
        <time>2012-10-21T06:49:10Z</time>
      </trkpt>
      <trkpt lat="44.90411" lon="0.88096">
        <ele>160</ele>
        <time>2012-10-21T06:49:12Z</time>
      </trkpt>
      <trkpt lat="44.90419" lon="0.88092">
        <ele>160</ele>
        <time>2012-10-21T06:49:14Z</time>
      </trkpt>
      <trkpt lat="44.90427" lon="0.88087">
        <ele>160</ele>
        <time>2012-10-21T06:49:16Z</time>
      </trkpt>
      <trkpt lat="44.90435" lon="0.88083">
        <ele>160</ele>
        <time>2012-10-21T06:49:18Z</time>
      </trkpt>
      <trkpt lat="44.90442" lon="0.88079">
        <ele>160</ele>
        <time>2012-10-21T06:49:20Z</time>
      </trkpt>
      <trkpt lat="44.90448" lon="0.88073">
        <ele>160</ele>
        <time>2012-10-21T06:49:22Z</time>
      </trkpt>
      <trkpt lat="44.90454" lon="0.88065">
        <ele>161</ele>
        <time>2012-10-21T06:49:24Z</time>
      </trkpt>
      <trkpt lat="44.9046" lon="0.88059">
        <ele>161</ele>
        <time>2012-10-21T06:49:26Z</time>
      </trkpt>
      <trkpt lat="44.90466" lon="0.88056">
        <ele>161</ele>
        <time>2012-10-21T06:49:28Z</time>
      </trkpt>
      <trkpt lat="44.90473" lon="0.88053">
        <ele>161</ele>
        <time>2012-10-21T06:49:30Z</time>
      </trkpt>
      <trkpt lat="44.9048" lon="0.88049">
        <ele>161</ele>
        <time>2012-10-21T06:49:32Z</time>
      </trkpt>
      <trkpt lat="44.90487" lon="0.88045">
        <ele>161</ele>
        <time>2012-10-21T06:49:34Z</time>
      </trkpt>
      <trkpt lat="44.90496" lon="0.88041">
        <ele>161</ele>
        <time>2012-10-21T06:49:36Z</time>
      </trkpt>
      <trkpt lat="44.90503" lon="0.88038">
        <ele>162</ele>
        <time>2012-10-21T06:49:38Z</time>
      </trkpt>
      <trkpt lat="44.9051" lon="0.88036">
        <ele>162</ele>
        <time>2012-10-21T06:49:40Z</time>
      </trkpt>
      <trkpt lat="44.90516" lon="0.88033">
        <ele>163</ele>
        <time>2012-10-21T06:49:42Z</time>
      </trkpt>
      <trkpt lat="44.90523" lon="0.8803">
        <ele>164</ele>
        <time>2012-10-21T06:49:44Z</time>
      </trkpt>
      <trkpt lat="44.90531" lon="0.88027">
        <ele>165</ele>
        <time>2012-10-21T06:49:46Z</time>
      </trkpt>
      <trkpt lat="44.90538" lon="0.88025">
        <ele>166</ele>
        <time>2012-10-21T06:49:48Z</time>
      </trkpt>
      <trkpt lat="44.90546" lon="0.88024">
        <ele>167</ele>
        <time>2012-10-21T06:49:50Z</time>
      </trkpt>
      <trkpt lat="44.90552" lon="0.88022">
        <ele>168</ele>
        <time>2012-10-21T06:49:52Z</time>
      </trkpt>
      <trkpt lat="44.90556" lon="0.88018">
        <ele>169</ele>
        <time>2012-10-21T06:49:54Z</time>
      </trkpt>
      <trkpt lat="44.90561" lon="0.88012">
        <ele>169</ele>
        <time>2012-10-21T06:49:56Z</time>
      </trkpt>
      <trkpt lat="44.90565" lon="0.88005">
        <ele>169</ele>
        <time>2012-10-21T06:49:58Z</time>
      </trkpt>
      <trkpt lat="44.9057" lon="0.87996">
        <ele>169</ele>
        <time>2012-10-21T06:50:00Z</time>
      </trkpt>
      <trkpt lat="44.90575" lon="0.87986">
        <ele>169</ele>
        <time>2012-10-21T06:50:02Z</time>
      </trkpt>
      <trkpt lat="44.9058" lon="0.87977">
        <ele>169</ele>
        <time>2012-10-21T06:50:04Z</time>
      </trkpt>
      <trkpt lat="44.90585" lon="0.8797">
        <ele>170</ele>
        <time>2012-10-21T06:50:06Z</time>
      </trkpt>
      <trkpt lat="44.9059" lon="0.87961">
        <ele>171</ele>
        <time>2012-10-21T06:50:08Z</time>
      </trkpt>
      <trkpt lat="44.90595" lon="0.87952">
        <ele>173</ele>
        <time>2012-10-21T06:50:10Z</time>
      </trkpt>
      <trkpt lat="44.90599" lon="0.87941">
        <ele>173</ele>
        <time>2012-10-21T06:50:12Z</time>
      </trkpt>
      <trkpt lat="44.90604" lon="0.8793">
        <ele>174</ele>
        <time>2012-10-21T06:50:14Z</time>
      </trkpt>
      <trkpt lat="44.9061" lon="0.8792">
        <ele>174</ele>
        <time>2012-10-21T06:50:16Z</time>
      </trkpt>
      <trkpt lat="44.90616" lon="0.87912">
        <ele>174</ele>
        <time>2012-10-21T06:50:18Z</time>
      </trkpt>
      <trkpt lat="44.9062" lon="0.87905">
        <ele>175</ele>
        <time>2012-10-21T06:50:20Z</time>
      </trkpt>
      <trkpt lat="44.90625" lon="0.87896">
        <ele>175</ele>
        <time>2012-10-21T06:50:22Z</time>
      </trkpt>
      <trkpt lat="44.90633" lon="0.87888">
        <ele>176</ele>
        <time>2012-10-21T06:50:24Z</time>
      </trkpt>
      <trkpt lat="44.9064" lon="0.87882">
        <ele>176</ele>
        <time>2012-10-21T06:50:26Z</time>
      </trkpt>
      <trkpt lat="44.90646" lon="0.87878">
        <ele>176</ele>
        <time>2012-10-21T06:50:28Z</time>
      </trkpt>
      <trkpt lat="44.90653" lon="0.87873">
        <ele>177</ele>
        <time>2012-10-21T06:50:30Z</time>
      </trkpt>
      <trkpt lat="44.90662" lon="0.87866">
        <ele>178</ele>
        <time>2012-10-21T06:50:32Z</time>
      </trkpt>
      <trkpt lat="44.90671" lon="0.87859">
        <ele>179</ele>
        <time>2012-10-21T06:50:34Z</time>
      </trkpt>
      <trkpt lat="44.90681" lon="0.87853">
        <ele>181</ele>
        <time>2012-10-21T06:50:36Z</time>
      </trkpt>
      <trkpt lat="44.9069" lon="0.87848">
        <ele>181</ele>
        <time>2012-10-21T06:50:38Z</time>
      </trkpt>
      <trkpt lat="44.90698" lon="0.87841">
        <ele>182</ele>
        <time>2012-10-21T06:50:40Z</time>
      </trkpt>
      <trkpt lat="44.90707" lon="0.87836">
        <ele>182</ele>
        <time>2012-10-21T06:50:42Z</time>
      </trkpt>
      <trkpt lat="44.90715" lon="0.87832">
        <ele>182</ele>
        <time>2012-10-21T06:50:44Z</time>
      </trkpt>
      <trkpt lat="44.90722" lon="0.87827">
        <ele>182</ele>
        <time>2012-10-21T06:50:46Z</time>
      </trkpt>
      <trkpt lat="44.90729" lon="0.87823">
        <ele>182</ele>
        <time>2012-10-21T06:50:48Z</time>
      </trkpt>
      <trkpt lat="44.90735" lon="0.8782">
        <ele>182</ele>
        <time>2012-10-21T06:50:50Z</time>
      </trkpt>
      <trkpt lat="44.90741" lon="0.87818">
        <ele>182</ele>
        <time>2012-10-21T06:50:52Z</time>
      </trkpt>
      <trkpt lat="44.9075" lon="0.87813">
        <ele>183</ele>
        <time>2012-10-21T06:50:54Z</time>
      </trkpt>
      <trkpt lat="44.90759" lon="0.87808">
        <ele>184</ele>
        <time>2012-10-21T06:50:56Z</time>
      </trkpt>
      <trkpt lat="44.90765" lon="0.87806">
        <ele>184</ele>
        <time>2012-10-21T06:50:58Z</time>
      </trkpt>
      <trkpt lat="44.90773" lon="0.87802">
        <ele>184</ele>
        <time>2012-10-21T06:51:00Z</time>
      </trkpt>
      <trkpt lat="44.9078" lon="0.878">
        <ele>184</ele>
        <time>2012-10-21T06:51:02Z</time>
      </trkpt>
      <trkpt lat="44.90786" lon="0.87796">
        <ele>184</ele>
        <time>2012-10-21T06:51:04Z</time>
      </trkpt>
      <trkpt lat="44.90792" lon="0.87793">
        <ele>184</ele>
        <time>2012-10-21T06:51:06Z</time>
      </trkpt>
      <trkpt lat="44.90798" lon="0.8779">
        <ele>184</ele>
        <time>2012-10-21T06:51:08Z</time>
      </trkpt>
      <trkpt lat="44.90804" lon="0.87785">
        <ele>184</ele>
        <time>2012-10-21T06:51:10Z</time>
      </trkpt>
      <trkpt lat="44.9081" lon="0.8778">
        <ele>184</ele>
        <time>2012-10-21T06:51:12Z</time>
      </trkpt>
      <trkpt lat="44.90816" lon="0.87774">
        <ele>184</ele>
        <time>2012-10-21T06:51:14Z</time>
      </trkpt>
      <trkpt lat="44.90821" lon="0.87769">
        <ele>184</ele>
        <time>2012-10-21T06:51:16Z</time>
      </trkpt>
      <trkpt lat="44.90825" lon="0.87764">
        <ele>184</ele>
        <time>2012-10-21T06:51:18Z</time>
      </trkpt>
      <trkpt lat="44.9083" lon="0.87759">
        <ele>184</ele>
        <time>2012-10-21T06:51:20Z</time>
      </trkpt>
      <trkpt lat="44.90838" lon="0.87753">
        <ele>184</ele>
        <time>2012-10-21T06:51:22Z</time>
      </trkpt>
      <trkpt lat="44.90846" lon="0.8775">
        <ele>184</ele>
        <time>2012-10-21T06:51:24Z</time>
      </trkpt>
      <trkpt lat="44.90854" lon="0.87747">
        <ele>185</ele>
        <time>2012-10-21T06:51:26Z</time>
      </trkpt>
      <trkpt lat="44.9086" lon="0.87744">
        <ele>186</ele>
        <time>2012-10-21T06:51:28Z</time>
      </trkpt>
      <trkpt lat="44.90865" lon="0.87742">
        <ele>187</ele>
        <time>2012-10-21T06:51:30Z</time>
      </trkpt>
      <trkpt lat="44.90871" lon="0.87739">
        <ele>188</ele>
        <time>2012-10-21T06:51:32Z</time>
      </trkpt>
      <trkpt lat="44.90878" lon="0.87735">
        <ele>188</ele>
        <time>2012-10-21T06:51:34Z</time>
      </trkpt>
      <trkpt lat="44.90886" lon="0.87734">
        <ele>188</ele>
        <time>2012-10-21T06:51:36Z</time>
      </trkpt>
      <trkpt lat="44.90893" lon="0.87732">
        <ele>189</ele>
        <time>2012-10-21T06:51:38Z</time>
      </trkpt>
      <trkpt lat="44.90899" lon="0.8773">
        <ele>189</ele>
        <time>2012-10-21T06:51:40Z</time>
      </trkpt>
      <trkpt lat="44.90906" lon="0.87727">
        <ele>189</ele>
        <time>2012-10-21T06:51:42Z</time>
      </trkpt>
      <trkpt lat="44.90911" lon="0.87724">
        <ele>189</ele>
        <time>2012-10-21T06:51:44Z</time>
      </trkpt>
      <trkpt lat="44.90916" lon="0.8772">
        <ele>190</ele>
        <time>2012-10-21T06:51:46Z</time>
      </trkpt>
      <trkpt lat="44.9092" lon="0.87716">
        <ele>190</ele>
        <time>2012-10-21T06:51:48Z</time>
      </trkpt>
      <trkpt lat="44.90926" lon="0.87712">
        <ele>191</ele>
        <time>2012-10-21T06:51:50Z</time>
      </trkpt>
      <trkpt lat="44.90932" lon="0.87707">
        <ele>192</ele>
        <time>2012-10-21T06:51:52Z</time>
      </trkpt>
      <trkpt lat="44.90938" lon="0.87703">
        <ele>193</ele>
        <time>2012-10-21T06:51:54Z</time>
      </trkpt>
      <trkpt lat="44.90943" lon="0.87701">
        <ele>193</ele>
        <time>2012-10-21T06:51:56Z</time>
      </trkpt>
      <trkpt lat="44.9095" lon="0.87699">
        <ele>194</ele>
        <time>2012-10-21T06:51:58Z</time>
      </trkpt>
      <trkpt lat="44.90957" lon="0.87694">
        <ele>194</ele>
        <time>2012-10-21T06:52:00Z</time>
      </trkpt>
      <trkpt lat="44.90966" lon="0.8769">
        <ele>194</ele>
        <time>2012-10-21T06:52:02Z</time>
      </trkpt>
      <trkpt lat="44.90975" lon="0.87685">
        <ele>194</ele>
        <time>2012-10-21T06:52:04Z</time>
      </trkpt>
      <trkpt lat="44.90983" lon="0.87682">
        <ele>195</ele>
        <time>2012-10-21T06:52:06Z</time>
      </trkpt>
      <trkpt lat="44.90988" lon="0.87678">
        <ele>195</ele>
        <time>2012-10-21T06:52:08Z</time>
      </trkpt>
      <trkpt lat="44.90996" lon="0.87673">
        <ele>195</ele>
        <time>2012-10-21T06:52:10Z</time>
      </trkpt>
      <trkpt lat="44.91005" lon="0.87669">
        <ele>195</ele>
        <time>2012-10-21T06:52:12Z</time>
      </trkpt>
      <trkpt lat="44.91012" lon="0.87664">
        <ele>195</ele>
        <time>2012-10-21T06:52:14Z</time>
      </trkpt>
      <trkpt lat="44.9102" lon="0.8766">
        <ele>195</ele>
        <time>2012-10-21T06:52:16Z</time>
      </trkpt>
      <trkpt lat="44.91027" lon="0.87657">
        <ele>195</ele>
        <time>2012-10-21T06:52:18Z</time>
      </trkpt>
      <trkpt lat="44.91035" lon="0.87655">
        <ele>194</ele>
        <time>2012-10-21T06:52:20Z</time>
      </trkpt>
      <trkpt lat="44.91043" lon="0.87653">
        <ele>194</ele>
        <time>2012-10-21T06:52:22Z</time>
      </trkpt>
      <trkpt lat="44.9105" lon="0.87653">
        <ele>193</ele>
        <time>2012-10-21T06:52:24Z</time>
      </trkpt>
      <trkpt lat="44.9106" lon="0.87651">
        <ele>193</ele>
        <time>2012-10-21T06:52:26Z</time>
      </trkpt>
      <trkpt lat="44.9107" lon="0.87648">
        <ele>193</ele>
        <time>2012-10-21T06:52:28Z</time>
      </trkpt>
      <trkpt lat="44.91082" lon="0.87646">
        <ele>193</ele>
        <time>2012-10-21T06:52:30Z</time>
      </trkpt>
      <trkpt lat="44.91097" lon="0.87643">
        <ele>193</ele>
        <time>2012-10-21T06:52:32Z</time>
      </trkpt>
      <trkpt lat="44.91111" lon="0.87641">
        <ele>193</ele>
        <time>2012-10-21T06:52:34Z</time>
      </trkpt>
      <trkpt lat="44.91126" lon="0.87639">
        <ele>193</ele>
        <time>2012-10-21T06:52:36Z</time>
      </trkpt>
      <trkpt lat="44.91143" lon="0.87636">
        <ele>192</ele>
        <time>2012-10-21T06:52:38Z</time>
      </trkpt>
      <trkpt lat="44.91162" lon="0.87631">
        <ele>191</ele>
        <time>2012-10-21T06:52:40Z</time>
      </trkpt>
      <trkpt lat="44.91181" lon="0.87626">
        <ele>189</ele>
        <time>2012-10-21T06:52:42Z</time>
      </trkpt>
      <trkpt lat="44.91198" lon="0.87622">
        <ele>187</ele>
        <time>2012-10-21T06:52:44Z</time>
      </trkpt>
      <trkpt lat="44.91213" lon="0.87615">
        <ele>185</ele>
        <time>2012-10-21T06:52:46Z</time>
      </trkpt>
      <trkpt lat="44.91227" lon="0.87606">
        <ele>183</ele>
        <time>2012-10-21T06:52:48Z</time>
      </trkpt>
      <trkpt lat="44.91241" lon="0.87596">
        <ele>182</ele>
        <time>2012-10-21T06:52:50Z</time>
      </trkpt>
      <trkpt lat="44.91253" lon="0.87589">
        <ele>182</ele>
        <time>2012-10-21T06:52:52Z</time>
      </trkpt>
      <trkpt lat="44.91261" lon="0.8759">
        <ele>182</ele>
        <time>2012-10-21T06:52:54Z</time>
      </trkpt>
      <trkpt lat="44.91265" lon="0.876">
        <ele>182</ele>
        <time>2012-10-21T06:52:56Z</time>
      </trkpt>
      <trkpt lat="44.9127" lon="0.87611">
        <ele>181</ele>
        <time>2012-10-21T06:52:58Z</time>
      </trkpt>
      <trkpt lat="44.91276" lon="0.87623">
        <ele>180</ele>
        <time>2012-10-21T06:53:00Z</time>
      </trkpt>
      <trkpt lat="44.91283" lon="0.87637">
        <ele>179</ele>
        <time>2012-10-21T06:53:02Z</time>
      </trkpt>
      <trkpt lat="44.9129" lon="0.87654">
        <ele>178</ele>
        <time>2012-10-21T06:53:04Z</time>
      </trkpt>
      <trkpt lat="44.91299" lon="0.87673">
        <ele>177</ele>
        <time>2012-10-21T06:53:06Z</time>
      </trkpt>
      <trkpt lat="44.91309" lon="0.87695">
        <ele>175</ele>
        <time>2012-10-21T06:53:08Z</time>
      </trkpt>
      <trkpt lat="44.91317" lon="0.87719">
        <ele>174</ele>
        <time>2012-10-21T06:53:10Z</time>
      </trkpt>
      <trkpt lat="44.91327" lon="0.87742">
        <ele>172</ele>
        <time>2012-10-21T06:53:12Z</time>
      </trkpt>
      <trkpt lat="44.91339" lon="0.87765">
        <ele>170</ele>
        <time>2012-10-21T06:53:14Z</time>
      </trkpt>
      <trkpt lat="44.91354" lon="0.87784">
        <ele>168</ele>
        <time>2012-10-21T06:53:16Z</time>
      </trkpt>
      <trkpt lat="44.9137" lon="0.87801">
        <ele>166</ele>
        <time>2012-10-21T06:53:18Z</time>
      </trkpt>
      <trkpt lat="44.91384" lon="0.87816">
        <ele>164</ele>
        <time>2012-10-21T06:53:20Z</time>
      </trkpt>
      <trkpt lat="44.91396" lon="0.87828">
        <ele>163</ele>
        <time>2012-10-21T06:53:22Z</time>
      </trkpt>
      <trkpt lat="44.9141" lon="0.87837">
        <ele>163</ele>
        <time>2012-10-21T06:53:24Z</time>
      </trkpt>
      <trkpt lat="44.91423" lon="0.87843">
        <ele>163</ele>
        <time>2012-10-21T06:53:26Z</time>
      </trkpt>
      <trkpt lat="44.91435" lon="0.87849">
        <ele>163</ele>
        <time>2012-10-21T06:53:28Z</time>
      </trkpt>
      <trkpt lat="44.91447" lon="0.87854">
        <ele>163</ele>
        <time>2012-10-21T06:53:30Z</time>
      </trkpt>
      <trkpt lat="44.91459" lon="0.87861">
        <ele>163</ele>
        <time>2012-10-21T06:53:32Z</time>
      </trkpt>
      <trkpt lat="44.91472" lon="0.87865">
        <ele>163</ele>
        <time>2012-10-21T06:53:34Z</time>
      </trkpt>
      <trkpt lat="44.91485" lon="0.87867">
        <ele>163</ele>
        <time>2012-10-21T06:53:36Z</time>
      </trkpt>
      <trkpt lat="44.91497" lon="0.8787">
        <ele>163</ele>
        <time>2012-10-21T06:53:38Z</time>
      </trkpt>
      <trkpt lat="44.91507" lon="0.87873">
        <ele>163</ele>
        <time>2012-10-21T06:53:40Z</time>
      </trkpt>
      <trkpt lat="44.91515" lon="0.87876">
        <ele>163</ele>
        <time>2012-10-21T06:53:42Z</time>
      </trkpt>
      <trkpt lat="44.91523" lon="0.87879">
        <ele>163</ele>
        <time>2012-10-21T06:53:44Z</time>
      </trkpt>
      <trkpt lat="44.91532" lon="0.87886">
        <ele>163</ele>
        <time>2012-10-21T06:53:46Z</time>
      </trkpt>
      <trkpt lat="44.91539" lon="0.87894">
        <ele>163</ele>
        <time>2012-10-21T06:53:48Z</time>
      </trkpt>
      <trkpt lat="44.91542" lon="0.87902">
        <ele>163</ele>
        <time>2012-10-21T06:53:50Z</time>
      </trkpt>
      <trkpt lat="44.91546" lon="0.8791">
        <ele>163</ele>
        <time>2012-10-21T06:53:52Z</time>
      </trkpt>
      <trkpt lat="44.91549" lon="0.87918">
        <ele>163</ele>
        <time>2012-10-21T06:53:54Z</time>
      </trkpt>
      <trkpt lat="44.91553" lon="0.87927">
        <ele>163</ele>
        <time>2012-10-21T06:53:56Z</time>
      </trkpt>
      <trkpt lat="44.91557" lon="0.87937">
        <ele>163</ele>
        <time>2012-10-21T06:53:58Z</time>
      </trkpt>
      <trkpt lat="44.91562" lon="0.87949">
        <ele>163</ele>
        <time>2012-10-21T06:54:00Z</time>
      </trkpt>
      <trkpt lat="44.91565" lon="0.8796">
        <ele>163</ele>
        <time>2012-10-21T06:54:02Z</time>
      </trkpt>
      <trkpt lat="44.91569" lon="0.87973">
        <ele>163</ele>
        <time>2012-10-21T06:54:04Z</time>
      </trkpt>
      <trkpt lat="44.91578" lon="0.87985">
        <ele>163</ele>
        <time>2012-10-21T06:54:06Z</time>
      </trkpt>
      <trkpt lat="44.91587" lon="0.87998">
        <ele>163</ele>
        <time>2012-10-21T06:54:08Z</time>
      </trkpt>
      <trkpt lat="44.91592" lon="0.88011">
        <ele>163</ele>
        <time>2012-10-21T06:54:10Z</time>
      </trkpt>
      <trkpt lat="44.91593" lon="0.88023">
        <ele>163</ele>
        <time>2012-10-21T06:54:12Z</time>
      </trkpt>
      <trkpt lat="44.91587" lon="0.88033">
        <ele>163</ele>
        <time>2012-10-21T06:54:14Z</time>
      </trkpt>
      <trkpt lat="44.91579" lon="0.88039">
        <ele>163</ele>
        <time>2012-10-21T06:54:16Z</time>
      </trkpt>
      <trkpt lat="44.91569" lon="0.88045">
        <ele>163</ele>
        <time>2012-10-21T06:54:18Z</time>
      </trkpt>
      <trkpt lat="44.91559" lon="0.88053">
        <ele>163</ele>
        <time>2012-10-21T06:54:20Z</time>
      </trkpt>
      <trkpt lat="44.9155" lon="0.88066">
        <ele>164</ele>
        <time>2012-10-21T06:54:22Z</time>
      </trkpt>
      <trkpt lat="44.91541" lon="0.88079">
        <ele>166</ele>
        <time>2012-10-21T06:54:24Z</time>
      </trkpt>
      <trkpt lat="44.91533" lon="0.88092">
        <ele>167</ele>
        <time>2012-10-21T06:54:26Z</time>
      </trkpt>
      <trkpt lat="44.91527" lon="0.88104">
        <ele>169</ele>
        <time>2012-10-21T06:54:28Z</time>
      </trkpt>
      <trkpt lat="44.91522" lon="0.88116">
        <ele>169</ele>
        <time>2012-10-21T06:54:30Z</time>
      </trkpt>
      <trkpt lat="44.91519" lon="0.88128">
        <ele>170</ele>
        <time>2012-10-21T06:54:32Z</time>
      </trkpt>
      <trkpt lat="44.91521" lon="0.88136">
        <ele>171</ele>
        <time>2012-10-21T06:54:34Z</time>
      </trkpt>
      <trkpt lat="44.9152" lon="0.8814">
        <ele>171</ele>
        <time>2012-10-21T06:54:37Z</time>
      </trkpt>
      <trkpt lat="44.9152" lon="0.88142">
        <ele>171</ele>
        <time>2012-10-21T06:54:41Z</time>
      </trkpt>
      <trkpt lat="44.9152" lon="0.88143">
        <ele>171</ele>
        <time>2012-10-21T06:54:43Z</time>
      </trkpt>
      <trkpt lat="44.9152" lon="0.88145">
        <ele>171</ele>
        <time>2012-10-21T06:54:46Z</time>
      </trkpt>
      <trkpt lat="44.91521" lon="0.88147">
        <ele>171</ele>
        <time>2012-10-21T06:54:51Z</time>
      </trkpt>
      <trkpt lat="44.91522" lon="0.88148">
        <ele>170</ele>
        <time>2012-10-21T06:54:57Z</time>
      </trkpt>
      <trkpt lat="44.91523" lon="0.8815">
        <ele>169</ele>
        <time>2012-10-21T06:55:02Z</time>
      </trkpt>
      <trkpt lat="44.91523" lon="0.88151">
        <ele>168</ele>
        <time>2012-10-21T06:55:08Z</time>
      </trkpt>
      <trkpt lat="44.91522" lon="0.8815">
        <ele>168</ele>
        <time>2012-10-21T06:55:16Z</time>
      </trkpt>
      <trkpt lat="44.91521" lon="0.88148">
        <ele>168</ele>
        <time>2012-10-21T06:55:22Z</time>
      </trkpt>
      <trkpt lat="44.9152" lon="0.88147">
        <ele>168</ele>
        <time>2012-10-21T06:55:25Z</time>
      </trkpt>
      <trkpt lat="44.91518" lon="0.88145">
        <ele>171</ele>
        <time>2012-10-21T06:55:30Z</time>
      </trkpt>
      <trkpt lat="44.91517" lon="0.88144">
        <ele>174</ele>
        <time>2012-10-21T06:55:40Z</time>
      </trkpt>
      <trkpt lat="44.91519" lon="0.88143">
        <ele>175</ele>
        <time>2012-10-21T06:56:07Z</time>
      </trkpt>
      <trkpt lat="44.91522" lon="0.88143">
        <ele>175</ele>
        <time>2012-10-21T06:56:09Z</time>
      </trkpt>
      <trkpt lat="44.91525" lon="0.88146">
        <ele>175</ele>
        <time>2012-10-21T06:56:11Z</time>
      </trkpt>
      <trkpt lat="44.91528" lon="0.8815">
        <ele>175</ele>
        <time>2012-10-21T06:56:13Z</time>
      </trkpt>
      <trkpt lat="44.91533" lon="0.88155">
        <ele>175</ele>
        <time>2012-10-21T06:56:15Z</time>
      </trkpt>
      <trkpt lat="44.91536" lon="0.88161">
        <ele>175</ele>
        <time>2012-10-21T06:56:17Z</time>
      </trkpt>
      <trkpt lat="44.91539" lon="0.88169">
        <ele>175</ele>
        <time>2012-10-21T06:56:19Z</time>
      </trkpt>
      <trkpt lat="44.91541" lon="0.88176">
        <ele>175</ele>
        <time>2012-10-21T06:56:21Z</time>
      </trkpt>
      <trkpt lat="44.91541" lon="0.88184">
        <ele>175</ele>
        <time>2012-10-21T06:56:23Z</time>
      </trkpt>
      <trkpt lat="44.91543" lon="0.88191">
        <ele>175</ele>
        <time>2012-10-21T06:56:25Z</time>
      </trkpt>
      <trkpt lat="44.91545" lon="0.88197">
        <ele>175</ele>
        <time>2012-10-21T06:56:27Z</time>
      </trkpt>
      <trkpt lat="44.91547" lon="0.88205">
        <ele>174</ele>
        <time>2012-10-21T06:56:29Z</time>
      </trkpt>
      <trkpt lat="44.91549" lon="0.88211">
        <ele>174</ele>
        <time>2012-10-21T06:56:31Z</time>
      </trkpt>
      <trkpt lat="44.91551" lon="0.88218">
        <ele>172</ele>
        <time>2012-10-21T06:56:33Z</time>
      </trkpt>
      <trkpt lat="44.91553" lon="0.88223">
        <ele>171</ele>
        <time>2012-10-21T06:56:35Z</time>
      </trkpt>
      <trkpt lat="44.91555" lon="0.88229">
        <ele>170</ele>
        <time>2012-10-21T06:56:37Z</time>
      </trkpt>
      <trkpt lat="44.91555" lon="0.88237">
        <ele>169</ele>
        <time>2012-10-21T06:56:39Z</time>
      </trkpt>
      <trkpt lat="44.91556" lon="0.88243">
        <ele>168</ele>
        <time>2012-10-21T06:56:41Z</time>
      </trkpt>
      <trkpt lat="44.91557" lon="0.8825">
        <ele>168</ele>
        <time>2012-10-21T06:56:43Z</time>
      </trkpt>
      <trkpt lat="44.91559" lon="0.88257">
        <ele>167</ele>
        <time>2012-10-21T06:56:45Z</time>
      </trkpt>
      <trkpt lat="44.9156" lon="0.88265">
        <ele>166</ele>
        <time>2012-10-21T06:56:47Z</time>
      </trkpt>
      <trkpt lat="44.91561" lon="0.88271">
        <ele>166</ele>
        <time>2012-10-21T06:56:49Z</time>
      </trkpt>
      <trkpt lat="44.91563" lon="0.88278">
        <ele>165</ele>
        <time>2012-10-21T06:56:51Z</time>
      </trkpt>
      <trkpt lat="44.91563" lon="0.88285">
        <ele>165</ele>
        <time>2012-10-21T06:56:53Z</time>
      </trkpt>
      <trkpt lat="44.91565" lon="0.88289">
        <ele>164</ele>
        <time>2012-10-21T06:56:55Z</time>
      </trkpt>
      <trkpt lat="44.91565" lon="0.88295">
        <ele>162</ele>
        <time>2012-10-21T06:56:57Z</time>
      </trkpt>
      <trkpt lat="44.91565" lon="0.88302">
        <ele>161</ele>
        <time>2012-10-21T06:56:59Z</time>
      </trkpt>
      <trkpt lat="44.91565" lon="0.88308">
        <ele>161</ele>
        <time>2012-10-21T06:57:01Z</time>
      </trkpt>
      <trkpt lat="44.91565" lon="0.88317">
        <ele>161</ele>
        <time>2012-10-21T06:57:03Z</time>
      </trkpt>
      <trkpt lat="44.91565" lon="0.88325">
        <ele>161</ele>
        <time>2012-10-21T06:57:05Z</time>
      </trkpt>
      <trkpt lat="44.91563" lon="0.88333">
        <ele>161</ele>
        <time>2012-10-21T06:57:07Z</time>
      </trkpt>
      <trkpt lat="44.9156" lon="0.88341">
        <ele>161</ele>
        <time>2012-10-21T06:57:09Z</time>
      </trkpt>
      <trkpt lat="44.91559" lon="0.88349">
        <ele>161</ele>
        <time>2012-10-21T06:57:11Z</time>
      </trkpt>
      <trkpt lat="44.91557" lon="0.88355">
        <ele>161</ele>
        <time>2012-10-21T06:57:13Z</time>
      </trkpt>
      <trkpt lat="44.91553" lon="0.88363">
        <ele>163</ele>
        <time>2012-10-21T06:57:15Z</time>
      </trkpt>
      <trkpt lat="44.91551" lon="0.8837">
        <ele>165</ele>
        <time>2012-10-21T06:57:17Z</time>
      </trkpt>
      <trkpt lat="44.91549" lon="0.88376">
        <ele>167</ele>
        <time>2012-10-21T06:57:19Z</time>
      </trkpt>
      <trkpt lat="44.91547" lon="0.88382">
        <ele>169</ele>
        <time>2012-10-21T06:57:21Z</time>
      </trkpt>
      <trkpt lat="44.91546" lon="0.8839">
        <ele>171</ele>
        <time>2012-10-21T06:57:23Z</time>
      </trkpt>
      <trkpt lat="44.91544" lon="0.88394">
        <ele>173</ele>
        <time>2012-10-21T06:57:25Z</time>
      </trkpt>
      <trkpt lat="44.91541" lon="0.88398">
        <ele>177</ele>
        <time>2012-10-21T06:57:27Z</time>
      </trkpt>
      <trkpt lat="44.91537" lon="0.88404">
        <ele>181</ele>
        <time>2012-10-21T06:57:29Z</time>
      </trkpt>
      <trkpt lat="44.91534" lon="0.8841">
        <ele>185</ele>
        <time>2012-10-21T06:57:31Z</time>
      </trkpt>
      <trkpt lat="44.91531" lon="0.88414">
        <ele>188</ele>
        <time>2012-10-21T06:57:33Z</time>
      </trkpt>
      <trkpt lat="44.91528" lon="0.88419">
        <ele>190</ele>
        <time>2012-10-21T06:57:35Z</time>
      </trkpt>
      <trkpt lat="44.91526" lon="0.88422">
        <ele>192</ele>
        <time>2012-10-21T06:57:37Z</time>
      </trkpt>
      <trkpt lat="44.91523" lon="0.88427">
        <ele>194</ele>
        <time>2012-10-21T06:57:39Z</time>
      </trkpt>
      <trkpt lat="44.91519" lon="0.88431">
        <ele>196</ele>
        <time>2012-10-21T06:57:41Z</time>
      </trkpt>
      <trkpt lat="44.91515" lon="0.88435">
        <ele>198</ele>
        <time>2012-10-21T06:57:43Z</time>
      </trkpt>
      <trkpt lat="44.91511" lon="0.8844">
        <ele>200</ele>
        <time>2012-10-21T06:57:45Z</time>
      </trkpt>
      <trkpt lat="44.91507" lon="0.88445">
        <ele>202</ele>
        <time>2012-10-21T06:57:47Z</time>
      </trkpt>
      <trkpt lat="44.91504" lon="0.88449">
        <ele>202</ele>
        <time>2012-10-21T06:57:49Z</time>
      </trkpt>
      <trkpt lat="44.91499" lon="0.88453">
        <ele>202</ele>
        <time>2012-10-21T06:57:51Z</time>
      </trkpt>
      <trkpt lat="44.91492" lon="0.88459">
        <ele>202</ele>
        <time>2012-10-21T06:57:53Z</time>
      </trkpt>
      <trkpt lat="44.91485" lon="0.88465">
        <ele>202</ele>
        <time>2012-10-21T06:57:55Z</time>
      </trkpt>
      <trkpt lat="44.91477" lon="0.88472">
        <ele>202</ele>
        <time>2012-10-21T06:57:57Z</time>
      </trkpt>
      <trkpt lat="44.9147" lon="0.88478">
        <ele>202</ele>
        <time>2012-10-21T06:57:59Z</time>
      </trkpt>
      <trkpt lat="44.9146" lon="0.88485">
        <ele>201</ele>
        <time>2012-10-21T06:58:01Z</time>
      </trkpt>
      <trkpt lat="44.91451" lon="0.88494">
        <ele>199</ele>
        <time>2012-10-21T06:58:03Z</time>
      </trkpt>
      <trkpt lat="44.91441" lon="0.88504">
        <ele>198</ele>
        <time>2012-10-21T06:58:05Z</time>
      </trkpt>
      <trkpt lat="44.91433" lon="0.88515">
        <ele>197</ele>
        <time>2012-10-21T06:58:07Z</time>
      </trkpt>
      <trkpt lat="44.91426" lon="0.88526">
        <ele>196</ele>
        <time>2012-10-21T06:58:09Z</time>
      </trkpt>
      <trkpt lat="44.91419" lon="0.88538">
        <ele>195</ele>
        <time>2012-10-21T06:58:11Z</time>
      </trkpt>
      <trkpt lat="44.91412" lon="0.8855">
        <ele>194</ele>
        <time>2012-10-21T06:58:13Z</time>
      </trkpt>
      <trkpt lat="44.91405" lon="0.8856">
        <ele>193</ele>
        <time>2012-10-21T06:58:15Z</time>
      </trkpt>
      <trkpt lat="44.91398" lon="0.88573">
        <ele>192</ele>
        <time>2012-10-21T06:58:17Z</time>
      </trkpt>
      <trkpt lat="44.91391" lon="0.88586">
        <ele>191</ele>
        <time>2012-10-21T06:58:19Z</time>
      </trkpt>
      <trkpt lat="44.91383" lon="0.88598">
        <ele>191</ele>
        <time>2012-10-21T06:58:21Z</time>
      </trkpt>
      <trkpt lat="44.91375" lon="0.88609">
        <ele>190</ele>
        <time>2012-10-21T06:58:23Z</time>
      </trkpt>
      <trkpt lat="44.9137" lon="0.8862">
        <ele>189</ele>
        <time>2012-10-21T06:58:25Z</time>
      </trkpt>
      <trkpt lat="44.91366" lon="0.88628">
        <ele>188</ele>
        <time>2012-10-21T06:58:27Z</time>
      </trkpt>
      <trkpt lat="44.91368" lon="0.88635">
        <ele>187</ele>
        <time>2012-10-21T06:58:29Z</time>
      </trkpt>
      <trkpt lat="44.91373" lon="0.88641">
        <ele>186</ele>
        <time>2012-10-21T06:58:31Z</time>
      </trkpt>
      <trkpt lat="44.91377" lon="0.88647">
        <ele>186</ele>
        <time>2012-10-21T06:58:33Z</time>
      </trkpt>
      <trkpt lat="44.91383" lon="0.88652">
        <ele>185</ele>
        <time>2012-10-21T06:58:35Z</time>
      </trkpt>
      <trkpt lat="44.91392" lon="0.88661">
        <ele>184</ele>
        <time>2012-10-21T06:58:37Z</time>
      </trkpt>
      <trkpt lat="44.91402" lon="0.88671">
        <ele>184</ele>
        <time>2012-10-21T06:58:39Z</time>
      </trkpt>
      <trkpt lat="44.9141" lon="0.88682">
        <ele>183</ele>
        <time>2012-10-21T06:58:41Z</time>
      </trkpt>
      <trkpt lat="44.9142" lon="0.88692">
        <ele>182</ele>
        <time>2012-10-21T06:58:43Z</time>
      </trkpt>
      <trkpt lat="44.9143" lon="0.88703">
        <ele>182</ele>
        <time>2012-10-21T06:58:45Z</time>
      </trkpt>
      <trkpt lat="44.91441" lon="0.88715">
        <ele>181</ele>
        <time>2012-10-21T06:58:47Z</time>
      </trkpt>
      <trkpt lat="44.91452" lon="0.88727">
        <ele>180</ele>
        <time>2012-10-21T06:58:49Z</time>
      </trkpt>
      <trkpt lat="44.91463" lon="0.88739">
        <ele>178</ele>
        <time>2012-10-21T06:58:51Z</time>
      </trkpt>
      <trkpt lat="44.91472" lon="0.88748">
        <ele>177</ele>
        <time>2012-10-21T06:58:53Z</time>
      </trkpt>
      <trkpt lat="44.91479" lon="0.88749">
        <ele>176</ele>
        <time>2012-10-21T06:58:55Z</time>
      </trkpt>
      <trkpt lat="44.91483" lon="0.88741">
        <ele>174</ele>
        <time>2012-10-21T06:58:57Z</time>
      </trkpt>
      <trkpt lat="44.91488" lon="0.88732">
        <ele>172</ele>
        <time>2012-10-21T06:58:59Z</time>
      </trkpt>
      <trkpt lat="44.91496" lon="0.88732">
        <ele>170</ele>
        <time>2012-10-21T06:59:01Z</time>
      </trkpt>
      <trkpt lat="44.91511" lon="0.88746">
        <ele>167</ele>
        <time>2012-10-21T06:59:04Z</time>
      </trkpt>
      <trkpt lat="44.91522" lon="0.88761">
        <ele>165</ele>
        <time>2012-10-21T06:59:06Z</time>
      </trkpt>
      <trkpt lat="44.91534" lon="0.88774">
        <ele>162</ele>
        <time>2012-10-21T06:59:08Z</time>
      </trkpt>
      <trkpt lat="44.91544" lon="0.88788">
        <ele>160</ele>
        <time>2012-10-21T06:59:10Z</time>
      </trkpt>
      <trkpt lat="44.91553" lon="0.88798">
        <ele>158</ele>
        <time>2012-10-21T06:59:12Z</time>
      </trkpt>
      <trkpt lat="44.91559" lon="0.88803">
        <ele>156</ele>
        <time>2012-10-21T06:59:14Z</time>
      </trkpt>
      <trkpt lat="44.91564" lon="0.88801">
        <ele>154</ele>
        <time>2012-10-21T06:59:16Z</time>
      </trkpt>
      <trkpt lat="44.91572" lon="0.88793">
        <ele>152</ele>
        <time>2012-10-21T06:59:18Z</time>
      </trkpt>
      <trkpt lat="44.9158" lon="0.8878">
        <ele>151</ele>
        <time>2012-10-21T06:59:20Z</time>
      </trkpt>
      <trkpt lat="44.91589" lon="0.88768">
        <ele>151</ele>
        <time>2012-10-21T06:59:22Z</time>
      </trkpt>
      <trkpt lat="44.916" lon="0.8876">
        <ele>151</ele>
        <time>2012-10-21T06:59:24Z</time>
      </trkpt>
      <trkpt lat="44.91617" lon="0.88757">
        <ele>151</ele>
        <time>2012-10-21T06:59:26Z</time>
      </trkpt>
      <trkpt lat="44.91633" lon="0.88757">
        <ele>151</ele>
        <time>2012-10-21T06:59:28Z</time>
      </trkpt>
      <trkpt lat="44.91646" lon="0.88758">
        <ele>151</ele>
        <time>2012-10-21T06:59:30Z</time>
      </trkpt>
      <trkpt lat="44.91655" lon="0.88764">
        <ele>151</ele>
        <time>2012-10-21T06:59:32Z</time>
      </trkpt>
      <trkpt lat="44.91666" lon="0.88778">
        <ele>151</ele>
        <time>2012-10-21T06:59:35Z</time>
      </trkpt>
      <trkpt lat="44.91674" lon="0.88782">
        <ele>151</ele>
        <time>2012-10-21T06:59:37Z</time>
      </trkpt>
      <trkpt lat="44.91684" lon="0.88784">
        <ele>151</ele>
        <time>2012-10-21T06:59:39Z</time>
      </trkpt>
      <trkpt lat="44.91695" lon="0.88782">
        <ele>151</ele>
        <time>2012-10-21T06:59:41Z</time>
      </trkpt>
      <trkpt lat="44.91707" lon="0.8878">
        <ele>151</ele>
        <time>2012-10-21T06:59:43Z</time>
      </trkpt>
      <trkpt lat="44.91718" lon="0.88779">
        <ele>151</ele>
        <time>2012-10-21T06:59:45Z</time>
      </trkpt>
      <trkpt lat="44.91727" lon="0.88778">
        <ele>151</ele>
        <time>2012-10-21T06:59:47Z</time>
      </trkpt>
      <trkpt lat="44.91737" lon="0.88775">
        <ele>151</ele>
        <time>2012-10-21T06:59:49Z</time>
      </trkpt>
      <trkpt lat="44.91746" lon="0.88773">
        <ele>151</ele>
        <time>2012-10-21T06:59:51Z</time>
      </trkpt>
      <trkpt lat="44.91756" lon="0.8877">
        <ele>151</ele>
        <time>2012-10-21T06:59:53Z</time>
      </trkpt>
      <trkpt lat="44.91765" lon="0.88766">
        <ele>151</ele>
        <time>2012-10-21T06:59:55Z</time>
      </trkpt>
      <trkpt lat="44.91778" lon="0.88761">
        <ele>151</ele>
        <time>2012-10-21T06:59:57Z</time>
      </trkpt>
      <trkpt lat="44.9179" lon="0.88757">
        <ele>151</ele>
        <time>2012-10-21T06:59:59Z</time>
      </trkpt>
      <trkpt lat="44.91798" lon="0.88752">
        <ele>151</ele>
        <time>2012-10-21T07:00:01Z</time>
      </trkpt>
      <trkpt lat="44.9181" lon="0.8874">
        <ele>150</ele>
        <time>2012-10-21T07:00:03Z</time>
      </trkpt>
      <trkpt lat="44.91822" lon="0.88731">
        <ele>148</ele>
        <time>2012-10-21T07:00:05Z</time>
      </trkpt>
      <trkpt lat="44.91836" lon="0.88723">
        <ele>146</ele>
        <time>2012-10-21T07:00:07Z</time>
      </trkpt>
      <trkpt lat="44.91846" lon="0.88718">
        <ele>145</ele>
        <time>2012-10-21T07:00:09Z</time>
      </trkpt>
      <trkpt lat="44.91855" lon="0.88711">
        <ele>143</ele>
        <time>2012-10-21T07:00:11Z</time>
      </trkpt>
      <trkpt lat="44.91862" lon="0.88706">
        <ele>141</ele>
        <time>2012-10-21T07:00:13Z</time>
      </trkpt>
      <trkpt lat="44.91868" lon="0.88701">
        <ele>140</ele>
        <time>2012-10-21T07:00:15Z</time>
      </trkpt>
      <trkpt lat="44.91873" lon="0.88696">
        <ele>139</ele>
        <time>2012-10-21T07:00:17Z</time>
      </trkpt>
      <trkpt lat="44.91878" lon="0.88691">
        <ele>138</ele>
        <time>2012-10-21T07:00:19Z</time>
      </trkpt>
      <trkpt lat="44.91884" lon="0.88686">
        <ele>136</ele>
        <time>2012-10-21T07:00:21Z</time>
      </trkpt>
      <trkpt lat="44.91891" lon="0.88681">
        <ele>135</ele>
        <time>2012-10-21T07:00:23Z</time>
      </trkpt>
      <trkpt lat="44.91898" lon="0.88675">
        <ele>134</ele>
        <time>2012-10-21T07:00:25Z</time>
      </trkpt>
      <trkpt lat="44.91905" lon="0.8867">
        <ele>132</ele>
        <time>2012-10-21T07:00:27Z</time>
      </trkpt>
      <trkpt lat="44.91911" lon="0.88665">
        <ele>130</ele>
        <time>2012-10-21T07:00:29Z</time>
      </trkpt>
      <trkpt lat="44.91917" lon="0.8866">
        <ele>128</ele>
        <time>2012-10-21T07:00:31Z</time>
      </trkpt>
      <trkpt lat="44.9192" lon="0.88655">
        <ele>126</ele>
        <time>2012-10-21T07:00:33Z</time>
      </trkpt>
      <trkpt lat="44.91925" lon="0.88648">
        <ele>124</ele>
        <time>2012-10-21T07:00:35Z</time>
      </trkpt>
      <trkpt lat="44.91932" lon="0.88639">
        <ele>122</ele>
        <time>2012-10-21T07:00:37Z</time>
      </trkpt>
      <trkpt lat="44.91938" lon="0.8863">
        <ele>120</ele>
        <time>2012-10-21T07:00:39Z</time>
      </trkpt>
      <trkpt lat="44.91943" lon="0.88625">
        <ele>118</ele>
        <time>2012-10-21T07:00:41Z</time>
      </trkpt>
      <trkpt lat="44.91949" lon="0.88619">
        <ele>117</ele>
        <time>2012-10-21T07:00:43Z</time>
      </trkpt>
      <trkpt lat="44.91955" lon="0.88613">
        <ele>116</ele>
        <time>2012-10-21T07:00:45Z</time>
      </trkpt>
      <trkpt lat="44.91962" lon="0.88606">
        <ele>116</ele>
        <time>2012-10-21T07:00:47Z</time>
      </trkpt>
      <trkpt lat="44.91968" lon="0.886">
        <ele>116</ele>
        <time>2012-10-21T07:00:49Z</time>
      </trkpt>
      <trkpt lat="44.91974" lon="0.88595">
        <ele>116</ele>
        <time>2012-10-21T07:00:51Z</time>
      </trkpt>
      <trkpt lat="44.91979" lon="0.88588">
        <ele>118</ele>
        <time>2012-10-21T07:00:53Z</time>
      </trkpt>
      <trkpt lat="44.91985" lon="0.88581">
        <ele>120</ele>
        <time>2012-10-21T07:00:55Z</time>
      </trkpt>
      <trkpt lat="44.91994" lon="0.88572">
        <ele>121</ele>
        <time>2012-10-21T07:00:57Z</time>
      </trkpt>
      <trkpt lat="44.92003" lon="0.88564">
        <ele>121</ele>
        <time>2012-10-21T07:00:59Z</time>
      </trkpt>
      <trkpt lat="44.92013" lon="0.88556">
        <ele>121</ele>
        <time>2012-10-21T07:01:01Z</time>
      </trkpt>
      <trkpt lat="44.92021" lon="0.88549">
        <ele>121</ele>
        <time>2012-10-21T07:01:03Z</time>
      </trkpt>
      <trkpt lat="44.9203" lon="0.88542">
        <ele>121</ele>
        <time>2012-10-21T07:01:05Z</time>
      </trkpt>
      <trkpt lat="44.92037" lon="0.88535">
        <ele>119</ele>
        <time>2012-10-21T07:01:07Z</time>
      </trkpt>
      <trkpt lat="44.92044" lon="0.88529">
        <ele>118</ele>
        <time>2012-10-21T07:01:09Z</time>
      </trkpt>
      <trkpt lat="44.92051" lon="0.88518">
        <ele>117</ele>
        <time>2012-10-21T07:01:11Z</time>
      </trkpt>
      <trkpt lat="44.92056" lon="0.88508">
        <ele>115</ele>
        <time>2012-10-21T07:01:13Z</time>
      </trkpt>
      <trkpt lat="44.92064" lon="0.88501">
        <ele>113</ele>
        <time>2012-10-21T07:01:15Z</time>
      </trkpt>
      <trkpt lat="44.92071" lon="0.88492">
        <ele>112</ele>
        <time>2012-10-21T07:01:17Z</time>
      </trkpt>
      <trkpt lat="44.92077" lon="0.88479">
        <ele>112</ele>
        <time>2012-10-21T07:01:19Z</time>
      </trkpt>
      <trkpt lat="44.92083" lon="0.88458">
        <ele>112</ele>
        <time>2012-10-21T07:01:22Z</time>
      </trkpt>
      <trkpt lat="44.92088" lon="0.88444">
        <ele>112</ele>
        <time>2012-10-21T07:01:24Z</time>
      </trkpt>
      <trkpt lat="44.92099" lon="0.88427">
        <ele>109</ele>
        <time>2012-10-21T07:01:27Z</time>
      </trkpt>
      <trkpt lat="44.92107" lon="0.88425">
        <ele>107</ele>
        <time>2012-10-21T07:01:29Z</time>
      </trkpt>
      <trkpt lat="44.92118" lon="0.88426">
        <ele>105</ele>
        <time>2012-10-21T07:01:31Z</time>
      </trkpt>
      <trkpt lat="44.92128" lon="0.88427">
        <ele>104</ele>
        <time>2012-10-21T07:01:33Z</time>
      </trkpt>
      <trkpt lat="44.92136" lon="0.88427">
        <ele>104</ele>
        <time>2012-10-21T07:01:35Z</time>
      </trkpt>
      <trkpt lat="44.92142" lon="0.88427">
        <ele>104</ele>
        <time>2012-10-21T07:01:37Z</time>
      </trkpt>
      <trkpt lat="44.92143" lon="0.88428">
        <ele>104</ele>
        <time>2012-10-21T07:01:40Z</time>
      </trkpt>
      <trkpt lat="44.92145" lon="0.88429">
        <ele>104</ele>
        <time>2012-10-21T07:01:44Z</time>
      </trkpt>
      <trkpt lat="44.92146" lon="0.88428">
        <ele>103</ele>
        <time>2012-10-21T07:01:48Z</time>
      </trkpt>
      <trkpt lat="44.92147" lon="0.8843">
        <ele>103</ele>
        <time>2012-10-21T07:02:06Z</time>
      </trkpt>
      <trkpt lat="44.92147" lon="0.88432">
        <ele>103</ele>
        <time>2012-10-21T07:02:10Z</time>
      </trkpt>
      <trkpt lat="44.92147" lon="0.88433">
        <ele>103</ele>
        <time>2012-10-21T07:02:17Z</time>
      </trkpt>
      <trkpt lat="44.92147" lon="0.88432">
        <ele>103</ele>
        <time>2012-10-21T07:03:34Z</time>
      </trkpt>
      <trkpt lat="44.92147" lon="0.8843">
        <ele>103</ele>
        <time>2012-10-21T07:03:37Z</time>
      </trkpt>
      <trkpt lat="44.92147" lon="0.88432">
        <ele>103</ele>
        <time>2012-10-21T07:03:48Z</time>
      </trkpt>
      <trkpt lat="44.92146" lon="0.88434">
        <ele>103</ele>
        <time>2012-10-21T07:03:51Z</time>
      </trkpt>
      <trkpt lat="44.92145" lon="0.88436">
        <ele>103</ele>
        <time>2012-10-21T07:03:53Z</time>
      </trkpt>
      <trkpt lat="44.92146" lon="0.88438">
        <ele>103</ele>
        <time>2012-10-21T07:03:56Z</time>
      </trkpt>
      <trkpt lat="44.92146" lon="0.8844">
        <ele>102</ele>
        <time>2012-10-21T07:03:58Z</time>
      </trkpt>
      <trkpt lat="44.92146" lon="0.88442">
        <ele>100</ele>
        <time>2012-10-21T07:04:00Z</time>
      </trkpt>
      <trkpt lat="44.92145" lon="0.8844">
        <ele>99</ele>
        <time>2012-10-21T07:04:04Z</time>
      </trkpt>
      <trkpt lat="44.92144" lon="0.88439">
        <ele>99</ele>
        <time>2012-10-21T07:04:06Z</time>
      </trkpt>
      <trkpt lat="44.92143" lon="0.88437">
        <ele>100</ele>
        <time>2012-10-21T07:04:14Z</time>
      </trkpt>
      <trkpt lat="44.92142" lon="0.88436">
        <ele>101</ele>
        <time>2012-10-21T07:04:17Z</time>
      </trkpt>
      <trkpt lat="44.92142" lon="0.88437">
        <ele>104</ele>
        <time>2012-10-21T07:04:23Z</time>
      </trkpt>
      <trkpt lat="44.92142" lon="0.88439">
        <ele>104</ele>
        <time>2012-10-21T07:04:35Z</time>
      </trkpt>
      <trkpt lat="44.92142" lon="0.88441">
        <ele>103</ele>
        <time>2012-10-21T07:04:48Z</time>
      </trkpt>
      <trkpt lat="44.92142" lon="0.88442">
        <ele>102</ele>
        <time>2012-10-21T07:04:50Z</time>
      </trkpt>
      <trkpt lat="44.92142" lon="0.8844">
        <ele>99</ele>
        <time>2012-10-21T07:04:59Z</time>
      </trkpt>
      <trkpt lat="44.92141" lon="0.88438">
        <ele>99</ele>
        <time>2012-10-21T07:05:02Z</time>
      </trkpt>
      <trkpt lat="44.92141" lon="0.88437">
        <ele>99</ele>
        <time>2012-10-21T07:05:05Z</time>
      </trkpt>
      <trkpt lat="44.92141" lon="0.88435">
        <ele>102</ele>
        <time>2012-10-21T07:05:11Z</time>
      </trkpt>
      <trkpt lat="44.92142" lon="0.88434">
        <ele>104</ele>
        <time>2012-10-21T07:05:43Z</time>
      </trkpt>
      <trkpt lat="44.92143" lon="0.88434">
        <ele>104</ele>
        <time>2012-10-21T07:05:54Z</time>
      </trkpt>
      <trkpt lat="44.92144" lon="0.88433">
        <ele>104</ele>
        <time>2012-10-21T07:06:01Z</time>
      </trkpt>
      <trkpt lat="44.92144" lon="0.88434">
        <ele>105</ele>
        <time>2012-10-21T07:06:09Z</time>
      </trkpt>
      <trkpt lat="44.92143" lon="0.88435">
        <ele>105</ele>
        <time>2012-10-21T07:06:17Z</time>
      </trkpt>
      <trkpt lat="44.92144" lon="0.88433">
        <ele>105</ele>
        <time>2012-10-21T07:06:21Z</time>
      </trkpt>
      <trkpt lat="44.92146" lon="0.88434">
        <ele>105</ele>
        <time>2012-10-21T07:06:28Z</time>
      </trkpt>
      <trkpt lat="44.92148" lon="0.88435">
        <ele>105</ele>
        <time>2012-10-21T07:06:30Z</time>
      </trkpt>
      <trkpt lat="44.9215" lon="0.88433">
        <ele>105</ele>
        <time>2012-10-21T07:06:32Z</time>
      </trkpt>
      <trkpt lat="44.92154" lon="0.88429">
        <ele>105</ele>
        <time>2012-10-21T07:06:34Z</time>
      </trkpt>
      <trkpt lat="44.92158" lon="0.88424">
        <ele>105</ele>
        <time>2012-10-21T07:06:36Z</time>
      </trkpt>
      <trkpt lat="44.92162" lon="0.88419">
        <ele>104</ele>
        <time>2012-10-21T07:06:38Z</time>
      </trkpt>
      <trkpt lat="44.92167" lon="0.88414">
        <ele>103</ele>
        <time>2012-10-21T07:06:40Z</time>
      </trkpt>
      <trkpt lat="44.92171" lon="0.88407">
        <ele>101</ele>
        <time>2012-10-21T07:06:42Z</time>
      </trkpt>
      <trkpt lat="44.92176" lon="0.88401">
        <ele>99</ele>
        <time>2012-10-21T07:06:44Z</time>
      </trkpt>
      <trkpt lat="44.92181" lon="0.88396">
        <ele>98</ele>
        <time>2012-10-21T07:06:46Z</time>
      </trkpt>
      <trkpt lat="44.92189" lon="0.88388">
        <ele>98</ele>
        <time>2012-10-21T07:06:49Z</time>
      </trkpt>
      <trkpt lat="44.92194" lon="0.88385">
        <ele>98</ele>
        <time>2012-10-21T07:06:51Z</time>
      </trkpt>
      <trkpt lat="44.922" lon="0.88383">
        <ele>98</ele>
        <time>2012-10-21T07:06:53Z</time>
      </trkpt>
      <trkpt lat="44.92205" lon="0.8838">
        <ele>98</ele>
        <time>2012-10-21T07:06:55Z</time>
      </trkpt>
      <trkpt lat="44.9221" lon="0.88376">
        <ele>98</ele>
        <time>2012-10-21T07:06:57Z</time>
      </trkpt>
      <trkpt lat="44.92214" lon="0.88372">
        <ele>98</ele>
        <time>2012-10-21T07:06:59Z</time>
      </trkpt>
      <trkpt lat="44.92219" lon="0.8837">
        <ele>98</ele>
        <time>2012-10-21T07:07:01Z</time>
      </trkpt>
      <trkpt lat="44.92223" lon="0.88368">
        <ele>98</ele>
        <time>2012-10-21T07:07:03Z</time>
      </trkpt>
      <trkpt lat="44.92228" lon="0.88366">
        <ele>98</ele>
        <time>2012-10-21T07:07:05Z</time>
      </trkpt>
      <trkpt lat="44.92232" lon="0.88362">
        <ele>99</ele>
        <time>2012-10-21T07:07:07Z</time>
      </trkpt>
      <trkpt lat="44.92237" lon="0.88356">
        <ele>100</ele>
        <time>2012-10-21T07:07:09Z</time>
      </trkpt>
      <trkpt lat="44.92243" lon="0.88352">
        <ele>102</ele>
        <time>2012-10-21T07:07:11Z</time>
      </trkpt>
      <trkpt lat="44.92248" lon="0.88346">
        <ele>103</ele>
        <time>2012-10-21T07:07:13Z</time>
      </trkpt>
      <trkpt lat="44.92254" lon="0.88344">
        <ele>104</ele>
        <time>2012-10-21T07:07:15Z</time>
      </trkpt>
      <trkpt lat="44.9226" lon="0.8834">
        <ele>104</ele>
        <time>2012-10-21T07:07:17Z</time>
      </trkpt>
      <trkpt lat="44.92265" lon="0.88337">
        <ele>104</ele>
        <time>2012-10-21T07:07:19Z</time>
      </trkpt>
      <trkpt lat="44.9227" lon="0.88333">
        <ele>104</ele>
        <time>2012-10-21T07:07:21Z</time>
      </trkpt>
      <trkpt lat="44.92274" lon="0.88327">
        <ele>104</ele>
        <time>2012-10-21T07:07:23Z</time>
      </trkpt>
      <trkpt lat="44.92278" lon="0.88322">
        <ele>104</ele>
        <time>2012-10-21T07:07:25Z</time>
      </trkpt>
      <trkpt lat="44.92283" lon="0.88318">
        <ele>106</ele>
        <time>2012-10-21T07:07:27Z</time>
      </trkpt>
      <trkpt lat="44.92286" lon="0.88313">
        <ele>107</ele>
        <time>2012-10-21T07:07:29Z</time>
      </trkpt>
      <trkpt lat="44.92292" lon="0.88309">
        <ele>107</ele>
        <time>2012-10-21T07:07:31Z</time>
      </trkpt>
      <trkpt lat="44.92297" lon="0.88307">
        <ele>108</ele>
        <time>2012-10-21T07:07:33Z</time>
      </trkpt>
      <trkpt lat="44.92301" lon="0.88306">
        <ele>108</ele>
        <time>2012-10-21T07:07:35Z</time>
      </trkpt>
      <trkpt lat="44.92305" lon="0.88304">
        <ele>108</ele>
        <time>2012-10-21T07:07:37Z</time>
      </trkpt>
      <trkpt lat="44.92308" lon="0.88302">
        <ele>109</ele>
        <time>2012-10-21T07:07:39Z</time>
      </trkpt>
      <trkpt lat="44.92312" lon="0.88302">
        <ele>110</ele>
        <time>2012-10-21T07:07:41Z</time>
      </trkpt>
      <trkpt lat="44.92315" lon="0.88301">
        <ele>111</ele>
        <time>2012-10-21T07:07:43Z</time>
      </trkpt>
      <trkpt lat="44.92319" lon="0.88299">
        <ele>114</ele>
        <time>2012-10-21T07:07:46Z</time>
      </trkpt>
      <trkpt lat="44.92322" lon="0.88296">
        <ele>116</ele>
        <time>2012-10-21T07:07:48Z</time>
      </trkpt>
      <trkpt lat="44.92325" lon="0.88295">
        <ele>118</ele>
        <time>2012-10-21T07:07:50Z</time>
      </trkpt>
      <trkpt lat="44.92328" lon="0.88292">
        <ele>118</ele>
        <time>2012-10-21T07:07:52Z</time>
      </trkpt>
      <trkpt lat="44.92331" lon="0.88292">
        <ele>118</ele>
        <time>2012-10-21T07:07:54Z</time>
      </trkpt>
      <trkpt lat="44.92332" lon="0.88291">
        <ele>119</ele>
        <time>2012-10-21T07:07:56Z</time>
      </trkpt>
      <trkpt lat="44.92334" lon="0.8829">
        <ele>119</ele>
        <time>2012-10-21T07:07:58Z</time>
      </trkpt>
      <trkpt lat="44.92336" lon="0.88289">
        <ele>121</ele>
        <time>2012-10-21T07:08:00Z</time>
      </trkpt>
      <trkpt lat="44.92339" lon="0.88288">
        <ele>121</ele>
        <time>2012-10-21T07:08:02Z</time>
      </trkpt>
      <trkpt lat="44.92342" lon="0.88288">
        <ele>121</ele>
        <time>2012-10-21T07:08:05Z</time>
      </trkpt>
      <trkpt lat="44.92344" lon="0.88288">
        <ele>121</ele>
        <time>2012-10-21T07:08:07Z</time>
      </trkpt>
      <trkpt lat="44.92349" lon="0.88287">
        <ele>121</ele>
        <time>2012-10-21T07:08:09Z</time>
      </trkpt>
      <trkpt lat="44.92354" lon="0.88286">
        <ele>121</ele>
        <time>2012-10-21T07:08:12Z</time>
      </trkpt>
      <trkpt lat="44.92357" lon="0.88286">
        <ele>121</ele>
        <time>2012-10-21T07:08:14Z</time>
      </trkpt>
      <trkpt lat="44.9236" lon="0.88285">
        <ele>122</ele>
        <time>2012-10-21T07:08:16Z</time>
      </trkpt>
      <trkpt lat="44.92362" lon="0.88284">
        <ele>123</ele>
        <time>2012-10-21T07:08:18Z</time>
      </trkpt>
      <trkpt lat="44.92365" lon="0.88283">
        <ele>123</ele>
        <time>2012-10-21T07:08:20Z</time>
      </trkpt>
      <trkpt lat="44.92366" lon="0.88282">
        <ele>124</ele>
        <time>2012-10-21T07:08:22Z</time>
      </trkpt>
      <trkpt lat="44.92369" lon="0.88281">
        <ele>124</ele>
        <time>2012-10-21T07:08:24Z</time>
      </trkpt>
      <trkpt lat="44.92373" lon="0.8828">
        <ele>125</ele>
        <time>2012-10-21T07:08:26Z</time>
      </trkpt>
      <trkpt lat="44.92376" lon="0.8828">
        <ele>126</ele>
        <time>2012-10-21T07:08:28Z</time>
      </trkpt>
      <trkpt lat="44.92381" lon="0.8828">
        <ele>126</ele>
        <time>2012-10-21T07:08:30Z</time>
      </trkpt>
      <trkpt lat="44.92384" lon="0.8828">
        <ele>126</ele>
        <time>2012-10-21T07:08:33Z</time>
      </trkpt>
      <trkpt lat="44.92389" lon="0.88279">
        <ele>126</ele>
        <time>2012-10-21T07:08:36Z</time>
      </trkpt>
      <trkpt lat="44.92392" lon="0.88278">
        <ele>126</ele>
        <time>2012-10-21T07:08:38Z</time>
      </trkpt>
      <trkpt lat="44.92395" lon="0.88276">
        <ele>126</ele>
        <time>2012-10-21T07:08:41Z</time>
      </trkpt>
      <trkpt lat="44.92397" lon="0.88275">
        <ele>126</ele>
        <time>2012-10-21T07:08:43Z</time>
      </trkpt>
      <trkpt lat="44.92401" lon="0.88276">
        <ele>126</ele>
        <time>2012-10-21T07:08:45Z</time>
      </trkpt>
      <trkpt lat="44.92405" lon="0.88276">
        <ele>126</ele>
        <time>2012-10-21T07:08:47Z</time>
      </trkpt>
      <trkpt lat="44.92409" lon="0.88275">
        <ele>126</ele>
        <time>2012-10-21T07:08:49Z</time>
      </trkpt>
      <trkpt lat="44.92414" lon="0.88275">
        <ele>126</ele>
        <time>2012-10-21T07:08:51Z</time>
      </trkpt>
      <trkpt lat="44.92419" lon="0.88273">
        <ele>126</ele>
        <time>2012-10-21T07:08:53Z</time>
      </trkpt>
      <trkpt lat="44.92426" lon="0.88272">
        <ele>126</ele>
        <time>2012-10-21T07:08:55Z</time>
      </trkpt>
      <trkpt lat="44.92433" lon="0.88271">
        <ele>127</ele>
        <time>2012-10-21T07:08:57Z</time>
      </trkpt>
      <trkpt lat="44.92438" lon="0.88269">
        <ele>128</ele>
        <time>2012-10-21T07:08:59Z</time>
      </trkpt>
      <trkpt lat="44.92443" lon="0.88268">
        <ele>129</ele>
        <time>2012-10-21T07:09:01Z</time>
      </trkpt>
      <trkpt lat="44.92448" lon="0.88266">
        <ele>130</ele>
        <time>2012-10-21T07:09:03Z</time>
      </trkpt>
      <trkpt lat="44.92454" lon="0.88265">
        <ele>130</ele>
        <time>2012-10-21T07:09:05Z</time>
      </trkpt>
      <trkpt lat="44.92459" lon="0.88266">
        <ele>131</ele>
        <time>2012-10-21T07:09:07Z</time>
      </trkpt>
      <trkpt lat="44.92466" lon="0.88266">
        <ele>131</ele>
        <time>2012-10-21T07:09:09Z</time>
      </trkpt>
      <trkpt lat="44.92472" lon="0.88267">
        <ele>132</ele>
        <time>2012-10-21T07:09:11Z</time>
      </trkpt>
      <trkpt lat="44.92478" lon="0.88266">
        <ele>132</ele>
        <time>2012-10-21T07:09:13Z</time>
      </trkpt>
      <trkpt lat="44.92483" lon="0.88265">
        <ele>132</ele>
        <time>2012-10-21T07:09:15Z</time>
      </trkpt>
      <trkpt lat="44.92486" lon="0.88263">
        <ele>133</ele>
        <time>2012-10-21T07:09:17Z</time>
      </trkpt>
      <trkpt lat="44.9249" lon="0.88262">
        <ele>133</ele>
        <time>2012-10-21T07:09:19Z</time>
      </trkpt>
      <trkpt lat="44.92496" lon="0.88262">
        <ele>133</ele>
        <time>2012-10-21T07:09:21Z</time>
      </trkpt>
      <trkpt lat="44.92501" lon="0.88259">
        <ele>133</ele>
        <time>2012-10-21T07:09:23Z</time>
      </trkpt>
      <trkpt lat="44.92506" lon="0.88258">
        <ele>133</ele>
        <time>2012-10-21T07:09:26Z</time>
      </trkpt>
      <trkpt lat="44.9251" lon="0.88257">
        <ele>133</ele>
        <time>2012-10-21T07:09:28Z</time>
      </trkpt>
      <trkpt lat="44.92518" lon="0.88256">
        <ele>133</ele>
        <time>2012-10-21T07:09:31Z</time>
      </trkpt>
      <trkpt lat="44.92522" lon="0.88254">
        <ele>131</ele>
        <time>2012-10-21T07:09:33Z</time>
      </trkpt>
      <trkpt lat="44.92526" lon="0.88251">
        <ele>131</ele>
        <time>2012-10-21T07:09:35Z</time>
      </trkpt>
      <trkpt lat="44.9253" lon="0.88248">
        <ele>131</ele>
        <time>2012-10-21T07:09:37Z</time>
      </trkpt>
      <trkpt lat="44.92534" lon="0.88245">
        <ele>131</ele>
        <time>2012-10-21T07:09:39Z</time>
      </trkpt>
      <trkpt lat="44.92538" lon="0.88241">
        <ele>131</ele>
        <time>2012-10-21T07:09:41Z</time>
      </trkpt>
      <trkpt lat="44.92543" lon="0.88239">
        <ele>131</ele>
        <time>2012-10-21T07:09:43Z</time>
      </trkpt>
      <trkpt lat="44.92548" lon="0.88236">
        <ele>132</ele>
        <time>2012-10-21T07:09:46Z</time>
      </trkpt>
      <trkpt lat="44.92552" lon="0.88235">
        <ele>132</ele>
        <time>2012-10-21T07:09:48Z</time>
      </trkpt>
      <trkpt lat="44.92557" lon="0.88234">
        <ele>134</ele>
        <time>2012-10-21T07:09:51Z</time>
      </trkpt>
      <trkpt lat="44.92561" lon="0.88234">
        <ele>135</ele>
        <time>2012-10-21T07:09:53Z</time>
      </trkpt>
      <trkpt lat="44.92565" lon="0.88234">
        <ele>136</ele>
        <time>2012-10-21T07:09:55Z</time>
      </trkpt>
      <trkpt lat="44.9257" lon="0.88234">
        <ele>136</ele>
        <time>2012-10-21T07:09:57Z</time>
      </trkpt>
      <trkpt lat="44.92576" lon="0.88232">
        <ele>136</ele>
        <time>2012-10-21T07:09:59Z</time>
      </trkpt>
      <trkpt lat="44.9258" lon="0.88231">
        <ele>136</ele>
        <time>2012-10-21T07:10:02Z</time>
      </trkpt>
      <trkpt lat="44.92585" lon="0.88231">
        <ele>136</ele>
        <time>2012-10-21T07:10:04Z</time>
      </trkpt>
      <trkpt lat="44.92591" lon="0.88231">
        <ele>138</ele>
        <time>2012-10-21T07:10:07Z</time>
      </trkpt>
      <trkpt lat="44.92598" lon="0.88231">
        <ele>139</ele>
        <time>2012-10-21T07:10:09Z</time>
      </trkpt>
      <trkpt lat="44.926" lon="0.88231">
        <ele>139</ele>
        <time>2012-10-21T07:10:11Z</time>
      </trkpt>
      <trkpt lat="44.92603" lon="0.8823">
        <ele>139</ele>
        <time>2012-10-21T07:10:13Z</time>
      </trkpt>
      <trkpt lat="44.92606" lon="0.8823">
        <ele>139</ele>
        <time>2012-10-21T07:10:15Z</time>
      </trkpt>
      <trkpt lat="44.9261" lon="0.8823">
        <ele>140</ele>
        <time>2012-10-21T07:10:18Z</time>
      </trkpt>
      <trkpt lat="44.92614" lon="0.88229">
        <ele>141</ele>
        <time>2012-10-21T07:10:20Z</time>
      </trkpt>
      <trkpt lat="44.92622" lon="0.88228">
        <ele>142</ele>
        <time>2012-10-21T07:10:23Z</time>
      </trkpt>
      <trkpt lat="44.92627" lon="0.88227">
        <ele>143</ele>
        <time>2012-10-21T07:10:25Z</time>
      </trkpt>
      <trkpt lat="44.92631" lon="0.88227">
        <ele>144</ele>
        <time>2012-10-21T07:10:27Z</time>
      </trkpt>
      <trkpt lat="44.92637" lon="0.88226">
        <ele>144</ele>
        <time>2012-10-21T07:10:29Z</time>
      </trkpt>
      <trkpt lat="44.92641" lon="0.88226">
        <ele>144</ele>
        <time>2012-10-21T07:10:32Z</time>
      </trkpt>
      <trkpt lat="44.92646" lon="0.88224">
        <ele>144</ele>
        <time>2012-10-21T07:10:34Z</time>
      </trkpt>
      <trkpt lat="44.9265" lon="0.88222">
        <ele>144</ele>
        <time>2012-10-21T07:10:38Z</time>
      </trkpt>
      <trkpt lat="44.92657" lon="0.88221">
        <ele>144</ele>
        <time>2012-10-21T07:10:40Z</time>
      </trkpt>
      <trkpt lat="44.92663" lon="0.88221">
        <ele>145</ele>
        <time>2012-10-21T07:10:42Z</time>
      </trkpt>
      <trkpt lat="44.9267" lon="0.88221">
        <ele>146</ele>
        <time>2012-10-21T07:10:44Z</time>
      </trkpt>
      <trkpt lat="44.92675" lon="0.8822">
        <ele>147</ele>
        <time>2012-10-21T07:10:46Z</time>
      </trkpt>
      <trkpt lat="44.9268" lon="0.88219">
        <ele>148</ele>
        <time>2012-10-21T07:10:49Z</time>
      </trkpt>
      <trkpt lat="44.92689" lon="0.88219">
        <ele>150</ele>
        <time>2012-10-21T07:10:51Z</time>
      </trkpt>
      <trkpt lat="44.92695" lon="0.88218">
        <ele>150</ele>
        <time>2012-10-21T07:10:53Z</time>
      </trkpt>
      <trkpt lat="44.92698" lon="0.88218">
        <ele>150</ele>
        <time>2012-10-21T07:10:55Z</time>
      </trkpt>
      <trkpt lat="44.92702" lon="0.88217">
        <ele>150</ele>
        <time>2012-10-21T07:10:57Z</time>
      </trkpt>
      <trkpt lat="44.92707" lon="0.88216">
        <ele>150</ele>
        <time>2012-10-21T07:11:00Z</time>
      </trkpt>
      <trkpt lat="44.92715" lon="0.88215">
        <ele>150</ele>
        <time>2012-10-21T07:11:02Z</time>
      </trkpt>
      <trkpt lat="44.9272" lon="0.88216">
        <ele>150</ele>
        <time>2012-10-21T07:11:05Z</time>
      </trkpt>
      <trkpt lat="44.92728" lon="0.88217">
        <ele>151</ele>
        <time>2012-10-21T07:11:07Z</time>
      </trkpt>
      <trkpt lat="44.92732" lon="0.88217">
        <ele>152</ele>
        <time>2012-10-21T07:11:10Z</time>
      </trkpt>
      <trkpt lat="44.9274" lon="0.8822">
        <ele>152</ele>
        <time>2012-10-21T07:11:12Z</time>
      </trkpt>
      <trkpt lat="44.92744" lon="0.88221">
        <ele>152</ele>
        <time>2012-10-21T07:11:15Z</time>
      </trkpt>
      <trkpt lat="44.92748" lon="0.88224">
        <ele>152</ele>
        <time>2012-10-21T07:11:17Z</time>
      </trkpt>
      <trkpt lat="44.92751" lon="0.88224">
        <ele>152</ele>
        <time>2012-10-21T07:11:20Z</time>
      </trkpt>
      <trkpt lat="44.92755" lon="0.88225">
        <ele>152</ele>
        <time>2012-10-21T07:11:22Z</time>
      </trkpt>
      <trkpt lat="44.92758" lon="0.88224">
        <ele>152</ele>
        <time>2012-10-21T07:11:25Z</time>
      </trkpt>
      <trkpt lat="44.92762" lon="0.88224">
        <ele>152</ele>
        <time>2012-10-21T07:11:28Z</time>
      </trkpt>
      <trkpt lat="44.92766" lon="0.88222">
        <ele>152</ele>
        <time>2012-10-21T07:11:31Z</time>
      </trkpt>
      <trkpt lat="44.92769" lon="0.8822">
        <ele>151</ele>
        <time>2012-10-21T07:11:34Z</time>
      </trkpt>
      <trkpt lat="44.92777" lon="0.8822">
        <ele>150</ele>
        <time>2012-10-21T07:11:36Z</time>
      </trkpt>
      <trkpt lat="44.92782" lon="0.8822">
        <ele>150</ele>
        <time>2012-10-21T07:11:38Z</time>
      </trkpt>
      <trkpt lat="44.92788" lon="0.8822">
        <ele>150</ele>
        <time>2012-10-21T07:11:40Z</time>
      </trkpt>
      <trkpt lat="44.92793" lon="0.88219">
        <ele>150</ele>
        <time>2012-10-21T07:11:42Z</time>
      </trkpt>
      <trkpt lat="44.92797" lon="0.88218">
        <ele>150</ele>
        <time>2012-10-21T07:11:45Z</time>
      </trkpt>
      <trkpt lat="44.92804" lon="0.88219">
        <ele>150</ele>
        <time>2012-10-21T07:11:47Z</time>
      </trkpt>
      <trkpt lat="44.92808" lon="0.88219">
        <ele>150</ele>
        <time>2012-10-21T07:11:50Z</time>
      </trkpt>
      <trkpt lat="44.92815" lon="0.88221">
        <ele>151</ele>
        <time>2012-10-21T07:11:52Z</time>
      </trkpt>
      <trkpt lat="44.92821" lon="0.88221">
        <ele>153</ele>
        <time>2012-10-21T07:11:55Z</time>
      </trkpt>
      <trkpt lat="44.92829" lon="0.88221">
        <ele>154</ele>
        <time>2012-10-21T07:11:57Z</time>
      </trkpt>
      <trkpt lat="44.92833" lon="0.88218">
        <ele>155</ele>
        <time>2012-10-21T07:12:00Z</time>
      </trkpt>
      <trkpt lat="44.92836" lon="0.88219">
        <ele>156</ele>
        <time>2012-10-21T07:12:02Z</time>
      </trkpt>
      <trkpt lat="44.92839" lon="0.88221">
        <ele>158</ele>
        <time>2012-10-21T07:12:05Z</time>
      </trkpt>
      <trkpt lat="44.92843" lon="0.88226">
        <ele>161</ele>
        <time>2012-10-21T07:12:07Z</time>
      </trkpt>
      <trkpt lat="44.92844" lon="0.88234">
        <ele>162</ele>
        <time>2012-10-21T07:12:10Z</time>
      </trkpt>
      <trkpt lat="44.92846" lon="0.88247">
        <ele>163</ele>
        <time>2012-10-21T07:12:12Z</time>
      </trkpt>
      <trkpt lat="44.92848" lon="0.88254">
        <ele>163</ele>
        <time>2012-10-21T07:12:15Z</time>
      </trkpt>
      <trkpt lat="44.92849" lon="0.8826">
        <ele>163</ele>
        <time>2012-10-21T07:12:17Z</time>
      </trkpt>
      <trkpt lat="44.92852" lon="0.88266">
        <ele>163</ele>
        <time>2012-10-21T07:12:19Z</time>
      </trkpt>
      <trkpt lat="44.92854" lon="0.88272">
        <ele>163</ele>
        <time>2012-10-21T07:12:21Z</time>
      </trkpt>
      <trkpt lat="44.92855" lon="0.88277">
        <ele>163</ele>
        <time>2012-10-21T07:12:23Z</time>
      </trkpt>
      <trkpt lat="44.92856" lon="0.88281">
        <ele>163</ele>
        <time>2012-10-21T07:12:25Z</time>
      </trkpt>
      <trkpt lat="44.9286" lon="0.88288">
        <ele>163</ele>
        <time>2012-10-21T07:12:28Z</time>
      </trkpt>
      <trkpt lat="44.92862" lon="0.88292">
        <ele>163</ele>
        <time>2012-10-21T07:12:30Z</time>
      </trkpt>
      <trkpt lat="44.92864" lon="0.88296">
        <ele>163</ele>
        <time>2012-10-21T07:12:32Z</time>
      </trkpt>
      <trkpt lat="44.92865" lon="0.883">
        <ele>163</ele>
        <time>2012-10-21T07:12:34Z</time>
      </trkpt>
      <trkpt lat="44.92867" lon="0.88305">
        <ele>163</ele>
        <time>2012-10-21T07:12:36Z</time>
      </trkpt>
      <trkpt lat="44.92868" lon="0.88309">
        <ele>164</ele>
        <time>2012-10-21T07:12:38Z</time>
      </trkpt>
      <trkpt lat="44.92873" lon="0.88314">
        <ele>166</ele>
        <time>2012-10-21T07:12:41Z</time>
      </trkpt>
      <trkpt lat="44.92878" lon="0.88319">
        <ele>167</ele>
        <time>2012-10-21T07:12:43Z</time>
      </trkpt>
      <trkpt lat="44.92881" lon="0.88322">
        <ele>168</ele>
        <time>2012-10-21T07:12:46Z</time>
      </trkpt>
      <trkpt lat="44.92886" lon="0.88326">
        <ele>169</ele>
        <time>2012-10-21T07:12:49Z</time>
      </trkpt>
      <trkpt lat="44.9289" lon="0.88329">
        <ele>170</ele>
        <time>2012-10-21T07:12:52Z</time>
      </trkpt>
      <trkpt lat="44.92894" lon="0.88331">
        <ele>170</ele>
        <time>2012-10-21T07:12:54Z</time>
      </trkpt>
      <trkpt lat="44.92897" lon="0.88332">
        <ele>171</ele>
        <time>2012-10-21T07:12:57Z</time>
      </trkpt>
      <trkpt lat="44.92902" lon="0.88332">
        <ele>171</ele>
        <time>2012-10-21T07:12:59Z</time>
      </trkpt>
      <trkpt lat="44.92907" lon="0.88333">
        <ele>173</ele>
        <time>2012-10-21T07:13:02Z</time>
      </trkpt>
      <trkpt lat="44.92913" lon="0.88331">
        <ele>174</ele>
        <time>2012-10-21T07:13:04Z</time>
      </trkpt>
      <trkpt lat="44.9292" lon="0.88331">
        <ele>174</ele>
        <time>2012-10-21T07:13:07Z</time>
      </trkpt>
      <trkpt lat="44.92928" lon="0.88328">
        <ele>174</ele>
        <time>2012-10-21T07:13:09Z</time>
      </trkpt>
      <trkpt lat="44.92932" lon="0.88326">
        <ele>174</ele>
        <time>2012-10-21T07:13:12Z</time>
      </trkpt>
      <trkpt lat="44.92938" lon="0.88323">
        <ele>174</ele>
        <time>2012-10-21T07:13:14Z</time>
      </trkpt>
      <trkpt lat="44.92942" lon="0.88321">
        <ele>174</ele>
        <time>2012-10-21T07:13:17Z</time>
      </trkpt>
      <trkpt lat="44.92949" lon="0.88319">
        <ele>174</ele>
        <time>2012-10-21T07:13:20Z</time>
      </trkpt>
      <trkpt lat="44.92961" lon="0.88316">
        <ele>174</ele>
        <time>2012-10-21T07:13:22Z</time>
      </trkpt>
      <trkpt lat="44.92968" lon="0.88313">
        <ele>174</ele>
        <time>2012-10-21T07:13:24Z</time>
      </trkpt>
      <trkpt lat="44.92975" lon="0.8831">
        <ele>174</ele>
        <time>2012-10-21T07:13:26Z</time>
      </trkpt>
      <trkpt lat="44.92982" lon="0.88307">
        <ele>175</ele>
        <time>2012-10-21T07:13:28Z</time>
      </trkpt>
      <trkpt lat="44.92986" lon="0.88305">
        <ele>176</ele>
        <time>2012-10-21T07:13:31Z</time>
      </trkpt>
      <trkpt lat="44.92989" lon="0.88302">
        <ele>176</ele>
        <time>2012-10-21T07:13:33Z</time>
      </trkpt>
      <trkpt lat="44.92992" lon="0.88297">
        <ele>177</ele>
        <time>2012-10-21T07:13:35Z</time>
      </trkpt>
      <trkpt lat="44.92995" lon="0.88292">
        <ele>178</ele>
        <time>2012-10-21T07:13:39Z</time>
      </trkpt>
      <trkpt lat="44.93" lon="0.88286">
        <ele>178</ele>
        <time>2012-10-21T07:13:43Z</time>
      </trkpt>
      <trkpt lat="44.93004" lon="0.88279">
        <ele>179</ele>
        <time>2012-10-21T07:13:46Z</time>
      </trkpt>
      <trkpt lat="44.9301" lon="0.88276">
        <ele>179</ele>
        <time>2012-10-21T07:13:49Z</time>
      </trkpt>
      <trkpt lat="44.93014" lon="0.88276">
        <ele>179</ele>
        <time>2012-10-21T07:13:52Z</time>
      </trkpt>
      <trkpt lat="44.93016" lon="0.88278">
        <ele>179</ele>
        <time>2012-10-21T07:13:55Z</time>
      </trkpt>
      <trkpt lat="44.9302" lon="0.88279">
        <ele>182</ele>
        <time>2012-10-21T07:13:57Z</time>
      </trkpt>
      <trkpt lat="44.93024" lon="0.88279">
        <ele>184</ele>
        <time>2012-10-21T07:14:00Z</time>
      </trkpt>
      <trkpt lat="44.93028" lon="0.88282">
        <ele>187</ele>
        <time>2012-10-21T07:14:02Z</time>
      </trkpt>
      <trkpt lat="44.9303" lon="0.88282">
        <ele>189</ele>
        <time>2012-10-21T07:14:05Z</time>
      </trkpt>
      <trkpt lat="44.93033" lon="0.88282">
        <ele>191</ele>
        <time>2012-10-21T07:14:07Z</time>
      </trkpt>
      <trkpt lat="44.93037" lon="0.88283">
        <ele>193</ele>
        <time>2012-10-21T07:14:10Z</time>
      </trkpt>
      <trkpt lat="44.9304" lon="0.88284">
        <ele>195</ele>
        <time>2012-10-21T07:14:12Z</time>
      </trkpt>
      <trkpt lat="44.93042" lon="0.88286">
        <ele>196</ele>
        <time>2012-10-21T07:14:15Z</time>
      </trkpt>
      <trkpt lat="44.93046" lon="0.88289">
        <ele>198</ele>
        <time>2012-10-21T07:14:17Z</time>
      </trkpt>
      <trkpt lat="44.93048" lon="0.88291">
        <ele>199</ele>
        <time>2012-10-21T07:14:20Z</time>
      </trkpt>
      <trkpt lat="44.93052" lon="0.88295">
        <ele>201</ele>
        <time>2012-10-21T07:14:22Z</time>
      </trkpt>
      <trkpt lat="44.93055" lon="0.88295">
        <ele>202</ele>
        <time>2012-10-21T07:14:25Z</time>
      </trkpt>
      <trkpt lat="44.9306" lon="0.88294">
        <ele>203</ele>
        <time>2012-10-21T07:14:30Z</time>
      </trkpt>
      <trkpt lat="44.93067" lon="0.88293">
        <ele>203</ele>
        <time>2012-10-21T07:14:32Z</time>
      </trkpt>
      <trkpt lat="44.93072" lon="0.88294">
        <ele>203</ele>
        <time>2012-10-21T07:14:35Z</time>
      </trkpt>
      <trkpt lat="44.93075" lon="0.88297">
        <ele>203</ele>
        <time>2012-10-21T07:14:37Z</time>
      </trkpt>
      <trkpt lat="44.93077" lon="0.88298">
        <ele>203</ele>
        <time>2012-10-21T07:14:40Z</time>
      </trkpt>
      <trkpt lat="44.93079" lon="0.883">
        <ele>205</ele>
        <time>2012-10-21T07:14:42Z</time>
      </trkpt>
      <trkpt lat="44.93083" lon="0.88302">
        <ele>206</ele>
        <time>2012-10-21T07:14:45Z</time>
      </trkpt>
      <trkpt lat="44.93088" lon="0.88304">
        <ele>208</ele>
        <time>2012-10-21T07:14:47Z</time>
      </trkpt>
      <trkpt lat="44.93093" lon="0.88305">
        <ele>208</ele>
        <time>2012-10-21T07:14:50Z</time>
      </trkpt>
      <trkpt lat="44.93098" lon="0.88308">
        <ele>210</ele>
        <time>2012-10-21T07:14:53Z</time>
      </trkpt>
      <trkpt lat="44.931" lon="0.88309">
        <ele>211</ele>
        <time>2012-10-21T07:14:56Z</time>
      </trkpt>
      <trkpt lat="44.93105" lon="0.8831">
        <ele>212</ele>
        <time>2012-10-21T07:14:58Z</time>
      </trkpt>
      <trkpt lat="44.93109" lon="0.88312">
        <ele>212</ele>
        <time>2012-10-21T07:15:01Z</time>
      </trkpt>
      <trkpt lat="44.93115" lon="0.88313">
        <ele>212</ele>
        <time>2012-10-21T07:15:04Z</time>
      </trkpt>
      <trkpt lat="44.93119" lon="0.88314">
        <ele>212</ele>
        <time>2012-10-21T07:15:06Z</time>
      </trkpt>
      <trkpt lat="44.93124" lon="0.88314">
        <ele>213</ele>
        <time>2012-10-21T07:15:08Z</time>
      </trkpt>
      <trkpt lat="44.93127" lon="0.88316">
        <ele>213</ele>
        <time>2012-10-21T07:15:11Z</time>
      </trkpt>
      <trkpt lat="44.93133" lon="0.88318">
        <ele>213</ele>
        <time>2012-10-21T07:15:13Z</time>
      </trkpt>
      <trkpt lat="44.93138" lon="0.8832">
        <ele>213</ele>
        <time>2012-10-21T07:15:16Z</time>
      </trkpt>
      <trkpt lat="44.93144" lon="0.88325">
        <ele>213</ele>
        <time>2012-10-21T07:15:19Z</time>
      </trkpt>
      <trkpt lat="44.93144" lon="0.88329">
        <ele>213</ele>
        <time>2012-10-21T07:15:21Z</time>
      </trkpt>
      <trkpt lat="44.93145" lon="0.88335">
        <ele>212</ele>
        <time>2012-10-21T07:15:23Z</time>
      </trkpt>
      <trkpt lat="44.93145" lon="0.88344">
        <ele>211</ele>
        <time>2012-10-21T07:15:27Z</time>
      </trkpt>
      <trkpt lat="44.93145" lon="0.88354">
        <ele>208</ele>
        <time>2012-10-21T07:15:29Z</time>
      </trkpt>
      <trkpt lat="44.93145" lon="0.88364">
        <ele>206</ele>
        <time>2012-10-21T07:15:33Z</time>
      </trkpt>
      <trkpt lat="44.93143" lon="0.88376">
        <ele>205</ele>
        <time>2012-10-21T07:15:35Z</time>
      </trkpt>
      <trkpt lat="44.93142" lon="0.88383">
        <ele>205</ele>
        <time>2012-10-21T07:15:38Z</time>
      </trkpt>
      <trkpt lat="44.9314" lon="0.88394">
        <ele>205</ele>
        <time>2012-10-21T07:15:40Z</time>
      </trkpt>
      <trkpt lat="44.9314" lon="0.88401">
        <ele>205</ele>
        <time>2012-10-21T07:15:43Z</time>
      </trkpt>
      <trkpt lat="44.93137" lon="0.88412">
        <ele>205</ele>
        <time>2012-10-21T07:15:45Z</time>
      </trkpt>
      <trkpt lat="44.93135" lon="0.88421">
        <ele>205</ele>
        <time>2012-10-21T07:15:48Z</time>
      </trkpt>
      <trkpt lat="44.93132" lon="0.88433">
        <ele>205</ele>
        <time>2012-10-21T07:15:50Z</time>
      </trkpt>
      <trkpt lat="44.9313" lon="0.8844">
        <ele>205</ele>
        <time>2012-10-21T07:15:53Z</time>
      </trkpt>
      <trkpt lat="44.93128" lon="0.88451">
        <ele>205</ele>
        <time>2012-10-21T07:15:55Z</time>
      </trkpt>
      <trkpt lat="44.93127" lon="0.88459">
        <ele>205</ele>
        <time>2012-10-21T07:15:58Z</time>
      </trkpt>
      <trkpt lat="44.93125" lon="0.88472">
        <ele>205</ele>
        <time>2012-10-21T07:16:00Z</time>
      </trkpt>
      <trkpt lat="44.93123" lon="0.8848">
        <ele>205</ele>
        <time>2012-10-21T07:16:03Z</time>
      </trkpt>
      <trkpt lat="44.93119" lon="0.88491">
        <ele>205</ele>
        <time>2012-10-21T07:16:05Z</time>
      </trkpt>
      <trkpt lat="44.93117" lon="0.88498">
        <ele>205</ele>
        <time>2012-10-21T07:16:08Z</time>
      </trkpt>
      <trkpt lat="44.93114" lon="0.88509">
        <ele>205</ele>
        <time>2012-10-21T07:16:10Z</time>
      </trkpt>
      <trkpt lat="44.93113" lon="0.88517">
        <ele>205</ele>
        <time>2012-10-21T07:16:13Z</time>
      </trkpt>
      <trkpt lat="44.9311" lon="0.88528">
        <ele>205</ele>
        <time>2012-10-21T07:16:15Z</time>
      </trkpt>
      <trkpt lat="44.93109" lon="0.88535">
        <ele>205</ele>
        <time>2012-10-21T07:16:18Z</time>
      </trkpt>
      <trkpt lat="44.93107" lon="0.8855">
        <ele>205</ele>
        <time>2012-10-21T07:16:20Z</time>
      </trkpt>
      <trkpt lat="44.93104" lon="0.8856">
        <ele>205</ele>
        <time>2012-10-21T07:16:23Z</time>
      </trkpt>
      <trkpt lat="44.931" lon="0.88574">
        <ele>205</ele>
        <time>2012-10-21T07:16:25Z</time>
      </trkpt>
      <trkpt lat="44.93097" lon="0.88585">
        <ele>205</ele>
        <time>2012-10-21T07:16:28Z</time>
      </trkpt>
      <trkpt lat="44.93093" lon="0.886">
        <ele>205</ele>
        <time>2012-10-21T07:16:30Z</time>
      </trkpt>
      <trkpt lat="44.93088" lon="0.88614">
        <ele>205</ele>
        <time>2012-10-21T07:16:34Z</time>
      </trkpt>
      <trkpt lat="44.93083" lon="0.88629">
        <ele>205</ele>
        <time>2012-10-21T07:16:36Z</time>
      </trkpt>
      <trkpt lat="44.93079" lon="0.88639">
        <ele>204</ele>
        <time>2012-10-21T07:16:39Z</time>
      </trkpt>
      <trkpt lat="44.93071" lon="0.88658">
        <ele>203</ele>
        <time>2012-10-21T07:16:41Z</time>
      </trkpt>
      <trkpt lat="44.93067" lon="0.88675">
        <ele>203</ele>
        <time>2012-10-21T07:16:44Z</time>
      </trkpt>
      <trkpt lat="44.9306" lon="0.88693">
        <ele>203</ele>
        <time>2012-10-21T07:16:46Z</time>
      </trkpt>
      <trkpt lat="44.93053" lon="0.88704">
        <ele>203</ele>
        <time>2012-10-21T07:16:49Z</time>
      </trkpt>
      <trkpt lat="44.93045" lon="0.88722">
        <ele>203</ele>
        <time>2012-10-21T07:16:51Z</time>
      </trkpt>
      <trkpt lat="44.9304" lon="0.88734">
        <ele>203</ele>
        <time>2012-10-21T07:16:54Z</time>
      </trkpt>
      <trkpt lat="44.9303" lon="0.88754">
        <ele>204</ele>
        <time>2012-10-21T07:16:56Z</time>
      </trkpt>
      <trkpt lat="44.93023" lon="0.88767">
        <ele>206</ele>
        <time>2012-10-21T07:16:59Z</time>
      </trkpt>
      <trkpt lat="44.93013" lon="0.88783">
        <ele>208</ele>
        <time>2012-10-21T07:17:01Z</time>
      </trkpt>
      <trkpt lat="44.93008" lon="0.88795">
        <ele>211</ele>
        <time>2012-10-21T07:17:04Z</time>
      </trkpt>
      <trkpt lat="44.93002" lon="0.88804">
        <ele>213</ele>
        <time>2012-10-21T07:17:06Z</time>
      </trkpt>
      <trkpt lat="44.92999" lon="0.88812">
        <ele>215</ele>
        <time>2012-10-21T07:17:08Z</time>
      </trkpt>
      <trkpt lat="44.92996" lon="0.88818">
        <ele>217</ele>
        <time>2012-10-21T07:17:10Z</time>
      </trkpt>
      <trkpt lat="44.92993" lon="0.88822">
        <ele>219</ele>
        <time>2012-10-21T07:17:12Z</time>
      </trkpt>
      <trkpt lat="44.9299" lon="0.88826">
        <ele>219</ele>
        <time>2012-10-21T07:17:15Z</time>
      </trkpt>
      <trkpt lat="44.92985" lon="0.88835">
        <ele>219</ele>
        <time>2012-10-21T07:17:17Z</time>
      </trkpt>
      <trkpt lat="44.92981" lon="0.88839">
        <ele>220</ele>
        <time>2012-10-21T07:17:20Z</time>
      </trkpt>
      <trkpt lat="44.92979" lon="0.88846">
        <ele>221</ele>
        <time>2012-10-21T07:17:22Z</time>
      </trkpt>
      <trkpt lat="44.92977" lon="0.88851">
        <ele>221</ele>
        <time>2012-10-21T07:17:25Z</time>
      </trkpt>
      <trkpt lat="44.92975" lon="0.88858">
        <ele>221</ele>
        <time>2012-10-21T07:17:27Z</time>
      </trkpt>
      <trkpt lat="44.92972" lon="0.88862">
        <ele>221</ele>
        <time>2012-10-21T07:17:29Z</time>
      </trkpt>
      <trkpt lat="44.92969" lon="0.88865">
        <ele>221</ele>
        <time>2012-10-21T07:17:31Z</time>
      </trkpt>
      <trkpt lat="44.92967" lon="0.88867">
        <ele>222</ele>
        <time>2012-10-21T07:17:33Z</time>
      </trkpt>
      <trkpt lat="44.92964" lon="0.8887">
        <ele>223</ele>
        <time>2012-10-21T07:17:35Z</time>
      </trkpt>
      <trkpt lat="44.92959" lon="0.88872">
        <ele>223</ele>
        <time>2012-10-21T07:17:37Z</time>
      </trkpt>
      <trkpt lat="44.92956" lon="0.88874">
        <ele>223</ele>
        <time>2012-10-21T07:17:40Z</time>
      </trkpt>
      <trkpt lat="44.92953" lon="0.88878">
        <ele>223</ele>
        <time>2012-10-21T07:17:42Z</time>
      </trkpt>
      <trkpt lat="44.92951" lon="0.8888">
        <ele>223</ele>
        <time>2012-10-21T07:17:44Z</time>
      </trkpt>
      <trkpt lat="44.92948" lon="0.88884">
        <ele>223</ele>
        <time>2012-10-21T07:17:46Z</time>
      </trkpt>
      <trkpt lat="44.92946" lon="0.88886">
        <ele>223</ele>
        <time>2012-10-21T07:17:48Z</time>
      </trkpt>
      <trkpt lat="44.92944" lon="0.88889">
        <ele>223</ele>
        <time>2012-10-21T07:17:50Z</time>
      </trkpt>
      <trkpt lat="44.92941" lon="0.88893">
        <ele>223</ele>
        <time>2012-10-21T07:17:52Z</time>
      </trkpt>
      <trkpt lat="44.92939" lon="0.88898">
        <ele>223</ele>
        <time>2012-10-21T07:17:56Z</time>
      </trkpt>
      <trkpt lat="44.92934" lon="0.88902">
        <ele>223</ele>
        <time>2012-10-21T07:17:58Z</time>
      </trkpt>
      <trkpt lat="44.92931" lon="0.88904">
        <ele>224</ele>
        <time>2012-10-21T07:18:01Z</time>
      </trkpt>
      <trkpt lat="44.92926" lon="0.8891">
        <ele>224</ele>
        <time>2012-10-21T07:18:03Z</time>
      </trkpt>
      <trkpt lat="44.92924" lon="0.88914">
        <ele>224</ele>
        <time>2012-10-21T07:18:05Z</time>
      </trkpt>
      <trkpt lat="44.92922" lon="0.88918">
        <ele>224</ele>
        <time>2012-10-21T07:18:07Z</time>
      </trkpt>
      <trkpt lat="44.9292" lon="0.88922">
        <ele>224</ele>
        <time>2012-10-21T07:18:09Z</time>
      </trkpt>
      <trkpt lat="44.92915" lon="0.88926">
        <ele>224</ele>
        <time>2012-10-21T07:18:11Z</time>
      </trkpt>
      <trkpt lat="44.92906" lon="0.8893">
        <ele>224</ele>
        <time>2012-10-21T07:18:13Z</time>
      </trkpt>
      <trkpt lat="44.92898" lon="0.88937">
        <ele>224</ele>
        <time>2012-10-21T07:18:15Z</time>
      </trkpt>
      <trkpt lat="44.92891" lon="0.88944">
        <ele>224</ele>
        <time>2012-10-21T07:18:17Z</time>
      </trkpt>
      <trkpt lat="44.92883" lon="0.88954">
        <ele>223</ele>
        <time>2012-10-21T07:18:20Z</time>
      </trkpt>
      <trkpt lat="44.92877" lon="0.88965">
        <ele>221</ele>
        <time>2012-10-21T07:18:22Z</time>
      </trkpt>
      <trkpt lat="44.9287" lon="0.88974">
        <ele>219</ele>
        <time>2012-10-21T07:18:24Z</time>
      </trkpt>
      <trkpt lat="44.92864" lon="0.88984">
        <ele>218</ele>
        <time>2012-10-21T07:18:26Z</time>
      </trkpt>
      <trkpt lat="44.92858" lon="0.88994">
        <ele>216</ele>
        <time>2012-10-21T07:18:28Z</time>
      </trkpt>
      <trkpt lat="44.92853" lon="0.89006">
        <ele>214</ele>
        <time>2012-10-21T07:18:30Z</time>
      </trkpt>
      <trkpt lat="44.92849" lon="0.89018">
        <ele>214</ele>
        <time>2012-10-21T07:18:32Z</time>
      </trkpt>
      <trkpt lat="44.92844" lon="0.89029">
        <ele>213</ele>
        <time>2012-10-21T07:18:34Z</time>
      </trkpt>
      <trkpt lat="44.9284" lon="0.8904">
        <ele>213</ele>
        <time>2012-10-21T07:18:36Z</time>
      </trkpt>
      <trkpt lat="44.92835" lon="0.89051">
        <ele>213</ele>
        <time>2012-10-21T07:18:38Z</time>
      </trkpt>
      <trkpt lat="44.9283" lon="0.89062">
        <ele>213</ele>
        <time>2012-10-21T07:18:40Z</time>
      </trkpt>
      <trkpt lat="44.92824" lon="0.89073">
        <ele>214</ele>
        <time>2012-10-21T07:18:42Z</time>
      </trkpt>
      <trkpt lat="44.92816" lon="0.89092">
        <ele>214</ele>
        <time>2012-10-21T07:18:45Z</time>
      </trkpt>
      <trkpt lat="44.9281" lon="0.89103">
        <ele>215</ele>
        <time>2012-10-21T07:18:47Z</time>
      </trkpt>
      <trkpt lat="44.92804" lon="0.89113">
        <ele>215</ele>
        <time>2012-10-21T07:18:49Z</time>
      </trkpt>
      <trkpt lat="44.92798" lon="0.89126">
        <ele>215</ele>
        <time>2012-10-21T07:18:51Z</time>
      </trkpt>
      <trkpt lat="44.92794" lon="0.89138">
        <ele>215</ele>
        <time>2012-10-21T07:18:53Z</time>
      </trkpt>
      <trkpt lat="44.9279" lon="0.89149">
        <ele>215</ele>
        <time>2012-10-21T07:18:55Z</time>
      </trkpt>
      <trkpt lat="44.92786" lon="0.89162">
        <ele>214</ele>
        <time>2012-10-21T07:18:57Z</time>
      </trkpt>
      <trkpt lat="44.92785" lon="0.89176">
        <ele>212</ele>
        <time>2012-10-21T07:18:59Z</time>
      </trkpt>
      <trkpt lat="44.92783" lon="0.8919">
        <ele>210</ele>
        <time>2012-10-21T07:19:01Z</time>
      </trkpt>
      <trkpt lat="44.92779" lon="0.89205">
        <ele>209</ele>
        <time>2012-10-21T07:19:03Z</time>
      </trkpt>
      <trkpt lat="44.92777" lon="0.89225">
        <ele>207</ele>
        <time>2012-10-21T07:19:05Z</time>
      </trkpt>
      <trkpt lat="44.92777" lon="0.89243">
        <ele>206</ele>
        <time>2012-10-21T07:19:07Z</time>
      </trkpt>
      <trkpt lat="44.92775" lon="0.89259">
        <ele>204</ele>
        <time>2012-10-21T07:19:09Z</time>
      </trkpt>
      <trkpt lat="44.92773" lon="0.89273">
        <ele>203</ele>
        <time>2012-10-21T07:19:11Z</time>
      </trkpt>
      <trkpt lat="44.92773" lon="0.8929">
        <ele>203</ele>
        <time>2012-10-21T07:19:13Z</time>
      </trkpt>
      <trkpt lat="44.92773" lon="0.89307">
        <ele>203</ele>
        <time>2012-10-21T07:19:15Z</time>
      </trkpt>
      <trkpt lat="44.92775" lon="0.89318">
        <ele>203</ele>
        <time>2012-10-21T07:19:17Z</time>
      </trkpt>
      <trkpt lat="44.92777" lon="0.8933">
        <ele>203</ele>
        <time>2012-10-21T07:19:19Z</time>
      </trkpt>
      <trkpt lat="44.92778" lon="0.89344">
        <ele>203</ele>
        <time>2012-10-21T07:19:21Z</time>
      </trkpt>
      <trkpt lat="44.92776" lon="0.89357">
        <ele>203</ele>
        <time>2012-10-21T07:19:23Z</time>
      </trkpt>
      <trkpt lat="44.92774" lon="0.89368">
        <ele>203</ele>
        <time>2012-10-21T07:19:25Z</time>
      </trkpt>
      <trkpt lat="44.92773" lon="0.89381">
        <ele>203</ele>
        <time>2012-10-21T07:19:27Z</time>
      </trkpt>
      <trkpt lat="44.92772" lon="0.89395">
        <ele>203</ele>
        <time>2012-10-21T07:19:29Z</time>
      </trkpt>
      <trkpt lat="44.92773" lon="0.89412">
        <ele>203</ele>
        <time>2012-10-21T07:19:31Z</time>
      </trkpt>
      <trkpt lat="44.92773" lon="0.89431">
        <ele>201</ele>
        <time>2012-10-21T07:19:33Z</time>
      </trkpt>
      <trkpt lat="44.92772" lon="0.8945">
        <ele>199</ele>
        <time>2012-10-21T07:19:35Z</time>
      </trkpt>
      <trkpt lat="44.92769" lon="0.89471">
        <ele>197</ele>
        <time>2012-10-21T07:19:37Z</time>
      </trkpt>
      <trkpt lat="44.92765" lon="0.89491">
        <ele>195</ele>
        <time>2012-10-21T07:19:39Z</time>
      </trkpt>
      <trkpt lat="44.9276" lon="0.8951">
        <ele>193</ele>
        <time>2012-10-21T07:19:41Z</time>
      </trkpt>
      <trkpt lat="44.92752" lon="0.89531">
        <ele>191</ele>
        <time>2012-10-21T07:19:43Z</time>
      </trkpt>
      <trkpt lat="44.92747" lon="0.89552">
        <ele>189</ele>
        <time>2012-10-21T07:19:45Z</time>
      </trkpt>
      <trkpt lat="44.92743" lon="0.89572">
        <ele>187</ele>
        <time>2012-10-21T07:19:47Z</time>
      </trkpt>
      <trkpt lat="44.92737" lon="0.89593">
        <ele>185</ele>
        <time>2012-10-21T07:19:49Z</time>
      </trkpt>
      <trkpt lat="44.92731" lon="0.89613">
        <ele>183</ele>
        <time>2012-10-21T07:19:51Z</time>
      </trkpt>
      <trkpt lat="44.92725" lon="0.89632">
        <ele>181</ele>
        <time>2012-10-21T07:19:53Z</time>
      </trkpt>
      <trkpt lat="44.9272" lon="0.89653">
        <ele>179</ele>
        <time>2012-10-21T07:19:55Z</time>
      </trkpt>
      <trkpt lat="44.92715" lon="0.8967">
        <ele>177</ele>
        <time>2012-10-21T07:19:57Z</time>
      </trkpt>
      <trkpt lat="44.92711" lon="0.89682">
        <ele>175</ele>
        <time>2012-10-21T07:19:59Z</time>
      </trkpt>
      <trkpt lat="44.92706" lon="0.89691">
        <ele>174</ele>
        <time>2012-10-21T07:20:01Z</time>
      </trkpt>
      <trkpt lat="44.92702" lon="0.89696">
        <ele>174</ele>
        <time>2012-10-21T07:20:03Z</time>
      </trkpt>
      <trkpt lat="44.92702" lon="0.897">
        <ele>174</ele>
        <time>2012-10-21T07:20:05Z</time>
      </trkpt>
      <trkpt lat="44.92703" lon="0.89704">
        <ele>174</ele>
        <time>2012-10-21T07:20:07Z</time>
      </trkpt>
      <trkpt lat="44.92706" lon="0.89703">
        <ele>174</ele>
        <time>2012-10-21T07:20:09Z</time>
      </trkpt>
      <trkpt lat="44.9271" lon="0.89701">
        <ele>174</ele>
        <time>2012-10-21T07:20:11Z</time>
      </trkpt>
      <trkpt lat="44.92717" lon="0.89698">
        <ele>174</ele>
        <time>2012-10-21T07:20:13Z</time>
      </trkpt>
      <trkpt lat="44.92723" lon="0.89696">
        <ele>174</ele>
        <time>2012-10-21T07:20:15Z</time>
      </trkpt>
      <trkpt lat="44.92729" lon="0.89694">
        <ele>174</ele>
        <time>2012-10-21T07:20:17Z</time>
      </trkpt>
      <trkpt lat="44.92735" lon="0.89695">
        <ele>172</ele>
        <time>2012-10-21T07:20:19Z</time>
      </trkpt>
      <trkpt lat="44.92742" lon="0.89697">
        <ele>171</ele>
        <time>2012-10-21T07:20:21Z</time>
      </trkpt>
      <trkpt lat="44.9275" lon="0.89698">
        <ele>170</ele>
        <time>2012-10-21T07:20:24Z</time>
      </trkpt>
      <trkpt lat="44.9276" lon="0.89697">
        <ele>169</ele>
        <time>2012-10-21T07:20:26Z</time>
      </trkpt>
      <trkpt lat="44.92769" lon="0.89697">
        <ele>169</ele>
        <time>2012-10-21T07:20:28Z</time>
      </trkpt>
      <trkpt lat="44.92779" lon="0.89698">
        <ele>168</ele>
        <time>2012-10-21T07:20:30Z</time>
      </trkpt>
      <trkpt lat="44.92791" lon="0.897">
        <ele>167</ele>
        <time>2012-10-21T07:20:32Z</time>
      </trkpt>
      <trkpt lat="44.92804" lon="0.89701">
        <ele>166</ele>
        <time>2012-10-21T07:20:34Z</time>
      </trkpt>
      <trkpt lat="44.92817" lon="0.89702">
        <ele>165</ele>
        <time>2012-10-21T07:20:36Z</time>
      </trkpt>
      <trkpt lat="44.92828" lon="0.89705">
        <ele>165</ele>
        <time>2012-10-21T07:20:38Z</time>
      </trkpt>
      <trkpt lat="44.92841" lon="0.89711">
        <ele>165</ele>
        <time>2012-10-21T07:20:40Z</time>
      </trkpt>
      <trkpt lat="44.92851" lon="0.89716">
        <ele>165</ele>
        <time>2012-10-21T07:20:42Z</time>
      </trkpt>
      <trkpt lat="44.92866" lon="0.89718">
        <ele>165</ele>
        <time>2012-10-21T07:20:44Z</time>
      </trkpt>
      <trkpt lat="44.92879" lon="0.89718">
        <ele>165</ele>
        <time>2012-10-21T07:20:46Z</time>
      </trkpt>
      <trkpt lat="44.92891" lon="0.89717">
        <ele>165</ele>
        <time>2012-10-21T07:20:48Z</time>
      </trkpt>
      <trkpt lat="44.929" lon="0.89717">
        <ele>165</ele>
        <time>2012-10-21T07:20:50Z</time>
      </trkpt>
      <trkpt lat="44.9291" lon="0.89718">
        <ele>165</ele>
        <time>2012-10-21T07:20:52Z</time>
      </trkpt>
      <trkpt lat="44.92919" lon="0.89719">
        <ele>165</ele>
        <time>2012-10-21T07:20:54Z</time>
      </trkpt>
      <trkpt lat="44.92927" lon="0.89721">
        <ele>166</ele>
        <time>2012-10-21T07:20:56Z</time>
      </trkpt>
      <trkpt lat="44.92935" lon="0.89722">
        <ele>167</ele>
        <time>2012-10-21T07:20:58Z</time>
      </trkpt>
      <trkpt lat="44.92945" lon="0.89725">
        <ele>167</ele>
        <time>2012-10-21T07:21:01Z</time>
      </trkpt>
      <trkpt lat="44.92958" lon="0.8973">
        <ele>167</ele>
        <time>2012-10-21T07:21:03Z</time>
      </trkpt>
      <trkpt lat="44.92966" lon="0.89736">
        <ele>167</ele>
        <time>2012-10-21T07:21:05Z</time>
      </trkpt>
      <trkpt lat="44.92974" lon="0.89742">
        <ele>168</ele>
        <time>2012-10-21T07:21:07Z</time>
      </trkpt>
      <trkpt lat="44.92982" lon="0.89748">
        <ele>168</ele>
        <time>2012-10-21T07:21:09Z</time>
      </trkpt>
      <trkpt lat="44.92989" lon="0.89752">
        <ele>169</ele>
        <time>2012-10-21T07:21:11Z</time>
      </trkpt>
      <trkpt lat="44.92995" lon="0.89757">
        <ele>170</ele>
        <time>2012-10-21T07:21:13Z</time>
      </trkpt>
      <trkpt lat="44.93001" lon="0.89761">
        <ele>170</ele>
        <time>2012-10-21T07:21:15Z</time>
      </trkpt>
      <trkpt lat="44.93008" lon="0.89766">
        <ele>171</ele>
        <time>2012-10-21T07:21:17Z</time>
      </trkpt>
      <trkpt lat="44.93015" lon="0.89772">
        <ele>172</ele>
        <time>2012-10-21T07:21:19Z</time>
      </trkpt>
      <trkpt lat="44.93022" lon="0.89779">
        <ele>174</ele>
        <time>2012-10-21T07:21:21Z</time>
      </trkpt>
      <trkpt lat="44.93028" lon="0.89789">
        <ele>176</ele>
        <time>2012-10-21T07:21:23Z</time>
      </trkpt>
      <trkpt lat="44.93033" lon="0.89802">
        <ele>177</ele>
        <time>2012-10-21T07:21:25Z</time>
      </trkpt>
      <trkpt lat="44.93035" lon="0.89816">
        <ele>178</ele>
        <time>2012-10-21T07:21:27Z</time>
      </trkpt>
      <trkpt lat="44.93034" lon="0.89832">
        <ele>178</ele>
        <time>2012-10-21T07:21:29Z</time>
      </trkpt>
      <trkpt lat="44.93035" lon="0.8985">
        <ele>178</ele>
        <time>2012-10-21T07:21:31Z</time>
      </trkpt>
      <trkpt lat="44.93036" lon="0.89866">
        <ele>178</ele>
        <time>2012-10-21T07:21:33Z</time>
      </trkpt>
      <trkpt lat="44.93036" lon="0.8988">
        <ele>178</ele>
        <time>2012-10-21T07:21:35Z</time>
      </trkpt>
      <trkpt lat="44.93038" lon="0.89889">
        <ele>178</ele>
        <time>2012-10-21T07:21:37Z</time>
      </trkpt>
      <trkpt lat="44.93043" lon="0.89896">
        <ele>178</ele>
        <time>2012-10-21T07:21:39Z</time>
      </trkpt>
      <trkpt lat="44.93049" lon="0.89903">
        <ele>178</ele>
        <time>2012-10-21T07:21:41Z</time>
      </trkpt>
      <trkpt lat="44.93057" lon="0.8991">
        <ele>178</ele>
        <time>2012-10-21T07:21:43Z</time>
      </trkpt>
      <trkpt lat="44.9307" lon="0.89919">
        <ele>178</ele>
        <time>2012-10-21T07:21:45Z</time>
      </trkpt>
      <trkpt lat="44.93085" lon="0.89926">
        <ele>178</ele>
        <time>2012-10-21T07:21:47Z</time>
      </trkpt>
      <trkpt lat="44.931" lon="0.89933">
        <ele>178</ele>
        <time>2012-10-21T07:21:49Z</time>
      </trkpt>
      <trkpt lat="44.93111" lon="0.8994">
        <ele>178</ele>
        <time>2012-10-21T07:21:51Z</time>
      </trkpt>
      <trkpt lat="44.93119" lon="0.89945">
        <ele>178</ele>
        <time>2012-10-21T07:21:53Z</time>
      </trkpt>
      <trkpt lat="44.93126" lon="0.8995">
        <ele>178</ele>
        <time>2012-10-21T07:21:55Z</time>
      </trkpt>
      <trkpt lat="44.93133" lon="0.89955">
        <ele>178</ele>
        <time>2012-10-21T07:21:57Z</time>
      </trkpt>
      <trkpt lat="44.93141" lon="0.89963">
        <ele>178</ele>
        <time>2012-10-21T07:21:59Z</time>
      </trkpt>
      <trkpt lat="44.93148" lon="0.89972">
        <ele>178</ele>
        <time>2012-10-21T07:22:01Z</time>
      </trkpt>
      <trkpt lat="44.93155" lon="0.89979">
        <ele>178</ele>
        <time>2012-10-21T07:22:03Z</time>
      </trkpt>
      <trkpt lat="44.93163" lon="0.89988">
        <ele>177</ele>
        <time>2012-10-21T07:22:05Z</time>
      </trkpt>
      <trkpt lat="44.93174" lon="0.89998">
        <ele>177</ele>
        <time>2012-10-21T07:22:07Z</time>
      </trkpt>
      <trkpt lat="44.93184" lon="0.90009">
        <ele>175</ele>
        <time>2012-10-21T07:22:09Z</time>
      </trkpt>
      <trkpt lat="44.93192" lon="0.90019">
        <ele>173</ele>
        <time>2012-10-21T07:22:11Z</time>
      </trkpt>
      <trkpt lat="44.932" lon="0.9003">
        <ele>171</ele>
        <time>2012-10-21T07:22:13Z</time>
      </trkpt>
      <trkpt lat="44.93209" lon="0.90044">
        <ele>169</ele>
        <time>2012-10-21T07:22:15Z</time>
      </trkpt>
      <trkpt lat="44.93219" lon="0.90054">
        <ele>167</ele>
        <time>2012-10-21T07:22:17Z</time>
      </trkpt>
      <trkpt lat="44.93227" lon="0.90064">
        <ele>165</ele>
        <time>2012-10-21T07:22:19Z</time>
      </trkpt>
      <trkpt lat="44.93234" lon="0.90076">
        <ele>163</ele>
        <time>2012-10-21T07:22:21Z</time>
      </trkpt>
      <trkpt lat="44.9324" lon="0.90087">
        <ele>161</ele>
        <time>2012-10-21T07:22:23Z</time>
      </trkpt>
      <trkpt lat="44.93246" lon="0.90097">
        <ele>159</ele>
        <time>2012-10-21T07:22:25Z</time>
      </trkpt>
      <trkpt lat="44.93252" lon="0.90105">
        <ele>157</ele>
        <time>2012-10-21T07:22:27Z</time>
      </trkpt>
      <trkpt lat="44.93261" lon="0.90115">
        <ele>155</ele>
        <time>2012-10-21T07:22:29Z</time>
      </trkpt>
      <trkpt lat="44.93271" lon="0.90128">
        <ele>153</ele>
        <time>2012-10-21T07:22:31Z</time>
      </trkpt>
      <trkpt lat="44.93282" lon="0.90143">
        <ele>151</ele>
        <time>2012-10-21T07:22:33Z</time>
      </trkpt>
      <trkpt lat="44.93294" lon="0.90156">
        <ele>150</ele>
        <time>2012-10-21T07:22:35Z</time>
      </trkpt>
      <trkpt lat="44.93306" lon="0.90165">
        <ele>148</ele>
        <time>2012-10-21T07:22:37Z</time>
      </trkpt>
      <trkpt lat="44.93316" lon="0.90171">
        <ele>146</ele>
        <time>2012-10-21T07:22:39Z</time>
      </trkpt>
      <trkpt lat="44.93327" lon="0.90173">
        <ele>144</ele>
        <time>2012-10-21T07:22:41Z</time>
      </trkpt>
      <trkpt lat="44.9334" lon="0.90172">
        <ele>142</ele>
        <time>2012-10-21T07:22:43Z</time>
      </trkpt>
      <trkpt lat="44.93353" lon="0.90171">
        <ele>140</ele>
        <time>2012-10-21T07:22:45Z</time>
      </trkpt>
      <trkpt lat="44.93366" lon="0.9017">
        <ele>138</ele>
        <time>2012-10-21T07:22:47Z</time>
      </trkpt>
      <trkpt lat="44.93377" lon="0.90172">
        <ele>136</ele>
        <time>2012-10-21T07:22:49Z</time>
      </trkpt>
      <trkpt lat="44.93389" lon="0.90176">
        <ele>134</ele>
        <time>2012-10-21T07:22:51Z</time>
      </trkpt>
      <trkpt lat="44.93401" lon="0.90182">
        <ele>132</ele>
        <time>2012-10-21T07:22:53Z</time>
      </trkpt>
      <trkpt lat="44.93414" lon="0.9019">
        <ele>130</ele>
        <time>2012-10-21T07:22:55Z</time>
      </trkpt>
      <trkpt lat="44.93433" lon="0.902">
        <ele>127</ele>
        <time>2012-10-21T07:22:58Z</time>
      </trkpt>
      <trkpt lat="44.93446" lon="0.90209">
        <ele>127</ele>
        <time>2012-10-21T07:23:00Z</time>
      </trkpt>
      <trkpt lat="44.93457" lon="0.90219">
        <ele>126</ele>
        <time>2012-10-21T07:23:02Z</time>
      </trkpt>
      <trkpt lat="44.93466" lon="0.90229">
        <ele>125</ele>
        <time>2012-10-21T07:23:04Z</time>
      </trkpt>
      <trkpt lat="44.93475" lon="0.90241">
        <ele>124</ele>
        <time>2012-10-21T07:23:06Z</time>
      </trkpt>
      <trkpt lat="44.93484" lon="0.90254">
        <ele>123</ele>
        <time>2012-10-21T07:23:08Z</time>
      </trkpt>
      <trkpt lat="44.93494" lon="0.90269">
        <ele>123</ele>
        <time>2012-10-21T07:23:10Z</time>
      </trkpt>
      <trkpt lat="44.93504" lon="0.90279">
        <ele>123</ele>
        <time>2012-10-21T07:23:12Z</time>
      </trkpt>
      <trkpt lat="44.93513" lon="0.90287">
        <ele>123</ele>
        <time>2012-10-21T07:23:14Z</time>
      </trkpt>
      <trkpt lat="44.93524" lon="0.90295">
        <ele>123</ele>
        <time>2012-10-21T07:23:16Z</time>
      </trkpt>
      <trkpt lat="44.93534" lon="0.90305">
        <ele>123</ele>
        <time>2012-10-21T07:23:18Z</time>
      </trkpt>
      <trkpt lat="44.93541" lon="0.90314">
        <ele>123</ele>
        <time>2012-10-21T07:23:20Z</time>
      </trkpt>
      <trkpt lat="44.93545" lon="0.90323">
        <ele>121</ele>
        <time>2012-10-21T07:23:22Z</time>
      </trkpt>
      <trkpt lat="44.93548" lon="0.90333">
        <ele>120</ele>
        <time>2012-10-21T07:23:24Z</time>
      </trkpt>
      <trkpt lat="44.93554" lon="0.90347">
        <ele>119</ele>
        <time>2012-10-21T07:23:27Z</time>
      </trkpt>
      <trkpt lat="44.93559" lon="0.90358">
        <ele>119</ele>
        <time>2012-10-21T07:23:29Z</time>
      </trkpt>
      <trkpt lat="44.93565" lon="0.90368">
        <ele>119</ele>
        <time>2012-10-21T07:23:31Z</time>
      </trkpt>
      <trkpt lat="44.93575" lon="0.90383">
        <ele>119</ele>
        <time>2012-10-21T07:23:33Z</time>
      </trkpt>
      <trkpt lat="44.93587" lon="0.90398">
        <ele>118</ele>
        <time>2012-10-21T07:23:35Z</time>
      </trkpt>
      <trkpt lat="44.93597" lon="0.90415">
        <ele>116</ele>
        <time>2012-10-21T07:23:37Z</time>
      </trkpt>
      <trkpt lat="44.93607" lon="0.9043">
        <ele>114</ele>
        <time>2012-10-21T07:23:39Z</time>
      </trkpt>
      <trkpt lat="44.93614" lon="0.90443">
        <ele>112</ele>
        <time>2012-10-21T07:23:41Z</time>
      </trkpt>
      <trkpt lat="44.93623" lon="0.90456">
        <ele>110</ele>
        <time>2012-10-21T07:23:43Z</time>
      </trkpt>
      <trkpt lat="44.93629" lon="0.9047">
        <ele>108</ele>
        <time>2012-10-21T07:23:45Z</time>
      </trkpt>
      <trkpt lat="44.93636" lon="0.90479">
        <ele>106</ele>
        <time>2012-10-21T07:23:47Z</time>
      </trkpt>
      <trkpt lat="44.93648" lon="0.90484">
        <ele>104</ele>
        <time>2012-10-21T07:23:49Z</time>
      </trkpt>
      <trkpt lat="44.9366" lon="0.90487">
        <ele>102</ele>
        <time>2012-10-21T07:23:51Z</time>
      </trkpt>
      <trkpt lat="44.93673" lon="0.90489">
        <ele>100</ele>
        <time>2012-10-21T07:23:53Z</time>
      </trkpt>
      <trkpt lat="44.93686" lon="0.9049">
        <ele>98</ele>
        <time>2012-10-21T07:23:55Z</time>
      </trkpt>
      <trkpt lat="44.93705" lon="0.90492">
        <ele>94</ele>
        <time>2012-10-21T07:23:58Z</time>
      </trkpt>
      <trkpt lat="44.93714" lon="0.90493">
        <ele>92</ele>
        <time>2012-10-21T07:24:00Z</time>
      </trkpt>
      <trkpt lat="44.93725" lon="0.90494">
        <ele>89</ele>
        <time>2012-10-21T07:24:03Z</time>
      </trkpt>
      <trkpt lat="44.93732" lon="0.90498">
        <ele>87</ele>
        <time>2012-10-21T07:24:05Z</time>
      </trkpt>
      <trkpt lat="44.93735" lon="0.90507">
        <ele>85</ele>
        <time>2012-10-21T07:24:07Z</time>
      </trkpt>
      <trkpt lat="44.93735" lon="0.90519">
        <ele>83</ele>
        <time>2012-10-21T07:24:09Z</time>
      </trkpt>
      <trkpt lat="44.93733" lon="0.90533">
        <ele>81</ele>
        <time>2012-10-21T07:24:11Z</time>
      </trkpt>
      <trkpt lat="44.93732" lon="0.90548">
        <ele>81</ele>
        <time>2012-10-21T07:24:13Z</time>
      </trkpt>
      <trkpt lat="44.9373" lon="0.90563">
        <ele>81</ele>
        <time>2012-10-21T07:24:15Z</time>
      </trkpt>
      <trkpt lat="44.93729" lon="0.90589">
        <ele>81</ele>
        <time>2012-10-21T07:24:18Z</time>
      </trkpt>
      <trkpt lat="44.9373" lon="0.90607">
        <ele>81</ele>
        <time>2012-10-21T07:24:20Z</time>
      </trkpt>
      <trkpt lat="44.93732" lon="0.90625">
        <ele>80</ele>
        <time>2012-10-21T07:24:22Z</time>
      </trkpt>
      <trkpt lat="44.93733" lon="0.9064">
        <ele>80</ele>
        <time>2012-10-21T07:24:24Z</time>
      </trkpt>
      <trkpt lat="44.93735" lon="0.90655">
        <ele>79</ele>
        <time>2012-10-21T07:24:26Z</time>
      </trkpt>
      <trkpt lat="44.93736" lon="0.90668">
        <ele>78</ele>
        <time>2012-10-21T07:24:28Z</time>
      </trkpt>
      <trkpt lat="44.93741" lon="0.90676">
        <ele>78</ele>
        <time>2012-10-21T07:24:30Z</time>
      </trkpt>
      <trkpt lat="44.93749" lon="0.90676">
        <ele>78</ele>
        <time>2012-10-21T07:24:32Z</time>
      </trkpt>
      <trkpt lat="44.93758" lon="0.9067">
        <ele>78</ele>
        <time>2012-10-21T07:24:34Z</time>
      </trkpt>
      <trkpt lat="44.93767" lon="0.90659">
        <ele>77</ele>
        <time>2012-10-21T07:24:36Z</time>
      </trkpt>
      <trkpt lat="44.93776" lon="0.9065">
        <ele>77</ele>
        <time>2012-10-21T07:24:38Z</time>
      </trkpt>
      <trkpt lat="44.93785" lon="0.90641">
        <ele>76</ele>
        <time>2012-10-21T07:24:40Z</time>
      </trkpt>
      <trkpt lat="44.93794" lon="0.90632">
        <ele>75</ele>
        <time>2012-10-21T07:24:42Z</time>
      </trkpt>
      <trkpt lat="44.93807" lon="0.90618">
        <ele>73</ele>
        <time>2012-10-21T07:24:45Z</time>
      </trkpt>
      <trkpt lat="44.93815" lon="0.90609">
        <ele>72</ele>
        <time>2012-10-21T07:24:47Z</time>
      </trkpt>
      <trkpt lat="44.93821" lon="0.906">
        <ele>71</ele>
        <time>2012-10-21T07:24:49Z</time>
      </trkpt>
      <trkpt lat="44.93828" lon="0.90592">
        <ele>71</ele>
        <time>2012-10-21T07:24:51Z</time>
      </trkpt>
      <trkpt lat="44.93834" lon="0.90592">
        <ele>71</ele>
        <time>2012-10-21T07:24:53Z</time>
      </trkpt>
      <trkpt lat="44.93839" lon="0.90598">
        <ele>71</ele>
        <time>2012-10-21T07:24:55Z</time>
      </trkpt>
      <trkpt lat="44.93844" lon="0.90608">
        <ele>71</ele>
        <time>2012-10-21T07:24:57Z</time>
      </trkpt>
      <trkpt lat="44.93849" lon="0.90617">
        <ele>71</ele>
        <time>2012-10-21T07:24:59Z</time>
      </trkpt>
      <trkpt lat="44.93855" lon="0.90625">
        <ele>71</ele>
        <time>2012-10-21T07:25:01Z</time>
      </trkpt>
      <trkpt lat="44.93859" lon="0.90629">
        <ele>71</ele>
        <time>2012-10-21T07:25:03Z</time>
      </trkpt>
      <trkpt lat="44.93866" lon="0.90636">
        <ele>71</ele>
        <time>2012-10-21T07:25:06Z</time>
      </trkpt>
      <trkpt lat="44.93867" lon="0.90643">
        <ele>73</ele>
        <time>2012-10-21T07:25:08Z</time>
      </trkpt>
      <trkpt lat="44.93865" lon="0.90649">
        <ele>75</ele>
        <time>2012-10-21T07:25:10Z</time>
      </trkpt>
      <trkpt lat="44.93861" lon="0.90652">
        <ele>77</ele>
        <time>2012-10-21T07:25:12Z</time>
      </trkpt>
      <trkpt lat="44.93859" lon="0.90657">
        <ele>79</ele>
        <time>2012-10-21T07:25:14Z</time>
      </trkpt>
      <trkpt lat="44.93855" lon="0.90662">
        <ele>80</ele>
        <time>2012-10-21T07:25:16Z</time>
      </trkpt>
      <trkpt lat="44.93851" lon="0.90669">
        <ele>82</ele>
        <time>2012-10-21T07:25:18Z</time>
      </trkpt>
      <trkpt lat="44.93846" lon="0.90676">
        <ele>84</ele>
        <time>2012-10-21T07:25:20Z</time>
      </trkpt>
      <trkpt lat="44.93843" lon="0.90685">
        <ele>86</ele>
        <time>2012-10-21T07:25:22Z</time>
      </trkpt>
      <trkpt lat="44.9384" lon="0.90693">
        <ele>88</ele>
        <time>2012-10-21T07:25:24Z</time>
      </trkpt>
      <trkpt lat="44.93838" lon="0.90701">
        <ele>90</ele>
        <time>2012-10-21T07:25:26Z</time>
      </trkpt>
      <trkpt lat="44.93834" lon="0.90711">
        <ele>93</ele>
        <time>2012-10-21T07:25:29Z</time>
      </trkpt>
      <trkpt lat="44.9383" lon="0.90717">
        <ele>94</ele>
        <time>2012-10-21T07:25:31Z</time>
      </trkpt>
      <trkpt lat="44.93828" lon="0.90724">
        <ele>94</ele>
        <time>2012-10-21T07:25:33Z</time>
      </trkpt>
      <trkpt lat="44.93824" lon="0.90733">
        <ele>94</ele>
        <time>2012-10-21T07:25:35Z</time>
      </trkpt>
      <trkpt lat="44.93821" lon="0.9074">
        <ele>94</ele>
        <time>2012-10-21T07:25:37Z</time>
      </trkpt>
      <trkpt lat="44.93822" lon="0.90747">
        <ele>94</ele>
        <time>2012-10-21T07:25:39Z</time>
      </trkpt>
      <trkpt lat="44.93821" lon="0.90757">
        <ele>94</ele>
        <time>2012-10-21T07:25:41Z</time>
      </trkpt>
      <trkpt lat="44.93821" lon="0.90764">
        <ele>93</ele>
        <time>2012-10-21T07:25:43Z</time>
      </trkpt>
      <trkpt lat="44.9382" lon="0.90773">
        <ele>91</ele>
        <time>2012-10-21T07:25:45Z</time>
      </trkpt>
      <trkpt lat="44.93817" lon="0.90785">
        <ele>89</ele>
        <time>2012-10-21T07:25:48Z</time>
      </trkpt>
      <trkpt lat="44.93815" lon="0.90794">
        <ele>89</ele>
        <time>2012-10-21T07:25:50Z</time>
      </trkpt>
      <trkpt lat="44.93813" lon="0.90802">
        <ele>88</ele>
        <time>2012-10-21T07:25:52Z</time>
      </trkpt>
      <trkpt lat="44.9381" lon="0.90812">
        <ele>86</ele>
        <time>2012-10-21T07:25:55Z</time>
      </trkpt>
      <trkpt lat="44.93809" lon="0.90818">
        <ele>86</ele>
        <time>2012-10-21T07:25:57Z</time>
      </trkpt>
      <trkpt lat="44.93807" lon="0.90822">
        <ele>86</ele>
        <time>2012-10-21T07:25:59Z</time>
      </trkpt>
      <trkpt lat="44.93804" lon="0.90827">
        <ele>86</ele>
        <time>2012-10-21T07:26:01Z</time>
      </trkpt>
      <trkpt lat="44.93802" lon="0.90832">
        <ele>85</ele>
        <time>2012-10-21T07:26:03Z</time>
      </trkpt>
      <trkpt lat="44.938" lon="0.90836">
        <ele>84</ele>
        <time>2012-10-21T07:26:05Z</time>
      </trkpt>
      <trkpt lat="44.93798" lon="0.90843">
        <ele>84</ele>
        <time>2012-10-21T07:26:07Z</time>
      </trkpt>
      <trkpt lat="44.93795" lon="0.90851">
        <ele>84</ele>
        <time>2012-10-21T07:26:09Z</time>
      </trkpt>
      <trkpt lat="44.9379" lon="0.90863">
        <ele>84</ele>
        <time>2012-10-21T07:26:12Z</time>
      </trkpt>
      <trkpt lat="44.93785" lon="0.90874">
        <ele>84</ele>
        <time>2012-10-21T07:26:15Z</time>
      </trkpt>
      <trkpt lat="44.93781" lon="0.90881">
        <ele>84</ele>
        <time>2012-10-21T07:26:17Z</time>
      </trkpt>
      <trkpt lat="44.93777" lon="0.90889">
        <ele>84</ele>
        <time>2012-10-21T07:26:19Z</time>
      </trkpt>
      <trkpt lat="44.93772" lon="0.90897">
        <ele>84</ele>
        <time>2012-10-21T07:26:21Z</time>
      </trkpt>
      <trkpt lat="44.93768" lon="0.90905">
        <ele>84</ele>
        <time>2012-10-21T07:26:23Z</time>
      </trkpt>
      <trkpt lat="44.93764" lon="0.90914">
        <ele>84</ele>
        <time>2012-10-21T07:26:25Z</time>
      </trkpt>
      <trkpt lat="44.93758" lon="0.90923">
        <ele>84</ele>
        <time>2012-10-21T07:26:27Z</time>
      </trkpt>
      <trkpt lat="44.93752" lon="0.90931">
        <ele>84</ele>
        <time>2012-10-21T07:26:29Z</time>
      </trkpt>
      <trkpt lat="44.93747" lon="0.90939">
        <ele>84</ele>
        <time>2012-10-21T07:26:31Z</time>
      </trkpt>
      <trkpt lat="44.93743" lon="0.90948">
        <ele>83</ele>
        <time>2012-10-21T07:26:33Z</time>
      </trkpt>
      <trkpt lat="44.93739" lon="0.90956">
        <ele>81</ele>
        <time>2012-10-21T07:26:35Z</time>
      </trkpt>
      <trkpt lat="44.93732" lon="0.90965">
        <ele>79</ele>
        <time>2012-10-21T07:26:37Z</time>
      </trkpt>
      <trkpt lat="44.93724" lon="0.90973">
        <ele>78</ele>
        <time>2012-10-21T07:26:39Z</time>
      </trkpt>
      <trkpt lat="44.93716" lon="0.90982">
        <ele>78</ele>
        <time>2012-10-21T07:26:41Z</time>
      </trkpt>
      <trkpt lat="44.93709" lon="0.90991">
        <ele>78</ele>
        <time>2012-10-21T07:26:43Z</time>
      </trkpt>
      <trkpt lat="44.93702" lon="0.91001">
        <ele>78</ele>
        <time>2012-10-21T07:26:45Z</time>
      </trkpt>
      <trkpt lat="44.93697" lon="0.91008">
        <ele>78</ele>
        <time>2012-10-21T07:26:47Z</time>
      </trkpt>
      <trkpt lat="44.93687" lon="0.91018">
        <ele>78</ele>
        <time>2012-10-21T07:26:50Z</time>
      </trkpt>
      <trkpt lat="44.9368" lon="0.91025">
        <ele>78</ele>
        <time>2012-10-21T07:26:52Z</time>
      </trkpt>
      <trkpt lat="44.93674" lon="0.91034">
        <ele>78</ele>
        <time>2012-10-21T07:26:54Z</time>
      </trkpt>
      <trkpt lat="44.93668" lon="0.91041">
        <ele>78</ele>
        <time>2012-10-21T07:26:56Z</time>
      </trkpt>
      <trkpt lat="44.93661" lon="0.91049">
        <ele>78</ele>
        <time>2012-10-21T07:26:58Z</time>
      </trkpt>
      <trkpt lat="44.93654" lon="0.91055">
        <ele>79</ele>
        <time>2012-10-21T07:27:00Z</time>
      </trkpt>
      <trkpt lat="44.93647" lon="0.91063">
        <ele>81</ele>
        <time>2012-10-21T07:27:02Z</time>
      </trkpt>
      <trkpt lat="44.93642" lon="0.9107">
        <ele>83</ele>
        <time>2012-10-21T07:27:04Z</time>
      </trkpt>
      <trkpt lat="44.93626" lon="0.91086">
        <ele>86</ele>
        <time>2012-10-21T07:27:07Z</time>
      </trkpt>
      <trkpt lat="44.93617" lon="0.91099">
        <ele>88</ele>
        <time>2012-10-21T07:27:09Z</time>
      </trkpt>
      <trkpt lat="44.93608" lon="0.91115">
        <ele>90</ele>
        <time>2012-10-21T07:27:11Z</time>
      </trkpt>
      <trkpt lat="44.93601" lon="0.91128">
        <ele>92</ele>
        <time>2012-10-21T07:27:13Z</time>
      </trkpt>
      <trkpt lat="44.93594" lon="0.91142">
        <ele>92</ele>
        <time>2012-10-21T07:27:15Z</time>
      </trkpt>
      <trkpt lat="44.9359" lon="0.91156">
        <ele>92</ele>
        <time>2012-10-21T07:27:17Z</time>
      </trkpt>
      <trkpt lat="44.93585" lon="0.91169">
        <ele>92</ele>
        <time>2012-10-21T07:27:19Z</time>
      </trkpt>
      <trkpt lat="44.93578" lon="0.91182">
        <ele>91</ele>
        <time>2012-10-21T07:27:21Z</time>
      </trkpt>
      <trkpt lat="44.93573" lon="0.91193">
        <ele>89</ele>
        <time>2012-10-21T07:27:23Z</time>
      </trkpt>
      <trkpt lat="44.93565" lon="0.91214">
        <ele>87</ele>
        <time>2012-10-21T07:27:26Z</time>
      </trkpt>
      <trkpt lat="44.9356" lon="0.91229">
        <ele>86</ele>
        <time>2012-10-21T07:27:28Z</time>
      </trkpt>
      <trkpt lat="44.93554" lon="0.91243">
        <ele>86</ele>
        <time>2012-10-21T07:27:30Z</time>
      </trkpt>
      <trkpt lat="44.93548" lon="0.91257">
        <ele>86</ele>
        <time>2012-10-21T07:27:32Z</time>
      </trkpt>
      <trkpt lat="44.93546" lon="0.91269">
        <ele>86</ele>
        <time>2012-10-21T07:27:34Z</time>
      </trkpt>
      <trkpt lat="44.93543" lon="0.91281">
        <ele>86</ele>
        <time>2012-10-21T07:27:36Z</time>
      </trkpt>
      <trkpt lat="44.93539" lon="0.91291">
        <ele>85</ele>
        <time>2012-10-21T07:27:38Z</time>
      </trkpt>
      <trkpt lat="44.93536" lon="0.91303">
        <ele>84</ele>
        <time>2012-10-21T07:27:40Z</time>
      </trkpt>
      <trkpt lat="44.93533" lon="0.91315">
        <ele>83</ele>
        <time>2012-10-21T07:27:42Z</time>
      </trkpt>
      <trkpt lat="44.93529" lon="0.91328">
        <ele>82</ele>
        <time>2012-10-21T07:27:44Z</time>
      </trkpt>
      <trkpt lat="44.93525" lon="0.91341">
        <ele>81</ele>
        <time>2012-10-21T07:27:46Z</time>
      </trkpt>
      <trkpt lat="44.93522" lon="0.91355">
        <ele>80</ele>
        <time>2012-10-21T07:27:48Z</time>
      </trkpt>
      <trkpt lat="44.93518" lon="0.91369">
        <ele>78</ele>
        <time>2012-10-21T07:27:50Z</time>
      </trkpt>
      <trkpt lat="44.93515" lon="0.91382">
        <ele>77</ele>
        <time>2012-10-21T07:27:52Z</time>
      </trkpt>
      <trkpt lat="44.93512" lon="0.91397">
        <ele>76</ele>
        <time>2012-10-21T07:27:54Z</time>
      </trkpt>
      <trkpt lat="44.93507" lon="0.91412">
        <ele>76</ele>
        <time>2012-10-21T07:27:56Z</time>
      </trkpt>
      <trkpt lat="44.93501" lon="0.91427">
        <ele>76</ele>
        <time>2012-10-21T07:27:58Z</time>
      </trkpt>
      <trkpt lat="44.93497" lon="0.9144">
        <ele>76</ele>
        <time>2012-10-21T07:28:00Z</time>
      </trkpt>
      <trkpt lat="44.93492" lon="0.91454">
        <ele>76</ele>
        <time>2012-10-21T07:28:02Z</time>
      </trkpt>
      <trkpt lat="44.93488" lon="0.91478">
        <ele>76</ele>
        <time>2012-10-21T07:28:05Z</time>
      </trkpt>
      <trkpt lat="44.93481" lon="0.91497">
        <ele>76</ele>
        <time>2012-10-21T07:28:08Z</time>
      </trkpt>
      <trkpt lat="44.93478" lon="0.91511">
        <ele>76</ele>
        <time>2012-10-21T07:28:10Z</time>
      </trkpt>
      <trkpt lat="44.93474" lon="0.91526">
        <ele>76</ele>
        <time>2012-10-21T07:28:12Z</time>
      </trkpt>
      <trkpt lat="44.93471" lon="0.91539">
        <ele>76</ele>
        <time>2012-10-21T07:28:14Z</time>
      </trkpt>
      <trkpt lat="44.93467" lon="0.91553">
        <ele>76</ele>
        <time>2012-10-21T07:28:16Z</time>
      </trkpt>
      <trkpt lat="44.93463" lon="0.91566">
        <ele>75</ele>
        <time>2012-10-21T07:28:18Z</time>
      </trkpt>
      <trkpt lat="44.93459" lon="0.91578">
        <ele>74</ele>
        <time>2012-10-21T07:28:20Z</time>
      </trkpt>
      <trkpt lat="44.93452" lon="0.91591">
        <ele>74</ele>
        <time>2012-10-21T07:28:22Z</time>
      </trkpt>
      <trkpt lat="44.93447" lon="0.91605">
        <ele>74</ele>
        <time>2012-10-21T07:28:24Z</time>
      </trkpt>
      <trkpt lat="44.93441" lon="0.91617">
        <ele>74</ele>
        <time>2012-10-21T07:28:26Z</time>
      </trkpt>
      <trkpt lat="44.93436" lon="0.91629">
        <ele>73</ele>
        <time>2012-10-21T07:28:28Z</time>
      </trkpt>
      <trkpt lat="44.93431" lon="0.91642">
        <ele>73</ele>
        <time>2012-10-21T07:28:30Z</time>
      </trkpt>
      <trkpt lat="44.93425" lon="0.91655">
        <ele>73</ele>
        <time>2012-10-21T07:28:32Z</time>
      </trkpt>
      <trkpt lat="44.93419" lon="0.91666">
        <ele>73</ele>
        <time>2012-10-21T07:28:34Z</time>
      </trkpt>
      <trkpt lat="44.93414" lon="0.91676">
        <ele>73</ele>
        <time>2012-10-21T07:28:36Z</time>
      </trkpt>
      <trkpt lat="44.93409" lon="0.91687">
        <ele>73</ele>
        <time>2012-10-21T07:28:38Z</time>
      </trkpt>
      <trkpt lat="44.93404" lon="0.91699">
        <ele>73</ele>
        <time>2012-10-21T07:28:40Z</time>
      </trkpt>
      <trkpt lat="44.93398" lon="0.91711">
        <ele>73</ele>
        <time>2012-10-21T07:28:42Z</time>
      </trkpt>
      <trkpt lat="44.93389" lon="0.91733">
        <ele>73</ele>
        <time>2012-10-21T07:28:45Z</time>
      </trkpt>
      <trkpt lat="44.93383" lon="0.91746">
        <ele>73</ele>
        <time>2012-10-21T07:28:47Z</time>
      </trkpt>
      <trkpt lat="44.93376" lon="0.91758">
        <ele>73</ele>
        <time>2012-10-21T07:28:49Z</time>
      </trkpt>
      <trkpt lat="44.9337" lon="0.9177">
        <ele>73</ele>
        <time>2012-10-21T07:28:51Z</time>
      </trkpt>
      <trkpt lat="44.93363" lon="0.91782">
        <ele>73</ele>
        <time>2012-10-21T07:28:53Z</time>
      </trkpt>
      <trkpt lat="44.93356" lon="0.91793">
        <ele>73</ele>
        <time>2012-10-21T07:28:55Z</time>
      </trkpt>
      <trkpt lat="44.93349" lon="0.91806">
        <ele>73</ele>
        <time>2012-10-21T07:28:57Z</time>
      </trkpt>
      <trkpt lat="44.93345" lon="0.91817">
        <ele>73</ele>
        <time>2012-10-21T07:28:59Z</time>
      </trkpt>
      <trkpt lat="44.93338" lon="0.91829">
        <ele>73</ele>
        <time>2012-10-21T07:29:01Z</time>
      </trkpt>
      <trkpt lat="44.93332" lon="0.91839">
        <ele>73</ele>
        <time>2012-10-21T07:29:03Z</time>
      </trkpt>
      <trkpt lat="44.93325" lon="0.91851">
        <ele>74</ele>
        <time>2012-10-21T07:29:05Z</time>
      </trkpt>
      <trkpt lat="44.93318" lon="0.91863">
        <ele>75</ele>
        <time>2012-10-21T07:29:07Z</time>
      </trkpt>
      <trkpt lat="44.93312" lon="0.91874">
        <ele>75</ele>
        <time>2012-10-21T07:29:09Z</time>
      </trkpt>
      <trkpt lat="44.93307" lon="0.91884">
        <ele>75</ele>
        <time>2012-10-21T07:29:11Z</time>
      </trkpt>
      <trkpt lat="44.93303" lon="0.91895">
        <ele>75</ele>
        <time>2012-10-21T07:29:13Z</time>
      </trkpt>
      <trkpt lat="44.93296" lon="0.91905">
        <ele>76</ele>
        <time>2012-10-21T07:29:15Z</time>
      </trkpt>
      <trkpt lat="44.93291" lon="0.91917">
        <ele>77</ele>
        <time>2012-10-21T07:29:17Z</time>
      </trkpt>
      <trkpt lat="44.93285" lon="0.91928">
        <ele>78</ele>
        <time>2012-10-21T07:29:19Z</time>
      </trkpt>
      <trkpt lat="44.93275" lon="0.91938">
        <ele>79</ele>
        <time>2012-10-21T07:29:21Z</time>
      </trkpt>
      <trkpt lat="44.93269" lon="0.91948">
        <ele>81</ele>
        <time>2012-10-21T07:29:23Z</time>
      </trkpt>
      <trkpt lat="44.93265" lon="0.9196">
        <ele>81</ele>
        <time>2012-10-21T07:29:25Z</time>
      </trkpt>
      <trkpt lat="44.93261" lon="0.91971">
        <ele>81</ele>
        <time>2012-10-21T07:29:27Z</time>
      </trkpt>
      <trkpt lat="44.93251" lon="0.91983">
        <ele>83</ele>
        <time>2012-10-21T07:29:29Z</time>
      </trkpt>
      <trkpt lat="44.93242" lon="0.91994">
        <ele>85</ele>
        <time>2012-10-21T07:29:31Z</time>
      </trkpt>
      <trkpt lat="44.93237" lon="0.92005">
        <ele>87</ele>
        <time>2012-10-21T07:29:33Z</time>
      </trkpt>
      <trkpt lat="44.93233" lon="0.92017">
        <ele>87</ele>
        <time>2012-10-21T07:29:35Z</time>
      </trkpt>
      <trkpt lat="44.93228" lon="0.92027">
        <ele>87</ele>
        <time>2012-10-21T07:29:37Z</time>
      </trkpt>
      <trkpt lat="44.93222" lon="0.92037">
        <ele>87</ele>
        <time>2012-10-21T07:29:39Z</time>
      </trkpt>
      <trkpt lat="44.93216" lon="0.92049">
        <ele>87</ele>
        <time>2012-10-21T07:29:41Z</time>
      </trkpt>
      <trkpt lat="44.93213" lon="0.9206">
        <ele>87</ele>
        <time>2012-10-21T07:29:43Z</time>
      </trkpt>
      <trkpt lat="44.9321" lon="0.92071">
        <ele>87</ele>
        <time>2012-10-21T07:29:45Z</time>
      </trkpt>
      <trkpt lat="44.93206" lon="0.92082">
        <ele>85</ele>
        <time>2012-10-21T07:29:47Z</time>
      </trkpt>
      <trkpt lat="44.93203" lon="0.92091">
        <ele>84</ele>
        <time>2012-10-21T07:29:49Z</time>
      </trkpt>
      <trkpt lat="44.932" lon="0.92099">
        <ele>84</ele>
        <time>2012-10-21T07:29:51Z</time>
      </trkpt>
      <trkpt lat="44.93196" lon="0.92108">
        <ele>84</ele>
        <time>2012-10-21T07:29:53Z</time>
      </trkpt>
      <trkpt lat="44.93192" lon="0.92116">
        <ele>84</ele>
        <time>2012-10-21T07:29:55Z</time>
      </trkpt>
      <trkpt lat="44.93188" lon="0.92124">
        <ele>84</ele>
        <time>2012-10-21T07:29:57Z</time>
      </trkpt>
      <trkpt lat="44.93184" lon="0.92132">
        <ele>84</ele>
        <time>2012-10-21T07:29:59Z</time>
      </trkpt>
      <trkpt lat="44.93184" lon="0.92138">
        <ele>84</ele>
        <time>2012-10-21T07:30:01Z</time>
      </trkpt>
      <trkpt lat="44.93181" lon="0.92152">
        <ele>84</ele>
        <time>2012-10-21T07:30:03Z</time>
      </trkpt>
      <trkpt lat="44.93175" lon="0.92166">
        <ele>84</ele>
        <time>2012-10-21T07:30:05Z</time>
      </trkpt>
      <trkpt lat="44.93169" lon="0.92181">
        <ele>84</ele>
        <time>2012-10-21T07:30:07Z</time>
      </trkpt>
      <trkpt lat="44.93163" lon="0.92196">
        <ele>82</ele>
        <time>2012-10-21T07:30:09Z</time>
      </trkpt>
      <trkpt lat="44.93156" lon="0.9221">
        <ele>81</ele>
        <time>2012-10-21T07:30:11Z</time>
      </trkpt>
      <trkpt lat="44.93154" lon="0.92226">
        <ele>79</ele>
        <time>2012-10-21T07:30:13Z</time>
      </trkpt>
      <trkpt lat="44.93152" lon="0.92241">
        <ele>77</ele>
        <time>2012-10-21T07:30:15Z</time>
      </trkpt>
      <trkpt lat="44.93152" lon="0.92255">
        <ele>75</ele>
        <time>2012-10-21T07:30:17Z</time>
      </trkpt>
      <trkpt lat="44.93152" lon="0.92269">
        <ele>73</ele>
        <time>2012-10-21T07:30:19Z</time>
      </trkpt>
      <trkpt lat="44.93152" lon="0.92286">
        <ele>71</ele>
        <time>2012-10-21T07:30:21Z</time>
      </trkpt>
      <trkpt lat="44.93151" lon="0.92305">
        <ele>69</ele>
        <time>2012-10-21T07:30:23Z</time>
      </trkpt>
      <trkpt lat="44.93151" lon="0.92324">
        <ele>68</ele>
        <time>2012-10-21T07:30:25Z</time>
      </trkpt>
      <trkpt lat="44.9315" lon="0.92343">
        <ele>68</ele>
        <time>2012-10-21T07:30:27Z</time>
      </trkpt>
      <trkpt lat="44.9315" lon="0.92361">
        <ele>68</ele>
        <time>2012-10-21T07:30:29Z</time>
      </trkpt>
      <trkpt lat="44.93147" lon="0.92378">
        <ele>68</ele>
        <time>2012-10-21T07:30:31Z</time>
      </trkpt>
      <trkpt lat="44.93143" lon="0.92393">
        <ele>68</ele>
        <time>2012-10-21T07:30:33Z</time>
      </trkpt>
      <trkpt lat="44.93136" lon="0.92414">
        <ele>68</ele>
        <time>2012-10-21T07:30:36Z</time>
      </trkpt>
      <trkpt lat="44.93126" lon="0.92429">
        <ele>68</ele>
        <time>2012-10-21T07:30:38Z</time>
      </trkpt>
      <trkpt lat="44.93118" lon="0.92444">
        <ele>68</ele>
        <time>2012-10-21T07:30:40Z</time>
      </trkpt>
      <trkpt lat="44.93105" lon="0.92466">
        <ele>68</ele>
        <time>2012-10-21T07:30:43Z</time>
      </trkpt>
      <trkpt lat="44.931" lon="0.92484">
        <ele>68</ele>
        <time>2012-10-21T07:30:45Z</time>
      </trkpt>
      <trkpt lat="44.93098" lon="0.92503">
        <ele>67</ele>
        <time>2012-10-21T07:30:47Z</time>
      </trkpt>
      <trkpt lat="44.93096" lon="0.92523">
        <ele>67</ele>
        <time>2012-10-21T07:30:49Z</time>
      </trkpt>
      <trkpt lat="44.93093" lon="0.9254">
        <ele>67</ele>
        <time>2012-10-21T07:30:51Z</time>
      </trkpt>
      <trkpt lat="44.93091" lon="0.92556">
        <ele>67</ele>
        <time>2012-10-21T07:30:53Z</time>
      </trkpt>
      <trkpt lat="44.93089" lon="0.92572">
        <ele>67</ele>
        <time>2012-10-21T07:30:55Z</time>
      </trkpt>
      <trkpt lat="44.93087" lon="0.92589">
        <ele>67</ele>
        <time>2012-10-21T07:30:57Z</time>
      </trkpt>
      <trkpt lat="44.93084" lon="0.92602">
        <ele>67</ele>
        <time>2012-10-21T07:30:59Z</time>
      </trkpt>
      <trkpt lat="44.93083" lon="0.92618">
        <ele>67</ele>
        <time>2012-10-21T07:31:01Z</time>
      </trkpt>
      <trkpt lat="44.9308" lon="0.92634">
        <ele>67</ele>
        <time>2012-10-21T07:31:03Z</time>
      </trkpt>
      <trkpt lat="44.93076" lon="0.92648">
        <ele>67</ele>
        <time>2012-10-21T07:31:05Z</time>
      </trkpt>
      <trkpt lat="44.93075" lon="0.92663">
        <ele>67</ele>
        <time>2012-10-21T07:31:07Z</time>
      </trkpt>
      <trkpt lat="44.93074" lon="0.92677">
        <ele>66</ele>
        <time>2012-10-21T07:31:09Z</time>
      </trkpt>
      <trkpt lat="44.93073" lon="0.92693">
        <ele>66</ele>
        <time>2012-10-21T07:31:11Z</time>
      </trkpt>
      <trkpt lat="44.93071" lon="0.92709">
        <ele>66</ele>
        <time>2012-10-21T07:31:13Z</time>
      </trkpt>
      <trkpt lat="44.93067" lon="0.92725">
        <ele>66</ele>
        <time>2012-10-21T07:31:15Z</time>
      </trkpt>
      <trkpt lat="44.93064" lon="0.92742">
        <ele>66</ele>
        <time>2012-10-21T07:31:17Z</time>
      </trkpt>
      <trkpt lat="44.93061" lon="0.92759">
        <ele>66</ele>
        <time>2012-10-21T07:31:19Z</time>
      </trkpt>
      <trkpt lat="44.93055" lon="0.92783">
        <ele>65</ele>
        <time>2012-10-21T07:31:22Z</time>
      </trkpt>
      <trkpt lat="44.93051" lon="0.92806">
        <ele>65</ele>
        <time>2012-10-21T07:31:25Z</time>
      </trkpt>
      <trkpt lat="44.93046" lon="0.92822">
        <ele>64</ele>
        <time>2012-10-21T07:31:27Z</time>
      </trkpt>
      <trkpt lat="44.9304" lon="0.92837">
        <ele>64</ele>
        <time>2012-10-21T07:31:29Z</time>
      </trkpt>
      <trkpt lat="44.93034" lon="0.92852">
        <ele>64</ele>
        <time>2012-10-21T07:31:31Z</time>
      </trkpt>
      <trkpt lat="44.93027" lon="0.92866">
        <ele>63</ele>
        <time>2012-10-21T07:31:33Z</time>
      </trkpt>
      <trkpt lat="44.93021" lon="0.9288">
        <ele>63</ele>
        <time>2012-10-21T07:31:35Z</time>
      </trkpt>
      <trkpt lat="44.93012" lon="0.92898">
        <ele>63</ele>
        <time>2012-10-21T07:31:38Z</time>
      </trkpt>
      <trkpt lat="44.93004" lon="0.92909">
        <ele>63</ele>
        <time>2012-10-21T07:31:40Z</time>
      </trkpt>
      <trkpt lat="44.92994" lon="0.92914">
        <ele>63</ele>
        <time>2012-10-21T07:31:42Z</time>
      </trkpt>
      <trkpt lat="44.92983" lon="0.92915">
        <ele>63</ele>
        <time>2012-10-21T07:31:44Z</time>
      </trkpt>
      <trkpt lat="44.92971" lon="0.92914">
        <ele>63</ele>
        <time>2012-10-21T07:31:46Z</time>
      </trkpt>
      <trkpt lat="44.92964" lon="0.92917">
        <ele>63</ele>
        <time>2012-10-21T07:31:48Z</time>
      </trkpt>
      <trkpt lat="44.92958" lon="0.92922">
        <ele>63</ele>
        <time>2012-10-21T07:31:50Z</time>
      </trkpt>
      <trkpt lat="44.92956" lon="0.92928">
        <ele>63</ele>
        <time>2012-10-21T07:31:52Z</time>
      </trkpt>
      <trkpt lat="44.92965" lon="0.92931">
        <ele>63</ele>
        <time>2012-10-21T07:31:55Z</time>
      </trkpt>
      <trkpt lat="44.92973" lon="0.92936">
        <ele>63</ele>
        <time>2012-10-21T07:31:58Z</time>
      </trkpt>
      <trkpt lat="44.92979" lon="0.9294">
        <ele>64</ele>
        <time>2012-10-21T07:32:00Z</time>
      </trkpt>
      <trkpt lat="44.92982" lon="0.92943">
        <ele>64</ele>
        <time>2012-10-21T07:32:02Z</time>
      </trkpt>
      <trkpt lat="44.92986" lon="0.92946">
        <ele>65</ele>
        <time>2012-10-21T07:32:04Z</time>
      </trkpt>
      <trkpt lat="44.92989" lon="0.92949">
        <ele>65</ele>
        <time>2012-10-21T07:32:06Z</time>
      </trkpt>
      <trkpt lat="44.92992" lon="0.92952">
        <ele>66</ele>
        <time>2012-10-21T07:32:08Z</time>
      </trkpt>
      <trkpt lat="44.92995" lon="0.92954">
        <ele>66</ele>
        <time>2012-10-21T07:32:10Z</time>
      </trkpt>
      <trkpt lat="44.92998" lon="0.92957">
        <ele>67</ele>
        <time>2012-10-21T07:32:12Z</time>
      </trkpt>
      <trkpt lat="44.93" lon="0.92961">
        <ele>69</ele>
        <time>2012-10-21T07:32:15Z</time>
      </trkpt>
      <trkpt lat="44.93002" lon="0.92965">
        <ele>69</ele>
        <time>2012-10-21T07:32:17Z</time>
      </trkpt>
      <trkpt lat="44.93006" lon="0.92969">
        <ele>71</ele>
        <time>2012-10-21T07:32:19Z</time>
      </trkpt>
      <trkpt lat="44.9301" lon="0.92973">
        <ele>73</ele>
        <time>2012-10-21T07:32:21Z</time>
      </trkpt>
      <trkpt lat="44.93013" lon="0.92977">
        <ele>75</ele>
        <time>2012-10-21T07:32:23Z</time>
      </trkpt>
      <trkpt lat="44.93016" lon="0.9298">
        <ele>76</ele>
        <time>2012-10-21T07:32:25Z</time>
      </trkpt>
      <trkpt lat="44.9302" lon="0.92984">
        <ele>76</ele>
        <time>2012-10-21T07:32:27Z</time>
      </trkpt>
      <trkpt lat="44.93024" lon="0.92987">
        <ele>77</ele>
        <time>2012-10-21T07:32:29Z</time>
      </trkpt>
      <trkpt lat="44.93024" lon="0.92991">
        <ele>80</ele>
        <time>2012-10-21T07:32:32Z</time>
      </trkpt>
      <trkpt lat="44.93025" lon="0.92995">
        <ele>81</ele>
        <time>2012-10-21T07:32:34Z</time>
      </trkpt>
      <trkpt lat="44.93028" lon="0.92998">
        <ele>82</ele>
        <time>2012-10-21T07:32:36Z</time>
      </trkpt>
      <trkpt lat="44.93031" lon="0.93004">
        <ele>83</ele>
        <time>2012-10-21T07:32:38Z</time>
      </trkpt>
      <trkpt lat="44.93032" lon="0.93008">
        <ele>85</ele>
        <time>2012-10-21T07:32:40Z</time>
      </trkpt>
      <trkpt lat="44.93033" lon="0.93014">
        <ele>86</ele>
        <time>2012-10-21T07:32:42Z</time>
      </trkpt>
      <trkpt lat="44.93034" lon="0.93019">
        <ele>86</ele>
        <time>2012-10-21T07:32:44Z</time>
      </trkpt>
      <trkpt lat="44.93033" lon="0.93023">
        <ele>87</ele>
        <time>2012-10-21T07:32:46Z</time>
      </trkpt>
      <trkpt lat="44.93033" lon="0.93028">
        <ele>88</ele>
        <time>2012-10-21T07:32:48Z</time>
      </trkpt>
      <trkpt lat="44.93033" lon="0.93035">
        <ele>89</ele>
        <time>2012-10-21T07:32:50Z</time>
      </trkpt>
      <trkpt lat="44.93033" lon="0.9304">
        <ele>90</ele>
        <time>2012-10-21T07:32:52Z</time>
      </trkpt>
      <trkpt lat="44.93034" lon="0.93046">
        <ele>91</ele>
        <time>2012-10-21T07:32:54Z</time>
      </trkpt>
      <trkpt lat="44.93034" lon="0.93051">
        <ele>92</ele>
        <time>2012-10-21T07:32:56Z</time>
      </trkpt>
      <trkpt lat="44.93033" lon="0.93056">
        <ele>93</ele>
        <time>2012-10-21T07:32:58Z</time>
      </trkpt>
      <trkpt lat="44.93032" lon="0.93059">
        <ele>94</ele>
        <time>2012-10-21T07:33:00Z</time>
      </trkpt>
      <trkpt lat="44.93033" lon="0.93066">
        <ele>95</ele>
        <time>2012-10-21T07:33:03Z</time>
      </trkpt>
      <trkpt lat="44.93033" lon="0.93072">
        <ele>98</ele>
        <time>2012-10-21T07:33:06Z</time>
      </trkpt>
      <trkpt lat="44.9303" lon="0.93077">
        <ele>100</ele>
        <time>2012-10-21T07:33:08Z</time>
      </trkpt>
      <trkpt lat="44.93027" lon="0.93081">
        <ele>102</ele>
        <time>2012-10-21T07:33:10Z</time>
      </trkpt>
      <trkpt lat="44.93024" lon="0.93085">
        <ele>104</ele>
        <time>2012-10-21T07:33:12Z</time>
      </trkpt>
      <trkpt lat="44.93022" lon="0.9309">
        <ele>106</ele>
        <time>2012-10-21T07:33:14Z</time>
      </trkpt>
      <trkpt lat="44.93023" lon="0.93095">
        <ele>108</ele>
        <time>2012-10-21T07:33:16Z</time>
      </trkpt>
      <trkpt lat="44.93023" lon="0.93099">
        <ele>110</ele>
        <time>2012-10-21T07:33:18Z</time>
      </trkpt>
      <trkpt lat="44.93022" lon="0.93104">
        <ele>112</ele>
        <time>2012-10-21T07:33:20Z</time>
      </trkpt>
      <trkpt lat="44.9302" lon="0.93107">
        <ele>114</ele>
        <time>2012-10-21T07:33:22Z</time>
      </trkpt>
      <trkpt lat="44.93017" lon="0.93111">
        <ele>116</ele>
        <time>2012-10-21T07:33:24Z</time>
      </trkpt>
      <trkpt lat="44.93017" lon="0.93115">
        <ele>118</ele>
        <time>2012-10-21T07:33:26Z</time>
      </trkpt>
      <trkpt lat="44.93015" lon="0.93117">
        <ele>118</ele>
        <time>2012-10-21T07:33:28Z</time>
      </trkpt>
      <trkpt lat="44.93015" lon="0.9312">
        <ele>118</ele>
        <time>2012-10-21T07:33:30Z</time>
      </trkpt>
      <trkpt lat="44.93015" lon="0.93124">
        <ele>118</ele>
        <time>2012-10-21T07:33:32Z</time>
      </trkpt>
      <trkpt lat="44.93016" lon="0.93128">
        <ele>118</ele>
        <time>2012-10-21T07:33:34Z</time>
      </trkpt>
      <trkpt lat="44.93014" lon="0.93132">
        <ele>118</ele>
        <time>2012-10-21T07:33:36Z</time>
      </trkpt>
      <trkpt lat="44.93013" lon="0.93135">
        <ele>118</ele>
        <time>2012-10-21T07:33:38Z</time>
      </trkpt>
      <trkpt lat="44.93012" lon="0.93138">
        <ele>117</ele>
        <time>2012-10-21T07:33:40Z</time>
      </trkpt>
      <trkpt lat="44.93012" lon="0.93142">
        <ele>116</ele>
        <time>2012-10-21T07:33:42Z</time>
      </trkpt>
      <trkpt lat="44.93011" lon="0.93146">
        <ele>115</ele>
        <time>2012-10-21T07:33:44Z</time>
      </trkpt>
      <trkpt lat="44.93011" lon="0.9315">
        <ele>114</ele>
        <time>2012-10-21T07:33:46Z</time>
      </trkpt>
      <trkpt lat="44.9301" lon="0.93154">
        <ele>113</ele>
        <time>2012-10-21T07:33:48Z</time>
      </trkpt>
      <trkpt lat="44.93009" lon="0.93158">
        <ele>113</ele>
        <time>2012-10-21T07:33:50Z</time>
      </trkpt>
      <trkpt lat="44.93009" lon="0.93162">
        <ele>113</ele>
        <time>2012-10-21T07:33:52Z</time>
      </trkpt>
      <trkpt lat="44.93006" lon="0.93168">
        <ele>113</ele>
        <time>2012-10-21T07:33:55Z</time>
      </trkpt>
      <trkpt lat="44.93005" lon="0.93169">
        <ele>113</ele>
        <time>2012-10-21T07:33:57Z</time>
      </trkpt>
      <trkpt lat="44.93003" lon="0.93172">
        <ele>113</ele>
        <time>2012-10-21T07:33:59Z</time>
      </trkpt>
      <trkpt lat="44.93003" lon="0.93176">
        <ele>113</ele>
        <time>2012-10-21T07:34:01Z</time>
      </trkpt>
      <trkpt lat="44.93001" lon="0.93179">
        <ele>113</ele>
        <time>2012-10-21T07:34:03Z</time>
      </trkpt>
      <trkpt lat="44.93001" lon="0.93184">
        <ele>113</ele>
        <time>2012-10-21T07:34:06Z</time>
      </trkpt>
      <trkpt lat="44.92999" lon="0.93186">
        <ele>114</ele>
        <time>2012-10-21T07:34:08Z</time>
      </trkpt>
      <trkpt lat="44.92999" lon="0.93188">
        <ele>114</ele>
        <time>2012-10-21T07:34:10Z</time>
      </trkpt>
      <trkpt lat="44.92996" lon="0.93191">
        <ele>115</ele>
        <time>2012-10-21T07:34:15Z</time>
      </trkpt>
      <trkpt lat="44.92992" lon="0.93187">
        <ele>115</ele>
        <time>2012-10-21T07:34:17Z</time>
      </trkpt>
      <trkpt lat="44.92994" lon="0.93191">
        <ele>115</ele>
        <time>2012-10-21T07:34:19Z</time>
      </trkpt>
      <trkpt lat="44.92992" lon="0.93194">
        <ele>115</ele>
        <time>2012-10-21T07:34:21Z</time>
      </trkpt>
      <trkpt lat="44.92989" lon="0.93198">
        <ele>115</ele>
        <time>2012-10-21T07:34:23Z</time>
      </trkpt>
      <trkpt lat="44.92989" lon="0.93203">
        <ele>115</ele>
        <time>2012-10-21T07:34:25Z</time>
      </trkpt>
      <trkpt lat="44.92987" lon="0.93206">
        <ele>115</ele>
        <time>2012-10-21T07:34:27Z</time>
      </trkpt>
      <trkpt lat="44.92984" lon="0.93211">
        <ele>115</ele>
        <time>2012-10-21T07:34:29Z</time>
      </trkpt>
      <trkpt lat="44.92983" lon="0.93216">
        <ele>115</ele>
        <time>2012-10-21T07:34:32Z</time>
      </trkpt>
      <trkpt lat="44.92983" lon="0.93221">
        <ele>115</ele>
        <time>2012-10-21T07:34:35Z</time>
      </trkpt>
      <trkpt lat="44.92982" lon="0.93225">
        <ele>115</ele>
        <time>2012-10-21T07:34:37Z</time>
      </trkpt>
      <trkpt lat="44.92981" lon="0.93229">
        <ele>115</ele>
        <time>2012-10-21T07:34:39Z</time>
      </trkpt>
      <trkpt lat="44.9298" lon="0.93232">
        <ele>115</ele>
        <time>2012-10-21T07:34:41Z</time>
      </trkpt>
      <trkpt lat="44.92979" lon="0.93235">
        <ele>115</ele>
        <time>2012-10-21T07:34:43Z</time>
      </trkpt>
      <trkpt lat="44.92979" lon="0.93238">
        <ele>115</ele>
        <time>2012-10-21T07:34:45Z</time>
      </trkpt>
      <trkpt lat="44.9298" lon="0.9324">
        <ele>115</ele>
        <time>2012-10-21T07:34:47Z</time>
      </trkpt>
      <trkpt lat="44.92981" lon="0.93244">
        <ele>115</ele>
        <time>2012-10-21T07:34:50Z</time>
      </trkpt>
      <trkpt lat="44.9298" lon="0.93247">
        <ele>115</ele>
        <time>2012-10-21T07:34:52Z</time>
      </trkpt>
      <trkpt lat="44.92981" lon="0.93251">
        <ele>115</ele>
        <time>2012-10-21T07:34:54Z</time>
      </trkpt>
      <trkpt lat="44.92982" lon="0.93256">
        <ele>115</ele>
        <time>2012-10-21T07:34:56Z</time>
      </trkpt>
      <trkpt lat="44.92982" lon="0.93263">
        <ele>115</ele>
        <time>2012-10-21T07:34:58Z</time>
      </trkpt>
      <trkpt lat="44.92983" lon="0.93269">
        <ele>115</ele>
        <time>2012-10-21T07:35:00Z</time>
      </trkpt>
      <trkpt lat="44.92984" lon="0.93274">
        <ele>115</ele>
        <time>2012-10-21T07:35:02Z</time>
      </trkpt>
      <trkpt lat="44.92985" lon="0.93279">
        <ele>115</ele>
        <time>2012-10-21T07:35:04Z</time>
      </trkpt>
      <trkpt lat="44.92986" lon="0.93284">
        <ele>117</ele>
        <time>2012-10-21T07:35:06Z</time>
      </trkpt>
      <trkpt lat="44.92985" lon="0.93291">
        <ele>118</ele>
        <time>2012-10-21T07:35:08Z</time>
      </trkpt>
      <trkpt lat="44.92984" lon="0.93295">
        <ele>119</ele>
        <time>2012-10-21T07:35:10Z</time>
      </trkpt>
      <trkpt lat="44.92982" lon="0.93298">
        <ele>119</ele>
        <time>2012-10-21T07:35:12Z</time>
      </trkpt>
      <trkpt lat="44.92981" lon="0.93303">
        <ele>120</ele>
        <time>2012-10-21T07:35:14Z</time>
      </trkpt>
      <trkpt lat="44.92978" lon="0.93306">
        <ele>121</ele>
        <time>2012-10-21T07:35:16Z</time>
      </trkpt>
      <trkpt lat="44.92973" lon="0.93309">
        <ele>122</ele>
        <time>2012-10-21T07:35:18Z</time>
      </trkpt>
      <trkpt lat="44.9297" lon="0.93312">
        <ele>122</ele>
        <time>2012-10-21T07:35:20Z</time>
      </trkpt>
      <trkpt lat="44.92966" lon="0.93316">
        <ele>122</ele>
        <time>2012-10-21T07:35:23Z</time>
      </trkpt>
      <trkpt lat="44.92963" lon="0.9332">
        <ele>122</ele>
        <time>2012-10-21T07:35:25Z</time>
      </trkpt>
      <trkpt lat="44.92959" lon="0.93325">
        <ele>123</ele>
        <time>2012-10-21T07:35:27Z</time>
      </trkpt>
      <trkpt lat="44.92957" lon="0.93328">
        <ele>125</ele>
        <time>2012-10-21T07:35:29Z</time>
      </trkpt>
      <trkpt lat="44.92954" lon="0.93331">
        <ele>126</ele>
        <time>2012-10-21T07:35:31Z</time>
      </trkpt>
      <trkpt lat="44.92951" lon="0.93334">
        <ele>128</ele>
        <time>2012-10-21T07:35:33Z</time>
      </trkpt>
      <trkpt lat="44.92947" lon="0.93336">
        <ele>129</ele>
        <time>2012-10-21T07:35:36Z</time>
      </trkpt>
      <trkpt lat="44.92943" lon="0.93338">
        <ele>129</ele>
        <time>2012-10-21T07:35:39Z</time>
      </trkpt>
      <trkpt lat="44.92943" lon="0.9334">
        <ele>129</ele>
        <time>2012-10-21T07:35:41Z</time>
      </trkpt>
      <trkpt lat="44.92942" lon="0.93342">
        <ele>129</ele>
        <time>2012-10-21T07:35:43Z</time>
      </trkpt>
      <trkpt lat="44.9294" lon="0.93345">
        <ele>129</ele>
        <time>2012-10-21T07:35:45Z</time>
      </trkpt>
      <trkpt lat="44.92936" lon="0.93349">
        <ele>130</ele>
        <time>2012-10-21T07:35:47Z</time>
      </trkpt>
      <trkpt lat="44.92932" lon="0.93349">
        <ele>131</ele>
        <time>2012-10-21T07:35:49Z</time>
      </trkpt>
      <trkpt lat="44.92928" lon="0.93351">
        <ele>131</ele>
        <time>2012-10-21T07:35:51Z</time>
      </trkpt>
      <trkpt lat="44.92927" lon="0.93353">
        <ele>131</ele>
        <time>2012-10-21T07:35:53Z</time>
      </trkpt>
      <trkpt lat="44.92924" lon="0.93354">
        <ele>131</ele>
        <time>2012-10-21T07:35:55Z</time>
      </trkpt>
      <trkpt lat="44.92922" lon="0.93357">
        <ele>131</ele>
        <time>2012-10-21T07:35:57Z</time>
      </trkpt>
      <trkpt lat="44.9292" lon="0.93361">
        <ele>132</ele>
        <time>2012-10-21T07:35:59Z</time>
      </trkpt>
      <trkpt lat="44.92917" lon="0.93365">
        <ele>133</ele>
        <time>2012-10-21T07:36:01Z</time>
      </trkpt>
      <trkpt lat="44.92914" lon="0.93366">
        <ele>133</ele>
        <time>2012-10-21T07:36:03Z</time>
      </trkpt>
      <trkpt lat="44.92912" lon="0.93369">
        <ele>133</ele>
        <time>2012-10-21T07:36:05Z</time>
      </trkpt>
      <trkpt lat="44.92909" lon="0.9337">
        <ele>133</ele>
        <time>2012-10-21T07:36:07Z</time>
      </trkpt>
      <trkpt lat="44.92907" lon="0.93373">
        <ele>133</ele>
        <time>2012-10-21T07:36:10Z</time>
      </trkpt>
      <trkpt lat="44.92904" lon="0.93375">
        <ele>133</ele>
        <time>2012-10-21T07:36:12Z</time>
      </trkpt>
      <trkpt lat="44.92901" lon="0.93376">
        <ele>133</ele>
        <time>2012-10-21T07:36:15Z</time>
      </trkpt>
      <trkpt lat="44.92897" lon="0.93376">
        <ele>133</ele>
        <time>2012-10-21T07:36:17Z</time>
      </trkpt>
      <trkpt lat="44.92896" lon="0.93378">
        <ele>133</ele>
        <time>2012-10-21T07:36:19Z</time>
      </trkpt>
      <trkpt lat="44.92896" lon="0.93381">
        <ele>133</ele>
        <time>2012-10-21T07:36:21Z</time>
      </trkpt>
      <trkpt lat="44.92895" lon="0.93384">
        <ele>133</ele>
        <time>2012-10-21T07:36:23Z</time>
      </trkpt>
      <trkpt lat="44.92891" lon="0.93387">
        <ele>133</ele>
        <time>2012-10-21T07:36:26Z</time>
      </trkpt>
      <trkpt lat="44.92889" lon="0.93392">
        <ele>133</ele>
        <time>2012-10-21T07:36:29Z</time>
      </trkpt>
      <trkpt lat="44.92885" lon="0.93395">
        <ele>133</ele>
        <time>2012-10-21T07:36:31Z</time>
      </trkpt>
      <trkpt lat="44.92882" lon="0.93396">
        <ele>133</ele>
        <time>2012-10-21T07:36:33Z</time>
      </trkpt>
      <trkpt lat="44.92877" lon="0.93399">
        <ele>133</ele>
        <time>2012-10-21T07:36:37Z</time>
      </trkpt>
      <trkpt lat="44.92874" lon="0.93398">
        <ele>133</ele>
        <time>2012-10-21T07:36:39Z</time>
      </trkpt>
      <trkpt lat="44.92871" lon="0.93399">
        <ele>133</ele>
        <time>2012-10-21T07:36:41Z</time>
      </trkpt>
      <trkpt lat="44.92868" lon="0.93401">
        <ele>134</ele>
        <time>2012-10-21T07:36:43Z</time>
      </trkpt>
      <trkpt lat="44.92867" lon="0.93403">
        <ele>134</ele>
        <time>2012-10-21T07:36:45Z</time>
      </trkpt>
      <trkpt lat="44.92864" lon="0.93404">
        <ele>135</ele>
        <time>2012-10-21T07:36:47Z</time>
      </trkpt>
      <trkpt lat="44.92861" lon="0.93407">
        <ele>137</ele>
        <time>2012-10-21T07:36:50Z</time>
      </trkpt>
      <trkpt lat="44.9286" lon="0.9341">
        <ele>138</ele>
        <time>2012-10-21T07:36:52Z</time>
      </trkpt>
      <trkpt lat="44.92858" lon="0.93411">
        <ele>138</ele>
        <time>2012-10-21T07:36:54Z</time>
      </trkpt>
      <trkpt lat="44.92856" lon="0.93412">
        <ele>139</ele>
        <time>2012-10-21T07:36:56Z</time>
      </trkpt>
      <trkpt lat="44.92853" lon="0.93415">
        <ele>139</ele>
        <time>2012-10-21T07:36:59Z</time>
      </trkpt>
      <trkpt lat="44.92849" lon="0.93417">
        <ele>139</ele>
        <time>2012-10-21T07:37:01Z</time>
      </trkpt>
      <trkpt lat="44.92848" lon="0.93419">
        <ele>140</ele>
        <time>2012-10-21T07:37:03Z</time>
      </trkpt>
      <trkpt lat="44.92846" lon="0.93421">
        <ele>142</ele>
        <time>2012-10-21T07:37:06Z</time>
      </trkpt>
      <trkpt lat="44.92844" lon="0.93423">
        <ele>142</ele>
        <time>2012-10-21T07:37:08Z</time>
      </trkpt>
      <trkpt lat="44.92842" lon="0.93426">
        <ele>142</ele>
        <time>2012-10-21T07:37:11Z</time>
      </trkpt>
      <trkpt lat="44.92839" lon="0.93428">
        <ele>144</ele>
        <time>2012-10-21T07:37:13Z</time>
      </trkpt>
      <trkpt lat="44.92836" lon="0.9343">
        <ele>145</ele>
        <time>2012-10-21T07:37:15Z</time>
      </trkpt>
      <trkpt lat="44.92831" lon="0.93433">
        <ele>145</ele>
        <time>2012-10-21T07:37:17Z</time>
      </trkpt>
      <trkpt lat="44.92828" lon="0.93435">
        <ele>145</ele>
        <time>2012-10-21T07:37:19Z</time>
      </trkpt>
      <trkpt lat="44.92826" lon="0.93436">
        <ele>145</ele>
        <time>2012-10-21T07:37:21Z</time>
      </trkpt>
      <trkpt lat="44.92824" lon="0.93438">
        <ele>146</ele>
        <time>2012-10-21T07:37:23Z</time>
      </trkpt>
      <trkpt lat="44.9282" lon="0.9344">
        <ele>147</ele>
        <time>2012-10-21T07:37:25Z</time>
      </trkpt>
      <trkpt lat="44.92818" lon="0.93443">
        <ele>148</ele>
        <time>2012-10-21T07:37:27Z</time>
      </trkpt>
      <trkpt lat="44.92814" lon="0.93446">
        <ele>150</ele>
        <time>2012-10-21T07:37:30Z</time>
      </trkpt>
      <trkpt lat="44.92811" lon="0.93447">
        <ele>150</ele>
        <time>2012-10-21T07:37:32Z</time>
      </trkpt>
      <trkpt lat="44.92807" lon="0.93449">
        <ele>150</ele>
        <time>2012-10-21T07:37:34Z</time>
      </trkpt>
      <trkpt lat="44.92805" lon="0.93449">
        <ele>150</ele>
        <time>2012-10-21T07:37:36Z</time>
      </trkpt>
      <trkpt lat="44.92801" lon="0.93449">
        <ele>150</ele>
        <time>2012-10-21T07:37:38Z</time>
      </trkpt>
      <trkpt lat="44.92798" lon="0.93449">
        <ele>150</ele>
        <time>2012-10-21T07:37:41Z</time>
      </trkpt>
      <trkpt lat="44.92796" lon="0.9345">
        <ele>150</ele>
        <time>2012-10-21T07:37:43Z</time>
      </trkpt>
      <trkpt lat="44.92793" lon="0.9345">
        <ele>150</ele>
        <time>2012-10-21T07:37:45Z</time>
      </trkpt>
      <trkpt lat="44.92789" lon="0.9345">
        <ele>150</ele>
        <time>2012-10-21T07:37:47Z</time>
      </trkpt>
      <trkpt lat="44.92785" lon="0.93451">
        <ele>150</ele>
        <time>2012-10-21T07:37:49Z</time>
      </trkpt>
      <trkpt lat="44.92781" lon="0.93451">
        <ele>150</ele>
        <time>2012-10-21T07:37:51Z</time>
      </trkpt>
      <trkpt lat="44.92778" lon="0.93451">
        <ele>150</ele>
        <time>2012-10-21T07:37:53Z</time>
      </trkpt>
      <trkpt lat="44.92776" lon="0.93451">
        <ele>150</ele>
        <time>2012-10-21T07:37:55Z</time>
      </trkpt>
      <trkpt lat="44.92774" lon="0.93452">
        <ele>150</ele>
        <time>2012-10-21T07:37:57Z</time>
      </trkpt>
      <trkpt lat="44.92771" lon="0.93453">
        <ele>150</ele>
        <time>2012-10-21T07:37:59Z</time>
      </trkpt>
      <trkpt lat="44.92769" lon="0.93455">
        <ele>150</ele>
        <time>2012-10-21T07:38:01Z</time>
      </trkpt>
      <trkpt lat="44.92765" lon="0.93458">
        <ele>150</ele>
        <time>2012-10-21T07:38:04Z</time>
      </trkpt>
      <trkpt lat="44.92762" lon="0.9346">
        <ele>150</ele>
        <time>2012-10-21T07:38:06Z</time>
      </trkpt>
      <trkpt lat="44.92761" lon="0.93462">
        <ele>150</ele>
        <time>2012-10-21T07:38:08Z</time>
      </trkpt>
      <trkpt lat="44.92757" lon="0.93463">
        <ele>150</ele>
        <time>2012-10-21T07:38:10Z</time>
      </trkpt>
      <trkpt lat="44.92754" lon="0.93465">
        <ele>150</ele>
        <time>2012-10-21T07:38:12Z</time>
      </trkpt>
      <trkpt lat="44.92751" lon="0.93466">
        <ele>150</ele>
        <time>2012-10-21T07:38:14Z</time>
      </trkpt>
      <trkpt lat="44.9275" lon="0.93468">
        <ele>150</ele>
        <time>2012-10-21T07:38:16Z</time>
      </trkpt>
      <trkpt lat="44.92747" lon="0.93471">
        <ele>150</ele>
        <time>2012-10-21T07:38:18Z</time>
      </trkpt>
      <trkpt lat="44.92744" lon="0.93473">
        <ele>150</ele>
        <time>2012-10-21T07:38:20Z</time>
      </trkpt>
      <trkpt lat="44.92739" lon="0.93474">
        <ele>150</ele>
        <time>2012-10-21T07:38:22Z</time>
      </trkpt>
      <trkpt lat="44.92736" lon="0.93475">
        <ele>150</ele>
        <time>2012-10-21T07:38:24Z</time>
      </trkpt>
      <trkpt lat="44.92733" lon="0.93477">
        <ele>150</ele>
        <time>2012-10-21T07:38:26Z</time>
      </trkpt>
      <trkpt lat="44.92726" lon="0.93478">
        <ele>150</ele>
        <time>2012-10-21T07:38:29Z</time>
      </trkpt>
      <trkpt lat="44.92721" lon="0.93479">
        <ele>150</ele>
        <time>2012-10-21T07:38:31Z</time>
      </trkpt>
      <trkpt lat="44.92717" lon="0.93479">
        <ele>150</ele>
        <time>2012-10-21T07:38:33Z</time>
      </trkpt>
      <trkpt lat="44.92712" lon="0.93478">
        <ele>150</ele>
        <time>2012-10-21T07:38:35Z</time>
      </trkpt>
      <trkpt lat="44.92709" lon="0.93479">
        <ele>150</ele>
        <time>2012-10-21T07:38:37Z</time>
      </trkpt>
      <trkpt lat="44.92705" lon="0.9348">
        <ele>150</ele>
        <time>2012-10-21T07:38:39Z</time>
      </trkpt>
      <trkpt lat="44.92699" lon="0.93482">
        <ele>150</ele>
        <time>2012-10-21T07:38:41Z</time>
      </trkpt>
      <trkpt lat="44.9269" lon="0.93484">
        <ele>150</ele>
        <time>2012-10-21T07:38:44Z</time>
      </trkpt>
      <trkpt lat="44.92685" lon="0.93485">
        <ele>150</ele>
        <time>2012-10-21T07:38:46Z</time>
      </trkpt>
      <trkpt lat="44.92679" lon="0.93484">
        <ele>150</ele>
        <time>2012-10-21T07:38:48Z</time>
      </trkpt>
      <trkpt lat="44.92675" lon="0.93485">
        <ele>150</ele>
        <time>2012-10-21T07:38:51Z</time>
      </trkpt>
      <trkpt lat="44.92672" lon="0.93485">
        <ele>150</ele>
        <time>2012-10-21T07:38:53Z</time>
      </trkpt>
      <trkpt lat="44.92668" lon="0.93485">
        <ele>150</ele>
        <time>2012-10-21T07:38:55Z</time>
      </trkpt>
      <trkpt lat="44.92663" lon="0.93484">
        <ele>150</ele>
        <time>2012-10-21T07:38:57Z</time>
      </trkpt>
      <trkpt lat="44.92658" lon="0.93482">
        <ele>150</ele>
        <time>2012-10-21T07:38:59Z</time>
      </trkpt>
      <trkpt lat="44.92656" lon="0.93484">
        <ele>150</ele>
        <time>2012-10-21T07:39:01Z</time>
      </trkpt>
      <trkpt lat="44.92654" lon="0.93485">
        <ele>150</ele>
        <time>2012-10-21T07:39:03Z</time>
      </trkpt>
      <trkpt lat="44.92651" lon="0.93486">
        <ele>150</ele>
        <time>2012-10-21T07:39:05Z</time>
      </trkpt>
      <trkpt lat="44.92648" lon="0.93488">
        <ele>151</ele>
        <time>2012-10-21T07:39:07Z</time>
      </trkpt>
      <trkpt lat="44.92642" lon="0.93489">
        <ele>151</ele>
        <time>2012-10-21T07:39:09Z</time>
      </trkpt>
      <trkpt lat="44.92637" lon="0.93489">
        <ele>151</ele>
        <time>2012-10-21T07:39:11Z</time>
      </trkpt>
      <trkpt lat="44.92632" lon="0.93489">
        <ele>151</ele>
        <time>2012-10-21T07:39:13Z</time>
      </trkpt>
      <trkpt lat="44.92626" lon="0.93488">
        <ele>151</ele>
        <time>2012-10-21T07:39:15Z</time>
      </trkpt>
      <trkpt lat="44.9262" lon="0.93487">
        <ele>151</ele>
        <time>2012-10-21T07:39:17Z</time>
      </trkpt>
      <trkpt lat="44.92612" lon="0.93484">
        <ele>151</ele>
        <time>2012-10-21T07:39:19Z</time>
      </trkpt>
      <trkpt lat="44.92605" lon="0.93483">
        <ele>151</ele>
        <time>2012-10-21T07:39:21Z</time>
      </trkpt>
      <trkpt lat="44.926" lon="0.93478">
        <ele>151</ele>
        <time>2012-10-21T07:39:24Z</time>
      </trkpt>
      <trkpt lat="44.92597" lon="0.93476">
        <ele>151</ele>
        <time>2012-10-21T07:39:26Z</time>
      </trkpt>
      <trkpt lat="44.92594" lon="0.93474">
        <ele>151</ele>
        <time>2012-10-21T07:39:28Z</time>
      </trkpt>
      <trkpt lat="44.92591" lon="0.93471">
        <ele>151</ele>
        <time>2012-10-21T07:39:30Z</time>
      </trkpt>
      <trkpt lat="44.92588" lon="0.93467">
        <ele>151</ele>
        <time>2012-10-21T07:39:33Z</time>
      </trkpt>
      <trkpt lat="44.92587" lon="0.93466">
        <ele>151</ele>
        <time>2012-10-21T07:39:36Z</time>
      </trkpt>
      <trkpt lat="44.92583" lon="0.93463">
        <ele>151</ele>
        <time>2012-10-21T07:39:38Z</time>
      </trkpt>
      <trkpt lat="44.9258" lon="0.93461">
        <ele>151</ele>
        <time>2012-10-21T07:39:40Z</time>
      </trkpt>
      <trkpt lat="44.92578" lon="0.93459">
        <ele>149</ele>
        <time>2012-10-21T07:39:42Z</time>
      </trkpt>
      <trkpt lat="44.92577" lon="0.93457">
        <ele>147</ele>
        <time>2012-10-21T07:39:44Z</time>
      </trkpt>
      <trkpt lat="44.92576" lon="0.93455">
        <ele>147</ele>
        <time>2012-10-21T07:39:46Z</time>
      </trkpt>
      <trkpt lat="44.92574" lon="0.93453">
        <ele>147</ele>
        <time>2012-10-21T07:39:48Z</time>
      </trkpt>
      <trkpt lat="44.9257" lon="0.9345">
        <ele>147</ele>
        <time>2012-10-21T07:39:51Z</time>
      </trkpt>
      <trkpt lat="44.92568" lon="0.93448">
        <ele>147</ele>
        <time>2012-10-21T07:39:53Z</time>
      </trkpt>
      <trkpt lat="44.92563" lon="0.93445">
        <ele>147</ele>
        <time>2012-10-21T07:39:57Z</time>
      </trkpt>
      <trkpt lat="44.92558" lon="0.93443">
        <ele>147</ele>
        <time>2012-10-21T07:39:59Z</time>
      </trkpt>
      <trkpt lat="44.92555" lon="0.9344">
        <ele>147</ele>
        <time>2012-10-21T07:40:01Z</time>
      </trkpt>
      <trkpt lat="44.92553" lon="0.93439">
        <ele>147</ele>
        <time>2012-10-21T07:40:03Z</time>
      </trkpt>
      <trkpt lat="44.92552" lon="0.93437">
        <ele>147</ele>
        <time>2012-10-21T07:40:05Z</time>
      </trkpt>
      <trkpt lat="44.9255" lon="0.93433">
        <ele>147</ele>
        <time>2012-10-21T07:40:08Z</time>
      </trkpt>
      <trkpt lat="44.92548" lon="0.93431">
        <ele>147</ele>
        <time>2012-10-21T07:40:10Z</time>
      </trkpt>
      <trkpt lat="44.92545" lon="0.93428">
        <ele>147</ele>
        <time>2012-10-21T07:40:12Z</time>
      </trkpt>
      <trkpt lat="44.92541" lon="0.93425">
        <ele>147</ele>
        <time>2012-10-21T07:40:14Z</time>
      </trkpt>
      <trkpt lat="44.9254" lon="0.93423">
        <ele>147</ele>
        <time>2012-10-21T07:40:16Z</time>
      </trkpt>
      <trkpt lat="44.92538" lon="0.9342">
        <ele>147</ele>
        <time>2012-10-21T07:40:18Z</time>
      </trkpt>
      <trkpt lat="44.92535" lon="0.93418">
        <ele>148</ele>
        <time>2012-10-21T07:40:21Z</time>
      </trkpt>
      <trkpt lat="44.92528" lon="0.93414">
        <ele>150</ele>
        <time>2012-10-21T07:40:24Z</time>
      </trkpt>
      <trkpt lat="44.92524" lon="0.93413">
        <ele>152</ele>
        <time>2012-10-21T07:40:26Z</time>
      </trkpt>
      <trkpt lat="44.9252" lon="0.93413">
        <ele>154</ele>
        <time>2012-10-21T07:40:28Z</time>
      </trkpt>
      <trkpt lat="44.92515" lon="0.93413">
        <ele>155</ele>
        <time>2012-10-21T07:40:30Z</time>
      </trkpt>
      <trkpt lat="44.92512" lon="0.93413">
        <ele>157</ele>
        <time>2012-10-21T07:40:32Z</time>
      </trkpt>
      <trkpt lat="44.92511" lon="0.93414">
        <ele>159</ele>
        <time>2012-10-21T07:40:34Z</time>
      </trkpt>
      <trkpt lat="44.92508" lon="0.93414">
        <ele>160</ele>
        <time>2012-10-21T07:40:36Z</time>
      </trkpt>
      <trkpt lat="44.92504" lon="0.93415">
        <ele>161</ele>
        <time>2012-10-21T07:40:38Z</time>
      </trkpt>
      <trkpt lat="44.92501" lon="0.93415">
        <ele>162</ele>
        <time>2012-10-21T07:40:40Z</time>
      </trkpt>
      <trkpt lat="44.92496" lon="0.93415">
        <ele>163</ele>
        <time>2012-10-21T07:40:42Z</time>
      </trkpt>
      <trkpt lat="44.92493" lon="0.93416">
        <ele>164</ele>
        <time>2012-10-21T07:40:44Z</time>
      </trkpt>
      <trkpt lat="44.92491" lon="0.93418">
        <ele>165</ele>
        <time>2012-10-21T07:40:46Z</time>
      </trkpt>
      <trkpt lat="44.92488" lon="0.9342">
        <ele>166</ele>
        <time>2012-10-21T07:40:48Z</time>
      </trkpt>
      <trkpt lat="44.92484" lon="0.93421">
        <ele>167</ele>
        <time>2012-10-21T07:40:50Z</time>
      </trkpt>
      <trkpt lat="44.92481" lon="0.93424">
        <ele>167</ele>
        <time>2012-10-21T07:40:52Z</time>
      </trkpt>
      <trkpt lat="44.92477" lon="0.93427">
        <ele>167</ele>
        <time>2012-10-21T07:40:55Z</time>
      </trkpt>
      <trkpt lat="44.92474" lon="0.9343">
        <ele>169</ele>
        <time>2012-10-21T07:40:58Z</time>
      </trkpt>
      <trkpt lat="44.92472" lon="0.93434">
        <ele>171</ele>
        <time>2012-10-21T07:41:00Z</time>
      </trkpt>
      <trkpt lat="44.92468" lon="0.93437">
        <ele>173</ele>
        <time>2012-10-21T07:41:02Z</time>
      </trkpt>
      <trkpt lat="44.92464" lon="0.9344">
        <ele>175</ele>
        <time>2012-10-21T07:41:04Z</time>
      </trkpt>
      <trkpt lat="44.9246" lon="0.93442">
        <ele>177</ele>
        <time>2012-10-21T07:41:07Z</time>
      </trkpt>
      <trkpt lat="44.92458" lon="0.93444">
        <ele>177</ele>
        <time>2012-10-21T07:41:09Z</time>
      </trkpt>
      <trkpt lat="44.92453" lon="0.93444">
        <ele>177</ele>
        <time>2012-10-21T07:41:11Z</time>
      </trkpt>
      <trkpt lat="44.92449" lon="0.93446">
        <ele>177</ele>
        <time>2012-10-21T07:41:13Z</time>
      </trkpt>
      <trkpt lat="44.92445" lon="0.9345">
        <ele>177</ele>
        <time>2012-10-21T07:41:15Z</time>
      </trkpt>
      <trkpt lat="44.92442" lon="0.93452">
        <ele>177</ele>
        <time>2012-10-21T07:41:17Z</time>
      </trkpt>
      <trkpt lat="44.92439" lon="0.93454">
        <ele>177</ele>
        <time>2012-10-21T07:41:19Z</time>
      </trkpt>
      <trkpt lat="44.92436" lon="0.93457">
        <ele>177</ele>
        <time>2012-10-21T07:41:21Z</time>
      </trkpt>
      <trkpt lat="44.92433" lon="0.9346">
        <ele>177</ele>
        <time>2012-10-21T07:41:23Z</time>
      </trkpt>
      <trkpt lat="44.9243" lon="0.93464">
        <ele>178</ele>
        <time>2012-10-21T07:41:26Z</time>
      </trkpt>
      <trkpt lat="44.92427" lon="0.93468">
        <ele>179</ele>
        <time>2012-10-21T07:41:28Z</time>
      </trkpt>
      <trkpt lat="44.92422" lon="0.93471">
        <ele>179</ele>
        <time>2012-10-21T07:41:30Z</time>
      </trkpt>
      <trkpt lat="44.92419" lon="0.93475">
        <ele>179</ele>
        <time>2012-10-21T07:41:32Z</time>
      </trkpt>
      <trkpt lat="44.92416" lon="0.93479">
        <ele>181</ele>
        <time>2012-10-21T07:41:34Z</time>
      </trkpt>
      <trkpt lat="44.92413" lon="0.93483">
        <ele>182</ele>
        <time>2012-10-21T07:41:36Z</time>
      </trkpt>
      <trkpt lat="44.92411" lon="0.93489">
        <ele>184</ele>
        <time>2012-10-21T07:41:38Z</time>
      </trkpt>
      <trkpt lat="44.92404" lon="0.93497">
        <ele>186</ele>
        <time>2012-10-21T07:41:41Z</time>
      </trkpt>
      <trkpt lat="44.92397" lon="0.93502">
        <ele>186</ele>
        <time>2012-10-21T07:41:44Z</time>
      </trkpt>
      <trkpt lat="44.92394" lon="0.93506">
        <ele>186</ele>
        <time>2012-10-21T07:41:46Z</time>
      </trkpt>
      <trkpt lat="44.92389" lon="0.93513">
        <ele>186</ele>
        <time>2012-10-21T07:41:49Z</time>
      </trkpt>
      <trkpt lat="44.92382" lon="0.9352">
        <ele>186</ele>
        <time>2012-10-21T07:41:52Z</time>
      </trkpt>
      <trkpt lat="44.92377" lon="0.93523">
        <ele>186</ele>
        <time>2012-10-21T07:41:54Z</time>
      </trkpt>
      <trkpt lat="44.9237" lon="0.93529">
        <ele>186</ele>
        <time>2012-10-21T07:41:57Z</time>
      </trkpt>
      <trkpt lat="44.92364" lon="0.93533">
        <ele>186</ele>
        <time>2012-10-21T07:41:59Z</time>
      </trkpt>
      <trkpt lat="44.92353" lon="0.93536">
        <ele>186</ele>
        <time>2012-10-21T07:42:02Z</time>
      </trkpt>
      <trkpt lat="44.92345" lon="0.93537">
        <ele>186</ele>
        <time>2012-10-21T07:42:04Z</time>
      </trkpt>
      <trkpt lat="44.92338" lon="0.93538">
        <ele>186</ele>
        <time>2012-10-21T07:42:06Z</time>
      </trkpt>
      <trkpt lat="44.92326" lon="0.93539">
        <ele>186</ele>
        <time>2012-10-21T07:42:09Z</time>
      </trkpt>
      <trkpt lat="44.92319" lon="0.93543">
        <ele>186</ele>
        <time>2012-10-21T07:42:11Z</time>
      </trkpt>
      <trkpt lat="44.92315" lon="0.93553">
        <ele>185</ele>
        <time>2012-10-21T07:42:13Z</time>
      </trkpt>
      <trkpt lat="44.92312" lon="0.93563">
        <ele>184</ele>
        <time>2012-10-21T07:42:15Z</time>
      </trkpt>
      <trkpt lat="44.92309" lon="0.93574">
        <ele>184</ele>
        <time>2012-10-21T07:42:17Z</time>
      </trkpt>
      <trkpt lat="44.92306" lon="0.93585">
        <ele>184</ele>
        <time>2012-10-21T07:42:19Z</time>
      </trkpt>
      <trkpt lat="44.92302" lon="0.93596">
        <ele>184</ele>
        <time>2012-10-21T07:42:21Z</time>
      </trkpt>
      <trkpt lat="44.92298" lon="0.93607">
        <ele>183</ele>
        <time>2012-10-21T07:42:23Z</time>
      </trkpt>
      <trkpt lat="44.92293" lon="0.93618">
        <ele>183</ele>
        <time>2012-10-21T07:42:25Z</time>
      </trkpt>
      <trkpt lat="44.92288" lon="0.9363">
        <ele>183</ele>
        <time>2012-10-21T07:42:27Z</time>
      </trkpt>
      <trkpt lat="44.92283" lon="0.93644">
        <ele>182</ele>
        <time>2012-10-21T07:42:29Z</time>
      </trkpt>
      <trkpt lat="44.92276" lon="0.93658">
        <ele>182</ele>
        <time>2012-10-21T07:42:31Z</time>
      </trkpt>
      <trkpt lat="44.9227" lon="0.93672">
        <ele>181</ele>
        <time>2012-10-21T07:42:33Z</time>
      </trkpt>
      <trkpt lat="44.92262" lon="0.93686">
        <ele>181</ele>
        <time>2012-10-21T07:42:35Z</time>
      </trkpt>
      <trkpt lat="44.92255" lon="0.937">
        <ele>180</ele>
        <time>2012-10-21T07:42:37Z</time>
      </trkpt>
      <trkpt lat="44.92249" lon="0.93716">
        <ele>179</ele>
        <time>2012-10-21T07:42:39Z</time>
      </trkpt>
      <trkpt lat="44.92244" lon="0.93734">
        <ele>179</ele>
        <time>2012-10-21T07:42:41Z</time>
      </trkpt>
      <trkpt lat="44.92242" lon="0.93752">
        <ele>178</ele>
        <time>2012-10-21T07:42:43Z</time>
      </trkpt>
      <trkpt lat="44.9224" lon="0.93772">
        <ele>178</ele>
        <time>2012-10-21T07:42:45Z</time>
      </trkpt>
      <trkpt lat="44.92239" lon="0.9379">
        <ele>178</ele>
        <time>2012-10-21T07:42:47Z</time>
      </trkpt>
      <trkpt lat="44.92237" lon="0.93809">
        <ele>178</ele>
        <time>2012-10-21T07:42:49Z</time>
      </trkpt>
      <trkpt lat="44.92236" lon="0.93828">
        <ele>178</ele>
        <time>2012-10-21T07:42:51Z</time>
      </trkpt>
      <trkpt lat="44.92235" lon="0.93846">
        <ele>177</ele>
        <time>2012-10-21T07:42:53Z</time>
      </trkpt>
      <trkpt lat="44.92234" lon="0.93865">
        <ele>177</ele>
        <time>2012-10-21T07:42:55Z</time>
      </trkpt>
      <trkpt lat="44.92231" lon="0.93883">
        <ele>177</ele>
        <time>2012-10-21T07:42:57Z</time>
      </trkpt>
      <trkpt lat="44.92229" lon="0.93899">
        <ele>176</ele>
        <time>2012-10-21T07:42:59Z</time>
      </trkpt>
      <trkpt lat="44.92229" lon="0.93914">
        <ele>176</ele>
        <time>2012-10-21T07:43:01Z</time>
      </trkpt>
      <trkpt lat="44.92228" lon="0.93939">
        <ele>176</ele>
        <time>2012-10-21T07:43:04Z</time>
      </trkpt>
      <trkpt lat="44.92226" lon="0.93955">
        <ele>176</ele>
        <time>2012-10-21T07:43:06Z</time>
      </trkpt>
      <trkpt lat="44.92224" lon="0.93972">
        <ele>176</ele>
        <time>2012-10-21T07:43:08Z</time>
      </trkpt>
      <trkpt lat="44.92221" lon="0.93986">
        <ele>176</ele>
        <time>2012-10-21T07:43:10Z</time>
      </trkpt>
      <trkpt lat="44.92219" lon="0.94001">
        <ele>176</ele>
        <time>2012-10-21T07:43:12Z</time>
      </trkpt>
      <trkpt lat="44.92217" lon="0.94015">
        <ele>176</ele>
        <time>2012-10-21T07:43:14Z</time>
      </trkpt>
      <trkpt lat="44.92218" lon="0.94027">
        <ele>176</ele>
        <time>2012-10-21T07:43:16Z</time>
      </trkpt>
      <trkpt lat="44.92219" lon="0.94039">
        <ele>176</ele>
        <time>2012-10-21T07:43:18Z</time>
      </trkpt>
      <trkpt lat="44.9222" lon="0.94049">
        <ele>176</ele>
        <time>2012-10-21T07:43:20Z</time>
      </trkpt>
      <trkpt lat="44.92224" lon="0.94059">
        <ele>176</ele>
        <time>2012-10-21T07:43:22Z</time>
      </trkpt>
      <trkpt lat="44.92227" lon="0.9407">
        <ele>176</ele>
        <time>2012-10-21T07:43:24Z</time>
      </trkpt>
      <trkpt lat="44.92228" lon="0.94081">
        <ele>176</ele>
        <time>2012-10-21T07:43:26Z</time>
      </trkpt>
      <trkpt lat="44.92229" lon="0.94092">
        <ele>176</ele>
        <time>2012-10-21T07:43:28Z</time>
      </trkpt>
      <trkpt lat="44.9223" lon="0.94103">
        <ele>176</ele>
        <time>2012-10-21T07:43:30Z</time>
      </trkpt>
      <trkpt lat="44.92231" lon="0.94115">
        <ele>176</ele>
        <time>2012-10-21T07:43:32Z</time>
      </trkpt>
      <trkpt lat="44.92233" lon="0.94126">
        <ele>176</ele>
        <time>2012-10-21T07:43:34Z</time>
      </trkpt>
      <trkpt lat="44.92235" lon="0.94139">
        <ele>176</ele>
        <time>2012-10-21T07:43:36Z</time>
      </trkpt>
      <trkpt lat="44.92237" lon="0.94151">
        <ele>176</ele>
        <time>2012-10-21T07:43:38Z</time>
      </trkpt>
      <trkpt lat="44.92239" lon="0.94161">
        <ele>176</ele>
        <time>2012-10-21T07:43:40Z</time>
      </trkpt>
      <trkpt lat="44.92242" lon="0.94171">
        <ele>176</ele>
        <time>2012-10-21T07:43:42Z</time>
      </trkpt>
      <trkpt lat="44.92242" lon="0.94191">
        <ele>176</ele>
        <time>2012-10-21T07:43:45Z</time>
      </trkpt>
      <trkpt lat="44.92235" lon="0.94213">
        <ele>176</ele>
        <time>2012-10-21T07:43:48Z</time>
      </trkpt>
      <trkpt lat="44.92228" lon="0.94231">
        <ele>176</ele>
        <time>2012-10-21T07:43:50Z</time>
      </trkpt>
      <trkpt lat="44.92221" lon="0.94252">
        <ele>176</ele>
        <time>2012-10-21T07:43:52Z</time>
      </trkpt>
      <trkpt lat="44.92215" lon="0.94275">
        <ele>176</ele>
        <time>2012-10-21T07:43:54Z</time>
      </trkpt>
      <trkpt lat="44.92208" lon="0.94304">
        <ele>176</ele>
        <time>2012-10-21T07:43:56Z</time>
      </trkpt>
      <trkpt lat="44.92203" lon="0.94333">
        <ele>175</ele>
        <time>2012-10-21T07:43:58Z</time>
      </trkpt>
      <trkpt lat="44.92199" lon="0.94361">
        <ele>174</ele>
        <time>2012-10-21T07:44:00Z</time>
      </trkpt>
      <trkpt lat="44.92194" lon="0.94387">
        <ele>174</ele>
        <time>2012-10-21T07:44:02Z</time>
      </trkpt>
      <trkpt lat="44.92191" lon="0.94405">
        <ele>174</ele>
        <time>2012-10-21T07:44:04Z</time>
      </trkpt>
      <trkpt lat="44.92193" lon="0.94415">
        <ele>174</ele>
        <time>2012-10-21T07:44:07Z</time>
      </trkpt>
      <trkpt lat="44.92199" lon="0.94417">
        <ele>174</ele>
        <time>2012-10-21T07:44:09Z</time>
      </trkpt>
      <trkpt lat="44.92208" lon="0.94422">
        <ele>173</ele>
        <time>2012-10-21T07:44:12Z</time>
      </trkpt>
      <trkpt lat="44.92213" lon="0.94427">
        <ele>173</ele>
        <time>2012-10-21T07:44:14Z</time>
      </trkpt>
      <trkpt lat="44.92218" lon="0.94432">
        <ele>173</ele>
        <time>2012-10-21T07:44:16Z</time>
      </trkpt>
      <trkpt lat="44.92222" lon="0.94437">
        <ele>173</ele>
        <time>2012-10-21T07:44:18Z</time>
      </trkpt>
      <trkpt lat="44.92227" lon="0.94441">
        <ele>172</ele>
        <time>2012-10-21T07:44:20Z</time>
      </trkpt>
      <trkpt lat="44.92231" lon="0.94446">
        <ele>172</ele>
        <time>2012-10-21T07:44:22Z</time>
      </trkpt>
      <trkpt lat="44.92235" lon="0.9445">
        <ele>172</ele>
        <time>2012-10-21T07:44:24Z</time>
      </trkpt>
      <trkpt lat="44.92239" lon="0.94454">
        <ele>172</ele>
        <time>2012-10-21T07:44:26Z</time>
      </trkpt>
      <trkpt lat="44.92243" lon="0.94459">
        <ele>171</ele>
        <time>2012-10-21T07:44:28Z</time>
      </trkpt>
      <trkpt lat="44.92247" lon="0.94464">
        <ele>171</ele>
        <time>2012-10-21T07:44:30Z</time>
      </trkpt>
      <trkpt lat="44.92252" lon="0.94471">
        <ele>171</ele>
        <time>2012-10-21T07:44:32Z</time>
      </trkpt>
      <trkpt lat="44.92257" lon="0.94479">
        <ele>171</ele>
        <time>2012-10-21T07:44:34Z</time>
      </trkpt>
      <trkpt lat="44.9226" lon="0.94488">
        <ele>171</ele>
        <time>2012-10-21T07:44:36Z</time>
      </trkpt>
      <trkpt lat="44.92265" lon="0.94495">
        <ele>171</ele>
        <time>2012-10-21T07:44:38Z</time>
      </trkpt>
      <trkpt lat="44.92268" lon="0.94503">
        <ele>171</ele>
        <time>2012-10-21T07:44:40Z</time>
      </trkpt>
      <trkpt lat="44.92272" lon="0.9451">
        <ele>171</ele>
        <time>2012-10-21T07:44:42Z</time>
      </trkpt>
      <trkpt lat="44.92277" lon="0.94518">
        <ele>171</ele>
        <time>2012-10-21T07:44:44Z</time>
      </trkpt>
      <trkpt lat="44.92282" lon="0.94525">
        <ele>171</ele>
        <time>2012-10-21T07:44:46Z</time>
      </trkpt>
      <trkpt lat="44.92287" lon="0.94532">
        <ele>171</ele>
        <time>2012-10-21T07:44:48Z</time>
      </trkpt>
      <trkpt lat="44.92292" lon="0.94539">
        <ele>171</ele>
        <time>2012-10-21T07:44:50Z</time>
      </trkpt>
      <trkpt lat="44.92297" lon="0.94545">
        <ele>171</ele>
        <time>2012-10-21T07:44:52Z</time>
      </trkpt>
      <trkpt lat="44.92304" lon="0.94545">
        <ele>171</ele>
        <time>2012-10-21T07:44:55Z</time>
      </trkpt>
      <trkpt lat="44.9231" lon="0.94541">
        <ele>171</ele>
        <time>2012-10-21T07:44:57Z</time>
      </trkpt>
      <trkpt lat="44.92318" lon="0.94539">
        <ele>171</ele>
        <time>2012-10-21T07:44:59Z</time>
      </trkpt>
      <trkpt lat="44.92326" lon="0.94537">
        <ele>171</ele>
        <time>2012-10-21T07:45:01Z</time>
      </trkpt>
      <trkpt lat="44.92334" lon="0.94537">
        <ele>171</ele>
        <time>2012-10-21T07:45:03Z</time>
      </trkpt>
      <trkpt lat="44.92342" lon="0.94538">
        <ele>171</ele>
        <time>2012-10-21T07:45:05Z</time>
      </trkpt>
      <trkpt lat="44.9235" lon="0.94539">
        <ele>173</ele>
        <time>2012-10-21T07:45:07Z</time>
      </trkpt>
      <trkpt lat="44.92359" lon="0.94541">
        <ele>174</ele>
        <time>2012-10-21T07:45:09Z</time>
      </trkpt>
      <trkpt lat="44.92368" lon="0.94542">
        <ele>174</ele>
        <time>2012-10-21T07:45:11Z</time>
      </trkpt>
      <trkpt lat="44.92374" lon="0.94543">
        <ele>175</ele>
        <time>2012-10-21T07:45:13Z</time>
      </trkpt>
      <trkpt lat="44.92379" lon="0.94544">
        <ele>175</ele>
        <time>2012-10-21T07:45:15Z</time>
      </trkpt>
      <trkpt lat="44.92386" lon="0.94545">
        <ele>175</ele>
        <time>2012-10-21T07:45:17Z</time>
      </trkpt>
      <trkpt lat="44.92393" lon="0.94545">
        <ele>175</ele>
        <time>2012-10-21T07:45:19Z</time>
      </trkpt>
      <trkpt lat="44.92401" lon="0.94546">
        <ele>175</ele>
        <time>2012-10-21T07:45:21Z</time>
      </trkpt>
      <trkpt lat="44.92408" lon="0.94547">
        <ele>175</ele>
        <time>2012-10-21T07:45:23Z</time>
      </trkpt>
      <trkpt lat="44.92415" lon="0.94546">
        <ele>175</ele>
        <time>2012-10-21T07:45:25Z</time>
      </trkpt>
      <trkpt lat="44.92423" lon="0.94546">
        <ele>175</ele>
        <time>2012-10-21T07:45:27Z</time>
      </trkpt>
      <trkpt lat="44.92432" lon="0.94547">
        <ele>175</ele>
        <time>2012-10-21T07:45:29Z</time>
      </trkpt>
      <trkpt lat="44.9244" lon="0.94547">
        <ele>175</ele>
        <time>2012-10-21T07:45:31Z</time>
      </trkpt>
      <trkpt lat="44.92448" lon="0.94547">
        <ele>175</ele>
        <time>2012-10-21T07:45:33Z</time>
      </trkpt>
      <trkpt lat="44.92456" lon="0.94547">
        <ele>175</ele>
        <time>2012-10-21T07:45:35Z</time>
      </trkpt>
      <trkpt lat="44.92465" lon="0.94547">
        <ele>175</ele>
        <time>2012-10-21T07:45:37Z</time>
      </trkpt>
      <trkpt lat="44.92474" lon="0.94547">
        <ele>175</ele>
        <time>2012-10-21T07:45:39Z</time>
      </trkpt>
      <trkpt lat="44.92482" lon="0.94548">
        <ele>175</ele>
        <time>2012-10-21T07:45:41Z</time>
      </trkpt>
      <trkpt lat="44.9249" lon="0.9455">
        <ele>175</ele>
        <time>2012-10-21T07:45:43Z</time>
      </trkpt>
      <trkpt lat="44.92498" lon="0.94551">
        <ele>175</ele>
        <time>2012-10-21T07:45:45Z</time>
      </trkpt>
      <trkpt lat="44.9251" lon="0.94555">
        <ele>175</ele>
        <time>2012-10-21T07:45:48Z</time>
      </trkpt>
      <trkpt lat="44.92519" lon="0.9456">
        <ele>175</ele>
        <time>2012-10-21T07:45:51Z</time>
      </trkpt>
      <trkpt lat="44.92525" lon="0.94563">
        <ele>174</ele>
        <time>2012-10-21T07:45:53Z</time>
      </trkpt>
      <trkpt lat="44.92532" lon="0.94565">
        <ele>173</ele>
        <time>2012-10-21T07:45:55Z</time>
      </trkpt>
      <trkpt lat="44.92538" lon="0.94564">
        <ele>173</ele>
        <time>2012-10-21T07:45:57Z</time>
      </trkpt>
      <trkpt lat="44.92542" lon="0.94557">
        <ele>173</ele>
        <time>2012-10-21T07:45:59Z</time>
      </trkpt>
      <trkpt lat="44.92545" lon="0.94549">
        <ele>173</ele>
        <time>2012-10-21T07:46:01Z</time>
      </trkpt>
      <trkpt lat="44.92548" lon="0.94541">
        <ele>173</ele>
        <time>2012-10-21T07:46:03Z</time>
      </trkpt>
      <trkpt lat="44.9255" lon="0.94533">
        <ele>173</ele>
        <time>2012-10-21T07:46:05Z</time>
      </trkpt>
      <trkpt lat="44.92556" lon="0.94525">
        <ele>174</ele>
        <time>2012-10-21T07:46:07Z</time>
      </trkpt>
      <trkpt lat="44.92561" lon="0.94526">
        <ele>174</ele>
        <time>2012-10-21T07:46:09Z</time>
      </trkpt>
      <trkpt lat="44.92569" lon="0.9453">
        <ele>174</ele>
        <time>2012-10-21T07:46:11Z</time>
      </trkpt>
      <trkpt lat="44.92577" lon="0.94536">
        <ele>174</ele>
        <time>2012-10-21T07:46:13Z</time>
      </trkpt>
      <trkpt lat="44.92587" lon="0.94541">
        <ele>174</ele>
        <time>2012-10-21T07:46:15Z</time>
      </trkpt>
      <trkpt lat="44.92596" lon="0.94546">
        <ele>174</ele>
        <time>2012-10-21T07:46:17Z</time>
      </trkpt>
      <trkpt lat="44.92606" lon="0.94553">
        <ele>174</ele>
        <time>2012-10-21T07:46:19Z</time>
      </trkpt>
      <trkpt lat="44.92615" lon="0.94559">
        <ele>174</ele>
        <time>2012-10-21T07:46:21Z</time>
      </trkpt>
      <trkpt lat="44.92624" lon="0.94564">
        <ele>174</ele>
        <time>2012-10-21T07:46:23Z</time>
      </trkpt>
      <trkpt lat="44.92632" lon="0.9457">
        <ele>174</ele>
        <time>2012-10-21T07:46:25Z</time>
      </trkpt>
      <trkpt lat="44.92641" lon="0.94577">
        <ele>174</ele>
        <time>2012-10-21T07:46:27Z</time>
      </trkpt>
      <trkpt lat="44.92649" lon="0.94584">
        <ele>174</ele>
        <time>2012-10-21T07:46:29Z</time>
      </trkpt>
      <trkpt lat="44.92658" lon="0.9459">
        <ele>174</ele>
        <time>2012-10-21T07:46:31Z</time>
      </trkpt>
      <trkpt lat="44.92667" lon="0.94595">
        <ele>174</ele>
        <time>2012-10-21T07:46:33Z</time>
      </trkpt>
      <trkpt lat="44.92676" lon="0.94601">
        <ele>174</ele>
        <time>2012-10-21T07:46:35Z</time>
      </trkpt>
      <trkpt lat="44.92686" lon="0.94605">
        <ele>174</ele>
        <time>2012-10-21T07:46:37Z</time>
      </trkpt>
      <trkpt lat="44.92696" lon="0.94608">
        <ele>174</ele>
        <time>2012-10-21T07:46:39Z</time>
      </trkpt>
      <trkpt lat="44.92708" lon="0.9461">
        <ele>174</ele>
        <time>2012-10-21T07:46:41Z</time>
      </trkpt>
      <trkpt lat="44.92719" lon="0.9461">
        <ele>174</ele>
        <time>2012-10-21T07:46:43Z</time>
      </trkpt>
      <trkpt lat="44.92727" lon="0.9461">
        <ele>174</ele>
        <time>2012-10-21T07:46:45Z</time>
      </trkpt>
      <trkpt lat="44.92736" lon="0.94609">
        <ele>174</ele>
        <time>2012-10-21T07:46:47Z</time>
      </trkpt>
      <trkpt lat="44.92747" lon="0.94607">
        <ele>174</ele>
        <time>2012-10-21T07:46:49Z</time>
      </trkpt>
      <trkpt lat="44.92758" lon="0.94603">
        <ele>174</ele>
        <time>2012-10-21T07:46:51Z</time>
      </trkpt>
      <trkpt lat="44.9277" lon="0.94595">
        <ele>174</ele>
        <time>2012-10-21T07:46:53Z</time>
      </trkpt>
      <trkpt lat="44.92782" lon="0.94584">
        <ele>174</ele>
        <time>2012-10-21T07:46:55Z</time>
      </trkpt>
      <trkpt lat="44.92796" lon="0.94572">
        <ele>174</ele>
        <time>2012-10-21T07:46:57Z</time>
      </trkpt>
      <trkpt lat="44.9281" lon="0.9456">
        <ele>174</ele>
        <time>2012-10-21T07:46:59Z</time>
      </trkpt>
      <trkpt lat="44.92824" lon="0.9455">
        <ele>174</ele>
        <time>2012-10-21T07:47:01Z</time>
      </trkpt>
      <trkpt lat="44.9284" lon="0.94544">
        <ele>174</ele>
        <time>2012-10-21T07:47:03Z</time>
      </trkpt>
      <trkpt lat="44.92856" lon="0.94541">
        <ele>174</ele>
        <time>2012-10-21T07:47:05Z</time>
      </trkpt>
      <trkpt lat="44.92872" lon="0.94541">
        <ele>174</ele>
        <time>2012-10-21T07:47:07Z</time>
      </trkpt>
      <trkpt lat="44.92889" lon="0.94542">
        <ele>173</ele>
        <time>2012-10-21T07:47:09Z</time>
      </trkpt>
      <trkpt lat="44.92904" lon="0.94544">
        <ele>173</ele>
        <time>2012-10-21T07:47:11Z</time>
      </trkpt>
      <trkpt lat="44.92921" lon="0.94546">
        <ele>172</ele>
        <time>2012-10-21T07:47:13Z</time>
      </trkpt>
      <trkpt lat="44.92939" lon="0.94548">
        <ele>172</ele>
        <time>2012-10-21T07:47:15Z</time>
      </trkpt>
      <trkpt lat="44.92963" lon="0.94558">
        <ele>171</ele>
        <time>2012-10-21T07:47:18Z</time>
      </trkpt>
      <trkpt lat="44.92978" lon="0.94567">
        <ele>170</ele>
        <time>2012-10-21T07:47:20Z</time>
      </trkpt>
      <trkpt lat="44.92999" lon="0.94584">
        <ele>168</ele>
        <time>2012-10-21T07:47:23Z</time>
      </trkpt>
      <trkpt lat="44.93011" lon="0.94596">
        <ele>168</ele>
        <time>2012-10-21T07:47:25Z</time>
      </trkpt>
      <trkpt lat="44.93022" lon="0.94608">
        <ele>168</ele>
        <time>2012-10-21T07:47:27Z</time>
      </trkpt>
      <trkpt lat="44.93029" lon="0.94619">
        <ele>168</ele>
        <time>2012-10-21T07:47:29Z</time>
      </trkpt>
      <trkpt lat="44.93029" lon="0.94631">
        <ele>168</ele>
        <time>2012-10-21T07:47:31Z</time>
      </trkpt>
      <trkpt lat="44.93025" lon="0.94643">
        <ele>168</ele>
        <time>2012-10-21T07:47:33Z</time>
      </trkpt>
      <trkpt lat="44.93016" lon="0.94647">
        <ele>168</ele>
        <time>2012-10-21T07:47:35Z</time>
      </trkpt>
      <trkpt lat="44.93006" lon="0.9465">
        <ele>168</ele>
        <time>2012-10-21T07:47:37Z</time>
      </trkpt>
      <trkpt lat="44.92999" lon="0.94659">
        <ele>168</ele>
        <time>2012-10-21T07:47:39Z</time>
      </trkpt>
      <trkpt lat="44.92987" lon="0.94668">
        <ele>168</ele>
        <time>2012-10-21T07:47:41Z</time>
      </trkpt>
      <trkpt lat="44.92974" lon="0.94676">
        <ele>168</ele>
        <time>2012-10-21T07:47:43Z</time>
      </trkpt>
      <trkpt lat="44.92965" lon="0.94687">
        <ele>168</ele>
        <time>2012-10-21T07:47:45Z</time>
      </trkpt>
      <trkpt lat="44.9296" lon="0.947">
        <ele>168</ele>
        <time>2012-10-21T07:47:47Z</time>
      </trkpt>
      <trkpt lat="44.92955" lon="0.94713">
        <ele>168</ele>
        <time>2012-10-21T07:47:49Z</time>
      </trkpt>
      <trkpt lat="44.92951" lon="0.94727">
        <ele>169</ele>
        <time>2012-10-21T07:47:51Z</time>
      </trkpt>
      <trkpt lat="44.92948" lon="0.94738">
        <ele>171</ele>
        <time>2012-10-21T07:47:53Z</time>
      </trkpt>
      <trkpt lat="44.92944" lon="0.94748">
        <ele>171</ele>
        <time>2012-10-21T07:47:55Z</time>
      </trkpt>
      <trkpt lat="44.92935" lon="0.94755">
        <ele>171</ele>
        <time>2012-10-21T07:47:57Z</time>
      </trkpt>
      <trkpt lat="44.92927" lon="0.9476">
        <ele>171</ele>
        <time>2012-10-21T07:47:59Z</time>
      </trkpt>
      <trkpt lat="44.92921" lon="0.94773">
        <ele>171</ele>
        <time>2012-10-21T07:48:01Z</time>
      </trkpt>
      <trkpt lat="44.9291" lon="0.94793">
        <ele>171</ele>
        <time>2012-10-21T07:48:04Z</time>
      </trkpt>
      <trkpt lat="44.92903" lon="0.94808">
        <ele>170</ele>
        <time>2012-10-21T07:48:06Z</time>
      </trkpt>
      <trkpt lat="44.92895" lon="0.9482">
        <ele>169</ele>
        <time>2012-10-21T07:48:08Z</time>
      </trkpt>
      <trkpt lat="44.92887" lon="0.94831">
        <ele>169</ele>
        <time>2012-10-21T07:48:10Z</time>
      </trkpt>
      <trkpt lat="44.92881" lon="0.9484">
        <ele>169</ele>
        <time>2012-10-21T07:48:12Z</time>
      </trkpt>
      <trkpt lat="44.92876" lon="0.94852">
        <ele>168</ele>
        <time>2012-10-21T07:48:14Z</time>
      </trkpt>
      <trkpt lat="44.92871" lon="0.94868">
        <ele>167</ele>
        <time>2012-10-21T07:48:16Z</time>
      </trkpt>
      <trkpt lat="44.92864" lon="0.94881">
        <ele>165</ele>
        <time>2012-10-21T07:48:18Z</time>
      </trkpt>
      <trkpt lat="44.92857" lon="0.94893">
        <ele>165</ele>
        <time>2012-10-21T07:48:20Z</time>
      </trkpt>
      <trkpt lat="44.92849" lon="0.94902">
        <ele>165</ele>
        <time>2012-10-21T07:48:22Z</time>
      </trkpt>
      <trkpt lat="44.92845" lon="0.94912">
        <ele>165</ele>
        <time>2012-10-21T07:48:24Z</time>
      </trkpt>
      <trkpt lat="44.92843" lon="0.94924">
        <ele>165</ele>
        <time>2012-10-21T07:48:26Z</time>
      </trkpt>
      <trkpt lat="44.92841" lon="0.94935">
        <ele>165</ele>
        <time>2012-10-21T07:48:28Z</time>
      </trkpt>
      <trkpt lat="44.92839" lon="0.94945">
        <ele>165</ele>
        <time>2012-10-21T07:48:30Z</time>
      </trkpt>
      <trkpt lat="44.92837" lon="0.94961">
        <ele>165</ele>
        <time>2012-10-21T07:48:33Z</time>
      </trkpt>
      <trkpt lat="44.92835" lon="0.94979">
        <ele>165</ele>
        <time>2012-10-21T07:48:36Z</time>
      </trkpt>
      <trkpt lat="44.92832" lon="0.94995">
        <ele>165</ele>
        <time>2012-10-21T07:48:39Z</time>
      </trkpt>
      <trkpt lat="44.92831" lon="0.95003">
        <ele>165</ele>
        <time>2012-10-21T07:48:41Z</time>
      </trkpt>
      <trkpt lat="44.92829" lon="0.95012">
        <ele>165</ele>
        <time>2012-10-21T07:48:43Z</time>
      </trkpt>
      <trkpt lat="44.92826" lon="0.95028">
        <ele>165</ele>
        <time>2012-10-21T07:48:46Z</time>
      </trkpt>
      <trkpt lat="44.92823" lon="0.95038">
        <ele>165</ele>
        <time>2012-10-21T07:48:48Z</time>
      </trkpt>
      <trkpt lat="44.92823" lon="0.95049">
        <ele>165</ele>
        <time>2012-10-21T07:48:50Z</time>
      </trkpt>
      <trkpt lat="44.92822" lon="0.9506">
        <ele>165</ele>
        <time>2012-10-21T07:48:52Z</time>
      </trkpt>
      <trkpt lat="44.92818" lon="0.95072">
        <ele>164</ele>
        <time>2012-10-21T07:48:54Z</time>
      </trkpt>
      <trkpt lat="44.92812" lon="0.95094">
        <ele>164</ele>
        <time>2012-10-21T07:48:57Z</time>
      </trkpt>
      <trkpt lat="44.92806" lon="0.95108">
        <ele>164</ele>
        <time>2012-10-21T07:48:59Z</time>
      </trkpt>
      <trkpt lat="44.92801" lon="0.9512">
        <ele>165</ele>
        <time>2012-10-21T07:49:01Z</time>
      </trkpt>
      <trkpt lat="44.92795" lon="0.95131">
        <ele>167</ele>
        <time>2012-10-21T07:49:03Z</time>
      </trkpt>
      <trkpt lat="44.92789" lon="0.95142">
        <ele>169</ele>
        <time>2012-10-21T07:49:05Z</time>
      </trkpt>
      <trkpt lat="44.92785" lon="0.95155">
        <ele>171</ele>
        <time>2012-10-21T07:49:07Z</time>
      </trkpt>
      <trkpt lat="44.92781" lon="0.95167">
        <ele>173</ele>
        <time>2012-10-21T07:49:09Z</time>
      </trkpt>
      <trkpt lat="44.92777" lon="0.9518">
        <ele>175</ele>
        <time>2012-10-21T07:49:11Z</time>
      </trkpt>
      <trkpt lat="44.92773" lon="0.95196">
        <ele>176</ele>
        <time>2012-10-21T07:49:13Z</time>
      </trkpt>
      <trkpt lat="44.92767" lon="0.95212">
        <ele>176</ele>
        <time>2012-10-21T07:49:15Z</time>
      </trkpt>
      <trkpt lat="44.92763" lon="0.95227">
        <ele>176</ele>
        <time>2012-10-21T07:49:17Z</time>
      </trkpt>
      <trkpt lat="44.92754" lon="0.95253">
        <ele>176</ele>
        <time>2012-10-21T07:49:20Z</time>
      </trkpt>
      <trkpt lat="44.92753" lon="0.95271">
        <ele>175</ele>
        <time>2012-10-21T07:49:22Z</time>
      </trkpt>
      <trkpt lat="44.92755" lon="0.95288">
        <ele>173</ele>
        <time>2012-10-21T07:49:24Z</time>
      </trkpt>
      <trkpt lat="44.92755" lon="0.95305">
        <ele>171</ele>
        <time>2012-10-21T07:49:26Z</time>
      </trkpt>
      <trkpt lat="44.92757" lon="0.95323">
        <ele>169</ele>
        <time>2012-10-21T07:49:28Z</time>
      </trkpt>
      <trkpt lat="44.92758" lon="0.95341">
        <ele>167</ele>
        <time>2012-10-21T07:49:30Z</time>
      </trkpt>
      <trkpt lat="44.92757" lon="0.95357">
        <ele>165</ele>
        <time>2012-10-21T07:49:32Z</time>
      </trkpt>
      <trkpt lat="44.92755" lon="0.95372">
        <ele>163</ele>
        <time>2012-10-21T07:49:34Z</time>
      </trkpt>
      <trkpt lat="44.92753" lon="0.95389">
        <ele>161</ele>
        <time>2012-10-21T07:49:36Z</time>
      </trkpt>
      <trkpt lat="44.92751" lon="0.95404">
        <ele>161</ele>
        <time>2012-10-21T07:49:38Z</time>
      </trkpt>
      <trkpt lat="44.92751" lon="0.95424">
        <ele>161</ele>
        <time>2012-10-21T07:49:41Z</time>
      </trkpt>
      <trkpt lat="44.92748" lon="0.95436">
        <ele>161</ele>
        <time>2012-10-21T07:49:43Z</time>
      </trkpt>
      <trkpt lat="44.92744" lon="0.95449">
        <ele>161</ele>
        <time>2012-10-21T07:49:45Z</time>
      </trkpt>
      <trkpt lat="44.92738" lon="0.95458">
        <ele>161</ele>
        <time>2012-10-21T07:49:47Z</time>
      </trkpt>
      <trkpt lat="44.92731" lon="0.95466">
        <ele>161</ele>
        <time>2012-10-21T07:49:49Z</time>
      </trkpt>
      <trkpt lat="44.92722" lon="0.95478">
        <ele>161</ele>
        <time>2012-10-21T07:49:51Z</time>
      </trkpt>
      <trkpt lat="44.9272" lon="0.95491">
        <ele>161</ele>
        <time>2012-10-21T07:49:53Z</time>
      </trkpt>
      <trkpt lat="44.92721" lon="0.95504">
        <ele>161</ele>
        <time>2012-10-21T07:49:55Z</time>
      </trkpt>
      <trkpt lat="44.92724" lon="0.9552">
        <ele>161</ele>
        <time>2012-10-21T07:49:57Z</time>
      </trkpt>
      <trkpt lat="44.92725" lon="0.95535">
        <ele>161</ele>
        <time>2012-10-21T07:49:59Z</time>
      </trkpt>
      <trkpt lat="44.92722" lon="0.95549">
        <ele>161</ele>
        <time>2012-10-21T07:50:01Z</time>
      </trkpt>
      <trkpt lat="44.92719" lon="0.95562">
        <ele>161</ele>
        <time>2012-10-21T07:50:03Z</time>
      </trkpt>
      <trkpt lat="44.92718" lon="0.95575">
        <ele>161</ele>
        <time>2012-10-21T07:50:05Z</time>
      </trkpt>
      <trkpt lat="44.92717" lon="0.95588">
        <ele>161</ele>
        <time>2012-10-21T07:50:07Z</time>
      </trkpt>
      <trkpt lat="44.92715" lon="0.95601">
        <ele>161</ele>
        <time>2012-10-21T07:50:09Z</time>
      </trkpt>
      <trkpt lat="44.92713" lon="0.95615">
        <ele>161</ele>
        <time>2012-10-21T07:50:11Z</time>
      </trkpt>
      <trkpt lat="44.9271" lon="0.95629">
        <ele>161</ele>
        <time>2012-10-21T07:50:13Z</time>
      </trkpt>
      <trkpt lat="44.92709" lon="0.95642">
        <ele>161</ele>
        <time>2012-10-21T07:50:15Z</time>
      </trkpt>
      <trkpt lat="44.92706" lon="0.95654">
        <ele>161</ele>
        <time>2012-10-21T07:50:17Z</time>
      </trkpt>
      <trkpt lat="44.92702" lon="0.95664">
        <ele>161</ele>
        <time>2012-10-21T07:50:19Z</time>
      </trkpt>
      <trkpt lat="44.92698" lon="0.95674">
        <ele>161</ele>
        <time>2012-10-21T07:50:21Z</time>
      </trkpt>
      <trkpt lat="44.92692" lon="0.95688">
        <ele>161</ele>
        <time>2012-10-21T07:50:24Z</time>
      </trkpt>
      <trkpt lat="44.92686" lon="0.95697">
        <ele>161</ele>
        <time>2012-10-21T07:50:26Z</time>
      </trkpt>
      <trkpt lat="44.9268" lon="0.95705">
        <ele>161</ele>
        <time>2012-10-21T07:50:28Z</time>
      </trkpt>
      <trkpt lat="44.92673" lon="0.95713">
        <ele>161</ele>
        <time>2012-10-21T07:50:30Z</time>
      </trkpt>
      <trkpt lat="44.92664" lon="0.95726">
        <ele>161</ele>
        <time>2012-10-21T07:50:33Z</time>
      </trkpt>
      <trkpt lat="44.92663" lon="0.95736">
        <ele>161</ele>
        <time>2012-10-21T07:50:35Z</time>
      </trkpt>
      <trkpt lat="44.92667" lon="0.95745">
        <ele>159</ele>
        <time>2012-10-21T07:50:37Z</time>
      </trkpt>
      <trkpt lat="44.92672" lon="0.95756">
        <ele>157</ele>
        <time>2012-10-21T07:50:39Z</time>
      </trkpt>
      <trkpt lat="44.92678" lon="0.9577">
        <ele>155</ele>
        <time>2012-10-21T07:50:41Z</time>
      </trkpt>
      <trkpt lat="44.92687" lon="0.95795">
        <ele>152</ele>
        <time>2012-10-21T07:50:44Z</time>
      </trkpt>
      <trkpt lat="44.92692" lon="0.95812">
        <ele>150</ele>
        <time>2012-10-21T07:50:46Z</time>
      </trkpt>
      <trkpt lat="44.92696" lon="0.95829">
        <ele>148</ele>
        <time>2012-10-21T07:50:48Z</time>
      </trkpt>
      <trkpt lat="44.92701" lon="0.95847">
        <ele>147</ele>
        <time>2012-10-21T07:50:50Z</time>
      </trkpt>
      <trkpt lat="44.92703" lon="0.95863">
        <ele>145</ele>
        <time>2012-10-21T07:50:52Z</time>
      </trkpt>
      <trkpt lat="44.92708" lon="0.95876">
        <ele>144</ele>
        <time>2012-10-21T07:50:54Z</time>
      </trkpt>
      <trkpt lat="44.92717" lon="0.95882">
        <ele>142</ele>
        <time>2012-10-21T07:50:56Z</time>
      </trkpt>
      <trkpt lat="44.92727" lon="0.95882">
        <ele>140</ele>
        <time>2012-10-21T07:50:58Z</time>
      </trkpt>
      <trkpt lat="44.92738" lon="0.9588">
        <ele>138</ele>
        <time>2012-10-21T07:51:00Z</time>
      </trkpt>
      <trkpt lat="44.92751" lon="0.95877">
        <ele>136</ele>
        <time>2012-10-21T07:51:02Z</time>
      </trkpt>
      <trkpt lat="44.92766" lon="0.95874">
        <ele>135</ele>
        <time>2012-10-21T07:51:04Z</time>
      </trkpt>
      <trkpt lat="44.9278" lon="0.95875">
        <ele>133</ele>
        <time>2012-10-21T07:51:06Z</time>
      </trkpt>
      <trkpt lat="44.92794" lon="0.95885">
        <ele>132</ele>
        <time>2012-10-21T07:51:08Z</time>
      </trkpt>
      <trkpt lat="44.92804" lon="0.95905">
        <ele>131</ele>
        <time>2012-10-21T07:51:10Z</time>
      </trkpt>
      <trkpt lat="44.92814" lon="0.95929">
        <ele>129</ele>
        <time>2012-10-21T07:51:12Z</time>
      </trkpt>
      <trkpt lat="44.92829" lon="0.95967">
        <ele>127</ele>
        <time>2012-10-21T07:51:15Z</time>
      </trkpt>
      <trkpt lat="44.92839" lon="0.95995">
        <ele>125</ele>
        <time>2012-10-21T07:51:17Z</time>
      </trkpt>
      <trkpt lat="44.92847" lon="0.96024">
        <ele>123</ele>
        <time>2012-10-21T07:51:19Z</time>
      </trkpt>
      <trkpt lat="44.92854" lon="0.96053">
        <ele>122</ele>
        <time>2012-10-21T07:51:21Z</time>
      </trkpt>
      <trkpt lat="44.9286" lon="0.96079">
        <ele>120</ele>
        <time>2012-10-21T07:51:23Z</time>
      </trkpt>
      <trkpt lat="44.9287" lon="0.961">
        <ele>119</ele>
        <time>2012-10-21T07:51:25Z</time>
      </trkpt>
      <trkpt lat="44.92881" lon="0.96117">
        <ele>118</ele>
        <time>2012-10-21T07:51:27Z</time>
      </trkpt>
      <trkpt lat="44.92892" lon="0.96132">
        <ele>117</ele>
        <time>2012-10-21T07:51:29Z</time>
      </trkpt>
      <trkpt lat="44.92904" lon="0.96141">
        <ele>117</ele>
        <time>2012-10-21T07:51:31Z</time>
      </trkpt>
      <trkpt lat="44.92914" lon="0.96147">
        <ele>117</ele>
        <time>2012-10-21T07:51:33Z</time>
      </trkpt>
      <trkpt lat="44.92921" lon="0.96149">
        <ele>117</ele>
        <time>2012-10-21T07:51:35Z</time>
      </trkpt>
      <trkpt lat="44.92927" lon="0.9615">
        <ele>117</ele>
        <time>2012-10-21T07:51:37Z</time>
      </trkpt>
      <trkpt lat="44.92933" lon="0.96152">
        <ele>117</ele>
        <time>2012-10-21T07:51:39Z</time>
      </trkpt>
      <trkpt lat="44.92938" lon="0.96153">
        <ele>117</ele>
        <time>2012-10-21T07:51:41Z</time>
      </trkpt>
      <trkpt lat="44.92944" lon="0.96157">
        <ele>117</ele>
        <time>2012-10-21T07:51:43Z</time>
      </trkpt>
      <trkpt lat="44.92952" lon="0.9616">
        <ele>117</ele>
        <time>2012-10-21T07:51:45Z</time>
      </trkpt>
      <trkpt lat="44.9296" lon="0.96164">
        <ele>117</ele>
        <time>2012-10-21T07:51:47Z</time>
      </trkpt>
      <trkpt lat="44.92968" lon="0.96169">
        <ele>118</ele>
        <time>2012-10-21T07:51:49Z</time>
      </trkpt>
      <trkpt lat="44.92975" lon="0.96174">
        <ele>119</ele>
        <time>2012-10-21T07:51:51Z</time>
      </trkpt>
      <trkpt lat="44.92982" lon="0.96178">
        <ele>120</ele>
        <time>2012-10-21T07:51:53Z</time>
      </trkpt>
      <trkpt lat="44.92987" lon="0.96182">
        <ele>121</ele>
        <time>2012-10-21T07:51:55Z</time>
      </trkpt>
      <trkpt lat="44.92994" lon="0.96185">
        <ele>122</ele>
        <time>2012-10-21T07:51:57Z</time>
      </trkpt>
      <trkpt lat="44.93002" lon="0.96187">
        <ele>123</ele>
        <time>2012-10-21T07:51:59Z</time>
      </trkpt>
      <trkpt lat="44.93008" lon="0.96187">
        <ele>124</ele>
        <time>2012-10-21T07:52:01Z</time>
      </trkpt>
      <trkpt lat="44.93016" lon="0.96187">
        <ele>126</ele>
        <time>2012-10-21T07:52:03Z</time>
      </trkpt>
      <trkpt lat="44.93022" lon="0.96186">
        <ele>128</ele>
        <time>2012-10-21T07:52:05Z</time>
      </trkpt>
      <trkpt lat="44.93028" lon="0.96184">
        <ele>128</ele>
        <time>2012-10-21T07:52:07Z</time>
      </trkpt>
      <trkpt lat="44.93034" lon="0.96184">
        <ele>129</ele>
        <time>2012-10-21T07:52:09Z</time>
      </trkpt>
      <trkpt lat="44.9304" lon="0.96182">
        <ele>129</ele>
        <time>2012-10-21T07:52:11Z</time>
      </trkpt>
      <trkpt lat="44.93047" lon="0.96182">
        <ele>129</ele>
        <time>2012-10-21T07:52:13Z</time>
      </trkpt>
      <trkpt lat="44.93053" lon="0.96182">
        <ele>129</ele>
        <time>2012-10-21T07:52:15Z</time>
      </trkpt>
      <trkpt lat="44.9306" lon="0.96183">
        <ele>130</ele>
        <time>2012-10-21T07:52:17Z</time>
      </trkpt>
      <trkpt lat="44.93066" lon="0.96184">
        <ele>131</ele>
        <time>2012-10-21T07:52:19Z</time>
      </trkpt>
      <trkpt lat="44.93074" lon="0.96186">
        <ele>132</ele>
        <time>2012-10-21T07:52:21Z</time>
      </trkpt>
      <trkpt lat="44.9308" lon="0.96188">
        <ele>134</ele>
        <time>2012-10-21T07:52:23Z</time>
      </trkpt>
      <trkpt lat="44.93086" lon="0.9619">
        <ele>135</ele>
        <time>2012-10-21T07:52:25Z</time>
      </trkpt>
      <trkpt lat="44.93091" lon="0.96193">
        <ele>135</ele>
        <time>2012-10-21T07:52:27Z</time>
      </trkpt>
      <trkpt lat="44.93097" lon="0.96197">
        <ele>135</ele>
        <time>2012-10-21T07:52:29Z</time>
      </trkpt>
      <trkpt lat="44.93103" lon="0.96201">
        <ele>136</ele>
        <time>2012-10-21T07:52:31Z</time>
      </trkpt>
      <trkpt lat="44.93108" lon="0.96206">
        <ele>136</ele>
        <time>2012-10-21T07:52:33Z</time>
      </trkpt>
      <trkpt lat="44.93111" lon="0.96213">
        <ele>137</ele>
        <time>2012-10-21T07:52:35Z</time>
      </trkpt>
      <trkpt lat="44.93107" lon="0.9622">
        <ele>139</ele>
        <time>2012-10-21T07:52:37Z</time>
      </trkpt>
      <trkpt lat="44.93102" lon="0.96227">
        <ele>141</ele>
        <time>2012-10-21T07:52:39Z</time>
      </trkpt>
      <trkpt lat="44.93094" lon="0.96234">
        <ele>143</ele>
        <time>2012-10-21T07:52:41Z</time>
      </trkpt>
      <trkpt lat="44.93087" lon="0.96242">
        <ele>145</ele>
        <time>2012-10-21T07:52:43Z</time>
      </trkpt>
      <trkpt lat="44.93079" lon="0.96249">
        <ele>146</ele>
        <time>2012-10-21T07:52:45Z</time>
      </trkpt>
      <trkpt lat="44.9307" lon="0.96254">
        <ele>147</ele>
        <time>2012-10-21T07:52:47Z</time>
      </trkpt>
      <trkpt lat="44.93061" lon="0.96259">
        <ele>147</ele>
        <time>2012-10-21T07:52:49Z</time>
      </trkpt>
      <trkpt lat="44.93053" lon="0.96264">
        <ele>147</ele>
        <time>2012-10-21T07:52:51Z</time>
      </trkpt>
      <trkpt lat="44.93044" lon="0.96268">
        <ele>147</ele>
        <time>2012-10-21T07:52:53Z</time>
      </trkpt>
      <trkpt lat="44.93037" lon="0.96273">
        <ele>147</ele>
        <time>2012-10-21T07:52:55Z</time>
      </trkpt>
      <trkpt lat="44.93029" lon="0.96277">
        <ele>147</ele>
        <time>2012-10-21T07:52:57Z</time>
      </trkpt>
      <trkpt lat="44.93024" lon="0.9628">
        <ele>147</ele>
        <time>2012-10-21T07:52:59Z</time>
      </trkpt>
      <trkpt lat="44.93021" lon="0.96281">
        <ele>147</ele>
        <time>2012-10-21T07:53:01Z</time>
      </trkpt>
      <trkpt lat="44.93022" lon="0.96281">
        <ele>145</ele>
        <time>2012-10-21T07:53:07Z</time>
      </trkpt>
      <trkpt lat="44.93023" lon="0.96283">
        <ele>142</ele>
        <time>2012-10-21T07:53:10Z</time>
      </trkpt>
      <trkpt lat="44.93024" lon="0.96282">
        <ele>141</ele>
        <time>2012-10-21T07:53:13Z</time>
      </trkpt>
      <trkpt lat="44.93025" lon="0.96281">
        <ele>139</ele>
        <time>2012-10-21T07:53:17Z</time>
      </trkpt>
      <trkpt lat="44.93026" lon="0.9628">
        <ele>137</ele>
        <time>2012-10-21T07:53:22Z</time>
      </trkpt>
      <trkpt lat="44.93027" lon="0.96279">
        <ele>136</ele>
        <time>2012-10-21T07:53:29Z</time>
      </trkpt>
      <trkpt lat="44.93029" lon="0.96279">
        <ele>135</ele>
        <time>2012-10-21T07:53:33Z</time>
      </trkpt>
      <trkpt lat="44.9303" lon="0.96279">
        <ele>135</ele>
        <time>2012-10-21T07:53:37Z</time>
      </trkpt>
      <trkpt lat="44.93029" lon="0.96277">
        <ele>135</ele>
        <time>2012-10-21T07:53:42Z</time>
      </trkpt>
      <trkpt lat="44.9303" lon="0.96278">
        <ele>135</ele>
        <time>2012-10-21T07:53:48Z</time>
      </trkpt>
      <trkpt lat="44.93031" lon="0.96279">
        <ele>132</ele>
        <time>2012-10-21T07:53:53Z</time>
      </trkpt>
      <trkpt lat="44.93033" lon="0.9628">
        <ele>132</ele>
        <time>2012-10-21T07:53:55Z</time>
      </trkpt>
      <trkpt lat="44.93034" lon="0.96281">
        <ele>130</ele>
        <time>2012-10-21T07:53:57Z</time>
      </trkpt>
      <trkpt lat="44.93036" lon="0.96282">
        <ele>129</ele>
        <time>2012-10-21T07:54:00Z</time>
      </trkpt>
      <trkpt lat="44.93037" lon="0.96283">
        <ele>129</ele>
        <time>2012-10-21T07:54:03Z</time>
      </trkpt>
      <trkpt lat="44.93036" lon="0.96282">
        <ele>128</ele>
        <time>2012-10-21T07:54:10Z</time>
      </trkpt>
      <trkpt lat="44.93035" lon="0.96281">
        <ele>128</ele>
        <time>2012-10-21T07:54:14Z</time>
      </trkpt>
      <trkpt lat="44.93034" lon="0.9628">
        <ele>128</ele>
        <time>2012-10-21T07:54:23Z</time>
      </trkpt>
      <trkpt lat="44.93032" lon="0.96279">
        <ele>128</ele>
        <time>2012-10-21T07:54:30Z</time>
      </trkpt>
      <trkpt lat="44.93031" lon="0.96279">
        <ele>128</ele>
        <time>2012-10-21T07:54:41Z</time>
      </trkpt>
      <trkpt lat="44.93032" lon="0.96279">
        <ele>128</ele>
        <time>2012-10-21T07:54:59Z</time>
      </trkpt>
      <trkpt lat="44.93034" lon="0.9628">
        <ele>128</ele>
        <time>2012-10-21T07:55:05Z</time>
      </trkpt>
      <trkpt lat="44.93035" lon="0.9628">
        <ele>128</ele>
        <time>2012-10-21T07:55:12Z</time>
      </trkpt>
      <trkpt lat="44.93034" lon="0.9628">
        <ele>128</ele>
        <time>2012-10-21T07:55:24Z</time>
      </trkpt>
      <trkpt lat="44.93032" lon="0.96279">
        <ele>128</ele>
        <time>2012-10-21T07:55:27Z</time>
      </trkpt>
      <trkpt lat="44.93031" lon="0.96279">
        <ele>128</ele>
        <time>2012-10-21T07:55:31Z</time>
      </trkpt>
      <trkpt lat="44.9303" lon="0.96278">
        <ele>128</ele>
        <time>2012-10-21T07:55:38Z</time>
      </trkpt>
      <trkpt lat="44.93029" lon="0.96277">
        <ele>129</ele>
        <time>2012-10-21T07:55:49Z</time>
      </trkpt>
      <trkpt lat="44.93028" lon="0.96276">
        <ele>132</ele>
        <time>2012-10-21T07:56:09Z</time>
      </trkpt>
      <trkpt lat="44.93027" lon="0.96274">
        <ele>135</ele>
        <time>2012-10-21T07:56:22Z</time>
      </trkpt>
      <trkpt lat="44.93026" lon="0.96273">
        <ele>138</ele>
        <time>2012-10-21T07:56:40Z</time>
      </trkpt>
      <trkpt lat="44.93025" lon="0.96275">
        <ele>138</ele>
        <time>2012-10-21T07:56:49Z</time>
      </trkpt>
      <trkpt lat="44.93024" lon="0.96276">
        <ele>138</ele>
        <time>2012-10-21T07:56:53Z</time>
      </trkpt>
      <trkpt lat="44.93025" lon="0.96278">
        <ele>138</ele>
        <time>2012-10-21T07:56:57Z</time>
      </trkpt>
      <trkpt lat="44.93026" lon="0.9628">
        <ele>138</ele>
        <time>2012-10-21T07:57:02Z</time>
      </trkpt>
      <trkpt lat="44.93024" lon="0.96281">
        <ele>138</ele>
        <time>2012-10-21T07:57:08Z</time>
      </trkpt>
      <trkpt lat="44.93023" lon="0.9628">
        <ele>138</ele>
        <time>2012-10-21T07:57:11Z</time>
      </trkpt>
      <trkpt lat="44.93021" lon="0.9628">
        <ele>138</ele>
        <time>2012-10-21T07:57:13Z</time>
      </trkpt>
      <trkpt lat="44.93017" lon="0.9628">
        <ele>138</ele>
        <time>2012-10-21T07:57:15Z</time>
      </trkpt>
      <trkpt lat="44.93013" lon="0.96281">
        <ele>138</ele>
        <time>2012-10-21T07:57:17Z</time>
      </trkpt>
      <trkpt lat="44.93007" lon="0.96282">
        <ele>138</ele>
        <time>2012-10-21T07:57:19Z</time>
      </trkpt>
      <trkpt lat="44.93001" lon="0.96284">
        <ele>138</ele>
        <time>2012-10-21T07:57:21Z</time>
      </trkpt>
      <trkpt lat="44.92994" lon="0.96287">
        <ele>138</ele>
        <time>2012-10-21T07:57:23Z</time>
      </trkpt>
      <trkpt lat="44.92986" lon="0.96289">
        <ele>138</ele>
        <time>2012-10-21T07:57:25Z</time>
      </trkpt>
      <trkpt lat="44.92978" lon="0.96292">
        <ele>138</ele>
        <time>2012-10-21T07:57:27Z</time>
      </trkpt>
      <trkpt lat="44.9297" lon="0.96295">
        <ele>138</ele>
        <time>2012-10-21T07:57:29Z</time>
      </trkpt>
      <trkpt lat="44.92962" lon="0.96299">
        <ele>138</ele>
        <time>2012-10-21T07:57:31Z</time>
      </trkpt>
      <trkpt lat="44.92954" lon="0.96302">
        <ele>138</ele>
        <time>2012-10-21T07:57:33Z</time>
      </trkpt>
      <trkpt lat="44.92945" lon="0.96304">
        <ele>138</ele>
        <time>2012-10-21T07:57:35Z</time>
      </trkpt>
      <trkpt lat="44.92936" lon="0.96307">
        <ele>138</ele>
        <time>2012-10-21T07:57:37Z</time>
      </trkpt>
      <trkpt lat="44.92927" lon="0.9631">
        <ele>138</ele>
        <time>2012-10-21T07:57:39Z</time>
      </trkpt>
      <trkpt lat="44.92917" lon="0.96313">
        <ele>138</ele>
        <time>2012-10-21T07:57:41Z</time>
      </trkpt>
      <trkpt lat="44.92908" lon="0.96316">
        <ele>138</ele>
        <time>2012-10-21T07:57:43Z</time>
      </trkpt>
      <trkpt lat="44.92901" lon="0.96318">
        <ele>138</ele>
        <time>2012-10-21T07:57:45Z</time>
      </trkpt>
      <trkpt lat="44.92892" lon="0.9632">
        <ele>138</ele>
        <time>2012-10-21T07:57:47Z</time>
      </trkpt>
      <trkpt lat="44.92883" lon="0.96323">
        <ele>138</ele>
        <time>2012-10-21T07:57:49Z</time>
      </trkpt>
      <trkpt lat="44.92874" lon="0.96325">
        <ele>138</ele>
        <time>2012-10-21T07:57:51Z</time>
      </trkpt>
      <trkpt lat="44.92864" lon="0.96328">
        <ele>138</ele>
        <time>2012-10-21T07:57:53Z</time>
      </trkpt>
      <trkpt lat="44.92855" lon="0.96331">
        <ele>138</ele>
        <time>2012-10-21T07:57:55Z</time>
      </trkpt>
      <trkpt lat="44.92846" lon="0.96335">
        <ele>138</ele>
        <time>2012-10-21T07:57:57Z</time>
      </trkpt>
      <trkpt lat="44.92836" lon="0.96338">
        <ele>138</ele>
        <time>2012-10-21T07:57:59Z</time>
      </trkpt>
      <trkpt lat="44.92826" lon="0.96342">
        <ele>138</ele>
        <time>2012-10-21T07:58:01Z</time>
      </trkpt>
      <trkpt lat="44.92817" lon="0.96347">
        <ele>138</ele>
        <time>2012-10-21T07:58:03Z</time>
      </trkpt>
      <trkpt lat="44.92807" lon="0.96352">
        <ele>138</ele>
        <time>2012-10-21T07:58:05Z</time>
      </trkpt>
      <trkpt lat="44.92798" lon="0.96358">
        <ele>138</ele>
        <time>2012-10-21T07:58:07Z</time>
      </trkpt>
      <trkpt lat="44.92789" lon="0.96367">
        <ele>138</ele>
        <time>2012-10-21T07:58:09Z</time>
      </trkpt>
      <trkpt lat="44.92781" lon="0.96377">
        <ele>138</ele>
        <time>2012-10-21T07:58:11Z</time>
      </trkpt>
      <trkpt lat="44.92772" lon="0.96386">
        <ele>138</ele>
        <time>2012-10-21T07:58:13Z</time>
      </trkpt>
      <trkpt lat="44.92763" lon="0.96395">
        <ele>138</ele>
        <time>2012-10-21T07:58:15Z</time>
      </trkpt>
      <trkpt lat="44.92754" lon="0.96404">
        <ele>138</ele>
        <time>2012-10-21T07:58:17Z</time>
      </trkpt>
      <trkpt lat="44.92745" lon="0.96414">
        <ele>138</ele>
        <time>2012-10-21T07:58:19Z</time>
      </trkpt>
      <trkpt lat="44.92734" lon="0.96428">
        <ele>138</ele>
        <time>2012-10-21T07:58:21Z</time>
      </trkpt>
      <trkpt lat="44.92721" lon="0.96441">
        <ele>138</ele>
        <time>2012-10-21T07:58:23Z</time>
      </trkpt>
      <trkpt lat="44.9271" lon="0.96455">
        <ele>138</ele>
        <time>2012-10-21T07:58:25Z</time>
      </trkpt>
      <trkpt lat="44.927" lon="0.96468">
        <ele>138</ele>
        <time>2012-10-21T07:58:27Z</time>
      </trkpt>
      <trkpt lat="44.92688" lon="0.96486">
        <ele>138</ele>
        <time>2012-10-21T07:58:30Z</time>
      </trkpt>
      <trkpt lat="44.92681" lon="0.96495">
        <ele>138</ele>
        <time>2012-10-21T07:58:32Z</time>
      </trkpt>
      <trkpt lat="44.92674" lon="0.96503">
        <ele>138</ele>
        <time>2012-10-21T07:58:34Z</time>
      </trkpt>
      <trkpt lat="44.92668" lon="0.96512">
        <ele>138</ele>
        <time>2012-10-21T07:58:36Z</time>
      </trkpt>
      <trkpt lat="44.92662" lon="0.96522">
        <ele>138</ele>
        <time>2012-10-21T07:58:38Z</time>
      </trkpt>
      <trkpt lat="44.92659" lon="0.96531">
        <ele>138</ele>
        <time>2012-10-21T07:58:40Z</time>
      </trkpt>
      <trkpt lat="44.92656" lon="0.9654">
        <ele>140</ele>
        <time>2012-10-21T07:58:42Z</time>
      </trkpt>
      <trkpt lat="44.92651" lon="0.96548">
        <ele>141</ele>
        <time>2012-10-21T07:58:44Z</time>
      </trkpt>
      <trkpt lat="44.92646" lon="0.96557">
        <ele>142</ele>
        <time>2012-10-21T07:58:46Z</time>
      </trkpt>
      <trkpt lat="44.9264" lon="0.96567">
        <ele>143</ele>
        <time>2012-10-21T07:58:48Z</time>
      </trkpt>
      <trkpt lat="44.92635" lon="0.96578">
        <ele>144</ele>
        <time>2012-10-21T07:58:50Z</time>
      </trkpt>
      <trkpt lat="44.9263" lon="0.96591">
        <ele>144</ele>
        <time>2012-10-21T07:58:52Z</time>
      </trkpt>
      <trkpt lat="44.92628" lon="0.96606">
        <ele>144</ele>
        <time>2012-10-21T07:58:54Z</time>
      </trkpt>
      <trkpt lat="44.92629" lon="0.96622">
        <ele>144</ele>
        <time>2012-10-21T07:58:56Z</time>
      </trkpt>
      <trkpt lat="44.9263" lon="0.96639">
        <ele>144</ele>
        <time>2012-10-21T07:58:58Z</time>
      </trkpt>
      <trkpt lat="44.9263" lon="0.96655">
        <ele>144</ele>
        <time>2012-10-21T07:59:00Z</time>
      </trkpt>
      <trkpt lat="44.92627" lon="0.96668">
        <ele>144</ele>
        <time>2012-10-21T07:59:02Z</time>
      </trkpt>
      <trkpt lat="44.92624" lon="0.96679">
        <ele>144</ele>
        <time>2012-10-21T07:59:04Z</time>
      </trkpt>
      <trkpt lat="44.92618" lon="0.96684">
        <ele>144</ele>
        <time>2012-10-21T07:59:06Z</time>
      </trkpt>
      <trkpt lat="44.92609" lon="0.96685">
        <ele>142</ele>
        <time>2012-10-21T07:59:08Z</time>
      </trkpt>
      <trkpt lat="44.92598" lon="0.96683">
        <ele>141</ele>
        <time>2012-10-21T07:59:10Z</time>
      </trkpt>
      <trkpt lat="44.92587" lon="0.96679">
        <ele>140</ele>
        <time>2012-10-21T07:59:12Z</time>
      </trkpt>
      <trkpt lat="44.92576" lon="0.96672">
        <ele>138</ele>
        <time>2012-10-21T07:59:14Z</time>
      </trkpt>
      <trkpt lat="44.92564" lon="0.96664">
        <ele>137</ele>
        <time>2012-10-21T07:59:16Z</time>
      </trkpt>
      <trkpt lat="44.92553" lon="0.96655">
        <ele>135</ele>
        <time>2012-10-21T07:59:18Z</time>
      </trkpt>
      <trkpt lat="44.92543" lon="0.96647">
        <ele>133</ele>
        <time>2012-10-21T07:59:20Z</time>
      </trkpt>
      <trkpt lat="44.92533" lon="0.96642">
        <ele>132</ele>
        <time>2012-10-21T07:59:22Z</time>
      </trkpt>
      <trkpt lat="44.92525" lon="0.96637">
        <ele>130</ele>
        <time>2012-10-21T07:59:24Z</time>
      </trkpt>
      <trkpt lat="44.92518" lon="0.96636">
        <ele>129</ele>
        <time>2012-10-21T07:59:26Z</time>
      </trkpt>
      <trkpt lat="44.92514" lon="0.96639">
        <ele>127</ele>
        <time>2012-10-21T07:59:28Z</time>
      </trkpt>
      <trkpt lat="44.92514" lon="0.96644">
        <ele>125</ele>
        <time>2012-10-21T07:59:30Z</time>
      </trkpt>
      <trkpt lat="44.92521" lon="0.96652">
        <ele>123</ele>
        <time>2012-10-21T07:59:32Z</time>
      </trkpt>
      <trkpt lat="44.92527" lon="0.96661">
        <ele>122</ele>
        <time>2012-10-21T07:59:34Z</time>
      </trkpt>
      <trkpt lat="44.92533" lon="0.96668">
        <ele>121</ele>
        <time>2012-10-21T07:59:36Z</time>
      </trkpt>
      <trkpt lat="44.92538" lon="0.96681">
        <ele>121</ele>
        <time>2012-10-21T07:59:39Z</time>
      </trkpt>
      <trkpt lat="44.92528" lon="0.96686">
        <ele>121</ele>
        <time>2012-10-21T07:59:42Z</time>
      </trkpt>
      <trkpt lat="44.92515" lon="0.96676">
        <ele>119</ele>
        <time>2012-10-21T07:59:45Z</time>
      </trkpt>
      <trkpt lat="44.92505" lon="0.9667">
        <ele>117</ele>
        <time>2012-10-21T07:59:47Z</time>
      </trkpt>
      <trkpt lat="44.92487" lon="0.96663">
        <ele>114</ele>
        <time>2012-10-21T07:59:50Z</time>
      </trkpt>
      <trkpt lat="44.92474" lon="0.96662">
        <ele>112</ele>
        <time>2012-10-21T07:59:52Z</time>
      </trkpt>
      <trkpt lat="44.92457" lon="0.96661">
        <ele>110</ele>
        <time>2012-10-21T07:59:55Z</time>
      </trkpt>
      <trkpt lat="44.92446" lon="0.96657">
        <ele>110</ele>
        <time>2012-10-21T07:59:57Z</time>
      </trkpt>
      <trkpt lat="44.92434" lon="0.96642">
        <ele>108</ele>
        <time>2012-10-21T08:00:00Z</time>
      </trkpt>
      <trkpt lat="44.92427" lon="0.96626">
        <ele>106</ele>
        <time>2012-10-21T08:00:02Z</time>
      </trkpt>
      <trkpt lat="44.92414" lon="0.96604">
        <ele>105</ele>
        <time>2012-10-21T08:00:05Z</time>
      </trkpt>
      <trkpt lat="44.92404" lon="0.96592">
        <ele>103</ele>
        <time>2012-10-21T08:00:07Z</time>
      </trkpt>
      <trkpt lat="44.92396" lon="0.96583">
        <ele>102</ele>
        <time>2012-10-21T08:00:09Z</time>
      </trkpt>
      <trkpt lat="44.92387" lon="0.96576">
        <ele>101</ele>
        <time>2012-10-21T08:00:11Z</time>
      </trkpt>
      <trkpt lat="44.92379" lon="0.96568">
        <ele>99</ele>
        <time>2012-10-21T08:00:13Z</time>
      </trkpt>
      <trkpt lat="44.92368" lon="0.96558">
        <ele>97</ele>
        <time>2012-10-21T08:00:15Z</time>
      </trkpt>
      <trkpt lat="44.92354" lon="0.96547">
        <ele>95</ele>
        <time>2012-10-21T08:00:17Z</time>
      </trkpt>
      <trkpt lat="44.92329" lon="0.96543">
        <ele>92</ele>
        <time>2012-10-21T08:00:20Z</time>
      </trkpt>
      <trkpt lat="44.92315" lon="0.96539">
        <ele>90</ele>
        <time>2012-10-21T08:00:22Z</time>
      </trkpt>
      <trkpt lat="44.92302" lon="0.96531">
        <ele>88</ele>
        <time>2012-10-21T08:00:24Z</time>
      </trkpt>
      <trkpt lat="44.92286" lon="0.96521">
        <ele>86</ele>
        <time>2012-10-21T08:00:26Z</time>
      </trkpt>
      <trkpt lat="44.92273" lon="0.96512">
        <ele>84</ele>
        <time>2012-10-21T08:00:28Z</time>
      </trkpt>
      <trkpt lat="44.92261" lon="0.96504">
        <ele>83</ele>
        <time>2012-10-21T08:00:30Z</time>
      </trkpt>
      <trkpt lat="44.92247" lon="0.96495">
        <ele>81</ele>
        <time>2012-10-21T08:00:32Z</time>
      </trkpt>
      <trkpt lat="44.92225" lon="0.96476">
        <ele>80</ele>
        <time>2012-10-21T08:00:35Z</time>
      </trkpt>
      <trkpt lat="44.9221" lon="0.96461">
        <ele>79</ele>
        <time>2012-10-21T08:00:37Z</time>
      </trkpt>
      <trkpt lat="44.92188" lon="0.96437">
        <ele>76</ele>
        <time>2012-10-21T08:00:40Z</time>
      </trkpt>
      <trkpt lat="44.92174" lon="0.96418">
        <ele>74</ele>
        <time>2012-10-21T08:00:42Z</time>
      </trkpt>
      <trkpt lat="44.92159" lon="0.96401">
        <ele>72</ele>
        <time>2012-10-21T08:00:44Z</time>
      </trkpt>
      <trkpt lat="44.92143" lon="0.96384">
        <ele>70</ele>
        <time>2012-10-21T08:00:46Z</time>
      </trkpt>
      <trkpt lat="44.92129" lon="0.96366">
        <ele>68</ele>
        <time>2012-10-21T08:00:48Z</time>
      </trkpt>
      <trkpt lat="44.92116" lon="0.96348">
        <ele>66</ele>
        <time>2012-10-21T08:00:50Z</time>
      </trkpt>
      <trkpt lat="44.92104" lon="0.96331">
        <ele>64</ele>
        <time>2012-10-21T08:00:52Z</time>
      </trkpt>
      <trkpt lat="44.92085" lon="0.96303">
        <ele>61</ele>
        <time>2012-10-21T08:00:55Z</time>
      </trkpt>
      <trkpt lat="44.92072" lon="0.96285">
        <ele>59</ele>
        <time>2012-10-21T08:00:57Z</time>
      </trkpt>
      <trkpt lat="44.92055" lon="0.9626">
        <ele>56</ele>
        <time>2012-10-21T08:01:00Z</time>
      </trkpt>
      <trkpt lat="44.92044" lon="0.96244">
        <ele>54</ele>
        <time>2012-10-21T08:01:02Z</time>
      </trkpt>
      <trkpt lat="44.92033" lon="0.9622">
        <ele>51</ele>
        <time>2012-10-21T08:01:05Z</time>
      </trkpt>
      <trkpt lat="44.92028" lon="0.96203">
        <ele>49</ele>
        <time>2012-10-21T08:01:07Z</time>
      </trkpt>
      <trkpt lat="44.92013" lon="0.96178">
        <ele>47</ele>
        <time>2012-10-21T08:01:10Z</time>
      </trkpt>
      <trkpt lat="44.92003" lon="0.96163">
        <ele>46</ele>
        <time>2012-10-21T08:01:12Z</time>
      </trkpt>
      <trkpt lat="44.9199" lon="0.96141">
        <ele>46</ele>
        <time>2012-10-21T08:01:15Z</time>
      </trkpt>
      <trkpt lat="44.91982" lon="0.96126">
        <ele>45</ele>
        <time>2012-10-21T08:01:17Z</time>
      </trkpt>
      <trkpt lat="44.91975" lon="0.96111">
        <ele>45</ele>
        <time>2012-10-21T08:01:19Z</time>
      </trkpt>
      <trkpt lat="44.9197" lon="0.96099">
        <ele>45</ele>
        <time>2012-10-21T08:01:21Z</time>
      </trkpt>
      <trkpt lat="44.91965" lon="0.9609">
        <ele>45</ele>
        <time>2012-10-21T08:01:23Z</time>
      </trkpt>
      <trkpt lat="44.91962" lon="0.96082">
        <ele>45</ele>
        <time>2012-10-21T08:01:25Z</time>
      </trkpt>
      <trkpt lat="44.91959" lon="0.96072">
        <ele>45</ele>
        <time>2012-10-21T08:01:27Z</time>
      </trkpt>
      <trkpt lat="44.91952" lon="0.96057">
        <ele>45</ele>
        <time>2012-10-21T08:01:30Z</time>
      </trkpt>
      <trkpt lat="44.91948" lon="0.96048">
        <ele>45</ele>
        <time>2012-10-21T08:01:32Z</time>
      </trkpt>
      <trkpt lat="44.9194" lon="0.96035">
        <ele>46</ele>
        <time>2012-10-21T08:01:35Z</time>
      </trkpt>
      <trkpt lat="44.91935" lon="0.96027">
        <ele>46</ele>
        <time>2012-10-21T08:01:37Z</time>
      </trkpt>
      <trkpt lat="44.91928" lon="0.96014">
        <ele>46</ele>
        <time>2012-10-21T08:01:40Z</time>
      </trkpt>
      <trkpt lat="44.91923" lon="0.96005">
        <ele>46</ele>
        <time>2012-10-21T08:01:42Z</time>
      </trkpt>
      <trkpt lat="44.91916" lon="0.95991">
        <ele>46</ele>
        <time>2012-10-21T08:01:45Z</time>
      </trkpt>
      <trkpt lat="44.91911" lon="0.95982">
        <ele>46</ele>
        <time>2012-10-21T08:01:47Z</time>
      </trkpt>
      <trkpt lat="44.91903" lon="0.95968">
        <ele>46</ele>
        <time>2012-10-21T08:01:50Z</time>
      </trkpt>
      <trkpt lat="44.91898" lon="0.95959">
        <ele>46</ele>
        <time>2012-10-21T08:01:52Z</time>
      </trkpt>
      <trkpt lat="44.91892" lon="0.95946">
        <ele>46</ele>
        <time>2012-10-21T08:01:55Z</time>
      </trkpt>
      <trkpt lat="44.91888" lon="0.95937">
        <ele>46</ele>
        <time>2012-10-21T08:01:57Z</time>
      </trkpt>
      <trkpt lat="44.9188" lon="0.95922">
        <ele>46</ele>
        <time>2012-10-21T08:02:00Z</time>
      </trkpt>
      <trkpt lat="44.91876" lon="0.95912">
        <ele>46</ele>
        <time>2012-10-21T08:02:02Z</time>
      </trkpt>
      <trkpt lat="44.91872" lon="0.95902">
        <ele>46</ele>
        <time>2012-10-21T08:02:04Z</time>
      </trkpt>
      <trkpt lat="44.91868" lon="0.95892">
        <ele>46</ele>
        <time>2012-10-21T08:02:06Z</time>
      </trkpt>
      <trkpt lat="44.91864" lon="0.95883">
        <ele>46</ele>
        <time>2012-10-21T08:02:08Z</time>
      </trkpt>
      <trkpt lat="44.9186" lon="0.95873">
        <ele>46</ele>
        <time>2012-10-21T08:02:10Z</time>
      </trkpt>
      <trkpt lat="44.91855" lon="0.95864">
        <ele>46</ele>
        <time>2012-10-21T08:02:12Z</time>
      </trkpt>
      <trkpt lat="44.91848" lon="0.9585">
        <ele>46</ele>
        <time>2012-10-21T08:02:15Z</time>
      </trkpt>
      <trkpt lat="44.91844" lon="0.95841">
        <ele>46</ele>
        <time>2012-10-21T08:02:17Z</time>
      </trkpt>
      <trkpt lat="44.91842" lon="0.95831">
        <ele>46</ele>
        <time>2012-10-21T08:02:19Z</time>
      </trkpt>
      <trkpt lat="44.91841" lon="0.95818">
        <ele>46</ele>
        <time>2012-10-21T08:02:22Z</time>
      </trkpt>
      <trkpt lat="44.9184" lon="0.95809">
        <ele>46</ele>
        <time>2012-10-21T08:02:24Z</time>
      </trkpt>
      <trkpt lat="44.9184" lon="0.958">
        <ele>46</ele>
        <time>2012-10-21T08:02:26Z</time>
      </trkpt>
      <trkpt lat="44.9184" lon="0.95793">
        <ele>46</ele>
        <time>2012-10-21T08:02:28Z</time>
      </trkpt>
      <trkpt lat="44.9184" lon="0.95781">
        <ele>46</ele>
        <time>2012-10-21T08:02:31Z</time>
      </trkpt>
      <trkpt lat="44.91839" lon="0.9577">
        <ele>47</ele>
        <time>2012-10-21T08:02:34Z</time>
      </trkpt>
      <trkpt lat="44.91838" lon="0.95763">
        <ele>49</ele>
        <time>2012-10-21T08:02:36Z</time>
      </trkpt>
      <trkpt lat="44.91838" lon="0.95754">
        <ele>52</ele>
        <time>2012-10-21T08:02:39Z</time>
      </trkpt>
      <trkpt lat="44.91838" lon="0.95746">
        <ele>53</ele>
        <time>2012-10-21T08:02:42Z</time>
      </trkpt>
      <trkpt lat="44.91838" lon="0.9574">
        <ele>54</ele>
        <time>2012-10-21T08:02:44Z</time>
      </trkpt>
      <trkpt lat="44.91838" lon="0.95735">
        <ele>55</ele>
        <time>2012-10-21T08:02:46Z</time>
      </trkpt>
      <trkpt lat="44.91838" lon="0.95731">
        <ele>56</ele>
        <time>2012-10-21T08:02:48Z</time>
      </trkpt>
      <trkpt lat="44.91838" lon="0.95727">
        <ele>57</ele>
        <time>2012-10-21T08:02:50Z</time>
      </trkpt>
      <trkpt lat="44.91839" lon="0.95719">
        <ele>58</ele>
        <time>2012-10-21T08:02:53Z</time>
      </trkpt>
      <trkpt lat="44.91839" lon="0.95713">
        <ele>59</ele>
        <time>2012-10-21T08:02:55Z</time>
      </trkpt>
      <trkpt lat="44.9184" lon="0.95704">
        <ele>60</ele>
        <time>2012-10-21T08:02:58Z</time>
      </trkpt>
      <trkpt lat="44.9184" lon="0.95698">
        <ele>60</ele>
        <time>2012-10-21T08:03:00Z</time>
      </trkpt>
      <trkpt lat="44.9184" lon="0.9569">
        <ele>61</ele>
        <time>2012-10-21T08:03:03Z</time>
      </trkpt>
      <trkpt lat="44.9184" lon="0.95684">
        <ele>62</ele>
        <time>2012-10-21T08:03:05Z</time>
      </trkpt>
      <trkpt lat="44.9184" lon="0.95677">
        <ele>63</ele>
        <time>2012-10-21T08:03:08Z</time>
      </trkpt>
      <trkpt lat="44.9184" lon="0.95673">
        <ele>64</ele>
        <time>2012-10-21T08:03:10Z</time>
      </trkpt>
      <trkpt lat="44.9184" lon="0.95668">
        <ele>65</ele>
        <time>2012-10-21T08:03:12Z</time>
      </trkpt>
      <trkpt lat="44.91841" lon="0.95661">
        <ele>65</ele>
        <time>2012-10-21T08:03:15Z</time>
      </trkpt>
      <trkpt lat="44.91841" lon="0.95655">
        <ele>66</ele>
        <time>2012-10-21T08:03:18Z</time>
      </trkpt>
      <trkpt lat="44.91841" lon="0.95651">
        <ele>66</ele>
        <time>2012-10-21T08:03:20Z</time>
      </trkpt>
      <trkpt lat="44.91841" lon="0.95645">
        <ele>66</ele>
        <time>2012-10-21T08:03:23Z</time>
      </trkpt>
      <trkpt lat="44.91842" lon="0.95641">
        <ele>66</ele>
        <time>2012-10-21T08:03:25Z</time>
      </trkpt>
      <trkpt lat="44.91842" lon="0.95635">
        <ele>66</ele>
        <time>2012-10-21T08:03:28Z</time>
      </trkpt>
      <trkpt lat="44.91842" lon="0.95628">
        <ele>66</ele>
        <time>2012-10-21T08:03:31Z</time>
      </trkpt>
      <trkpt lat="44.91842" lon="0.95622">
        <ele>67</ele>
        <time>2012-10-21T08:03:34Z</time>
      </trkpt>
      <trkpt lat="44.91843" lon="0.95618">
        <ele>68</ele>
        <time>2012-10-21T08:03:36Z</time>
      </trkpt>
      <trkpt lat="44.91843" lon="0.95613">
        <ele>69</ele>
        <time>2012-10-21T08:03:39Z</time>
      </trkpt>
      <trkpt lat="44.91843" lon="0.95608">
        <ele>70</ele>
        <time>2012-10-21T08:03:41Z</time>
      </trkpt>
      <trkpt lat="44.91841" lon="0.95604">
        <ele>70</ele>
        <time>2012-10-21T08:03:44Z</time>
      </trkpt>
      <trkpt lat="44.91837" lon="0.95601">
        <ele>71</ele>
        <time>2012-10-21T08:03:47Z</time>
      </trkpt>
      <trkpt lat="44.91833" lon="0.956">
        <ele>72</ele>
        <time>2012-10-21T08:03:49Z</time>
      </trkpt>
      <trkpt lat="44.9183" lon="0.95598">
        <ele>73</ele>
        <time>2012-10-21T08:03:51Z</time>
      </trkpt>
      <trkpt lat="44.91827" lon="0.95597">
        <ele>73</ele>
        <time>2012-10-21T08:03:53Z</time>
      </trkpt>
      <trkpt lat="44.91823" lon="0.95595">
        <ele>74</ele>
        <time>2012-10-21T08:03:55Z</time>
      </trkpt>
      <trkpt lat="44.9182" lon="0.95592">
        <ele>74</ele>
        <time>2012-10-21T08:03:57Z</time>
      </trkpt>
      <trkpt lat="44.91818" lon="0.95589">
        <ele>74</ele>
        <time>2012-10-21T08:03:59Z</time>
      </trkpt>
      <trkpt lat="44.91814" lon="0.95585">
        <ele>74</ele>
        <time>2012-10-21T08:04:02Z</time>
      </trkpt>
      <trkpt lat="44.91812" lon="0.95583">
        <ele>74</ele>
        <time>2012-10-21T08:04:04Z</time>
      </trkpt>
      <trkpt lat="44.91808" lon="0.95579">
        <ele>74</ele>
        <time>2012-10-21T08:04:07Z</time>
      </trkpt>
      <trkpt lat="44.91805" lon="0.95577">
        <ele>74</ele>
        <time>2012-10-21T08:04:09Z</time>
      </trkpt>
      <trkpt lat="44.91802" lon="0.95575">
        <ele>74</ele>
        <time>2012-10-21T08:04:11Z</time>
      </trkpt>
      <trkpt lat="44.91797" lon="0.95572">
        <ele>74</ele>
        <time>2012-10-21T08:04:14Z</time>
      </trkpt>
      <trkpt lat="44.91794" lon="0.95571">
        <ele>74</ele>
        <time>2012-10-21T08:04:16Z</time>
      </trkpt>
      <trkpt lat="44.91791" lon="0.9557">
        <ele>74</ele>
        <time>2012-10-21T08:04:18Z</time>
      </trkpt>
      <trkpt lat="44.91788" lon="0.9557">
        <ele>74</ele>
        <time>2012-10-21T08:04:20Z</time>
      </trkpt>
      <trkpt lat="44.91783" lon="0.95569">
        <ele>75</ele>
        <time>2012-10-21T08:04:23Z</time>
      </trkpt>
      <trkpt lat="44.91779" lon="0.95568">
        <ele>75</ele>
        <time>2012-10-21T08:04:25Z</time>
      </trkpt>
      <trkpt lat="44.91774" lon="0.95567">
        <ele>76</ele>
        <time>2012-10-21T08:04:28Z</time>
      </trkpt>
      <trkpt lat="44.91771" lon="0.95566">
        <ele>76</ele>
        <time>2012-10-21T08:04:30Z</time>
      </trkpt>
      <trkpt lat="44.91766" lon="0.95565">
        <ele>76</ele>
        <time>2012-10-21T08:04:33Z</time>
      </trkpt>
      <trkpt lat="44.91762" lon="0.95565">
        <ele>76</ele>
        <time>2012-10-21T08:04:35Z</time>
      </trkpt>
      <trkpt lat="44.91756" lon="0.95564">
        <ele>77</ele>
        <time>2012-10-21T08:04:38Z</time>
      </trkpt>
      <trkpt lat="44.91753" lon="0.95563">
        <ele>77</ele>
        <time>2012-10-21T08:04:40Z</time>
      </trkpt>
      <trkpt lat="44.91749" lon="0.95562">
        <ele>77</ele>
        <time>2012-10-21T08:04:42Z</time>
      </trkpt>
      <trkpt lat="44.91744" lon="0.95562">
        <ele>77</ele>
        <time>2012-10-21T08:04:45Z</time>
      </trkpt>
      <trkpt lat="44.9174" lon="0.95561">
        <ele>78</ele>
        <time>2012-10-21T08:04:47Z</time>
      </trkpt>
      <trkpt lat="44.91737" lon="0.95561">
        <ele>78</ele>
        <time>2012-10-21T08:04:49Z</time>
      </trkpt>
      <trkpt lat="44.91732" lon="0.9556">
        <ele>79</ele>
        <time>2012-10-21T08:04:52Z</time>
      </trkpt>
      <trkpt lat="44.91728" lon="0.9556">
        <ele>79</ele>
        <time>2012-10-21T08:04:54Z</time>
      </trkpt>
      <trkpt lat="44.91724" lon="0.95559">
        <ele>80</ele>
        <time>2012-10-21T08:04:56Z</time>
      </trkpt>
      <trkpt lat="44.91719" lon="0.95559">
        <ele>80</ele>
        <time>2012-10-21T08:04:59Z</time>
      </trkpt>
      <trkpt lat="44.91716" lon="0.95559">
        <ele>80</ele>
        <time>2012-10-21T08:05:01Z</time>
      </trkpt>
      <trkpt lat="44.91713" lon="0.95558">
        <ele>80</ele>
        <time>2012-10-21T08:05:03Z</time>
      </trkpt>
      <trkpt lat="44.91709" lon="0.95557">
        <ele>81</ele>
        <time>2012-10-21T08:05:06Z</time>
      </trkpt>
      <trkpt lat="44.91705" lon="0.95557">
        <ele>81</ele>
        <time>2012-10-21T08:05:09Z</time>
      </trkpt>
      <trkpt lat="44.91703" lon="0.95555">
        <ele>82</ele>
        <time>2012-10-21T08:05:11Z</time>
      </trkpt>
      <trkpt lat="44.91701" lon="0.9555">
        <ele>82</ele>
        <time>2012-10-21T08:05:14Z</time>
      </trkpt>
      <trkpt lat="44.91704" lon="0.95544">
        <ele>83</ele>
        <time>2012-10-21T08:05:17Z</time>
      </trkpt>
      <trkpt lat="44.91708" lon="0.9554">
        <ele>85</ele>
        <time>2012-10-21T08:05:20Z</time>
      </trkpt>
      <trkpt lat="44.91711" lon="0.95538">
        <ele>87</ele>
        <time>2012-10-21T08:05:22Z</time>
      </trkpt>
      <trkpt lat="44.91714" lon="0.95533">
        <ele>89</ele>
        <time>2012-10-21T08:05:25Z</time>
      </trkpt>
      <trkpt lat="44.91717" lon="0.95529">
        <ele>91</ele>
        <time>2012-10-21T08:05:27Z</time>
      </trkpt>
      <trkpt lat="44.91721" lon="0.95523">
        <ele>92</ele>
        <time>2012-10-21T08:05:30Z</time>
      </trkpt>
      <trkpt lat="44.91723" lon="0.95518">
        <ele>92</ele>
        <time>2012-10-21T08:05:32Z</time>
      </trkpt>
      <trkpt lat="44.91726" lon="0.95515">
        <ele>93</ele>
        <time>2012-10-21T08:05:34Z</time>
      </trkpt>
      <trkpt lat="44.9173" lon="0.95508">
        <ele>93</ele>
        <time>2012-10-21T08:05:37Z</time>
      </trkpt>
      <trkpt lat="44.91733" lon="0.95504">
        <ele>93</ele>
        <time>2012-10-21T08:05:39Z</time>
      </trkpt>
      <trkpt lat="44.91735" lon="0.95501">
        <ele>93</ele>
        <time>2012-10-21T08:05:41Z</time>
      </trkpt>
      <trkpt lat="44.91738" lon="0.95497">
        <ele>93</ele>
        <time>2012-10-21T08:05:43Z</time>
      </trkpt>
      <trkpt lat="44.91741" lon="0.95493">
        <ele>93</ele>
        <time>2012-10-21T08:05:46Z</time>
      </trkpt>
      <trkpt lat="44.91743" lon="0.9549">
        <ele>93</ele>
        <time>2012-10-21T08:05:48Z</time>
      </trkpt>
      <trkpt lat="44.91745" lon="0.95487">
        <ele>93</ele>
        <time>2012-10-21T08:05:50Z</time>
      </trkpt>
      <trkpt lat="44.91748" lon="0.95484">
        <ele>93</ele>
        <time>2012-10-21T08:05:52Z</time>
      </trkpt>
      <trkpt lat="44.9175" lon="0.95481">
        <ele>93</ele>
        <time>2012-10-21T08:05:54Z</time>
      </trkpt>
      <trkpt lat="44.91752" lon="0.95477">
        <ele>93</ele>
        <time>2012-10-21T08:05:56Z</time>
      </trkpt>
      <trkpt lat="44.91754" lon="0.95475">
        <ele>93</ele>
        <time>2012-10-21T08:05:58Z</time>
      </trkpt>
      <trkpt lat="44.91757" lon="0.9547">
        <ele>94</ele>
        <time>2012-10-21T08:06:01Z</time>
      </trkpt>
      <trkpt lat="44.91759" lon="0.95467">
        <ele>94</ele>
        <time>2012-10-21T08:06:03Z</time>
      </trkpt>
      <trkpt lat="44.9176" lon="0.95464">
        <ele>95</ele>
        <time>2012-10-21T08:06:05Z</time>
      </trkpt>
      <trkpt lat="44.91761" lon="0.9546">
        <ele>96</ele>
        <time>2012-10-21T08:06:07Z</time>
      </trkpt>
      <trkpt lat="44.91762" lon="0.95457">
        <ele>97</ele>
        <time>2012-10-21T08:06:09Z</time>
      </trkpt>
      <trkpt lat="44.91763" lon="0.95454">
        <ele>98</ele>
        <time>2012-10-21T08:06:11Z</time>
      </trkpt>
      <trkpt lat="44.91763" lon="0.95451">
        <ele>99</ele>
        <time>2012-10-21T08:06:13Z</time>
      </trkpt>
      <trkpt lat="44.91764" lon="0.95447">
        <ele>100</ele>
        <time>2012-10-21T08:06:16Z</time>
      </trkpt>
      <trkpt lat="44.91764" lon="0.95442">
        <ele>101</ele>
        <time>2012-10-21T08:06:19Z</time>
      </trkpt>
      <trkpt lat="44.91763" lon="0.95436">
        <ele>101</ele>
        <time>2012-10-21T08:06:22Z</time>
      </trkpt>
      <trkpt lat="44.91761" lon="0.95431">
        <ele>101</ele>
        <time>2012-10-21T08:06:24Z</time>
      </trkpt>
      <trkpt lat="44.91761" lon="0.95425">
        <ele>101</ele>
        <time>2012-10-21T08:06:26Z</time>
      </trkpt>
      <trkpt lat="44.9176" lon="0.9542">
        <ele>101</ele>
        <time>2012-10-21T08:06:28Z</time>
      </trkpt>
      <trkpt lat="44.9176" lon="0.95416">
        <ele>101</ele>
        <time>2012-10-21T08:06:30Z</time>
      </trkpt>
      <trkpt lat="44.91758" lon="0.95409">
        <ele>101</ele>
        <time>2012-10-21T08:06:33Z</time>
      </trkpt>
      <trkpt lat="44.91755" lon="0.95404">
        <ele>99</ele>
        <time>2012-10-21T08:06:35Z</time>
      </trkpt>
      <trkpt lat="44.91752" lon="0.95398">
        <ele>97</ele>
        <time>2012-10-21T08:06:38Z</time>
      </trkpt>
      <trkpt lat="44.91749" lon="0.95394">
        <ele>96</ele>
        <time>2012-10-21T08:06:40Z</time>
      </trkpt>
      <trkpt lat="44.91746" lon="0.95389">
        <ele>94</ele>
        <time>2012-10-21T08:06:43Z</time>
      </trkpt>
      <trkpt lat="44.91741" lon="0.95387">
        <ele>92</ele>
        <time>2012-10-21T08:06:46Z</time>
      </trkpt>
      <trkpt lat="44.91737" lon="0.95387">
        <ele>92</ele>
        <time>2012-10-21T08:06:48Z</time>
      </trkpt>
      <trkpt lat="44.91734" lon="0.95386">
        <ele>92</ele>
        <time>2012-10-21T08:06:50Z</time>
      </trkpt>
      <trkpt lat="44.91728" lon="0.95387">
        <ele>92</ele>
        <time>2012-10-21T08:06:52Z</time>
      </trkpt>
      <trkpt lat="44.91723" lon="0.95389">
        <ele>94</ele>
        <time>2012-10-21T08:06:54Z</time>
      </trkpt>
      <trkpt lat="44.91718" lon="0.95391">
        <ele>96</ele>
        <time>2012-10-21T08:06:56Z</time>
      </trkpt>
      <trkpt lat="44.91713" lon="0.95393">
        <ele>98</ele>
        <time>2012-10-21T08:06:58Z</time>
      </trkpt>
      <trkpt lat="44.91707" lon="0.95395">
        <ele>100</ele>
        <time>2012-10-21T08:07:00Z</time>
      </trkpt>
      <trkpt lat="44.91701" lon="0.95398">
        <ele>102</ele>
        <time>2012-10-21T08:07:02Z</time>
      </trkpt>
      <trkpt lat="44.91696" lon="0.95399">
        <ele>103</ele>
        <time>2012-10-21T08:07:04Z</time>
      </trkpt>
      <trkpt lat="44.91692" lon="0.95401">
        <ele>104</ele>
        <time>2012-10-21T08:07:06Z</time>
      </trkpt>
      <trkpt lat="44.91688" lon="0.95403">
        <ele>105</ele>
        <time>2012-10-21T08:07:08Z</time>
      </trkpt>
      <trkpt lat="44.91683" lon="0.95407">
        <ele>106</ele>
        <time>2012-10-21T08:07:10Z</time>
      </trkpt>
      <trkpt lat="44.91678" lon="0.95408">
        <ele>107</ele>
        <time>2012-10-21T08:07:12Z</time>
      </trkpt>
      <trkpt lat="44.91669" lon="0.95411">
        <ele>107</ele>
        <time>2012-10-21T08:07:15Z</time>
      </trkpt>
      <trkpt lat="44.91663" lon="0.95415">
        <ele>107</ele>
        <time>2012-10-21T08:07:17Z</time>
      </trkpt>
      <trkpt lat="44.91658" lon="0.95418">
        <ele>107</ele>
        <time>2012-10-21T08:07:19Z</time>
      </trkpt>
      <trkpt lat="44.91654" lon="0.9542">
        <ele>108</ele>
        <time>2012-10-21T08:07:21Z</time>
      </trkpt>
      <trkpt lat="44.91648" lon="0.95423">
        <ele>108</ele>
        <time>2012-10-21T08:07:24Z</time>
      </trkpt>
      <trkpt lat="44.91641" lon="0.95427">
        <ele>109</ele>
        <time>2012-10-21T08:07:27Z</time>
      </trkpt>
      <trkpt lat="44.91635" lon="0.9543">
        <ele>109</ele>
        <time>2012-10-21T08:07:29Z</time>
      </trkpt>
      <trkpt lat="44.91628" lon="0.95433">
        <ele>109</ele>
        <time>2012-10-21T08:07:31Z</time>
      </trkpt>
      <trkpt lat="44.91624" lon="0.95434">
        <ele>109</ele>
        <time>2012-10-21T08:07:33Z</time>
      </trkpt>
      <trkpt lat="44.91618" lon="0.95437">
        <ele>110</ele>
        <time>2012-10-21T08:07:35Z</time>
      </trkpt>
      <trkpt lat="44.91613" lon="0.95438">
        <ele>110</ele>
        <time>2012-10-21T08:07:37Z</time>
      </trkpt>
      <trkpt lat="44.91607" lon="0.9544">
        <ele>111</ele>
        <time>2012-10-21T08:07:39Z</time>
      </trkpt>
      <trkpt lat="44.91601" lon="0.95441">
        <ele>111</ele>
        <time>2012-10-21T08:07:41Z</time>
      </trkpt>
      <trkpt lat="44.91594" lon="0.9544">
        <ele>111</ele>
        <time>2012-10-21T08:07:44Z</time>
      </trkpt>
      <trkpt lat="44.91585" lon="0.9544">
        <ele>111</ele>
        <time>2012-10-21T08:07:47Z</time>
      </trkpt>
      <trkpt lat="44.91581" lon="0.95439">
        <ele>111</ele>
        <time>2012-10-21T08:07:49Z</time>
      </trkpt>
      <trkpt lat="44.91576" lon="0.95438">
        <ele>111</ele>
        <time>2012-10-21T08:07:51Z</time>
      </trkpt>
      <trkpt lat="44.9157" lon="0.95438">
        <ele>111</ele>
        <time>2012-10-21T08:07:53Z</time>
      </trkpt>
      <trkpt lat="44.91565" lon="0.95439">
        <ele>111</ele>
        <time>2012-10-21T08:07:55Z</time>
      </trkpt>
      <trkpt lat="44.91559" lon="0.95438">
        <ele>111</ele>
        <time>2012-10-21T08:07:57Z</time>
      </trkpt>
      <trkpt lat="44.91552" lon="0.95436">
        <ele>111</ele>
        <time>2012-10-21T08:08:00Z</time>
      </trkpt>
      <trkpt lat="44.91547" lon="0.95435">
        <ele>111</ele>
        <time>2012-10-21T08:08:02Z</time>
      </trkpt>
      <trkpt lat="44.91542" lon="0.95435">
        <ele>111</ele>
        <time>2012-10-21T08:08:04Z</time>
      </trkpt>
      <trkpt lat="44.91538" lon="0.95433">
        <ele>111</ele>
        <time>2012-10-21T08:08:06Z</time>
      </trkpt>
      <trkpt lat="44.91534" lon="0.95433">
        <ele>111</ele>
        <time>2012-10-21T08:08:08Z</time>
      </trkpt>
      <trkpt lat="44.9153" lon="0.95432">
        <ele>111</ele>
        <time>2012-10-21T08:08:10Z</time>
      </trkpt>
      <trkpt lat="44.91525" lon="0.9543">
        <ele>111</ele>
        <time>2012-10-21T08:08:12Z</time>
      </trkpt>
      <trkpt lat="44.91519" lon="0.95428">
        <ele>111</ele>
        <time>2012-10-21T08:08:14Z</time>
      </trkpt>
      <trkpt lat="44.91515" lon="0.95426">
        <ele>111</ele>
        <time>2012-10-21T08:08:16Z</time>
      </trkpt>
      <trkpt lat="44.91511" lon="0.95424">
        <ele>111</ele>
        <time>2012-10-21T08:08:18Z</time>
      </trkpt>
      <trkpt lat="44.91507" lon="0.95422">
        <ele>111</ele>
        <time>2012-10-21T08:08:20Z</time>
      </trkpt>
      <trkpt lat="44.91503" lon="0.95419">
        <ele>111</ele>
        <time>2012-10-21T08:08:22Z</time>
      </trkpt>
      <trkpt lat="44.91499" lon="0.95416">
        <ele>111</ele>
        <time>2012-10-21T08:08:24Z</time>
      </trkpt>
      <trkpt lat="44.91497" lon="0.95414">
        <ele>111</ele>
        <time>2012-10-21T08:08:26Z</time>
      </trkpt>
      <trkpt lat="44.91495" lon="0.9541">
        <ele>111</ele>
        <time>2012-10-21T08:08:29Z</time>
      </trkpt>
      <trkpt lat="44.91491" lon="0.95405">
        <ele>111</ele>
        <time>2012-10-21T08:08:33Z</time>
      </trkpt>
      <trkpt lat="44.91488" lon="0.95403">
        <ele>111</ele>
        <time>2012-10-21T08:08:35Z</time>
      </trkpt>
      <trkpt lat="44.91485" lon="0.954">
        <ele>111</ele>
        <time>2012-10-21T08:08:37Z</time>
      </trkpt>
      <trkpt lat="44.91483" lon="0.95397">
        <ele>111</ele>
        <time>2012-10-21T08:08:39Z</time>
      </trkpt>
      <trkpt lat="44.9148" lon="0.95393">
        <ele>111</ele>
        <time>2012-10-21T08:08:41Z</time>
      </trkpt>
      <trkpt lat="44.91478" lon="0.9539">
        <ele>111</ele>
        <time>2012-10-21T08:08:43Z</time>
      </trkpt>
      <trkpt lat="44.91476" lon="0.95385">
        <ele>112</ele>
        <time>2012-10-21T08:08:45Z</time>
      </trkpt>
      <trkpt lat="44.91474" lon="0.95381">
        <ele>112</ele>
        <time>2012-10-21T08:08:47Z</time>
      </trkpt>
      <trkpt lat="44.91471" lon="0.95375">
        <ele>113</ele>
        <time>2012-10-21T08:08:49Z</time>
      </trkpt>
      <trkpt lat="44.91468" lon="0.95372">
        <ele>113</ele>
        <time>2012-10-21T08:08:51Z</time>
      </trkpt>
      <trkpt lat="44.91463" lon="0.95373">
        <ele>114</ele>
        <time>2012-10-21T08:08:53Z</time>
      </trkpt>
      <trkpt lat="44.91459" lon="0.95378">
        <ele>116</ele>
        <time>2012-10-21T08:08:55Z</time>
      </trkpt>
      <trkpt lat="44.91454" lon="0.95382">
        <ele>118</ele>
        <time>2012-10-21T08:08:57Z</time>
      </trkpt>
      <trkpt lat="44.91448" lon="0.95389">
        <ele>120</ele>
        <time>2012-10-21T08:08:59Z</time>
      </trkpt>
      <trkpt lat="44.91442" lon="0.95395">
        <ele>121</ele>
        <time>2012-10-21T08:09:01Z</time>
      </trkpt>
      <trkpt lat="44.91435" lon="0.95402">
        <ele>123</ele>
        <time>2012-10-21T08:09:03Z</time>
      </trkpt>
      <trkpt lat="44.91426" lon="0.9541">
        <ele>123</ele>
        <time>2012-10-21T08:09:05Z</time>
      </trkpt>
      <trkpt lat="44.91416" lon="0.9542">
        <ele>123</ele>
        <time>2012-10-21T08:09:07Z</time>
      </trkpt>
      <trkpt lat="44.91406" lon="0.95426">
        <ele>123</ele>
        <time>2012-10-21T08:09:09Z</time>
      </trkpt>
      <trkpt lat="44.91396" lon="0.95437">
        <ele>123</ele>
        <time>2012-10-21T08:09:11Z</time>
      </trkpt>
      <trkpt lat="44.91387" lon="0.95446">
        <ele>123</ele>
        <time>2012-10-21T08:09:13Z</time>
      </trkpt>
      <trkpt lat="44.91381" lon="0.95455">
        <ele>123</ele>
        <time>2012-10-21T08:09:15Z</time>
      </trkpt>
      <trkpt lat="44.91378" lon="0.9546">
        <ele>123</ele>
        <time>2012-10-21T08:09:17Z</time>
      </trkpt>
      <trkpt lat="44.91375" lon="0.95458">
        <ele>123</ele>
        <time>2012-10-21T08:09:19Z</time>
      </trkpt>
      <trkpt lat="44.91373" lon="0.95456">
        <ele>123</ele>
        <time>2012-10-21T08:09:21Z</time>
      </trkpt>
      <trkpt lat="44.9137" lon="0.95452">
        <ele>123</ele>
        <time>2012-10-21T08:09:23Z</time>
      </trkpt>
      <trkpt lat="44.91367" lon="0.95444">
        <ele>123</ele>
        <time>2012-10-21T08:09:25Z</time>
      </trkpt>
      <trkpt lat="44.91363" lon="0.95432">
        <ele>122</ele>
        <time>2012-10-21T08:09:27Z</time>
      </trkpt>
      <trkpt lat="44.91359" lon="0.95419">
        <ele>120</ele>
        <time>2012-10-21T08:09:29Z</time>
      </trkpt>
      <trkpt lat="44.91354" lon="0.95404">
        <ele>118</ele>
        <time>2012-10-21T08:09:31Z</time>
      </trkpt>
      <trkpt lat="44.91351" lon="0.95389">
        <ele>117</ele>
        <time>2012-10-21T08:09:33Z</time>
      </trkpt>
      <trkpt lat="44.91348" lon="0.95374">
        <ele>116</ele>
        <time>2012-10-21T08:09:35Z</time>
      </trkpt>
      <trkpt lat="44.91344" lon="0.95361">
        <ele>115</ele>
        <time>2012-10-21T08:09:37Z</time>
      </trkpt>
      <trkpt lat="44.91341" lon="0.9535">
        <ele>115</ele>
        <time>2012-10-21T08:09:39Z</time>
      </trkpt>
      <trkpt lat="44.91337" lon="0.95341">
        <ele>113</ele>
        <time>2012-10-21T08:09:41Z</time>
      </trkpt>
      <trkpt lat="44.91334" lon="0.95332">
        <ele>113</ele>
        <time>2012-10-21T08:09:43Z</time>
      </trkpt>
      <trkpt lat="44.91329" lon="0.95324">
        <ele>113</ele>
        <time>2012-10-21T08:09:45Z</time>
      </trkpt>
      <trkpt lat="44.91324" lon="0.9532">
        <ele>113</ele>
        <time>2012-10-21T08:09:47Z</time>
      </trkpt>
      <trkpt lat="44.9132" lon="0.95321">
        <ele>113</ele>
        <time>2012-10-21T08:09:49Z</time>
      </trkpt>
      <trkpt lat="44.91317" lon="0.95326">
        <ele>113</ele>
        <time>2012-10-21T08:09:51Z</time>
      </trkpt>
      <trkpt lat="44.91308" lon="0.95335">
        <ele>113</ele>
        <time>2012-10-21T08:09:54Z</time>
      </trkpt>
      <trkpt lat="44.91303" lon="0.95344">
        <ele>114</ele>
        <time>2012-10-21T08:09:56Z</time>
      </trkpt>
      <trkpt lat="44.913" lon="0.95354">
        <ele>115</ele>
        <time>2012-10-21T08:09:58Z</time>
      </trkpt>
      <trkpt lat="44.91298" lon="0.95368">
        <ele>117</ele>
        <time>2012-10-21T08:10:00Z</time>
      </trkpt>
      <trkpt lat="44.91294" lon="0.95388">
        <ele>119</ele>
        <time>2012-10-21T08:10:02Z</time>
      </trkpt>
      <trkpt lat="44.9129" lon="0.95402">
        <ele>121</ele>
        <time>2012-10-21T08:10:04Z</time>
      </trkpt>
      <trkpt lat="44.91285" lon="0.95418">
        <ele>124</ele>
        <time>2012-10-21T08:10:06Z</time>
      </trkpt>
      <trkpt lat="44.91282" lon="0.95432">
        <ele>128</ele>
        <time>2012-10-21T08:10:08Z</time>
      </trkpt>
      <trkpt lat="44.91277" lon="0.95444">
        <ele>131</ele>
        <time>2012-10-21T08:10:10Z</time>
      </trkpt>
      <trkpt lat="44.91271" lon="0.95454">
        <ele>133</ele>
        <time>2012-10-21T08:10:12Z</time>
      </trkpt>
      <trkpt lat="44.91263" lon="0.95467">
        <ele>134</ele>
        <time>2012-10-21T08:10:14Z</time>
      </trkpt>
      <trkpt lat="44.91257" lon="0.95475">
        <ele>134</ele>
        <time>2012-10-21T08:10:16Z</time>
      </trkpt>
      <trkpt lat="44.91248" lon="0.95483">
        <ele>134</ele>
        <time>2012-10-21T08:10:18Z</time>
      </trkpt>
      <trkpt lat="44.91239" lon="0.95489">
        <ele>134</ele>
        <time>2012-10-21T08:10:20Z</time>
      </trkpt>
      <trkpt lat="44.91227" lon="0.95494">
        <ele>133</ele>
        <time>2012-10-21T08:10:22Z</time>
      </trkpt>
      <trkpt lat="44.91215" lon="0.955">
        <ele>132</ele>
        <time>2012-10-21T08:10:24Z</time>
      </trkpt>
      <trkpt lat="44.91205" lon="0.95509">
        <ele>131</ele>
        <time>2012-10-21T08:10:26Z</time>
      </trkpt>
      <trkpt lat="44.91197" lon="0.95518">
        <ele>129</ele>
        <time>2012-10-21T08:10:28Z</time>
      </trkpt>
      <trkpt lat="44.91188" lon="0.95528">
        <ele>127</ele>
        <time>2012-10-21T08:10:30Z</time>
      </trkpt>
      <trkpt lat="44.91183" lon="0.95538">
        <ele>125</ele>
        <time>2012-10-21T08:10:32Z</time>
      </trkpt>
      <trkpt lat="44.91176" lon="0.9555">
        <ele>122</ele>
        <time>2012-10-21T08:10:34Z</time>
      </trkpt>
      <trkpt lat="44.91169" lon="0.95563">
        <ele>120</ele>
        <time>2012-10-21T08:10:36Z</time>
      </trkpt>
      <trkpt lat="44.91163" lon="0.95569">
        <ele>118</ele>
        <time>2012-10-21T08:10:38Z</time>
      </trkpt>
      <trkpt lat="44.91156" lon="0.95574">
        <ele>116</ele>
        <time>2012-10-21T08:10:40Z</time>
      </trkpt>
      <trkpt lat="44.91146" lon="0.95573">
        <ele>114</ele>
        <time>2012-10-21T08:10:42Z</time>
      </trkpt>
      <trkpt lat="44.91136" lon="0.95572">
        <ele>112</ele>
        <time>2012-10-21T08:10:44Z</time>
      </trkpt>
      <trkpt lat="44.91122" lon="0.9557">
        <ele>108</ele>
        <time>2012-10-21T08:10:46Z</time>
      </trkpt>
      <trkpt lat="44.91105" lon="0.9557">
        <ele>104</ele>
        <time>2012-10-21T08:10:48Z</time>
      </trkpt>
      <trkpt lat="44.9109" lon="0.9557">
        <ele>100</ele>
        <time>2012-10-21T08:10:50Z</time>
      </trkpt>
      <trkpt lat="44.91074" lon="0.95569">
        <ele>96</ele>
        <time>2012-10-21T08:10:52Z</time>
      </trkpt>
      <trkpt lat="44.9106" lon="0.95568">
        <ele>92</ele>
        <time>2012-10-21T08:10:54Z</time>
      </trkpt>
      <trkpt lat="44.91042" lon="0.95566">
        <ele>88</ele>
        <time>2012-10-21T08:10:57Z</time>
      </trkpt>
      <trkpt lat="44.91032" lon="0.95564">
        <ele>86</ele>
        <time>2012-10-21T08:10:59Z</time>
      </trkpt>
      <trkpt lat="44.91022" lon="0.95561">
        <ele>84</ele>
        <time>2012-10-21T08:11:01Z</time>
      </trkpt>
      <trkpt lat="44.91012" lon="0.95556">
        <ele>82</ele>
        <time>2012-10-21T08:11:03Z</time>
      </trkpt>
      <trkpt lat="44.90999" lon="0.95542">
        <ele>80</ele>
        <time>2012-10-21T08:11:05Z</time>
      </trkpt>
      <trkpt lat="44.90985" lon="0.95525">
        <ele>78</ele>
        <time>2012-10-21T08:11:07Z</time>
      </trkpt>
      <trkpt lat="44.90969" lon="0.95513">
        <ele>76</ele>
        <time>2012-10-21T08:11:09Z</time>
      </trkpt>
      <trkpt lat="44.90952" lon="0.95509">
        <ele>74</ele>
        <time>2012-10-21T08:11:11Z</time>
      </trkpt>
      <trkpt lat="44.90936" lon="0.95508">
        <ele>72</ele>
        <time>2012-10-21T08:11:13Z</time>
      </trkpt>
      <trkpt lat="44.90922" lon="0.95507">
        <ele>71</ele>
        <time>2012-10-21T08:11:15Z</time>
      </trkpt>
      <trkpt lat="44.90908" lon="0.95505">
        <ele>71</ele>
        <time>2012-10-21T08:11:17Z</time>
      </trkpt>
      <trkpt lat="44.90895" lon="0.95503">
        <ele>69</ele>
        <time>2012-10-21T08:11:19Z</time>
      </trkpt>
      <trkpt lat="44.90882" lon="0.95503">
        <ele>67</ele>
        <time>2012-10-21T08:11:21Z</time>
      </trkpt>
      <trkpt lat="44.90866" lon="0.95505">
        <ele>66</ele>
        <time>2012-10-21T08:11:23Z</time>
      </trkpt>
      <trkpt lat="44.9085" lon="0.95507">
        <ele>65</ele>
        <time>2012-10-21T08:11:25Z</time>
      </trkpt>
      <trkpt lat="44.90833" lon="0.9551">
        <ele>65</ele>
        <time>2012-10-21T08:11:27Z</time>
      </trkpt>
      <trkpt lat="44.90818" lon="0.95513">
        <ele>65</ele>
        <time>2012-10-21T08:11:29Z</time>
      </trkpt>
      <trkpt lat="44.90805" lon="0.95516">
        <ele>65</ele>
        <time>2012-10-21T08:11:31Z</time>
      </trkpt>
      <trkpt lat="44.90791" lon="0.95519">
        <ele>65</ele>
        <time>2012-10-21T08:11:33Z</time>
      </trkpt>
      <trkpt lat="44.90776" lon="0.95521">
        <ele>65</ele>
        <time>2012-10-21T08:11:35Z</time>
      </trkpt>
      <trkpt lat="44.90761" lon="0.95524">
        <ele>65</ele>
        <time>2012-10-21T08:11:37Z</time>
      </trkpt>
      <trkpt lat="44.90745" lon="0.95527">
        <ele>65</ele>
        <time>2012-10-21T08:11:39Z</time>
      </trkpt>
      <trkpt lat="44.90728" lon="0.95533">
        <ele>65</ele>
        <time>2012-10-21T08:11:41Z</time>
      </trkpt>
      <trkpt lat="44.90711" lon="0.95538">
        <ele>65</ele>
        <time>2012-10-21T08:11:43Z</time>
      </trkpt>
      <trkpt lat="44.90693" lon="0.95542">
        <ele>65</ele>
        <time>2012-10-21T08:11:45Z</time>
      </trkpt>
      <trkpt lat="44.90675" lon="0.95546">
        <ele>65</ele>
        <time>2012-10-21T08:11:47Z</time>
      </trkpt>
      <trkpt lat="44.90658" lon="0.95548">
        <ele>65</ele>
        <time>2012-10-21T08:11:49Z</time>
      </trkpt>
      <trkpt lat="44.90643" lon="0.95553">
        <ele>65</ele>
        <time>2012-10-21T08:11:51Z</time>
      </trkpt>
      <trkpt lat="44.90626" lon="0.95556">
        <ele>65</ele>
        <time>2012-10-21T08:11:54Z</time>
      </trkpt>
      <trkpt lat="44.90619" lon="0.95562">
        <ele>65</ele>
        <time>2012-10-21T08:11:56Z</time>
      </trkpt>
      <trkpt lat="44.90614" lon="0.95577">
        <ele>65</ele>
        <time>2012-10-21T08:11:58Z</time>
      </trkpt>
      <trkpt lat="44.90613" lon="0.95594">
        <ele>65</ele>
        <time>2012-10-21T08:12:00Z</time>
      </trkpt>
      <trkpt lat="44.90612" lon="0.95611">
        <ele>65</ele>
        <time>2012-10-21T08:12:02Z</time>
      </trkpt>
      <trkpt lat="44.90612" lon="0.95628">
        <ele>65</ele>
        <time>2012-10-21T08:12:04Z</time>
      </trkpt>
      <trkpt lat="44.90611" lon="0.95646">
        <ele>65</ele>
        <time>2012-10-21T08:12:06Z</time>
      </trkpt>
      <trkpt lat="44.90611" lon="0.95667">
        <ele>66</ele>
        <time>2012-10-21T08:12:08Z</time>
      </trkpt>
      <trkpt lat="44.90609" lon="0.95691">
        <ele>68</ele>
        <time>2012-10-21T08:12:10Z</time>
      </trkpt>
      <trkpt lat="44.90607" lon="0.95716">
        <ele>70</ele>
        <time>2012-10-21T08:12:12Z</time>
      </trkpt>
      <trkpt lat="44.90602" lon="0.95739">
        <ele>70</ele>
        <time>2012-10-21T08:12:14Z</time>
      </trkpt>
      <trkpt lat="44.90599" lon="0.9576">
        <ele>70</ele>
        <time>2012-10-21T08:12:16Z</time>
      </trkpt>
      <trkpt lat="44.90595" lon="0.95778">
        <ele>70</ele>
        <time>2012-10-21T08:12:18Z</time>
      </trkpt>
      <trkpt lat="44.90591" lon="0.95794">
        <ele>70</ele>
        <time>2012-10-21T08:12:20Z</time>
      </trkpt>
      <trkpt lat="44.90588" lon="0.95806">
        <ele>70</ele>
        <time>2012-10-21T08:12:22Z</time>
      </trkpt>
      <trkpt lat="44.90585" lon="0.95815">
        <ele>70</ele>
        <time>2012-10-21T08:12:24Z</time>
      </trkpt>
      <trkpt lat="44.90579" lon="0.95815">
        <ele>69</ele>
        <time>2012-10-21T08:12:26Z</time>
      </trkpt>
      <trkpt lat="44.90572" lon="0.9581">
        <ele>67</ele>
        <time>2012-10-21T08:12:28Z</time>
      </trkpt>
      <trkpt lat="44.90564" lon="0.95804">
        <ele>67</ele>
        <time>2012-10-21T08:12:30Z</time>
      </trkpt>
      <trkpt lat="44.90556" lon="0.95798">
        <ele>66</ele>
        <time>2012-10-21T08:12:32Z</time>
      </trkpt>
      <trkpt lat="44.90546" lon="0.95793">
        <ele>65</ele>
        <time>2012-10-21T08:12:34Z</time>
      </trkpt>
      <trkpt lat="44.90538" lon="0.95786">
        <ele>65</ele>
        <time>2012-10-21T08:12:36Z</time>
      </trkpt>
      <trkpt lat="44.9053" lon="0.95779">
        <ele>64</ele>
        <time>2012-10-21T08:12:38Z</time>
      </trkpt>
      <trkpt lat="44.90522" lon="0.95771">
        <ele>63</ele>
        <time>2012-10-21T08:12:40Z</time>
      </trkpt>
      <trkpt lat="44.90514" lon="0.95764">
        <ele>63</ele>
        <time>2012-10-21T08:12:42Z</time>
      </trkpt>
      <trkpt lat="44.90506" lon="0.95756">
        <ele>62</ele>
        <time>2012-10-21T08:12:44Z</time>
      </trkpt>
      <trkpt lat="44.90498" lon="0.95748">
        <ele>62</ele>
        <time>2012-10-21T08:12:46Z</time>
      </trkpt>
      <trkpt lat="44.9049" lon="0.95739">
        <ele>62</ele>
        <time>2012-10-21T08:12:48Z</time>
      </trkpt>
      <trkpt lat="44.90482" lon="0.95731">
        <ele>61</ele>
        <time>2012-10-21T08:12:50Z</time>
      </trkpt>
      <trkpt lat="44.90474" lon="0.95721">
        <ele>61</ele>
        <time>2012-10-21T08:12:52Z</time>
      </trkpt>
      <trkpt lat="44.90466" lon="0.95711">
        <ele>61</ele>
        <time>2012-10-21T08:12:54Z</time>
      </trkpt>
      <trkpt lat="44.90456" lon="0.957">
        <ele>61</ele>
        <time>2012-10-21T08:12:56Z</time>
      </trkpt>
      <trkpt lat="44.90448" lon="0.95689">
        <ele>60</ele>
        <time>2012-10-21T08:12:58Z</time>
      </trkpt>
      <trkpt lat="44.9044" lon="0.95678">
        <ele>60</ele>
        <time>2012-10-21T08:13:00Z</time>
      </trkpt>
      <trkpt lat="44.90433" lon="0.95667">
        <ele>59</ele>
        <time>2012-10-21T08:13:02Z</time>
      </trkpt>
      <trkpt lat="44.90426" lon="0.95657">
        <ele>58</ele>
        <time>2012-10-21T08:13:04Z</time>
      </trkpt>
      <trkpt lat="44.9042" lon="0.95653">
        <ele>57</ele>
        <time>2012-10-21T08:13:06Z</time>
      </trkpt>
      <trkpt lat="44.90413" lon="0.95659">
        <ele>56</ele>
        <time>2012-10-21T08:13:09Z</time>
      </trkpt>
      <trkpt lat="44.90411" lon="0.95669">
        <ele>56</ele>
        <time>2012-10-21T08:13:11Z</time>
      </trkpt>
      <trkpt lat="44.90409" lon="0.95682">
        <ele>56</ele>
        <time>2012-10-21T08:13:13Z</time>
      </trkpt>
      <trkpt lat="44.90407" lon="0.95696">
        <ele>56</ele>
        <time>2012-10-21T08:13:15Z</time>
      </trkpt>
      <trkpt lat="44.90405" lon="0.95711">
        <ele>56</ele>
        <time>2012-10-21T08:13:17Z</time>
      </trkpt>
      <trkpt lat="44.90403" lon="0.95727">
        <ele>56</ele>
        <time>2012-10-21T08:13:19Z</time>
      </trkpt>
      <trkpt lat="44.904" lon="0.95742">
        <ele>56</ele>
        <time>2012-10-21T08:13:21Z</time>
      </trkpt>
      <trkpt lat="44.90396" lon="0.95762">
        <ele>56</ele>
        <time>2012-10-21T08:13:24Z</time>
      </trkpt>
      <trkpt lat="44.90394" lon="0.95776">
        <ele>56</ele>
        <time>2012-10-21T08:13:26Z</time>
      </trkpt>
      <trkpt lat="44.90391" lon="0.95791">
        <ele>56</ele>
        <time>2012-10-21T08:13:28Z</time>
      </trkpt>
      <trkpt lat="44.90388" lon="0.95806">
        <ele>56</ele>
        <time>2012-10-21T08:13:30Z</time>
      </trkpt>
      <trkpt lat="44.90386" lon="0.95822">
        <ele>56</ele>
        <time>2012-10-21T08:13:32Z</time>
      </trkpt>
      <trkpt lat="44.90384" lon="0.95837">
        <ele>57</ele>
        <time>2012-10-21T08:13:34Z</time>
      </trkpt>
      <trkpt lat="44.90381" lon="0.95851">
        <ele>57</ele>
        <time>2012-10-21T08:13:36Z</time>
      </trkpt>
      <trkpt lat="44.90379" lon="0.95866">
        <ele>58</ele>
        <time>2012-10-21T08:13:38Z</time>
      </trkpt>
      <trkpt lat="44.90376" lon="0.95888">
        <ele>59</ele>
        <time>2012-10-21T08:13:41Z</time>
      </trkpt>
      <trkpt lat="44.90374" lon="0.95903">
        <ele>60</ele>
        <time>2012-10-21T08:13:43Z</time>
      </trkpt>
      <trkpt lat="44.90371" lon="0.95919">
        <ele>60</ele>
        <time>2012-10-21T08:13:45Z</time>
      </trkpt>
      <trkpt lat="44.90369" lon="0.95934">
        <ele>61</ele>
        <time>2012-10-21T08:13:47Z</time>
      </trkpt>
      <trkpt lat="44.90366" lon="0.95951">
        <ele>61</ele>
        <time>2012-10-21T08:13:49Z</time>
      </trkpt>
      <trkpt lat="44.90363" lon="0.95968">
        <ele>62</ele>
        <time>2012-10-21T08:13:51Z</time>
      </trkpt>
      <trkpt lat="44.90361" lon="0.95985">
        <ele>62</ele>
        <time>2012-10-21T08:13:53Z</time>
      </trkpt>
      <trkpt lat="44.90358" lon="0.96003">
        <ele>62</ele>
        <time>2012-10-21T08:13:55Z</time>
      </trkpt>
      <trkpt lat="44.90355" lon="0.96021">
        <ele>62</ele>
        <time>2012-10-21T08:13:57Z</time>
      </trkpt>
      <trkpt lat="44.90351" lon="0.96041">
        <ele>62</ele>
        <time>2012-10-21T08:13:59Z</time>
      </trkpt>
      <trkpt lat="44.90348" lon="0.9606">
        <ele>62</ele>
        <time>2012-10-21T08:14:01Z</time>
      </trkpt>
      <trkpt lat="44.90345" lon="0.96079">
        <ele>63</ele>
        <time>2012-10-21T08:14:03Z</time>
      </trkpt>
      <trkpt lat="44.90342" lon="0.96099">
        <ele>63</ele>
        <time>2012-10-21T08:14:05Z</time>
      </trkpt>
      <trkpt lat="44.9034" lon="0.96118">
        <ele>63</ele>
        <time>2012-10-21T08:14:07Z</time>
      </trkpt>
      <trkpt lat="44.90339" lon="0.96138">
        <ele>63</ele>
        <time>2012-10-21T08:14:09Z</time>
      </trkpt>
      <trkpt lat="44.90338" lon="0.96157">
        <ele>63</ele>
        <time>2012-10-21T08:14:11Z</time>
      </trkpt>
      <trkpt lat="44.9034" lon="0.96176">
        <ele>63</ele>
        <time>2012-10-21T08:14:13Z</time>
      </trkpt>
      <trkpt lat="44.90342" lon="0.96194">
        <ele>63</ele>
        <time>2012-10-21T08:14:15Z</time>
      </trkpt>
      <trkpt lat="44.90348" lon="0.9622">
        <ele>63</ele>
        <time>2012-10-21T08:14:18Z</time>
      </trkpt>
      <trkpt lat="44.90353" lon="0.96237">
        <ele>63</ele>
        <time>2012-10-21T08:14:20Z</time>
      </trkpt>
      <trkpt lat="44.90362" lon="0.96259">
        <ele>63</ele>
        <time>2012-10-21T08:14:23Z</time>
      </trkpt>
      <trkpt lat="44.90367" lon="0.96274">
        <ele>63</ele>
        <time>2012-10-21T08:14:25Z</time>
      </trkpt>
      <trkpt lat="44.90365" lon="0.96297">
        <ele>63</ele>
        <time>2012-10-21T08:14:28Z</time>
      </trkpt>
      <trkpt lat="44.90359" lon="0.96302">
        <ele>63</ele>
        <time>2012-10-21T08:14:30Z</time>
      </trkpt>
      <trkpt lat="44.90352" lon="0.96297">
        <ele>63</ele>
        <time>2012-10-21T08:14:32Z</time>
      </trkpt>
      <trkpt lat="44.90345" lon="0.96288">
        <ele>63</ele>
        <time>2012-10-21T08:14:34Z</time>
      </trkpt>
      <trkpt lat="44.90339" lon="0.96281">
        <ele>63</ele>
        <time>2012-10-21T08:14:36Z</time>
      </trkpt>
      <trkpt lat="44.90333" lon="0.96274">
        <ele>63</ele>
        <time>2012-10-21T08:14:38Z</time>
      </trkpt>
      <trkpt lat="44.90326" lon="0.96267">
        <ele>63</ele>
        <time>2012-10-21T08:14:40Z</time>
      </trkpt>
      <trkpt lat="44.90318" lon="0.96261">
        <ele>63</ele>
        <time>2012-10-21T08:14:42Z</time>
      </trkpt>
      <trkpt lat="44.9031" lon="0.96257">
        <ele>63</ele>
        <time>2012-10-21T08:14:44Z</time>
      </trkpt>
      <trkpt lat="44.90303" lon="0.96253">
        <ele>63</ele>
        <time>2012-10-21T08:14:46Z</time>
      </trkpt>
      <trkpt lat="44.90296" lon="0.9625">
        <ele>63</ele>
        <time>2012-10-21T08:14:48Z</time>
      </trkpt>
      <trkpt lat="44.90289" lon="0.96246">
        <ele>63</ele>
        <time>2012-10-21T08:14:50Z</time>
      </trkpt>
      <trkpt lat="44.9028" lon="0.96243">
        <ele>63</ele>
        <time>2012-10-21T08:14:52Z</time>
      </trkpt>
      <trkpt lat="44.90273" lon="0.96241">
        <ele>63</ele>
        <time>2012-10-21T08:14:54Z</time>
      </trkpt>
      <trkpt lat="44.90265" lon="0.96238">
        <ele>63</ele>
        <time>2012-10-21T08:14:56Z</time>
      </trkpt>
      <trkpt lat="44.90256" lon="0.96235">
        <ele>63</ele>
        <time>2012-10-21T08:14:58Z</time>
      </trkpt>
      <trkpt lat="44.90247" lon="0.96233">
        <ele>63</ele>
        <time>2012-10-21T08:15:00Z</time>
      </trkpt>
      <trkpt lat="44.90232" lon="0.96229">
        <ele>63</ele>
        <time>2012-10-21T08:15:03Z</time>
      </trkpt>
      <trkpt lat="44.90221" lon="0.96228">
        <ele>63</ele>
        <time>2012-10-21T08:15:05Z</time>
      </trkpt>
      <trkpt lat="44.9021" lon="0.96224">
        <ele>63</ele>
        <time>2012-10-21T08:15:07Z</time>
      </trkpt>
      <trkpt lat="44.90195" lon="0.96219">
        <ele>63</ele>
        <time>2012-10-21T08:15:09Z</time>
      </trkpt>
      <trkpt lat="44.9018" lon="0.96213">
        <ele>63</ele>
        <time>2012-10-21T08:15:11Z</time>
      </trkpt>
      <trkpt lat="44.90166" lon="0.96211">
        <ele>61</ele>
        <time>2012-10-21T08:15:13Z</time>
      </trkpt>
      <trkpt lat="44.90154" lon="0.96208">
        <ele>59</ele>
        <time>2012-10-21T08:15:15Z</time>
      </trkpt>
      <trkpt lat="44.90142" lon="0.96202">
        <ele>58</ele>
        <time>2012-10-21T08:15:17Z</time>
      </trkpt>
      <trkpt lat="44.90129" lon="0.96193">
        <ele>57</ele>
        <time>2012-10-21T08:15:19Z</time>
      </trkpt>
      <trkpt lat="44.90117" lon="0.96184">
        <ele>57</ele>
        <time>2012-10-21T08:15:21Z</time>
      </trkpt>
      <trkpt lat="44.90104" lon="0.96176">
        <ele>57</ele>
        <time>2012-10-21T08:15:23Z</time>
      </trkpt>
      <trkpt lat="44.90094" lon="0.9617">
        <ele>57</ele>
        <time>2012-10-21T08:15:25Z</time>
      </trkpt>
      <trkpt lat="44.90084" lon="0.96164">
        <ele>57</ele>
        <time>2012-10-21T08:15:27Z</time>
      </trkpt>
      <trkpt lat="44.90073" lon="0.96157">
        <ele>57</ele>
        <time>2012-10-21T08:15:29Z</time>
      </trkpt>
      <trkpt lat="44.90062" lon="0.96153">
        <ele>57</ele>
        <time>2012-10-21T08:15:31Z</time>
      </trkpt>
      <trkpt lat="44.90053" lon="0.96148">
        <ele>57</ele>
        <time>2012-10-21T08:15:33Z</time>
      </trkpt>
      <trkpt lat="44.90044" lon="0.9614">
        <ele>57</ele>
        <time>2012-10-21T08:15:35Z</time>
      </trkpt>
      <trkpt lat="44.90035" lon="0.96132">
        <ele>56</ele>
        <time>2012-10-21T08:15:37Z</time>
      </trkpt>
      <trkpt lat="44.90025" lon="0.96125">
        <ele>54</ele>
        <time>2012-10-21T08:15:39Z</time>
      </trkpt>
      <trkpt lat="44.90016" lon="0.96118">
        <ele>52</ele>
        <time>2012-10-21T08:15:41Z</time>
      </trkpt>
      <trkpt lat="44.90006" lon="0.9611">
        <ele>50</ele>
        <time>2012-10-21T08:15:43Z</time>
      </trkpt>
      <trkpt lat="44.89996" lon="0.96103">
        <ele>48</ele>
        <time>2012-10-21T08:15:45Z</time>
      </trkpt>
      <trkpt lat="44.89988" lon="0.96095">
        <ele>47</ele>
        <time>2012-10-21T08:15:47Z</time>
      </trkpt>
      <trkpt lat="44.89977" lon="0.96083">
        <ele>45</ele>
        <time>2012-10-21T08:15:49Z</time>
      </trkpt>
      <trkpt lat="44.89965" lon="0.96071">
        <ele>44</ele>
        <time>2012-10-21T08:15:51Z</time>
      </trkpt>
      <trkpt lat="44.89954" lon="0.96058">
        <ele>43</ele>
        <time>2012-10-21T08:15:53Z</time>
      </trkpt>
      <trkpt lat="44.89943" lon="0.96044">
        <ele>42</ele>
        <time>2012-10-21T08:15:55Z</time>
      </trkpt>
      <trkpt lat="44.89928" lon="0.9603">
        <ele>42</ele>
        <time>2012-10-21T08:15:57Z</time>
      </trkpt>
      <trkpt lat="44.89914" lon="0.96015">
        <ele>42</ele>
        <time>2012-10-21T08:15:59Z</time>
      </trkpt>
      <trkpt lat="44.89901" lon="0.96">
        <ele>42</ele>
        <time>2012-10-21T08:16:01Z</time>
      </trkpt>
      <trkpt lat="44.89887" lon="0.95986">
        <ele>42</ele>
        <time>2012-10-21T08:16:03Z</time>
      </trkpt>
      <trkpt lat="44.89874" lon="0.95971">
        <ele>42</ele>
        <time>2012-10-21T08:16:05Z</time>
      </trkpt>
      <trkpt lat="44.89861" lon="0.95959">
        <ele>43</ele>
        <time>2012-10-21T08:16:07Z</time>
      </trkpt>
      <trkpt lat="44.89849" lon="0.95947">
        <ele>43</ele>
        <time>2012-10-21T08:16:09Z</time>
      </trkpt>
      <trkpt lat="44.89838" lon="0.95935">
        <ele>44</ele>
        <time>2012-10-21T08:16:11Z</time>
      </trkpt>
      <trkpt lat="44.89827" lon="0.95923">
        <ele>46</ele>
        <time>2012-10-21T08:16:13Z</time>
      </trkpt>
      <trkpt lat="44.89817" lon="0.95911">
        <ele>48</ele>
        <time>2012-10-21T08:16:15Z</time>
      </trkpt>
      <trkpt lat="44.89807" lon="0.95899">
        <ele>50</ele>
        <time>2012-10-21T08:16:17Z</time>
      </trkpt>
      <trkpt lat="44.89797" lon="0.95887">
        <ele>50</ele>
        <time>2012-10-21T08:16:19Z</time>
      </trkpt>
      <trkpt lat="44.89788" lon="0.95875">
        <ele>50</ele>
        <time>2012-10-21T08:16:21Z</time>
      </trkpt>
      <trkpt lat="44.89778" lon="0.95861">
        <ele>50</ele>
        <time>2012-10-21T08:16:23Z</time>
      </trkpt>
      <trkpt lat="44.89767" lon="0.95846">
        <ele>50</ele>
        <time>2012-10-21T08:16:25Z</time>
      </trkpt>
      <trkpt lat="44.89757" lon="0.95832">
        <ele>50</ele>
        <time>2012-10-21T08:16:27Z</time>
      </trkpt>
      <trkpt lat="44.8975" lon="0.95817">
        <ele>50</ele>
        <time>2012-10-21T08:16:29Z</time>
      </trkpt>
      <trkpt lat="44.89743" lon="0.95802">
        <ele>50</ele>
        <time>2012-10-21T08:16:31Z</time>
      </trkpt>
      <trkpt lat="44.89737" lon="0.9579">
        <ele>50</ele>
        <time>2012-10-21T08:16:33Z</time>
      </trkpt>
      <trkpt lat="44.89733" lon="0.95779">
        <ele>50</ele>
        <time>2012-10-21T08:16:35Z</time>
      </trkpt>
      <trkpt lat="44.89729" lon="0.95771">
        <ele>50</ele>
        <time>2012-10-21T08:16:37Z</time>
      </trkpt>
      <trkpt lat="44.89724" lon="0.95769">
        <ele>51</ele>
        <time>2012-10-21T08:16:39Z</time>
      </trkpt>
      <trkpt lat="44.89718" lon="0.95768">
        <ele>51</ele>
        <time>2012-10-21T08:16:41Z</time>
      </trkpt>
      <trkpt lat="44.89713" lon="0.95767">
        <ele>51</ele>
        <time>2012-10-21T08:16:43Z</time>
      </trkpt>
      <trkpt lat="44.8971" lon="0.95767">
        <ele>51</ele>
        <time>2012-10-21T08:16:45Z</time>
      </trkpt>
      <trkpt lat="44.89706" lon="0.95764">
        <ele>51</ele>
        <time>2012-10-21T08:16:47Z</time>
      </trkpt>
      <trkpt lat="44.89703" lon="0.95759">
        <ele>51</ele>
        <time>2012-10-21T08:16:49Z</time>
      </trkpt>
      <trkpt lat="44.897" lon="0.95755">
        <ele>51</ele>
        <time>2012-10-21T08:16:51Z</time>
      </trkpt>
      <trkpt lat="44.89698" lon="0.95752">
        <ele>51</ele>
        <time>2012-10-21T08:16:53Z</time>
      </trkpt>
      <trkpt lat="44.89696" lon="0.95747">
        <ele>52</ele>
        <time>2012-10-21T08:16:56Z</time>
      </trkpt>
      <trkpt lat="44.89694" lon="0.95743">
        <ele>53</ele>
        <time>2012-10-21T08:16:58Z</time>
      </trkpt>
      <trkpt lat="44.89692" lon="0.9574">
        <ele>53</ele>
        <time>2012-10-21T08:17:00Z</time>
      </trkpt>
      <trkpt lat="44.8969" lon="0.95736">
        <ele>54</ele>
        <time>2012-10-21T08:17:02Z</time>
      </trkpt>
      <trkpt lat="44.89688" lon="0.95733">
        <ele>56</ele>
        <time>2012-10-21T08:17:04Z</time>
      </trkpt>
      <trkpt lat="44.89688" lon="0.95729">
        <ele>57</ele>
        <time>2012-10-21T08:17:06Z</time>
      </trkpt>
      <trkpt lat="44.89685" lon="0.95726">
        <ele>57</ele>
        <time>2012-10-21T08:17:08Z</time>
      </trkpt>
      <trkpt lat="44.89685" lon="0.95721">
        <ele>59</ele>
        <time>2012-10-21T08:17:11Z</time>
      </trkpt>
      <trkpt lat="44.89682" lon="0.95718">
        <ele>61</ele>
        <time>2012-10-21T08:17:13Z</time>
      </trkpt>
      <trkpt lat="44.89679" lon="0.95715">
        <ele>62</ele>
        <time>2012-10-21T08:17:15Z</time>
      </trkpt>
      <trkpt lat="44.89677" lon="0.95712">
        <ele>63</ele>
        <time>2012-10-21T08:17:17Z</time>
      </trkpt>
      <trkpt lat="44.89676" lon="0.95709">
        <ele>63</ele>
        <time>2012-10-21T08:17:19Z</time>
      </trkpt>
      <trkpt lat="44.89675" lon="0.95705">
        <ele>64</ele>
        <time>2012-10-21T08:17:21Z</time>
      </trkpt>
      <trkpt lat="44.89674" lon="0.95702">
        <ele>65</ele>
        <time>2012-10-21T08:17:23Z</time>
      </trkpt>
      <trkpt lat="44.89671" lon="0.95698">
        <ele>65</ele>
        <time>2012-10-21T08:17:25Z</time>
      </trkpt>
      <trkpt lat="44.89668" lon="0.95695">
        <ele>65</ele>
        <time>2012-10-21T08:17:27Z</time>
      </trkpt>
      <trkpt lat="44.89665" lon="0.9569">
        <ele>65</ele>
        <time>2012-10-21T08:17:30Z</time>
      </trkpt>
      <trkpt lat="44.89663" lon="0.95686">
        <ele>66</ele>
        <time>2012-10-21T08:17:33Z</time>
      </trkpt>
      <trkpt lat="44.8966" lon="0.95683">
        <ele>67</ele>
        <time>2012-10-21T08:17:35Z</time>
      </trkpt>
      <trkpt lat="44.89658" lon="0.9568">
        <ele>68</ele>
        <time>2012-10-21T08:17:37Z</time>
      </trkpt>
      <trkpt lat="44.89655" lon="0.95677">
        <ele>69</ele>
        <time>2012-10-21T08:17:39Z</time>
      </trkpt>
      <trkpt lat="44.89652" lon="0.95674">
        <ele>69</ele>
        <time>2012-10-21T08:17:41Z</time>
      </trkpt>
      <trkpt lat="44.89649" lon="0.9567">
        <ele>71</ele>
        <time>2012-10-21T08:17:44Z</time>
      </trkpt>
      <trkpt lat="44.89648" lon="0.95667">
        <ele>72</ele>
        <time>2012-10-21T08:17:46Z</time>
      </trkpt>
      <trkpt lat="44.89647" lon="0.95664">
        <ele>72</ele>
        <time>2012-10-21T08:17:48Z</time>
      </trkpt>
      <trkpt lat="44.89645" lon="0.95661">
        <ele>73</ele>
        <time>2012-10-21T08:17:51Z</time>
      </trkpt>
      <trkpt lat="44.89643" lon="0.95659">
        <ele>73</ele>
        <time>2012-10-21T08:17:53Z</time>
      </trkpt>
      <trkpt lat="44.8964" lon="0.95656">
        <ele>73</ele>
        <time>2012-10-21T08:17:55Z</time>
      </trkpt>
      <trkpt lat="44.89639" lon="0.95655">
        <ele>73</ele>
        <time>2012-10-21T08:17:57Z</time>
      </trkpt>
      <trkpt lat="44.89638" lon="0.95652">
        <ele>73</ele>
        <time>2012-10-21T08:17:59Z</time>
      </trkpt>
      <trkpt lat="44.89636" lon="0.95649">
        <ele>73</ele>
        <time>2012-10-21T08:18:01Z</time>
      </trkpt>
      <trkpt lat="44.89633" lon="0.95647">
        <ele>73</ele>
        <time>2012-10-21T08:18:03Z</time>
      </trkpt>
      <trkpt lat="44.8963" lon="0.95643">
        <ele>73</ele>
        <time>2012-10-21T08:18:05Z</time>
      </trkpt>
      <trkpt lat="44.89626" lon="0.95641">
        <ele>73</ele>
        <time>2012-10-21T08:18:07Z</time>
      </trkpt>
      <trkpt lat="44.89623" lon="0.95638">
        <ele>73</ele>
        <time>2012-10-21T08:18:09Z</time>
      </trkpt>
      <trkpt lat="44.89621" lon="0.95635">
        <ele>73</ele>
        <time>2012-10-21T08:18:11Z</time>
      </trkpt>
      <trkpt lat="44.89619" lon="0.95634">
        <ele>73</ele>
        <time>2012-10-21T08:18:13Z</time>
      </trkpt>
      <trkpt lat="44.89617" lon="0.95632">
        <ele>73</ele>
        <time>2012-10-21T08:18:15Z</time>
      </trkpt>
      <trkpt lat="44.89614" lon="0.95631">
        <ele>73</ele>
        <time>2012-10-21T08:18:17Z</time>
      </trkpt>
      <trkpt lat="44.8961" lon="0.95629">
        <ele>73</ele>
        <time>2012-10-21T08:18:19Z</time>
      </trkpt>
      <trkpt lat="44.89607" lon="0.95625">
        <ele>73</ele>
        <time>2012-10-21T08:18:22Z</time>
      </trkpt>
      <trkpt lat="44.89605" lon="0.95621">
        <ele>73</ele>
        <time>2012-10-21T08:18:24Z</time>
      </trkpt>
      <trkpt lat="44.89601" lon="0.95617">
        <ele>73</ele>
        <time>2012-10-21T08:18:26Z</time>
      </trkpt>
      <trkpt lat="44.89599" lon="0.95613">
        <ele>73</ele>
        <time>2012-10-21T08:18:28Z</time>
      </trkpt>
      <trkpt lat="44.89597" lon="0.95608">
        <ele>73</ele>
        <time>2012-10-21T08:18:31Z</time>
      </trkpt>
      <trkpt lat="44.89596" lon="0.95606">
        <ele>73</ele>
        <time>2012-10-21T08:18:33Z</time>
      </trkpt>
      <trkpt lat="44.89593" lon="0.95601">
        <ele>73</ele>
        <time>2012-10-21T08:18:35Z</time>
      </trkpt>
      <trkpt lat="44.89592" lon="0.95598">
        <ele>74</ele>
        <time>2012-10-21T08:18:37Z</time>
      </trkpt>
      <trkpt lat="44.8959" lon="0.95595">
        <ele>75</ele>
        <time>2012-10-21T08:18:39Z</time>
      </trkpt>
      <trkpt lat="44.89589" lon="0.9559">
        <ele>75</ele>
        <time>2012-10-21T08:18:41Z</time>
      </trkpt>
      <trkpt lat="44.89589" lon="0.95587">
        <ele>76</ele>
        <time>2012-10-21T08:18:43Z</time>
      </trkpt>
      <trkpt lat="44.89588" lon="0.95583">
        <ele>77</ele>
        <time>2012-10-21T08:18:45Z</time>
      </trkpt>
      <trkpt lat="44.89586" lon="0.9558">
        <ele>78</ele>
        <time>2012-10-21T08:18:47Z</time>
      </trkpt>
      <trkpt lat="44.89585" lon="0.95575">
        <ele>78</ele>
        <time>2012-10-21T08:18:49Z</time>
      </trkpt>
      <trkpt lat="44.89583" lon="0.95571">
        <ele>78</ele>
        <time>2012-10-21T08:18:51Z</time>
      </trkpt>
      <trkpt lat="44.89581" lon="0.95566">
        <ele>78</ele>
        <time>2012-10-21T08:18:53Z</time>
      </trkpt>
      <trkpt lat="44.89579" lon="0.95562">
        <ele>78</ele>
        <time>2012-10-21T08:18:55Z</time>
      </trkpt>
      <trkpt lat="44.89578" lon="0.95558">
        <ele>78</ele>
        <time>2012-10-21T08:18:57Z</time>
      </trkpt>
      <trkpt lat="44.89577" lon="0.95554">
        <ele>78</ele>
        <time>2012-10-21T08:18:59Z</time>
      </trkpt>
      <trkpt lat="44.89576" lon="0.95549">
        <ele>78</ele>
        <time>2012-10-21T08:19:01Z</time>
      </trkpt>
      <trkpt lat="44.89576" lon="0.95544">
        <ele>80</ele>
        <time>2012-10-21T08:19:03Z</time>
      </trkpt>
      <trkpt lat="44.89575" lon="0.95538">
        <ele>82</ele>
        <time>2012-10-21T08:19:05Z</time>
      </trkpt>
      <trkpt lat="44.89573" lon="0.95531">
        <ele>84</ele>
        <time>2012-10-21T08:19:07Z</time>
      </trkpt>
      <trkpt lat="44.8957" lon="0.95524">
        <ele>86</ele>
        <time>2012-10-21T08:19:09Z</time>
      </trkpt>
      <trkpt lat="44.89568" lon="0.95518">
        <ele>88</ele>
        <time>2012-10-21T08:19:11Z</time>
      </trkpt>
      <trkpt lat="44.89565" lon="0.9551">
        <ele>89</ele>
        <time>2012-10-21T08:19:13Z</time>
      </trkpt>
      <trkpt lat="44.89565" lon="0.95502">
        <ele>90</ele>
        <time>2012-10-21T08:19:15Z</time>
      </trkpt>
      <trkpt lat="44.89563" lon="0.95493">
        <ele>91</ele>
        <time>2012-10-21T08:19:17Z</time>
      </trkpt>
      <trkpt lat="44.8956" lon="0.95484">
        <ele>92</ele>
        <time>2012-10-21T08:19:19Z</time>
      </trkpt>
      <trkpt lat="44.89559" lon="0.95475">
        <ele>92</ele>
        <time>2012-10-21T08:19:21Z</time>
      </trkpt>
      <trkpt lat="44.89557" lon="0.95465">
        <ele>92</ele>
        <time>2012-10-21T08:19:23Z</time>
      </trkpt>
      <trkpt lat="44.89555" lon="0.95457">
        <ele>92</ele>
        <time>2012-10-21T08:19:25Z</time>
      </trkpt>
      <trkpt lat="44.89553" lon="0.95447">
        <ele>92</ele>
        <time>2012-10-21T08:19:27Z</time>
      </trkpt>
      <trkpt lat="44.8955" lon="0.95437">
        <ele>92</ele>
        <time>2012-10-21T08:19:29Z</time>
      </trkpt>
      <trkpt lat="44.89547" lon="0.95428">
        <ele>92</ele>
        <time>2012-10-21T08:19:31Z</time>
      </trkpt>
      <trkpt lat="44.89545" lon="0.95418">
        <ele>92</ele>
        <time>2012-10-21T08:19:33Z</time>
      </trkpt>
      <trkpt lat="44.89542" lon="0.95409">
        <ele>92</ele>
        <time>2012-10-21T08:19:35Z</time>
      </trkpt>
      <trkpt lat="44.8954" lon="0.954">
        <ele>92</ele>
        <time>2012-10-21T08:19:37Z</time>
      </trkpt>
      <trkpt lat="44.89539" lon="0.95392">
        <ele>92</ele>
        <time>2012-10-21T08:19:39Z</time>
      </trkpt>
      <trkpt lat="44.89537" lon="0.95383">
        <ele>92</ele>
        <time>2012-10-21T08:19:41Z</time>
      </trkpt>
      <trkpt lat="44.89536" lon="0.95373">
        <ele>91</ele>
        <time>2012-10-21T08:19:43Z</time>
      </trkpt>
      <trkpt lat="44.89532" lon="0.95361">
        <ele>91</ele>
        <time>2012-10-21T08:19:45Z</time>
      </trkpt>
      <trkpt lat="44.8953" lon="0.95351">
        <ele>91</ele>
        <time>2012-10-21T08:19:47Z</time>
      </trkpt>
      <trkpt lat="44.89528" lon="0.95341">
        <ele>91</ele>
        <time>2012-10-21T08:19:49Z</time>
      </trkpt>
      <trkpt lat="44.89528" lon="0.95331">
        <ele>91</ele>
        <time>2012-10-21T08:19:51Z</time>
      </trkpt>
      <trkpt lat="44.89528" lon="0.95321">
        <ele>91</ele>
        <time>2012-10-21T08:19:53Z</time>
      </trkpt>
      <trkpt lat="44.89527" lon="0.9531">
        <ele>91</ele>
        <time>2012-10-21T08:19:55Z</time>
      </trkpt>
      <trkpt lat="44.89526" lon="0.95299">
        <ele>91</ele>
        <time>2012-10-21T08:19:57Z</time>
      </trkpt>
      <trkpt lat="44.89526" lon="0.95287">
        <ele>92</ele>
        <time>2012-10-21T08:19:59Z</time>
      </trkpt>
      <trkpt lat="44.89525" lon="0.95275">
        <ele>93</ele>
        <time>2012-10-21T08:20:01Z</time>
      </trkpt>
      <trkpt lat="44.89525" lon="0.95263">
        <ele>95</ele>
        <time>2012-10-21T08:20:03Z</time>
      </trkpt>
      <trkpt lat="44.89523" lon="0.95249">
        <ele>97</ele>
        <time>2012-10-21T08:20:05Z</time>
      </trkpt>
      <trkpt lat="44.89521" lon="0.95232">
        <ele>97</ele>
        <time>2012-10-21T08:20:07Z</time>
      </trkpt>
      <trkpt lat="44.89521" lon="0.95215">
        <ele>98</ele>
        <time>2012-10-21T08:20:09Z</time>
      </trkpt>
      <trkpt lat="44.8952" lon="0.95197">
        <ele>98</ele>
        <time>2012-10-21T08:20:11Z</time>
      </trkpt>
      <trkpt lat="44.89519" lon="0.95179">
        <ele>98</ele>
        <time>2012-10-21T08:20:13Z</time>
      </trkpt>
      <trkpt lat="44.89519" lon="0.95164">
        <ele>98</ele>
        <time>2012-10-21T08:20:15Z</time>
      </trkpt>
      <trkpt lat="44.8952" lon="0.95149">
        <ele>99</ele>
        <time>2012-10-21T08:20:17Z</time>
      </trkpt>
      <trkpt lat="44.8952" lon="0.95133">
        <ele>101</ele>
        <time>2012-10-21T08:20:19Z</time>
      </trkpt>
      <trkpt lat="44.89519" lon="0.95117">
        <ele>103</ele>
        <time>2012-10-21T08:20:21Z</time>
      </trkpt>
      <trkpt lat="44.8952" lon="0.95103">
        <ele>105</ele>
        <time>2012-10-21T08:20:23Z</time>
      </trkpt>
      <trkpt lat="44.89519" lon="0.95087">
        <ele>105</ele>
        <time>2012-10-21T08:20:25Z</time>
      </trkpt>
      <trkpt lat="44.89519" lon="0.95072">
        <ele>105</ele>
        <time>2012-10-21T08:20:27Z</time>
      </trkpt>
      <trkpt lat="44.89516" lon="0.95057">
        <ele>105</ele>
        <time>2012-10-21T08:20:29Z</time>
      </trkpt>
      <trkpt lat="44.89516" lon="0.95043">
        <ele>105</ele>
        <time>2012-10-21T08:20:31Z</time>
      </trkpt>
      <trkpt lat="44.89516" lon="0.95031">
        <ele>104</ele>
        <time>2012-10-21T08:20:33Z</time>
      </trkpt>
      <trkpt lat="44.89517" lon="0.95018">
        <ele>103</ele>
        <time>2012-10-21T08:20:35Z</time>
      </trkpt>
      <trkpt lat="44.89518" lon="0.95002">
        <ele>103</ele>
        <time>2012-10-21T08:20:37Z</time>
      </trkpt>
      <trkpt lat="44.89521" lon="0.94987">
        <ele>103</ele>
        <time>2012-10-21T08:20:39Z</time>
      </trkpt>
      <trkpt lat="44.89523" lon="0.94972">
        <ele>103</ele>
        <time>2012-10-21T08:20:41Z</time>
      </trkpt>
      <trkpt lat="44.89523" lon="0.94959">
        <ele>103</ele>
        <time>2012-10-21T08:20:43Z</time>
      </trkpt>
      <trkpt lat="44.89523" lon="0.94945">
        <ele>103</ele>
        <time>2012-10-21T08:20:45Z</time>
      </trkpt>
      <trkpt lat="44.89524" lon="0.94931">
        <ele>102</ele>
        <time>2012-10-21T08:20:47Z</time>
      </trkpt>
      <trkpt lat="44.89524" lon="0.94919">
        <ele>100</ele>
        <time>2012-10-21T08:20:49Z</time>
      </trkpt>
      <trkpt lat="44.89526" lon="0.94907">
        <ele>98</ele>
        <time>2012-10-21T08:20:51Z</time>
      </trkpt>
      <trkpt lat="44.89526" lon="0.94888">
        <ele>94</ele>
        <time>2012-10-21T08:20:53Z</time>
      </trkpt>
      <trkpt lat="44.89528" lon="0.94869">
        <ele>92</ele>
        <time>2012-10-21T08:20:55Z</time>
      </trkpt>
      <trkpt lat="44.89528" lon="0.94851">
        <ele>90</ele>
        <time>2012-10-21T08:20:57Z</time>
      </trkpt>
      <trkpt lat="44.89529" lon="0.94837">
        <ele>88</ele>
        <time>2012-10-21T08:20:59Z</time>
      </trkpt>
      <trkpt lat="44.89533" lon="0.94822">
        <ele>86</ele>
        <time>2012-10-21T08:21:01Z</time>
      </trkpt>
      <trkpt lat="44.89538" lon="0.94806">
        <ele>84</ele>
        <time>2012-10-21T08:21:03Z</time>
      </trkpt>
      <trkpt lat="44.89542" lon="0.94787">
        <ele>84</ele>
        <time>2012-10-21T08:21:05Z</time>
      </trkpt>
      <trkpt lat="44.89544" lon="0.94767">
        <ele>84</ele>
        <time>2012-10-21T08:21:07Z</time>
      </trkpt>
      <trkpt lat="44.89543" lon="0.94749">
        <ele>83</ele>
        <time>2012-10-21T08:21:09Z</time>
      </trkpt>
      <trkpt lat="44.89545" lon="0.94731">
        <ele>81</ele>
        <time>2012-10-21T08:21:11Z</time>
      </trkpt>
      <trkpt lat="44.89547" lon="0.94712">
        <ele>79</ele>
        <time>2012-10-21T08:21:13Z</time>
      </trkpt>
      <trkpt lat="44.8955" lon="0.94692">
        <ele>77</ele>
        <time>2012-10-21T08:21:15Z</time>
      </trkpt>
      <trkpt lat="44.89555" lon="0.94671">
        <ele>75</ele>
        <time>2012-10-21T08:21:17Z</time>
      </trkpt>
      <trkpt lat="44.89557" lon="0.94648">
        <ele>73</ele>
        <time>2012-10-21T08:21:19Z</time>
      </trkpt>
      <trkpt lat="44.89562" lon="0.94625">
        <ele>71</ele>
        <time>2012-10-21T08:21:21Z</time>
      </trkpt>
      <trkpt lat="44.89566" lon="0.94605">
        <ele>70</ele>
        <time>2012-10-21T08:21:23Z</time>
      </trkpt>
      <trkpt lat="44.8957" lon="0.94585">
        <ele>69</ele>
        <time>2012-10-21T08:21:25Z</time>
      </trkpt>
      <trkpt lat="44.89576" lon="0.94563">
        <ele>68</ele>
        <time>2012-10-21T08:21:27Z</time>
      </trkpt>
      <trkpt lat="44.89579" lon="0.94545">
        <ele>68</ele>
        <time>2012-10-21T08:21:29Z</time>
      </trkpt>
      <trkpt lat="44.89585" lon="0.94526">
        <ele>68</ele>
        <time>2012-10-21T08:21:31Z</time>
      </trkpt>
      <trkpt lat="44.89589" lon="0.9451">
        <ele>67</ele>
        <time>2012-10-21T08:21:33Z</time>
      </trkpt>
      <trkpt lat="44.89595" lon="0.94492">
        <ele>67</ele>
        <time>2012-10-21T08:21:35Z</time>
      </trkpt>
      <trkpt lat="44.89599" lon="0.94475">
        <ele>67</ele>
        <time>2012-10-21T08:21:37Z</time>
      </trkpt>
      <trkpt lat="44.89605" lon="0.94457">
        <ele>66</ele>
        <time>2012-10-21T08:21:39Z</time>
      </trkpt>
      <trkpt lat="44.89611" lon="0.94439">
        <ele>65</ele>
        <time>2012-10-21T08:21:41Z</time>
      </trkpt>
      <trkpt lat="44.89617" lon="0.94422">
        <ele>65</ele>
        <time>2012-10-21T08:21:43Z</time>
      </trkpt>
      <trkpt lat="44.89622" lon="0.94407">
        <ele>65</ele>
        <time>2012-10-21T08:21:45Z</time>
      </trkpt>
      <trkpt lat="44.89628" lon="0.94392">
        <ele>65</ele>
        <time>2012-10-21T08:21:47Z</time>
      </trkpt>
      <trkpt lat="44.89634" lon="0.94375">
        <ele>65</ele>
        <time>2012-10-21T08:21:49Z</time>
      </trkpt>
      <trkpt lat="44.8964" lon="0.94361">
        <ele>65</ele>
        <time>2012-10-21T08:21:51Z</time>
      </trkpt>
      <trkpt lat="44.89645" lon="0.94346">
        <ele>65</ele>
        <time>2012-10-21T08:21:53Z</time>
      </trkpt>
      <trkpt lat="44.89651" lon="0.94331">
        <ele>65</ele>
        <time>2012-10-21T08:21:55Z</time>
      </trkpt>
      <trkpt lat="44.89656" lon="0.94314">
        <ele>65</ele>
        <time>2012-10-21T08:21:57Z</time>
      </trkpt>
      <trkpt lat="44.89661" lon="0.94298">
        <ele>65</ele>
        <time>2012-10-21T08:21:59Z</time>
      </trkpt>
      <trkpt lat="44.89667" lon="0.94282">
        <ele>65</ele>
        <time>2012-10-21T08:22:01Z</time>
      </trkpt>
      <trkpt lat="44.89672" lon="0.94266">
        <ele>66</ele>
        <time>2012-10-21T08:22:03Z</time>
      </trkpt>
      <trkpt lat="44.89677" lon="0.94253">
        <ele>67</ele>
        <time>2012-10-21T08:22:05Z</time>
      </trkpt>
      <trkpt lat="44.89682" lon="0.94239">
        <ele>67</ele>
        <time>2012-10-21T08:22:07Z</time>
      </trkpt>
      <trkpt lat="44.89688" lon="0.94225">
        <ele>67</ele>
        <time>2012-10-21T08:22:09Z</time>
      </trkpt>
      <trkpt lat="44.89694" lon="0.94211">
        <ele>67</ele>
        <time>2012-10-21T08:22:11Z</time>
      </trkpt>
      <trkpt lat="44.897" lon="0.94197">
        <ele>67</ele>
        <time>2012-10-21T08:22:13Z</time>
      </trkpt>
      <trkpt lat="44.89704" lon="0.94185">
        <ele>67</ele>
        <time>2012-10-21T08:22:15Z</time>
      </trkpt>
      <trkpt lat="44.89708" lon="0.94174">
        <ele>67</ele>
        <time>2012-10-21T08:22:17Z</time>
      </trkpt>
      <trkpt lat="44.89713" lon="0.94165">
        <ele>67</ele>
        <time>2012-10-21T08:22:19Z</time>
      </trkpt>
      <trkpt lat="44.89717" lon="0.94154">
        <ele>67</ele>
        <time>2012-10-21T08:22:21Z</time>
      </trkpt>
      <trkpt lat="44.8972" lon="0.94147">
        <ele>67</ele>
        <time>2012-10-21T08:22:23Z</time>
      </trkpt>
      <trkpt lat="44.89724" lon="0.94139">
        <ele>67</ele>
        <time>2012-10-21T08:22:25Z</time>
      </trkpt>
      <trkpt lat="44.89728" lon="0.94127">
        <ele>67</ele>
        <time>2012-10-21T08:22:27Z</time>
      </trkpt>
      <trkpt lat="44.89732" lon="0.94116">
        <ele>67</ele>
        <time>2012-10-21T08:22:29Z</time>
      </trkpt>
      <trkpt lat="44.89737" lon="0.94106">
        <ele>67</ele>
        <time>2012-10-21T08:22:31Z</time>
      </trkpt>
      <trkpt lat="44.8974" lon="0.94098">
        <ele>67</ele>
        <time>2012-10-21T08:22:33Z</time>
      </trkpt>
      <trkpt lat="44.89741" lon="0.94098">
        <ele>68</ele>
        <time>2012-10-21T08:22:48Z</time>
      </trkpt>
      <trkpt lat="44.89741" lon="0.94101">
        <ele>68</ele>
        <time>2012-10-21T08:22:52Z</time>
      </trkpt>
      <trkpt lat="44.8974" lon="0.94104">
        <ele>68</ele>
        <time>2012-10-21T08:22:54Z</time>
      </trkpt>
      <trkpt lat="44.89738" lon="0.9411">
        <ele>68</ele>
        <time>2012-10-21T08:22:56Z</time>
      </trkpt>
      <trkpt lat="44.89735" lon="0.94117">
        <ele>68</ele>
        <time>2012-10-21T08:22:58Z</time>
      </trkpt>
      <trkpt lat="44.89733" lon="0.94126">
        <ele>68</ele>
        <time>2012-10-21T08:23:00Z</time>
      </trkpt>
      <trkpt lat="44.8973" lon="0.94136">
        <ele>68</ele>
        <time>2012-10-21T08:23:02Z</time>
      </trkpt>
      <trkpt lat="44.89727" lon="0.94144">
        <ele>68</ele>
        <time>2012-10-21T08:23:04Z</time>
      </trkpt>
      <trkpt lat="44.89722" lon="0.94149">
        <ele>68</ele>
        <time>2012-10-21T08:23:06Z</time>
      </trkpt>
      <trkpt lat="44.89719" lon="0.94152">
        <ele>67</ele>
        <time>2012-10-21T08:23:08Z</time>
      </trkpt>
      <trkpt lat="44.89717" lon="0.94152">
        <ele>67</ele>
        <time>2012-10-21T08:23:10Z</time>
      </trkpt>
      <trkpt lat="44.89716" lon="0.94153">
        <ele>67</ele>
        <time>2012-10-21T08:23:12Z</time>
      </trkpt>
      <trkpt lat="44.89717" lon="0.94155">
        <ele>67</ele>
        <time>2012-10-21T08:23:16Z</time>
      </trkpt>
      <trkpt lat="44.89719" lon="0.94155">
        <ele>67</ele>
        <time>2012-10-21T08:23:18Z</time>
      </trkpt>
      <trkpt lat="44.89719" lon="0.94153">
        <ele>67</ele>
        <time>2012-10-21T08:23:20Z</time>
      </trkpt>
      <trkpt lat="44.89718" lon="0.94152">
        <ele>65</ele>
        <time>2012-10-21T08:23:25Z</time>
      </trkpt>
      <trkpt lat="44.89719" lon="0.9415">
        <ele>64</ele>
        <time>2012-10-21T08:23:28Z</time>
      </trkpt>
      <trkpt lat="44.89722" lon="0.94147">
        <ele>62</ele>
        <time>2012-10-21T08:23:30Z</time>
      </trkpt>
      <trkpt lat="44.89724" lon="0.94141">
        <ele>60</ele>
        <time>2012-10-21T08:23:32Z</time>
      </trkpt>
      <trkpt lat="44.89728" lon="0.9413">
        <ele>59</ele>
        <time>2012-10-21T08:23:34Z</time>
      </trkpt>
      <trkpt lat="44.89733" lon="0.94117">
        <ele>59</ele>
        <time>2012-10-21T08:23:36Z</time>
      </trkpt>
      <trkpt lat="44.89739" lon="0.94105">
        <ele>59</ele>
        <time>2012-10-21T08:23:38Z</time>
      </trkpt>
      <trkpt lat="44.89745" lon="0.94093">
        <ele>59</ele>
        <time>2012-10-21T08:23:40Z</time>
      </trkpt>
      <trkpt lat="44.8975" lon="0.9408">
        <ele>59</ele>
        <time>2012-10-21T08:23:42Z</time>
      </trkpt>
      <trkpt lat="44.89754" lon="0.94069">
        <ele>59</ele>
        <time>2012-10-21T08:23:44Z</time>
      </trkpt>
      <trkpt lat="44.89758" lon="0.94057">
        <ele>59</ele>
        <time>2012-10-21T08:23:46Z</time>
      </trkpt>
      <trkpt lat="44.89763" lon="0.94042">
        <ele>59</ele>
        <time>2012-10-21T08:23:48Z</time>
      </trkpt>
      <trkpt lat="44.89768" lon="0.94024">
        <ele>59</ele>
        <time>2012-10-21T08:23:50Z</time>
      </trkpt>
      <trkpt lat="44.89774" lon="0.94007">
        <ele>59</ele>
        <time>2012-10-21T08:23:52Z</time>
      </trkpt>
      <trkpt lat="44.89779" lon="0.93995">
        <ele>59</ele>
        <time>2012-10-21T08:23:54Z</time>
      </trkpt>
      <trkpt lat="44.89782" lon="0.93984">
        <ele>59</ele>
        <time>2012-10-21T08:23:56Z</time>
      </trkpt>
      <trkpt lat="44.89786" lon="0.93971">
        <ele>59</ele>
        <time>2012-10-21T08:23:58Z</time>
      </trkpt>
      <trkpt lat="44.89795" lon="0.93961">
        <ele>59</ele>
        <time>2012-10-21T08:24:00Z</time>
      </trkpt>
      <trkpt lat="44.89803" lon="0.93953">
        <ele>59</ele>
        <time>2012-10-21T08:24:02Z</time>
      </trkpt>
      <trkpt lat="44.89808" lon="0.93946">
        <ele>59</ele>
        <time>2012-10-21T08:24:04Z</time>
      </trkpt>
      <trkpt lat="44.89814" lon="0.93937">
        <ele>59</ele>
        <time>2012-10-21T08:24:06Z</time>
      </trkpt>
      <trkpt lat="44.89822" lon="0.93928">
        <ele>59</ele>
        <time>2012-10-21T08:24:08Z</time>
      </trkpt>
      <trkpt lat="44.89828" lon="0.93918">
        <ele>59</ele>
        <time>2012-10-21T08:24:10Z</time>
      </trkpt>
      <trkpt lat="44.89834" lon="0.9391">
        <ele>59</ele>
        <time>2012-10-21T08:24:12Z</time>
      </trkpt>
      <trkpt lat="44.89842" lon="0.93903">
        <ele>59</ele>
        <time>2012-10-21T08:24:14Z</time>
      </trkpt>
      <trkpt lat="44.89851" lon="0.93896">
        <ele>59</ele>
        <time>2012-10-21T08:24:16Z</time>
      </trkpt>
      <trkpt lat="44.89861" lon="0.9389">
        <ele>59</ele>
        <time>2012-10-21T08:24:18Z</time>
      </trkpt>
      <trkpt lat="44.89871" lon="0.93883">
        <ele>59</ele>
        <time>2012-10-21T08:24:20Z</time>
      </trkpt>
      <trkpt lat="44.89878" lon="0.93875">
        <ele>59</ele>
        <time>2012-10-21T08:24:22Z</time>
      </trkpt>
      <trkpt lat="44.89882" lon="0.93867">
        <ele>59</ele>
        <time>2012-10-21T08:24:24Z</time>
      </trkpt>
      <trkpt lat="44.89882" lon="0.93856">
        <ele>59</ele>
        <time>2012-10-21T08:24:26Z</time>
      </trkpt>
      <trkpt lat="44.89878" lon="0.9384">
        <ele>60</ele>
        <time>2012-10-21T08:24:28Z</time>
      </trkpt>
      <trkpt lat="44.89876" lon="0.93825">
        <ele>62</ele>
        <time>2012-10-21T08:24:30Z</time>
      </trkpt>
      <trkpt lat="44.89875" lon="0.93811">
        <ele>63</ele>
        <time>2012-10-21T08:24:32Z</time>
      </trkpt>
      <trkpt lat="44.89876" lon="0.93797">
        <ele>63</ele>
        <time>2012-10-21T08:24:34Z</time>
      </trkpt>
      <trkpt lat="44.89878" lon="0.93784">
        <ele>64</ele>
        <time>2012-10-21T08:24:36Z</time>
      </trkpt>
      <trkpt lat="44.89881" lon="0.93775">
        <ele>64</ele>
        <time>2012-10-21T08:24:38Z</time>
      </trkpt>
      <trkpt lat="44.89882" lon="0.93766">
        <ele>65</ele>
        <time>2012-10-21T08:24:40Z</time>
      </trkpt>
      <trkpt lat="44.89885" lon="0.93759">
        <ele>65</ele>
        <time>2012-10-21T08:24:42Z</time>
      </trkpt>
      <trkpt lat="44.89889" lon="0.93753">
        <ele>65</ele>
        <time>2012-10-21T08:24:44Z</time>
      </trkpt>
      <trkpt lat="44.8989" lon="0.93748">
        <ele>65</ele>
        <time>2012-10-21T08:24:46Z</time>
      </trkpt>
      <trkpt lat="44.89893" lon="0.93745">
        <ele>65</ele>
        <time>2012-10-21T08:24:48Z</time>
      </trkpt>
      <trkpt lat="44.89896" lon="0.93741">
        <ele>65</ele>
        <time>2012-10-21T08:24:51Z</time>
      </trkpt>
      <trkpt lat="44.89899" lon="0.93739">
        <ele>65</ele>
        <time>2012-10-21T08:24:53Z</time>
      </trkpt>
      <trkpt lat="44.89904" lon="0.93735">
        <ele>65</ele>
        <time>2012-10-21T08:24:55Z</time>
      </trkpt>
      <trkpt lat="44.89907" lon="0.93733">
        <ele>65</ele>
        <time>2012-10-21T08:24:57Z</time>
      </trkpt>
      <trkpt lat="44.8991" lon="0.93731">
        <ele>65</ele>
        <time>2012-10-21T08:24:59Z</time>
      </trkpt>
      <trkpt lat="44.89914" lon="0.93729">
        <ele>65</ele>
        <time>2012-10-21T08:25:01Z</time>
      </trkpt>
      <trkpt lat="44.89918" lon="0.93726">
        <ele>65</ele>
        <time>2012-10-21T08:25:03Z</time>
      </trkpt>
      <trkpt lat="44.89923" lon="0.93725">
        <ele>66</ele>
        <time>2012-10-21T08:25:05Z</time>
      </trkpt>
      <trkpt lat="44.89927" lon="0.93722">
        <ele>68</ele>
        <time>2012-10-21T08:25:07Z</time>
      </trkpt>
      <trkpt lat="44.89931" lon="0.93719">
        <ele>68</ele>
        <time>2012-10-21T08:25:09Z</time>
      </trkpt>
      <trkpt lat="44.89935" lon="0.93716">
        <ele>68</ele>
        <time>2012-10-21T08:25:12Z</time>
      </trkpt>
      <trkpt lat="44.89939" lon="0.93714">
        <ele>68</ele>
        <time>2012-10-21T08:25:14Z</time>
      </trkpt>
      <trkpt lat="44.89942" lon="0.93712">
        <ele>68</ele>
        <time>2012-10-21T08:25:16Z</time>
      </trkpt>
      <trkpt lat="44.89945" lon="0.9371">
        <ele>68</ele>
        <time>2012-10-21T08:25:18Z</time>
      </trkpt>
      <trkpt lat="44.89947" lon="0.93708">
        <ele>69</ele>
        <time>2012-10-21T08:25:20Z</time>
      </trkpt>
      <trkpt lat="44.8995" lon="0.93706">
        <ele>70</ele>
        <time>2012-10-21T08:25:22Z</time>
      </trkpt>
      <trkpt lat="44.89952" lon="0.93702">
        <ele>71</ele>
        <time>2012-10-21T08:25:24Z</time>
      </trkpt>
      <trkpt lat="44.89954" lon="0.93699">
        <ele>72</ele>
        <time>2012-10-21T08:25:26Z</time>
      </trkpt>
      <trkpt lat="44.89956" lon="0.93697">
        <ele>73</ele>
        <time>2012-10-21T08:25:28Z</time>
      </trkpt>
      <trkpt lat="44.89957" lon="0.93694">
        <ele>74</ele>
        <time>2012-10-21T08:25:30Z</time>
      </trkpt>
      <trkpt lat="44.89957" lon="0.93691">
        <ele>75</ele>
        <time>2012-10-21T08:25:32Z</time>
      </trkpt>
      <trkpt lat="44.89957" lon="0.93686">
        <ele>76</ele>
        <time>2012-10-21T08:25:34Z</time>
      </trkpt>
      <trkpt lat="44.89957" lon="0.93682">
        <ele>77</ele>
        <time>2012-10-21T08:25:36Z</time>
      </trkpt>
      <trkpt lat="44.89956" lon="0.93678">
        <ele>78</ele>
        <time>2012-10-21T08:25:38Z</time>
      </trkpt>
      <trkpt lat="44.89957" lon="0.93672">
        <ele>78</ele>
        <time>2012-10-21T08:25:40Z</time>
      </trkpt>
      <trkpt lat="44.89955" lon="0.93666">
        <ele>78</ele>
        <time>2012-10-21T08:25:42Z</time>
      </trkpt>
      <trkpt lat="44.89953" lon="0.93658">
        <ele>78</ele>
        <time>2012-10-21T08:25:44Z</time>
      </trkpt>
      <trkpt lat="44.89951" lon="0.93648">
        <ele>78</ele>
        <time>2012-10-21T08:25:46Z</time>
      </trkpt>
      <trkpt lat="44.89949" lon="0.93637">
        <ele>78</ele>
        <time>2012-10-21T08:25:48Z</time>
      </trkpt>
      <trkpt lat="44.89946" lon="0.93625">
        <ele>78</ele>
        <time>2012-10-21T08:25:50Z</time>
      </trkpt>
      <trkpt lat="44.89945" lon="0.93611">
        <ele>76</ele>
        <time>2012-10-21T08:25:52Z</time>
      </trkpt>
      <trkpt lat="44.89946" lon="0.93596">
        <ele>74</ele>
        <time>2012-10-21T08:25:54Z</time>
      </trkpt>
      <trkpt lat="44.89949" lon="0.93584">
        <ele>72</ele>
        <time>2012-10-21T08:25:56Z</time>
      </trkpt>
      <trkpt lat="44.89957" lon="0.93578">
        <ele>71</ele>
        <time>2012-10-21T08:25:58Z</time>
      </trkpt>
      <trkpt lat="44.89965" lon="0.93576">
        <ele>70</ele>
        <time>2012-10-21T08:26:00Z</time>
      </trkpt>
      <trkpt lat="44.89973" lon="0.93576">
        <ele>70</ele>
        <time>2012-10-21T08:26:02Z</time>
      </trkpt>
      <trkpt lat="44.8998" lon="0.93575">
        <ele>70</ele>
        <time>2012-10-21T08:26:04Z</time>
      </trkpt>
      <trkpt lat="44.89986" lon="0.93575">
        <ele>70</ele>
        <time>2012-10-21T08:26:06Z</time>
      </trkpt>
      <trkpt lat="44.89992" lon="0.93572">
        <ele>70</ele>
        <time>2012-10-21T08:26:08Z</time>
      </trkpt>
      <trkpt lat="44.89997" lon="0.93569">
        <ele>70</ele>
        <time>2012-10-21T08:26:10Z</time>
      </trkpt>
      <trkpt lat="44.90002" lon="0.93567">
        <ele>70</ele>
        <time>2012-10-21T08:26:12Z</time>
      </trkpt>
      <trkpt lat="44.90004" lon="0.93567">
        <ele>71</ele>
        <time>2012-10-21T08:26:14Z</time>
      </trkpt>
      <trkpt lat="44.90008" lon="0.93567">
        <ele>72</ele>
        <time>2012-10-21T08:26:16Z</time>
      </trkpt>
      <trkpt lat="44.90012" lon="0.93566">
        <ele>73</ele>
        <time>2012-10-21T08:26:18Z</time>
      </trkpt>
      <trkpt lat="44.90015" lon="0.93566">
        <ele>74</ele>
        <time>2012-10-21T08:26:20Z</time>
      </trkpt>
      <trkpt lat="44.90019" lon="0.93563">
        <ele>75</ele>
        <time>2012-10-21T08:26:22Z</time>
      </trkpt>
      <trkpt lat="44.90023" lon="0.9356">
        <ele>76</ele>
        <time>2012-10-21T08:26:24Z</time>
      </trkpt>
      <trkpt lat="44.90026" lon="0.93554">
        <ele>78</ele>
        <time>2012-10-21T08:26:26Z</time>
      </trkpt>
      <trkpt lat="44.90029" lon="0.93549">
        <ele>80</ele>
        <time>2012-10-21T08:26:28Z</time>
      </trkpt>
      <trkpt lat="44.90031" lon="0.93545">
        <ele>81</ele>
        <time>2012-10-21T08:26:30Z</time>
      </trkpt>
      <trkpt lat="44.90035" lon="0.9354">
        <ele>83</ele>
        <time>2012-10-21T08:26:32Z</time>
      </trkpt>
      <trkpt lat="44.90037" lon="0.93536">
        <ele>84</ele>
        <time>2012-10-21T08:26:34Z</time>
      </trkpt>
      <trkpt lat="44.90039" lon="0.93532">
        <ele>84</ele>
        <time>2012-10-21T08:26:36Z</time>
      </trkpt>
      <trkpt lat="44.9004" lon="0.93527">
        <ele>84</ele>
        <time>2012-10-21T08:26:38Z</time>
      </trkpt>
      <trkpt lat="44.90042" lon="0.93522">
        <ele>84</ele>
        <time>2012-10-21T08:26:40Z</time>
      </trkpt>
      <trkpt lat="44.90044" lon="0.93517">
        <ele>84</ele>
        <time>2012-10-21T08:26:42Z</time>
      </trkpt>
      <trkpt lat="44.90048" lon="0.93511">
        <ele>84</ele>
        <time>2012-10-21T08:26:44Z</time>
      </trkpt>
      <trkpt lat="44.90052" lon="0.93505">
        <ele>84</ele>
        <time>2012-10-21T08:26:46Z</time>
      </trkpt>
      <trkpt lat="44.90055" lon="0.93497">
        <ele>84</ele>
        <time>2012-10-21T08:26:48Z</time>
      </trkpt>
      <trkpt lat="44.90058" lon="0.93488">
        <ele>83</ele>
        <time>2012-10-21T08:26:50Z</time>
      </trkpt>
      <trkpt lat="44.90061" lon="0.93479">
        <ele>82</ele>
        <time>2012-10-21T08:26:52Z</time>
      </trkpt>
      <trkpt lat="44.90065" lon="0.93469">
        <ele>81</ele>
        <time>2012-10-21T08:26:54Z</time>
      </trkpt>
      <trkpt lat="44.90069" lon="0.93459">
        <ele>80</ele>
        <time>2012-10-21T08:26:56Z</time>
      </trkpt>
      <trkpt lat="44.90074" lon="0.93447">
        <ele>79</ele>
        <time>2012-10-21T08:26:58Z</time>
      </trkpt>
      <trkpt lat="44.90079" lon="0.93435">
        <ele>78</ele>
        <time>2012-10-21T08:27:00Z</time>
      </trkpt>
      <trkpt lat="44.90084" lon="0.93423">
        <ele>76</ele>
        <time>2012-10-21T08:27:02Z</time>
      </trkpt>
      <trkpt lat="44.9009" lon="0.9341">
        <ele>75</ele>
        <time>2012-10-21T08:27:04Z</time>
      </trkpt>
      <trkpt lat="44.90096" lon="0.93398">
        <ele>75</ele>
        <time>2012-10-21T08:27:06Z</time>
      </trkpt>
      <trkpt lat="44.90104" lon="0.93387">
        <ele>75</ele>
        <time>2012-10-21T08:27:08Z</time>
      </trkpt>
      <trkpt lat="44.9011" lon="0.93377">
        <ele>75</ele>
        <time>2012-10-21T08:27:10Z</time>
      </trkpt>
      <trkpt lat="44.90117" lon="0.93368">
        <ele>74</ele>
        <time>2012-10-21T08:27:12Z</time>
      </trkpt>
      <trkpt lat="44.90125" lon="0.93357">
        <ele>74</ele>
        <time>2012-10-21T08:27:14Z</time>
      </trkpt>
      <trkpt lat="44.90133" lon="0.93348">
        <ele>74</ele>
        <time>2012-10-21T08:27:16Z</time>
      </trkpt>
      <trkpt lat="44.90138" lon="0.93341">
        <ele>74</ele>
        <time>2012-10-21T08:27:18Z</time>
      </trkpt>
      <trkpt lat="44.90143" lon="0.93335">
        <ele>74</ele>
        <time>2012-10-21T08:27:20Z</time>
      </trkpt>
      <trkpt lat="44.90151" lon="0.93329">
        <ele>74</ele>
        <time>2012-10-21T08:27:22Z</time>
      </trkpt>
      <trkpt lat="44.9016" lon="0.93323">
        <ele>73</ele>
        <time>2012-10-21T08:27:24Z</time>
      </trkpt>
      <trkpt lat="44.90171" lon="0.93318">
        <ele>72</ele>
        <time>2012-10-21T08:27:26Z</time>
      </trkpt>
      <trkpt lat="44.90181" lon="0.93311">
        <ele>71</ele>
        <time>2012-10-21T08:27:28Z</time>
      </trkpt>
      <trkpt lat="44.90193" lon="0.93304">
        <ele>70</ele>
        <time>2012-10-21T08:27:30Z</time>
      </trkpt>
      <trkpt lat="44.90205" lon="0.93296">
        <ele>69</ele>
        <time>2012-10-21T08:27:32Z</time>
      </trkpt>
      <trkpt lat="44.90217" lon="0.93288">
        <ele>68</ele>
        <time>2012-10-21T08:27:34Z</time>
      </trkpt>
      <trkpt lat="44.90229" lon="0.9328">
        <ele>67</ele>
        <time>2012-10-21T08:27:36Z</time>
      </trkpt>
      <trkpt lat="44.9024" lon="0.93272">
        <ele>67</ele>
        <time>2012-10-21T08:27:38Z</time>
      </trkpt>
      <trkpt lat="44.90252" lon="0.93264">
        <ele>66</ele>
        <time>2012-10-21T08:27:40Z</time>
      </trkpt>
      <trkpt lat="44.90263" lon="0.93257">
        <ele>65</ele>
        <time>2012-10-21T08:27:42Z</time>
      </trkpt>
      <trkpt lat="44.90275" lon="0.93249">
        <ele>65</ele>
        <time>2012-10-21T08:27:44Z</time>
      </trkpt>
      <trkpt lat="44.90286" lon="0.93241">
        <ele>64</ele>
        <time>2012-10-21T08:27:46Z</time>
      </trkpt>
      <trkpt lat="44.90298" lon="0.93233">
        <ele>63</ele>
        <time>2012-10-21T08:27:48Z</time>
      </trkpt>
      <trkpt lat="44.9031" lon="0.93226">
        <ele>63</ele>
        <time>2012-10-21T08:27:50Z</time>
      </trkpt>
      <trkpt lat="44.90319" lon="0.9322">
        <ele>63</ele>
        <time>2012-10-21T08:27:52Z</time>
      </trkpt>
      <trkpt lat="44.90328" lon="0.93216">
        <ele>63</ele>
        <time>2012-10-21T08:27:54Z</time>
      </trkpt>
      <trkpt lat="44.90338" lon="0.93211">
        <ele>63</ele>
        <time>2012-10-21T08:27:56Z</time>
      </trkpt>
      <trkpt lat="44.90348" lon="0.93206">
        <ele>63</ele>
        <time>2012-10-21T08:27:58Z</time>
      </trkpt>
      <trkpt lat="44.90359" lon="0.93201">
        <ele>63</ele>
        <time>2012-10-21T08:28:00Z</time>
      </trkpt>
      <trkpt lat="44.9037" lon="0.93196">
        <ele>63</ele>
        <time>2012-10-21T08:28:02Z</time>
      </trkpt>
      <trkpt lat="44.90381" lon="0.93191">
        <ele>63</ele>
        <time>2012-10-21T08:28:04Z</time>
      </trkpt>
      <trkpt lat="44.90392" lon="0.93186">
        <ele>63</ele>
        <time>2012-10-21T08:28:06Z</time>
      </trkpt>
      <trkpt lat="44.90403" lon="0.93181">
        <ele>63</ele>
        <time>2012-10-21T08:28:08Z</time>
      </trkpt>
      <trkpt lat="44.90415" lon="0.93175">
        <ele>63</ele>
        <time>2012-10-21T08:28:10Z</time>
      </trkpt>
      <trkpt lat="44.90427" lon="0.93169">
        <ele>63</ele>
        <time>2012-10-21T08:28:12Z</time>
      </trkpt>
      <trkpt lat="44.90441" lon="0.93164">
        <ele>63</ele>
        <time>2012-10-21T08:28:14Z</time>
      </trkpt>
      <trkpt lat="44.90455" lon="0.93158">
        <ele>63</ele>
        <time>2012-10-21T08:28:16Z</time>
      </trkpt>
      <trkpt lat="44.90471" lon="0.93155">
        <ele>63</ele>
        <time>2012-10-21T08:28:18Z</time>
      </trkpt>
      <trkpt lat="44.90488" lon="0.93155">
        <ele>63</ele>
        <time>2012-10-21T08:28:20Z</time>
      </trkpt>
      <trkpt lat="44.90504" lon="0.93155">
        <ele>63</ele>
        <time>2012-10-21T08:28:22Z</time>
      </trkpt>
      <trkpt lat="44.9052" lon="0.93158">
        <ele>63</ele>
        <time>2012-10-21T08:28:24Z</time>
      </trkpt>
      <trkpt lat="44.90535" lon="0.9316">
        <ele>63</ele>
        <time>2012-10-21T08:28:26Z</time>
      </trkpt>
      <trkpt lat="44.90551" lon="0.93162">
        <ele>63</ele>
        <time>2012-10-21T08:28:28Z</time>
      </trkpt>
      <trkpt lat="44.90566" lon="0.93163">
        <ele>63</ele>
        <time>2012-10-21T08:28:30Z</time>
      </trkpt>
      <trkpt lat="44.90581" lon="0.93165">
        <ele>63</ele>
        <time>2012-10-21T08:28:32Z</time>
      </trkpt>
      <trkpt lat="44.90596" lon="0.93165">
        <ele>63</ele>
        <time>2012-10-21T08:28:34Z</time>
      </trkpt>
      <trkpt lat="44.90612" lon="0.93164">
        <ele>63</ele>
        <time>2012-10-21T08:28:36Z</time>
      </trkpt>
      <trkpt lat="44.90626" lon="0.93157">
        <ele>63</ele>
        <time>2012-10-21T08:28:38Z</time>
      </trkpt>
      <trkpt lat="44.90637" lon="0.93148">
        <ele>63</ele>
        <time>2012-10-21T08:28:40Z</time>
      </trkpt>
      <trkpt lat="44.90646" lon="0.9314">
        <ele>63</ele>
        <time>2012-10-21T08:28:42Z</time>
      </trkpt>
      <trkpt lat="44.90652" lon="0.93133">
        <ele>63</ele>
        <time>2012-10-21T08:28:44Z</time>
      </trkpt>
      <trkpt lat="44.90652" lon="0.93121">
        <ele>62</ele>
        <time>2012-10-21T08:28:46Z</time>
      </trkpt>
      <trkpt lat="44.90647" lon="0.93108">
        <ele>61</ele>
        <time>2012-10-21T08:28:48Z</time>
      </trkpt>
      <trkpt lat="44.9064" lon="0.93096">
        <ele>61</ele>
        <time>2012-10-21T08:28:50Z</time>
      </trkpt>
      <trkpt lat="44.9063" lon="0.93087">
        <ele>61</ele>
        <time>2012-10-21T08:28:52Z</time>
      </trkpt>
      <trkpt lat="44.90619" lon="0.93078">
        <ele>61</ele>
        <time>2012-10-21T08:28:54Z</time>
      </trkpt>
      <trkpt lat="44.9061" lon="0.93066">
        <ele>61</ele>
        <time>2012-10-21T08:28:56Z</time>
      </trkpt>
      <trkpt lat="44.90602" lon="0.93052">
        <ele>61</ele>
        <time>2012-10-21T08:28:58Z</time>
      </trkpt>
      <trkpt lat="44.90595" lon="0.93037">
        <ele>61</ele>
        <time>2012-10-21T08:29:00Z</time>
      </trkpt>
      <trkpt lat="44.90588" lon="0.93023">
        <ele>61</ele>
        <time>2012-10-21T08:29:02Z</time>
      </trkpt>
      <trkpt lat="44.90582" lon="0.93008">
        <ele>61</ele>
        <time>2012-10-21T08:29:04Z</time>
      </trkpt>
      <trkpt lat="44.90575" lon="0.92993">
        <ele>61</ele>
        <time>2012-10-21T08:29:06Z</time>
      </trkpt>
      <trkpt lat="44.90568" lon="0.92979">
        <ele>61</ele>
        <time>2012-10-21T08:29:08Z</time>
      </trkpt>
      <trkpt lat="44.90563" lon="0.92966">
        <ele>61</ele>
        <time>2012-10-21T08:29:10Z</time>
      </trkpt>
      <trkpt lat="44.90563" lon="0.92961">
        <ele>61</ele>
        <time>2012-10-21T08:29:12Z</time>
      </trkpt>
      <trkpt lat="44.90568" lon="0.92958">
        <ele>61</ele>
        <time>2012-10-21T08:29:14Z</time>
      </trkpt>
      <trkpt lat="44.90575" lon="0.92953">
        <ele>61</ele>
        <time>2012-10-21T08:29:16Z</time>
      </trkpt>
      <trkpt lat="44.90583" lon="0.92949">
        <ele>61</ele>
        <time>2012-10-21T08:29:18Z</time>
      </trkpt>
      <trkpt lat="44.9059" lon="0.92942">
        <ele>61</ele>
        <time>2012-10-21T08:29:20Z</time>
      </trkpt>
      <trkpt lat="44.90598" lon="0.92936">
        <ele>61</ele>
        <time>2012-10-21T08:29:22Z</time>
      </trkpt>
      <trkpt lat="44.90605" lon="0.92928">
        <ele>61</ele>
        <time>2012-10-21T08:29:24Z</time>
      </trkpt>
      <trkpt lat="44.90613" lon="0.92921">
        <ele>61</ele>
        <time>2012-10-21T08:29:26Z</time>
      </trkpt>
      <trkpt lat="44.90622" lon="0.92914">
        <ele>61</ele>
        <time>2012-10-21T08:29:28Z</time>
      </trkpt>
      <trkpt lat="44.90631" lon="0.92907">
        <ele>61</ele>
        <time>2012-10-21T08:29:30Z</time>
      </trkpt>
      <trkpt lat="44.90642" lon="0.92904">
        <ele>61</ele>
        <time>2012-10-21T08:29:32Z</time>
      </trkpt>
      <trkpt lat="44.90652" lon="0.92905">
        <ele>61</ele>
        <time>2012-10-21T08:29:34Z</time>
      </trkpt>
      <trkpt lat="44.90661" lon="0.9291">
        <ele>61</ele>
        <time>2012-10-21T08:29:36Z</time>
      </trkpt>
      <trkpt lat="44.9067" lon="0.92915">
        <ele>61</ele>
        <time>2012-10-21T08:29:38Z</time>
      </trkpt>
      <trkpt lat="44.90678" lon="0.92921">
        <ele>61</ele>
        <time>2012-10-21T08:29:40Z</time>
      </trkpt>
      <trkpt lat="44.90685" lon="0.92928">
        <ele>61</ele>
        <time>2012-10-21T08:29:42Z</time>
      </trkpt>
      <trkpt lat="44.90693" lon="0.92936">
        <ele>61</ele>
        <time>2012-10-21T08:29:44Z</time>
      </trkpt>
      <trkpt lat="44.907" lon="0.92943">
        <ele>61</ele>
        <time>2012-10-21T08:29:46Z</time>
      </trkpt>
      <trkpt lat="44.90708" lon="0.9295">
        <ele>61</ele>
        <time>2012-10-21T08:29:48Z</time>
      </trkpt>
      <trkpt lat="44.90717" lon="0.92955">
        <ele>61</ele>
        <time>2012-10-21T08:29:50Z</time>
      </trkpt>
      <trkpt lat="44.90726" lon="0.92955">
        <ele>61</ele>
        <time>2012-10-21T08:29:52Z</time>
      </trkpt>
      <trkpt lat="44.90735" lon="0.92952">
        <ele>61</ele>
        <time>2012-10-21T08:29:54Z</time>
      </trkpt>
      <trkpt lat="44.90744" lon="0.92946">
        <ele>61</ele>
        <time>2012-10-21T08:29:56Z</time>
      </trkpt>
      <trkpt lat="44.90752" lon="0.9294">
        <ele>61</ele>
        <time>2012-10-21T08:29:58Z</time>
      </trkpt>
      <trkpt lat="44.90761" lon="0.92933">
        <ele>61</ele>
        <time>2012-10-21T08:30:00Z</time>
      </trkpt>
      <trkpt lat="44.9077" lon="0.92927">
        <ele>61</ele>
        <time>2012-10-21T08:30:02Z</time>
      </trkpt>
      <trkpt lat="44.90778" lon="0.9292">
        <ele>61</ele>
        <time>2012-10-21T08:30:04Z</time>
      </trkpt>
      <trkpt lat="44.90787" lon="0.92912">
        <ele>61</ele>
        <time>2012-10-21T08:30:06Z</time>
      </trkpt>
      <trkpt lat="44.90795" lon="0.92904">
        <ele>61</ele>
        <time>2012-10-21T08:30:08Z</time>
      </trkpt>
      <trkpt lat="44.90803" lon="0.92896">
        <ele>61</ele>
        <time>2012-10-21T08:30:10Z</time>
      </trkpt>
      <trkpt lat="44.9081" lon="0.92893">
        <ele>61</ele>
        <time>2012-10-21T08:30:12Z</time>
      </trkpt>
      <trkpt lat="44.90816" lon="0.92892">
        <ele>61</ele>
        <time>2012-10-21T08:30:14Z</time>
      </trkpt>
      <trkpt lat="44.90822" lon="0.92889">
        <ele>61</ele>
        <time>2012-10-21T08:30:16Z</time>
      </trkpt>
      <trkpt lat="44.90827" lon="0.92886">
        <ele>61</ele>
        <time>2012-10-21T08:30:18Z</time>
      </trkpt>
      <trkpt lat="44.90832" lon="0.92882">
        <ele>61</ele>
        <time>2012-10-21T08:30:20Z</time>
      </trkpt>
      <trkpt lat="44.90837" lon="0.92877">
        <ele>61</ele>
        <time>2012-10-21T08:30:22Z</time>
      </trkpt>
      <trkpt lat="44.90842" lon="0.92873">
        <ele>61</ele>
        <time>2012-10-21T08:30:24Z</time>
      </trkpt>
      <trkpt lat="44.90846" lon="0.9287">
        <ele>61</ele>
        <time>2012-10-21T08:30:26Z</time>
      </trkpt>
      <trkpt lat="44.9085" lon="0.92867">
        <ele>61</ele>
        <time>2012-10-21T08:30:28Z</time>
      </trkpt>
      <trkpt lat="44.90853" lon="0.92865">
        <ele>61</ele>
        <time>2012-10-21T08:30:30Z</time>
      </trkpt>
      <trkpt lat="44.90855" lon="0.92863">
        <ele>61</ele>
        <time>2012-10-21T08:30:33Z</time>
      </trkpt>
      <trkpt lat="44.90856" lon="0.92862">
        <ele>60</ele>
        <time>2012-10-21T08:30:43Z</time>
      </trkpt>
      <trkpt lat="44.90858" lon="0.92861">
        <ele>60</ele>
        <time>2012-10-21T08:30:45Z</time>
      </trkpt>
      <trkpt lat="44.90857" lon="0.92861">
        <ele>60</ele>
        <time>2012-10-21T08:30:47Z</time>
      </trkpt>
      <trkpt lat="44.90855" lon="0.92862">
        <ele>60</ele>
        <time>2012-10-21T08:30:51Z</time>
      </trkpt>
      <trkpt lat="44.90855" lon="0.92864">
        <ele>57</ele>
        <time>2012-10-21T08:31:01Z</time>
      </trkpt>
      <trkpt lat="44.90854" lon="0.92864">
        <ele>53</ele>
        <time>2012-10-21T08:31:08Z</time>
      </trkpt>
      <trkpt lat="44.90854" lon="0.92864">
        <ele>53</ele>
        <time>2012-10-21T08:31:10Z</time>
      </trkpt>
    </trkseg>
  </trk>
</gpx>